<?xml version="1.0" encoding="UTF-8" standalone="no" ?>
<gpx xmlns="http://www.topografix.com/GPX/1/1" xmlns:xsi="http://www.w3.org/2001/XMLSchema-instance" xsi:schemaLocation="http://www.topografix.com/GPX/1/1 http://www.topografix.com/GPX/1/1/gpx.xsd" version="1.1" creator="VisuGPX - https://www.visugpx.com">
  <metadata>
    <name>Sortie Castelnau de Guers 2014-10-08</name>
    <desc><![CDATA[Sortie découverte, à la recherche de nouvelles traces !!!]]></desc>
  </metadata>
  <trk>
    <name><![CDATA[Sortie Castelnau de Guers 2014-10-08_1]]></name>
    <trkseg>
      <trkpt lat="43.45321" lon="3.42085">
        <ele>63</ele>
        <time>2014-10-08T11:22:37.000Z</time>
      </trkpt>
      <trkpt lat="43.45319" lon="3.42054">
        <ele>66</ele>
        <time>2014-10-08T11:23:21.000Z</time>
      </trkpt>
      <trkpt lat="43.45324" lon="3.42044">
        <ele>65</ele>
        <time>2014-10-08T11:23:25.000Z</time>
      </trkpt>
      <trkpt lat="43.45331" lon="3.42044">
        <ele>66</ele>
        <time>2014-10-08T11:23:29.000Z</time>
      </trkpt>
      <trkpt lat="43.45339" lon="3.42051">
        <ele>66</ele>
        <time>2014-10-08T11:23:33.000Z</time>
      </trkpt>
      <trkpt lat="43.45346" lon="3.42062">
        <ele>68</ele>
        <time>2014-10-08T11:23:37.000Z</time>
      </trkpt>
      <trkpt lat="43.45352" lon="3.42068">
        <ele>68</ele>
        <time>2014-10-08T11:23:39.000Z</time>
      </trkpt>
      <trkpt lat="43.45358" lon="3.42074">
        <ele>66</ele>
        <time>2014-10-08T11:23:41.000Z</time>
      </trkpt>
      <trkpt lat="43.45365" lon="3.42081">
        <ele>65</ele>
        <time>2014-10-08T11:23:43.000Z</time>
      </trkpt>
      <trkpt lat="43.45371" lon="3.42088">
        <ele>66</ele>
        <time>2014-10-08T11:23:45.000Z</time>
      </trkpt>
      <trkpt lat="43.45377" lon="3.42094">
        <ele>66</ele>
        <time>2014-10-08T11:23:47.000Z</time>
      </trkpt>
      <trkpt lat="43.45382" lon="3.42102">
        <ele>66</ele>
        <time>2014-10-08T11:23:49.000Z</time>
      </trkpt>
      <trkpt lat="43.45386" lon="3.42109">
        <ele>67</ele>
        <time>2014-10-08T11:23:51.000Z</time>
      </trkpt>
      <trkpt lat="43.45391" lon="3.42117">
        <ele>67</ele>
        <time>2014-10-08T11:23:53.000Z</time>
      </trkpt>
      <trkpt lat="43.45398" lon="3.42126">
        <ele>65</ele>
        <time>2014-10-08T11:23:55.000Z</time>
      </trkpt>
      <trkpt lat="43.45404" lon="3.42134">
        <ele>67</ele>
        <time>2014-10-08T11:23:57.000Z</time>
      </trkpt>
      <trkpt lat="43.4541" lon="3.42142">
        <ele>65</ele>
        <time>2014-10-08T11:23:59.000Z</time>
      </trkpt>
      <trkpt lat="43.45415" lon="3.4215">
        <ele>67</ele>
        <time>2014-10-08T11:24:01.000Z</time>
      </trkpt>
      <trkpt lat="43.4542" lon="3.42157">
        <ele>69</ele>
        <time>2014-10-08T11:24:03.000Z</time>
      </trkpt>
      <trkpt lat="43.45427" lon="3.42165">
        <ele>69</ele>
        <time>2014-10-08T11:24:05.000Z</time>
      </trkpt>
      <trkpt lat="43.45433" lon="3.42174">
        <ele>69</ele>
        <time>2014-10-08T11:24:07.000Z</time>
      </trkpt>
      <trkpt lat="43.4544" lon="3.42182">
        <ele>67</ele>
        <time>2014-10-08T11:24:09.000Z</time>
      </trkpt>
      <trkpt lat="43.45446" lon="3.4219">
        <ele>67</ele>
        <time>2014-10-08T11:24:11.000Z</time>
      </trkpt>
      <trkpt lat="43.45452" lon="3.42197">
        <ele>68</ele>
        <time>2014-10-08T11:24:13.000Z</time>
      </trkpt>
      <trkpt lat="43.45457" lon="3.42206">
        <ele>67</ele>
        <time>2014-10-08T11:24:15.000Z</time>
      </trkpt>
      <trkpt lat="43.45458" lon="3.42216">
        <ele>66</ele>
        <time>2014-10-08T11:24:17.000Z</time>
      </trkpt>
      <trkpt lat="43.45454" lon="3.42225">
        <ele>65</ele>
        <time>2014-10-08T11:24:19.000Z</time>
      </trkpt>
      <trkpt lat="43.45448" lon="3.42232">
        <ele>67</ele>
        <time>2014-10-08T11:24:21.000Z</time>
      </trkpt>
      <trkpt lat="43.45446" lon="3.42242">
        <ele>66</ele>
        <time>2014-10-08T11:24:23.000Z</time>
      </trkpt>
      <trkpt lat="43.45449" lon="3.4225">
        <ele>68</ele>
        <time>2014-10-08T11:24:25.000Z</time>
      </trkpt>
      <trkpt lat="43.45449" lon="3.4225">
        <ele>68</ele>
        <time>2014-10-08T11:24:27.000Z</time>
      </trkpt>
      <trkpt lat="43.45446" lon="3.42264">
        <ele>70</ele>
        <time>2014-10-08T11:24:29.000Z</time>
      </trkpt>
      <trkpt lat="43.45441" lon="3.4227">
        <ele>70</ele>
        <time>2014-10-08T11:24:31.000Z</time>
      </trkpt>
      <trkpt lat="43.45436" lon="3.42277">
        <ele>71</ele>
        <time>2014-10-08T11:24:33.000Z</time>
      </trkpt>
      <trkpt lat="43.45432" lon="3.42283">
        <ele>72</ele>
        <time>2014-10-08T11:24:35.000Z</time>
      </trkpt>
      <trkpt lat="43.45426" lon="3.42288">
        <ele>71</ele>
        <time>2014-10-08T11:24:37.000Z</time>
      </trkpt>
      <trkpt lat="43.4542" lon="3.42293">
        <ele>71</ele>
        <time>2014-10-08T11:24:39.000Z</time>
      </trkpt>
      <trkpt lat="43.4542" lon="3.42305">
        <ele>65</ele>
        <time>2014-10-08T11:24:41.000Z</time>
      </trkpt>
      <trkpt lat="43.45425" lon="3.42316">
        <ele>64</ele>
        <time>2014-10-08T11:24:43.000Z</time>
      </trkpt>
      <trkpt lat="43.45431" lon="3.42325">
        <ele>65</ele>
        <time>2014-10-08T11:24:45.000Z</time>
      </trkpt>
      <trkpt lat="43.45436" lon="3.42333">
        <ele>67</ele>
        <time>2014-10-08T11:24:47.000Z</time>
      </trkpt>
      <trkpt lat="43.45442" lon="3.42341">
        <ele>66</ele>
        <time>2014-10-08T11:24:49.000Z</time>
      </trkpt>
      <trkpt lat="43.45448" lon="3.4235">
        <ele>65</ele>
        <time>2014-10-08T11:24:51.000Z</time>
      </trkpt>
      <trkpt lat="43.45454" lon="3.42359">
        <ele>64</ele>
        <time>2014-10-08T11:24:53.000Z</time>
      </trkpt>
      <trkpt lat="43.4546" lon="3.42368">
        <ele>65</ele>
        <time>2014-10-08T11:24:55.000Z</time>
      </trkpt>
      <trkpt lat="43.45466" lon="3.42377">
        <ele>65</ele>
        <time>2014-10-08T11:24:57.000Z</time>
      </trkpt>
      <trkpt lat="43.45471" lon="3.42385">
        <ele>64</ele>
        <time>2014-10-08T11:24:59.000Z</time>
      </trkpt>
      <trkpt lat="43.45476" lon="3.42394">
        <ele>62</ele>
        <time>2014-10-08T11:25:01.000Z</time>
      </trkpt>
      <trkpt lat="43.45481" lon="3.42403">
        <ele>60</ele>
        <time>2014-10-08T11:25:03.000Z</time>
      </trkpt>
      <trkpt lat="43.45485" lon="3.42411">
        <ele>60</ele>
        <time>2014-10-08T11:25:05.000Z</time>
      </trkpt>
      <trkpt lat="43.45489" lon="3.4242">
        <ele>56</ele>
        <time>2014-10-08T11:25:07.000Z</time>
      </trkpt>
      <trkpt lat="43.45489" lon="3.4242">
        <ele>56</ele>
        <time>2014-10-08T11:25:09.000Z</time>
      </trkpt>
      <trkpt lat="43.45498" lon="3.42431">
        <ele>55</ele>
        <time>2014-10-08T11:25:11.000Z</time>
      </trkpt>
      <trkpt lat="43.45505" lon="3.4244">
        <ele>55</ele>
        <time>2014-10-08T11:25:13.000Z</time>
      </trkpt>
      <trkpt lat="43.45514" lon="3.42449">
        <ele>53</ele>
        <time>2014-10-08T11:25:15.000Z</time>
      </trkpt>
      <trkpt lat="43.45522" lon="3.42458">
        <ele>53</ele>
        <time>2014-10-08T11:25:17.000Z</time>
      </trkpt>
      <trkpt lat="43.45529" lon="3.42464">
        <ele>53</ele>
        <time>2014-10-08T11:25:19.000Z</time>
      </trkpt>
      <trkpt lat="43.45537" lon="3.42468">
        <ele>52</ele>
        <time>2014-10-08T11:25:21.000Z</time>
      </trkpt>
      <trkpt lat="43.45546" lon="3.42471">
        <ele>52</ele>
        <time>2014-10-08T11:25:23.000Z</time>
      </trkpt>
      <trkpt lat="43.45554" lon="3.42472">
        <ele>52</ele>
        <time>2014-10-08T11:25:25.000Z</time>
      </trkpt>
      <trkpt lat="43.45563" lon="3.42473">
        <ele>55</ele>
        <time>2014-10-08T11:25:27.000Z</time>
      </trkpt>
      <trkpt lat="43.45572" lon="3.42476">
        <ele>56</ele>
        <time>2014-10-08T11:25:29.000Z</time>
      </trkpt>
      <trkpt lat="43.45581" lon="3.42478">
        <ele>57</ele>
        <time>2014-10-08T11:25:31.000Z</time>
      </trkpt>
      <trkpt lat="43.4559" lon="3.4248">
        <ele>57</ele>
        <time>2014-10-08T11:25:33.000Z</time>
      </trkpt>
      <trkpt lat="43.45599" lon="3.42482">
        <ele>57</ele>
        <time>2014-10-08T11:25:35.000Z</time>
      </trkpt>
      <trkpt lat="43.45608" lon="3.42485">
        <ele>59</ele>
        <time>2014-10-08T11:25:37.000Z</time>
      </trkpt>
      <trkpt lat="43.45615" lon="3.42487">
        <ele>59</ele>
        <time>2014-10-08T11:25:39.000Z</time>
      </trkpt>
      <trkpt lat="43.45623" lon="3.42489">
        <ele>62</ele>
        <time>2014-10-08T11:25:41.000Z</time>
      </trkpt>
      <trkpt lat="43.45631" lon="3.42492">
        <ele>61</ele>
        <time>2014-10-08T11:25:43.000Z</time>
      </trkpt>
      <trkpt lat="43.45638" lon="3.42495">
        <ele>60</ele>
        <time>2014-10-08T11:25:45.000Z</time>
      </trkpt>
      <trkpt lat="43.45646" lon="3.42497">
        <ele>59</ele>
        <time>2014-10-08T11:25:47.000Z</time>
      </trkpt>
      <trkpt lat="43.45646" lon="3.42497">
        <ele>59</ele>
        <time>2014-10-08T11:25:49.000Z</time>
      </trkpt>
      <trkpt lat="43.45646" lon="3.42497">
        <ele>59</ele>
        <time>2014-10-08T11:25:51.000Z</time>
      </trkpt>
      <trkpt lat="43.4565" lon="3.42504">
        <ele>58</ele>
        <time>2014-10-08T11:25:53.000Z</time>
      </trkpt>
      <trkpt lat="43.4565" lon="3.42504">
        <ele>58</ele>
        <time>2014-10-08T11:25:55.000Z</time>
      </trkpt>
      <trkpt lat="43.4565" lon="3.42504">
        <ele>58</ele>
        <time>2014-10-08T11:25:57.000Z</time>
      </trkpt>
      <trkpt lat="43.45649" lon="3.42509">
        <ele>67</ele>
        <time>2014-10-08T11:25:59.000Z</time>
      </trkpt>
      <trkpt lat="43.45647" lon="3.42515">
        <ele>68</ele>
        <time>2014-10-08T11:26:01.000Z</time>
      </trkpt>
      <trkpt lat="43.45646" lon="3.42519">
        <ele>67</ele>
        <time>2014-10-08T11:26:03.000Z</time>
      </trkpt>
      <trkpt lat="43.45646" lon="3.42519">
        <ele>67</ele>
        <time>2014-10-08T11:26:05.000Z</time>
      </trkpt>
      <trkpt lat="43.45646" lon="3.42519">
        <ele>67</ele>
        <time>2014-10-08T11:26:07.000Z</time>
      </trkpt>
      <trkpt lat="43.45638" lon="3.42528">
        <ele>74</ele>
        <time>2014-10-08T11:26:17.000Z</time>
      </trkpt>
      <trkpt lat="43.45631" lon="3.42534">
        <ele>74</ele>
        <time>2014-10-08T11:26:19.000Z</time>
      </trkpt>
      <trkpt lat="43.45623" lon="3.4254">
        <ele>74</ele>
        <time>2014-10-08T11:26:21.000Z</time>
      </trkpt>
      <trkpt lat="43.45616" lon="3.42546">
        <ele>75</ele>
        <time>2014-10-08T11:26:23.000Z</time>
      </trkpt>
      <trkpt lat="43.45609" lon="3.42552">
        <ele>74</ele>
        <time>2014-10-08T11:26:25.000Z</time>
      </trkpt>
      <trkpt lat="43.45594" lon="3.42568">
        <ele>72</ele>
        <time>2014-10-08T11:26:27.000Z</time>
      </trkpt>
      <trkpt lat="43.45586" lon="3.42576">
        <ele>70</ele>
        <time>2014-10-08T11:26:29.000Z</time>
      </trkpt>
      <trkpt lat="43.45579" lon="3.42581">
        <ele>71</ele>
        <time>2014-10-08T11:26:31.000Z</time>
      </trkpt>
      <trkpt lat="43.45561" lon="3.42595">
        <ele>64</ele>
        <time>2014-10-08T11:26:34.000Z</time>
      </trkpt>
      <trkpt lat="43.45547" lon="3.42601">
        <ele>65</ele>
        <time>2014-10-08T11:26:37.000Z</time>
      </trkpt>
      <trkpt lat="43.45537" lon="3.42603">
        <ele>65</ele>
        <time>2014-10-08T11:26:39.000Z</time>
      </trkpt>
      <trkpt lat="43.45531" lon="3.42606">
        <ele>67</ele>
        <time>2014-10-08T11:26:41.000Z</time>
      </trkpt>
      <trkpt lat="43.45524" lon="3.42612">
        <ele>67</ele>
        <time>2014-10-08T11:26:43.000Z</time>
      </trkpt>
      <trkpt lat="43.45517" lon="3.42619">
        <ele>67</ele>
        <time>2014-10-08T11:26:45.000Z</time>
      </trkpt>
      <trkpt lat="43.45509" lon="3.42623">
        <ele>69</ele>
        <time>2014-10-08T11:26:47.000Z</time>
      </trkpt>
      <trkpt lat="43.455" lon="3.42627">
        <ele>70</ele>
        <time>2014-10-08T11:26:49.000Z</time>
      </trkpt>
      <trkpt lat="43.45491" lon="3.42631">
        <ele>70</ele>
        <time>2014-10-08T11:26:51.000Z</time>
      </trkpt>
      <trkpt lat="43.45482" lon="3.42636">
        <ele>69</ele>
        <time>2014-10-08T11:26:53.000Z</time>
      </trkpt>
      <trkpt lat="43.45474" lon="3.42643">
        <ele>68</ele>
        <time>2014-10-08T11:26:55.000Z</time>
      </trkpt>
      <trkpt lat="43.45465" lon="3.42648">
        <ele>69</ele>
        <time>2014-10-08T11:26:57.000Z</time>
      </trkpt>
      <trkpt lat="43.45456" lon="3.42654">
        <ele>69</ele>
        <time>2014-10-08T11:26:59.000Z</time>
      </trkpt>
      <trkpt lat="43.45447" lon="3.4266">
        <ele>70</ele>
        <time>2014-10-08T11:27:01.000Z</time>
      </trkpt>
      <trkpt lat="43.45437" lon="3.42663">
        <ele>70</ele>
        <time>2014-10-08T11:27:03.000Z</time>
      </trkpt>
      <trkpt lat="43.45427" lon="3.42667">
        <ele>70</ele>
        <time>2014-10-08T11:27:05.000Z</time>
      </trkpt>
      <trkpt lat="43.45417" lon="3.42671">
        <ele>72</ele>
        <time>2014-10-08T11:27:07.000Z</time>
      </trkpt>
      <trkpt lat="43.45407" lon="3.42675">
        <ele>71</ele>
        <time>2014-10-08T11:27:09.000Z</time>
      </trkpt>
      <trkpt lat="43.45398" lon="3.42679">
        <ele>71</ele>
        <time>2014-10-08T11:27:11.000Z</time>
      </trkpt>
      <trkpt lat="43.45388" lon="3.42682">
        <ele>71</ele>
        <time>2014-10-08T11:27:13.000Z</time>
      </trkpt>
      <trkpt lat="43.45379" lon="3.42686">
        <ele>71</ele>
        <time>2014-10-08T11:27:15.000Z</time>
      </trkpt>
      <trkpt lat="43.4537" lon="3.42691">
        <ele>71</ele>
        <time>2014-10-08T11:27:17.000Z</time>
      </trkpt>
      <trkpt lat="43.45361" lon="3.42694">
        <ele>71</ele>
        <time>2014-10-08T11:27:19.000Z</time>
      </trkpt>
      <trkpt lat="43.45352" lon="3.42697">
        <ele>71</ele>
        <time>2014-10-08T11:27:21.000Z</time>
      </trkpt>
      <trkpt lat="43.45343" lon="3.42703">
        <ele>71</ele>
        <time>2014-10-08T11:27:23.000Z</time>
      </trkpt>
      <trkpt lat="43.45337" lon="3.4271">
        <ele>72</ele>
        <time>2014-10-08T11:27:25.000Z</time>
      </trkpt>
      <trkpt lat="43.45332" lon="3.4272">
        <ele>70</ele>
        <time>2014-10-08T11:27:27.000Z</time>
      </trkpt>
      <trkpt lat="43.45329" lon="3.42732">
        <ele>71</ele>
        <time>2014-10-08T11:27:29.000Z</time>
      </trkpt>
      <trkpt lat="43.45325" lon="3.42745">
        <ele>71</ele>
        <time>2014-10-08T11:27:31.000Z</time>
      </trkpt>
      <trkpt lat="43.45317" lon="3.42756">
        <ele>71</ele>
        <time>2014-10-08T11:27:33.000Z</time>
      </trkpt>
      <trkpt lat="43.45312" lon="3.42766">
        <ele>71</ele>
        <time>2014-10-08T11:27:35.000Z</time>
      </trkpt>
      <trkpt lat="43.45308" lon="3.42776">
        <ele>71</ele>
        <time>2014-10-08T11:27:37.000Z</time>
      </trkpt>
      <trkpt lat="43.45302" lon="3.42786">
        <ele>71</ele>
        <time>2014-10-08T11:27:39.000Z</time>
      </trkpt>
      <trkpt lat="43.45299" lon="3.428">
        <ele>71</ele>
        <time>2014-10-08T11:27:41.000Z</time>
      </trkpt>
      <trkpt lat="43.45296" lon="3.42814">
        <ele>70</ele>
        <time>2014-10-08T11:27:43.000Z</time>
      </trkpt>
      <trkpt lat="43.45294" lon="3.42827">
        <ele>70</ele>
        <time>2014-10-08T11:27:45.000Z</time>
      </trkpt>
      <trkpt lat="43.45292" lon="3.4284">
        <ele>71</ele>
        <time>2014-10-08T11:27:47.000Z</time>
      </trkpt>
      <trkpt lat="43.4529" lon="3.42852">
        <ele>71</ele>
        <time>2014-10-08T11:27:49.000Z</time>
      </trkpt>
      <trkpt lat="43.45288" lon="3.42865">
        <ele>69</ele>
        <time>2014-10-08T11:27:51.000Z</time>
      </trkpt>
      <trkpt lat="43.45286" lon="3.42893">
        <ele>67</ele>
        <time>2014-10-08T11:27:54.000Z</time>
      </trkpt>
      <trkpt lat="43.45285" lon="3.42908">
        <ele>66</ele>
        <time>2014-10-08T11:27:56.000Z</time>
      </trkpt>
      <trkpt lat="43.45284" lon="3.42921">
        <ele>66</ele>
        <time>2014-10-08T11:27:58.000Z</time>
      </trkpt>
      <trkpt lat="43.45282" lon="3.42934">
        <ele>66</ele>
        <time>2014-10-08T11:28:00.000Z</time>
      </trkpt>
      <trkpt lat="43.45281" lon="3.42945">
        <ele>66</ele>
        <time>2014-10-08T11:28:02.000Z</time>
      </trkpt>
      <trkpt lat="43.45279" lon="3.42959">
        <ele>65</ele>
        <time>2014-10-08T11:28:04.000Z</time>
      </trkpt>
      <trkpt lat="43.45278" lon="3.42971">
        <ele>65</ele>
        <time>2014-10-08T11:28:06.000Z</time>
      </trkpt>
      <trkpt lat="43.45276" lon="3.42981">
        <ele>64</ele>
        <time>2014-10-08T11:28:08.000Z</time>
      </trkpt>
      <trkpt lat="43.45276" lon="3.42981">
        <ele>64</ele>
        <time>2014-10-08T11:28:10.000Z</time>
      </trkpt>
      <trkpt lat="43.45271" lon="3.43011">
        <ele>64</ele>
        <time>2014-10-08T11:28:13.000Z</time>
      </trkpt>
      <trkpt lat="43.45269" lon="3.43023">
        <ele>64</ele>
        <time>2014-10-08T11:28:15.000Z</time>
      </trkpt>
      <trkpt lat="43.45267" lon="3.43035">
        <ele>65</ele>
        <time>2014-10-08T11:28:17.000Z</time>
      </trkpt>
      <trkpt lat="43.45266" lon="3.43048">
        <ele>64</ele>
        <time>2014-10-08T11:28:19.000Z</time>
      </trkpt>
      <trkpt lat="43.45264" lon="3.43061">
        <ele>64</ele>
        <time>2014-10-08T11:28:21.000Z</time>
      </trkpt>
      <trkpt lat="43.45263" lon="3.43074">
        <ele>64</ele>
        <time>2014-10-08T11:28:23.000Z</time>
      </trkpt>
      <trkpt lat="43.45263" lon="3.43087">
        <ele>65</ele>
        <time>2014-10-08T11:28:25.000Z</time>
      </trkpt>
      <trkpt lat="43.45262" lon="3.431">
        <ele>64</ele>
        <time>2014-10-08T11:28:27.000Z</time>
      </trkpt>
      <trkpt lat="43.45263" lon="3.43112">
        <ele>65</ele>
        <time>2014-10-08T11:28:29.000Z</time>
      </trkpt>
      <trkpt lat="43.45263" lon="3.43124">
        <ele>65</ele>
        <time>2014-10-08T11:28:31.000Z</time>
      </trkpt>
      <trkpt lat="43.45263" lon="3.43136">
        <ele>65</ele>
        <time>2014-10-08T11:28:33.000Z</time>
      </trkpt>
      <trkpt lat="43.45263" lon="3.43148">
        <ele>66</ele>
        <time>2014-10-08T11:28:35.000Z</time>
      </trkpt>
      <trkpt lat="43.4526" lon="3.43158">
        <ele>66</ele>
        <time>2014-10-08T11:28:37.000Z</time>
      </trkpt>
      <trkpt lat="43.45255" lon="3.43165">
        <ele>66</ele>
        <time>2014-10-08T11:28:39.000Z</time>
      </trkpt>
      <trkpt lat="43.4525" lon="3.43172">
        <ele>66</ele>
        <time>2014-10-08T11:28:41.000Z</time>
      </trkpt>
      <trkpt lat="43.45247" lon="3.43181">
        <ele>66</ele>
        <time>2014-10-08T11:28:43.000Z</time>
      </trkpt>
      <trkpt lat="43.45248" lon="3.43192">
        <ele>66</ele>
        <time>2014-10-08T11:28:45.000Z</time>
      </trkpt>
      <trkpt lat="43.45249" lon="3.43203">
        <ele>65</ele>
        <time>2014-10-08T11:28:47.000Z</time>
      </trkpt>
      <trkpt lat="43.45252" lon="3.43214">
        <ele>65</ele>
        <time>2014-10-08T11:28:49.000Z</time>
      </trkpt>
      <trkpt lat="43.45251" lon="3.43225">
        <ele>65</ele>
        <time>2014-10-08T11:28:51.000Z</time>
      </trkpt>
      <trkpt lat="43.45247" lon="3.43237">
        <ele>65</ele>
        <time>2014-10-08T11:28:53.000Z</time>
      </trkpt>
      <trkpt lat="43.45242" lon="3.43249">
        <ele>66</ele>
        <time>2014-10-08T11:28:55.000Z</time>
      </trkpt>
      <trkpt lat="43.45235" lon="3.4326">
        <ele>65</ele>
        <time>2014-10-08T11:28:57.000Z</time>
      </trkpt>
      <trkpt lat="43.45227" lon="3.43271">
        <ele>64</ele>
        <time>2014-10-08T11:28:59.000Z</time>
      </trkpt>
      <trkpt lat="43.45218" lon="3.4328">
        <ele>64</ele>
        <time>2014-10-08T11:29:01.000Z</time>
      </trkpt>
      <trkpt lat="43.4521" lon="3.43288">
        <ele>62</ele>
        <time>2014-10-08T11:29:03.000Z</time>
      </trkpt>
      <trkpt lat="43.45201" lon="3.43297">
        <ele>62</ele>
        <time>2014-10-08T11:29:05.000Z</time>
      </trkpt>
      <trkpt lat="43.45193" lon="3.43306">
        <ele>61</ele>
        <time>2014-10-08T11:29:07.000Z</time>
      </trkpt>
      <trkpt lat="43.45184" lon="3.43316">
        <ele>60</ele>
        <time>2014-10-08T11:29:09.000Z</time>
      </trkpt>
      <trkpt lat="43.45177" lon="3.43325">
        <ele>61</ele>
        <time>2014-10-08T11:29:11.000Z</time>
      </trkpt>
      <trkpt lat="43.4517" lon="3.43333">
        <ele>61</ele>
        <time>2014-10-08T11:29:13.000Z</time>
      </trkpt>
      <trkpt lat="43.45163" lon="3.4334">
        <ele>61</ele>
        <time>2014-10-08T11:29:15.000Z</time>
      </trkpt>
      <trkpt lat="43.45156" lon="3.4335">
        <ele>60</ele>
        <time>2014-10-08T11:29:17.000Z</time>
      </trkpt>
      <trkpt lat="43.45149" lon="3.43359">
        <ele>59</ele>
        <time>2014-10-08T11:29:19.000Z</time>
      </trkpt>
      <trkpt lat="43.45142" lon="3.43366">
        <ele>60</ele>
        <time>2014-10-08T11:29:21.000Z</time>
      </trkpt>
      <trkpt lat="43.45136" lon="3.43369">
        <ele>59</ele>
        <time>2014-10-08T11:29:23.000Z</time>
      </trkpt>
      <trkpt lat="43.45128" lon="3.43377">
        <ele>58</ele>
        <time>2014-10-08T11:29:25.000Z</time>
      </trkpt>
      <trkpt lat="43.45123" lon="3.43392">
        <ele>58</ele>
        <time>2014-10-08T11:29:27.000Z</time>
      </trkpt>
      <trkpt lat="43.45116" lon="3.43402">
        <ele>58</ele>
        <time>2014-10-08T11:29:29.000Z</time>
      </trkpt>
      <trkpt lat="43.4511" lon="3.4341">
        <ele>58</ele>
        <time>2014-10-08T11:29:31.000Z</time>
      </trkpt>
      <trkpt lat="43.45104" lon="3.43417">
        <ele>57</ele>
        <time>2014-10-08T11:29:33.000Z</time>
      </trkpt>
      <trkpt lat="43.45097" lon="3.43426">
        <ele>58</ele>
        <time>2014-10-08T11:29:35.000Z</time>
      </trkpt>
      <trkpt lat="43.45089" lon="3.43435">
        <ele>58</ele>
        <time>2014-10-08T11:29:37.000Z</time>
      </trkpt>
      <trkpt lat="43.45081" lon="3.43443">
        <ele>57</ele>
        <time>2014-10-08T11:29:39.000Z</time>
      </trkpt>
      <trkpt lat="43.45074" lon="3.43452">
        <ele>58</ele>
        <time>2014-10-08T11:29:41.000Z</time>
      </trkpt>
      <trkpt lat="43.45066" lon="3.43461">
        <ele>58</ele>
        <time>2014-10-08T11:29:43.000Z</time>
      </trkpt>
      <trkpt lat="43.45058" lon="3.4347">
        <ele>59</ele>
        <time>2014-10-08T11:29:45.000Z</time>
      </trkpt>
      <trkpt lat="43.45051" lon="3.43481">
        <ele>60</ele>
        <time>2014-10-08T11:29:47.000Z</time>
      </trkpt>
      <trkpt lat="43.45045" lon="3.43486">
        <ele>62</ele>
        <time>2014-10-08T11:29:49.000Z</time>
      </trkpt>
      <trkpt lat="43.45045" lon="3.43486">
        <ele>62</ele>
        <time>2014-10-08T11:29:51.000Z</time>
      </trkpt>
      <trkpt lat="43.45033" lon="3.43488">
        <ele>67</ele>
        <time>2014-10-08T11:29:53.000Z</time>
      </trkpt>
      <trkpt lat="43.45027" lon="3.43495">
        <ele>67</ele>
        <time>2014-10-08T11:29:55.000Z</time>
      </trkpt>
      <trkpt lat="43.45021" lon="3.43501">
        <ele>66</ele>
        <time>2014-10-08T11:29:57.000Z</time>
      </trkpt>
      <trkpt lat="43.45015" lon="3.43507">
        <ele>68</ele>
        <time>2014-10-08T11:29:59.000Z</time>
      </trkpt>
      <trkpt lat="43.4501" lon="3.43513">
        <ele>68</ele>
        <time>2014-10-08T11:30:01.000Z</time>
      </trkpt>
      <trkpt lat="43.45005" lon="3.4352">
        <ele>68</ele>
        <time>2014-10-08T11:30:03.000Z</time>
      </trkpt>
      <trkpt lat="43.45" lon="3.43526">
        <ele>69</ele>
        <time>2014-10-08T11:30:05.000Z</time>
      </trkpt>
      <trkpt lat="43.44995" lon="3.43532">
        <ele>70</ele>
        <time>2014-10-08T11:30:07.000Z</time>
      </trkpt>
      <trkpt lat="43.4499" lon="3.43538">
        <ele>69</ele>
        <time>2014-10-08T11:30:09.000Z</time>
      </trkpt>
      <trkpt lat="43.44985" lon="3.43544">
        <ele>68</ele>
        <time>2014-10-08T11:30:11.000Z</time>
      </trkpt>
      <trkpt lat="43.44981" lon="3.43552">
        <ele>70</ele>
        <time>2014-10-08T11:30:13.000Z</time>
      </trkpt>
      <trkpt lat="43.44976" lon="3.4356">
        <ele>69</ele>
        <time>2014-10-08T11:30:15.000Z</time>
      </trkpt>
      <trkpt lat="43.4497" lon="3.43568">
        <ele>67</ele>
        <time>2014-10-08T11:30:17.000Z</time>
      </trkpt>
      <trkpt lat="43.44965" lon="3.43577">
        <ele>68</ele>
        <time>2014-10-08T11:30:19.000Z</time>
      </trkpt>
      <trkpt lat="43.4496" lon="3.43584">
        <ele>68</ele>
        <time>2014-10-08T11:30:21.000Z</time>
      </trkpt>
      <trkpt lat="43.44955" lon="3.4359">
        <ele>69</ele>
        <time>2014-10-08T11:30:23.000Z</time>
      </trkpt>
      <trkpt lat="43.44955" lon="3.4359">
        <ele>69</ele>
        <time>2014-10-08T11:30:25.000Z</time>
      </trkpt>
      <trkpt lat="43.44946" lon="3.43598">
        <ele>70</ele>
        <time>2014-10-08T11:30:27.000Z</time>
      </trkpt>
      <trkpt lat="43.44941" lon="3.43603">
        <ele>71</ele>
        <time>2014-10-08T11:30:29.000Z</time>
      </trkpt>
      <trkpt lat="43.44935" lon="3.43609">
        <ele>71</ele>
        <time>2014-10-08T11:30:31.000Z</time>
      </trkpt>
      <trkpt lat="43.4493" lon="3.43614">
        <ele>71</ele>
        <time>2014-10-08T11:30:33.000Z</time>
      </trkpt>
      <trkpt lat="43.44925" lon="3.4362">
        <ele>71</ele>
        <time>2014-10-08T11:30:35.000Z</time>
      </trkpt>
      <trkpt lat="43.44919" lon="3.43627">
        <ele>69</ele>
        <time>2014-10-08T11:30:37.000Z</time>
      </trkpt>
      <trkpt lat="43.44913" lon="3.43634">
        <ele>70</ele>
        <time>2014-10-08T11:30:39.000Z</time>
      </trkpt>
      <trkpt lat="43.44907" lon="3.43642">
        <ele>69</ele>
        <time>2014-10-08T11:30:41.000Z</time>
      </trkpt>
      <trkpt lat="43.44901" lon="3.43651">
        <ele>69</ele>
        <time>2014-10-08T11:30:43.000Z</time>
      </trkpt>
      <trkpt lat="43.44893" lon="3.43662">
        <ele>68</ele>
        <time>2014-10-08T11:30:45.000Z</time>
      </trkpt>
      <trkpt lat="43.44885" lon="3.4367">
        <ele>68</ele>
        <time>2014-10-08T11:30:47.000Z</time>
      </trkpt>
      <trkpt lat="43.44878" lon="3.4368">
        <ele>67</ele>
        <time>2014-10-08T11:30:49.000Z</time>
      </trkpt>
      <trkpt lat="43.44868" lon="3.43691">
        <ele>66</ele>
        <time>2014-10-08T11:30:51.000Z</time>
      </trkpt>
      <trkpt lat="43.4486" lon="3.43703">
        <ele>66</ele>
        <time>2014-10-08T11:30:53.000Z</time>
      </trkpt>
      <trkpt lat="43.44849" lon="3.43715">
        <ele>66</ele>
        <time>2014-10-08T11:30:55.000Z</time>
      </trkpt>
      <trkpt lat="43.44839" lon="3.43728">
        <ele>66</ele>
        <time>2014-10-08T11:30:57.000Z</time>
      </trkpt>
      <trkpt lat="43.44828" lon="3.43742">
        <ele>65</ele>
        <time>2014-10-08T11:30:59.000Z</time>
      </trkpt>
      <trkpt lat="43.44817" lon="3.43755">
        <ele>64</ele>
        <time>2014-10-08T11:31:01.000Z</time>
      </trkpt>
      <trkpt lat="43.44807" lon="3.43766">
        <ele>63</ele>
        <time>2014-10-08T11:31:03.000Z</time>
      </trkpt>
      <trkpt lat="43.44797" lon="3.43779">
        <ele>63</ele>
        <time>2014-10-08T11:31:05.000Z</time>
      </trkpt>
      <trkpt lat="43.44788" lon="3.43789">
        <ele>62</ele>
        <time>2014-10-08T11:31:07.000Z</time>
      </trkpt>
      <trkpt lat="43.4478" lon="3.43799">
        <ele>63</ele>
        <time>2014-10-08T11:31:09.000Z</time>
      </trkpt>
      <trkpt lat="43.44773" lon="3.43808">
        <ele>62</ele>
        <time>2014-10-08T11:31:11.000Z</time>
      </trkpt>
      <trkpt lat="43.44767" lon="3.43816">
        <ele>61</ele>
        <time>2014-10-08T11:31:13.000Z</time>
      </trkpt>
      <trkpt lat="43.44761" lon="3.43829">
        <ele>62</ele>
        <time>2014-10-08T11:31:15.000Z</time>
      </trkpt>
      <trkpt lat="43.44755" lon="3.43838">
        <ele>62</ele>
        <time>2014-10-08T11:31:17.000Z</time>
      </trkpt>
      <trkpt lat="43.44749" lon="3.43847">
        <ele>64</ele>
        <time>2014-10-08T11:31:19.000Z</time>
      </trkpt>
      <trkpt lat="43.44743" lon="3.43857">
        <ele>65</ele>
        <time>2014-10-08T11:31:21.000Z</time>
      </trkpt>
      <trkpt lat="43.44738" lon="3.43869">
        <ele>65</ele>
        <time>2014-10-08T11:31:23.000Z</time>
      </trkpt>
      <trkpt lat="43.44731" lon="3.43877">
        <ele>67</ele>
        <time>2014-10-08T11:31:25.000Z</time>
      </trkpt>
      <trkpt lat="43.44727" lon="3.43886">
        <ele>66</ele>
        <time>2014-10-08T11:31:27.000Z</time>
      </trkpt>
      <trkpt lat="43.44722" lon="3.43895">
        <ele>65</ele>
        <time>2014-10-08T11:31:29.000Z</time>
      </trkpt>
      <trkpt lat="43.44717" lon="3.43903">
        <ele>66</ele>
        <time>2014-10-08T11:31:31.000Z</time>
      </trkpt>
      <trkpt lat="43.4471" lon="3.43913">
        <ele>65</ele>
        <time>2014-10-08T11:31:33.000Z</time>
      </trkpt>
      <trkpt lat="43.44707" lon="3.43926">
        <ele>66</ele>
        <time>2014-10-08T11:31:35.000Z</time>
      </trkpt>
      <trkpt lat="43.44702" lon="3.43936">
        <ele>66</ele>
        <time>2014-10-08T11:31:37.000Z</time>
      </trkpt>
      <trkpt lat="43.44695" lon="3.43943">
        <ele>67</ele>
        <time>2014-10-08T11:31:39.000Z</time>
      </trkpt>
      <trkpt lat="43.4469" lon="3.43951">
        <ele>67</ele>
        <time>2014-10-08T11:31:41.000Z</time>
      </trkpt>
      <trkpt lat="43.44683" lon="3.43961">
        <ele>66</ele>
        <time>2014-10-08T11:31:43.000Z</time>
      </trkpt>
      <trkpt lat="43.44678" lon="3.4397">
        <ele>65</ele>
        <time>2014-10-08T11:31:45.000Z</time>
      </trkpt>
      <trkpt lat="43.44671" lon="3.43986">
        <ele>65</ele>
        <time>2014-10-08T11:31:47.000Z</time>
      </trkpt>
      <trkpt lat="43.44667" lon="3.43997">
        <ele>65</ele>
        <time>2014-10-08T11:31:49.000Z</time>
      </trkpt>
      <trkpt lat="43.44664" lon="3.44007">
        <ele>66</ele>
        <time>2014-10-08T11:31:51.000Z</time>
      </trkpt>
      <trkpt lat="43.44659" lon="3.44018">
        <ele>66</ele>
        <time>2014-10-08T11:31:53.000Z</time>
      </trkpt>
      <trkpt lat="43.44653" lon="3.44028">
        <ele>66</ele>
        <time>2014-10-08T11:31:55.000Z</time>
      </trkpt>
      <trkpt lat="43.44647" lon="3.44036">
        <ele>66</ele>
        <time>2014-10-08T11:31:57.000Z</time>
      </trkpt>
      <trkpt lat="43.44641" lon="3.44045">
        <ele>66</ele>
        <time>2014-10-08T11:31:59.000Z</time>
      </trkpt>
      <trkpt lat="43.44635" lon="3.44052">
        <ele>69</ele>
        <time>2014-10-08T11:32:01.000Z</time>
      </trkpt>
      <trkpt lat="43.44628" lon="3.44058">
        <ele>71</ele>
        <time>2014-10-08T11:32:03.000Z</time>
      </trkpt>
      <trkpt lat="43.44621" lon="3.44066">
        <ele>72</ele>
        <time>2014-10-08T11:32:05.000Z</time>
      </trkpt>
      <trkpt lat="43.44614" lon="3.44072">
        <ele>72</ele>
        <time>2014-10-08T11:32:07.000Z</time>
      </trkpt>
      <trkpt lat="43.44607" lon="3.44076">
        <ele>72</ele>
        <time>2014-10-08T11:32:09.000Z</time>
      </trkpt>
      <trkpt lat="43.446" lon="3.44081">
        <ele>73</ele>
        <time>2014-10-08T11:32:11.000Z</time>
      </trkpt>
      <trkpt lat="43.44593" lon="3.44084">
        <ele>74</ele>
        <time>2014-10-08T11:32:13.000Z</time>
      </trkpt>
      <trkpt lat="43.44586" lon="3.44088">
        <ele>74</ele>
        <time>2014-10-08T11:32:15.000Z</time>
      </trkpt>
      <trkpt lat="43.44579" lon="3.44092">
        <ele>73</ele>
        <time>2014-10-08T11:32:17.000Z</time>
      </trkpt>
      <trkpt lat="43.44572" lon="3.44096">
        <ele>73</ele>
        <time>2014-10-08T11:32:19.000Z</time>
      </trkpt>
      <trkpt lat="43.44566" lon="3.44099">
        <ele>73</ele>
        <time>2014-10-08T11:32:21.000Z</time>
      </trkpt>
      <trkpt lat="43.44559" lon="3.44102">
        <ele>73</ele>
        <time>2014-10-08T11:32:23.000Z</time>
      </trkpt>
      <trkpt lat="43.44552" lon="3.44106">
        <ele>74</ele>
        <time>2014-10-08T11:32:25.000Z</time>
      </trkpt>
      <trkpt lat="43.44545" lon="3.4411">
        <ele>74</ele>
        <time>2014-10-08T11:32:27.000Z</time>
      </trkpt>
      <trkpt lat="43.44539" lon="3.44114">
        <ele>73</ele>
        <time>2014-10-08T11:32:29.000Z</time>
      </trkpt>
      <trkpt lat="43.44532" lon="3.44118">
        <ele>74</ele>
        <time>2014-10-08T11:32:31.000Z</time>
      </trkpt>
      <trkpt lat="43.44526" lon="3.44121">
        <ele>74</ele>
        <time>2014-10-08T11:32:33.000Z</time>
      </trkpt>
      <trkpt lat="43.4452" lon="3.44126">
        <ele>75</ele>
        <time>2014-10-08T11:32:35.000Z</time>
      </trkpt>
      <trkpt lat="43.44514" lon="3.44131">
        <ele>75</ele>
        <time>2014-10-08T11:32:37.000Z</time>
      </trkpt>
      <trkpt lat="43.4451" lon="3.44137">
        <ele>75</ele>
        <time>2014-10-08T11:32:39.000Z</time>
      </trkpt>
      <trkpt lat="43.44506" lon="3.44143">
        <ele>75</ele>
        <time>2014-10-08T11:32:41.000Z</time>
      </trkpt>
      <trkpt lat="43.44502" lon="3.4415">
        <ele>74</ele>
        <time>2014-10-08T11:32:43.000Z</time>
      </trkpt>
      <trkpt lat="43.445" lon="3.44158">
        <ele>75</ele>
        <time>2014-10-08T11:32:45.000Z</time>
      </trkpt>
      <trkpt lat="43.44498" lon="3.44166">
        <ele>75</ele>
        <time>2014-10-08T11:32:47.000Z</time>
      </trkpt>
      <trkpt lat="43.44496" lon="3.44174">
        <ele>77</ele>
        <time>2014-10-08T11:32:49.000Z</time>
      </trkpt>
      <trkpt lat="43.44496" lon="3.44183">
        <ele>76</ele>
        <time>2014-10-08T11:32:51.000Z</time>
      </trkpt>
      <trkpt lat="43.44496" lon="3.44191">
        <ele>76</ele>
        <time>2014-10-08T11:32:53.000Z</time>
      </trkpt>
      <trkpt lat="43.44496" lon="3.44199">
        <ele>75</ele>
        <time>2014-10-08T11:32:55.000Z</time>
      </trkpt>
      <trkpt lat="43.44496" lon="3.44199">
        <ele>75</ele>
        <time>2014-10-08T11:32:57.000Z</time>
      </trkpt>
      <trkpt lat="43.44498" lon="3.44213">
        <ele>75</ele>
        <time>2014-10-08T11:32:59.000Z</time>
      </trkpt>
      <trkpt lat="43.44498" lon="3.44213">
        <ele>75</ele>
        <time>2014-10-08T11:33:01.000Z</time>
      </trkpt>
      <trkpt lat="43.44498" lon="3.44226">
        <ele>78</ele>
        <time>2014-10-08T11:33:03.000Z</time>
      </trkpt>
      <trkpt lat="43.44498" lon="3.44226">
        <ele>78</ele>
        <time>2014-10-08T11:33:05.000Z</time>
      </trkpt>
      <trkpt lat="43.44498" lon="3.44241">
        <ele>77</ele>
        <time>2014-10-08T11:33:07.000Z</time>
      </trkpt>
      <trkpt lat="43.44498" lon="3.44241">
        <ele>77</ele>
        <time>2014-10-08T11:33:09.000Z</time>
      </trkpt>
      <trkpt lat="43.44497" lon="3.44255">
        <ele>79</ele>
        <time>2014-10-08T11:33:11.000Z</time>
      </trkpt>
      <trkpt lat="43.44497" lon="3.44255">
        <ele>79</ele>
        <time>2014-10-08T11:33:13.000Z</time>
      </trkpt>
      <trkpt lat="43.44495" lon="3.44268">
        <ele>81</ele>
        <time>2014-10-08T11:33:15.000Z</time>
      </trkpt>
      <trkpt lat="43.44495" lon="3.44268">
        <ele>81</ele>
        <time>2014-10-08T11:33:17.000Z</time>
      </trkpt>
      <trkpt lat="43.44494" lon="3.44282">
        <ele>82</ele>
        <time>2014-10-08T11:33:19.000Z</time>
      </trkpt>
      <trkpt lat="43.44494" lon="3.44282">
        <ele>82</ele>
        <time>2014-10-08T11:33:21.000Z</time>
      </trkpt>
      <trkpt lat="43.44493" lon="3.44296">
        <ele>82</ele>
        <time>2014-10-08T11:33:23.000Z</time>
      </trkpt>
      <trkpt lat="43.44493" lon="3.44296">
        <ele>82</ele>
        <time>2014-10-08T11:33:25.000Z</time>
      </trkpt>
      <trkpt lat="43.44493" lon="3.4431">
        <ele>83</ele>
        <time>2014-10-08T11:33:27.000Z</time>
      </trkpt>
      <trkpt lat="43.44493" lon="3.4431">
        <ele>83</ele>
        <time>2014-10-08T11:33:29.000Z</time>
      </trkpt>
      <trkpt lat="43.44493" lon="3.44324">
        <ele>82</ele>
        <time>2014-10-08T11:33:31.000Z</time>
      </trkpt>
      <trkpt lat="43.44493" lon="3.44324">
        <ele>82</ele>
        <time>2014-10-08T11:33:33.000Z</time>
      </trkpt>
      <trkpt lat="43.44497" lon="3.44338">
        <ele>81</ele>
        <time>2014-10-08T11:33:35.000Z</time>
      </trkpt>
      <trkpt lat="43.44497" lon="3.44338">
        <ele>81</ele>
        <time>2014-10-08T11:33:37.000Z</time>
      </trkpt>
      <trkpt lat="43.44502" lon="3.4435">
        <ele>81</ele>
        <time>2014-10-08T11:33:39.000Z</time>
      </trkpt>
      <trkpt lat="43.44502" lon="3.4435">
        <ele>81</ele>
        <time>2014-10-08T11:33:41.000Z</time>
      </trkpt>
      <trkpt lat="43.44506" lon="3.44362">
        <ele>81</ele>
        <time>2014-10-08T11:33:44.000Z</time>
      </trkpt>
      <trkpt lat="43.44511" lon="3.44375">
        <ele>81</ele>
        <time>2014-10-08T11:33:47.000Z</time>
      </trkpt>
      <trkpt lat="43.4451" lon="3.44387">
        <ele>82</ele>
        <time>2014-10-08T11:33:51.000Z</time>
      </trkpt>
      <trkpt lat="43.44506" lon="3.44399">
        <ele>84</ele>
        <time>2014-10-08T11:33:55.000Z</time>
      </trkpt>
      <trkpt lat="43.44502" lon="3.44412">
        <ele>84</ele>
        <time>2014-10-08T11:33:59.000Z</time>
      </trkpt>
      <trkpt lat="43.445" lon="3.44419">
        <ele>84</ele>
        <time>2014-10-08T11:34:01.000Z</time>
      </trkpt>
      <trkpt lat="43.445" lon="3.44428">
        <ele>83</ele>
        <time>2014-10-08T11:34:03.000Z</time>
      </trkpt>
      <trkpt lat="43.44498" lon="3.44436">
        <ele>83</ele>
        <time>2014-10-08T11:34:05.000Z</time>
      </trkpt>
      <trkpt lat="43.44497" lon="3.44445">
        <ele>84</ele>
        <time>2014-10-08T11:34:07.000Z</time>
      </trkpt>
      <trkpt lat="43.44496" lon="3.44454">
        <ele>85</ele>
        <time>2014-10-08T11:34:09.000Z</time>
      </trkpt>
      <trkpt lat="43.44495" lon="3.44462">
        <ele>85</ele>
        <time>2014-10-08T11:34:11.000Z</time>
      </trkpt>
      <trkpt lat="43.44495" lon="3.44471">
        <ele>85</ele>
        <time>2014-10-08T11:34:13.000Z</time>
      </trkpt>
      <trkpt lat="43.44493" lon="3.4448">
        <ele>85</ele>
        <time>2014-10-08T11:34:15.000Z</time>
      </trkpt>
      <trkpt lat="43.44493" lon="3.44489">
        <ele>84</ele>
        <time>2014-10-08T11:34:17.000Z</time>
      </trkpt>
      <trkpt lat="43.44492" lon="3.44499">
        <ele>84</ele>
        <time>2014-10-08T11:34:19.000Z</time>
      </trkpt>
      <trkpt lat="43.44492" lon="3.44508">
        <ele>84</ele>
        <time>2014-10-08T11:34:21.000Z</time>
      </trkpt>
      <trkpt lat="43.44492" lon="3.44518">
        <ele>84</ele>
        <time>2014-10-08T11:34:23.000Z</time>
      </trkpt>
      <trkpt lat="43.44492" lon="3.44527">
        <ele>84</ele>
        <time>2014-10-08T11:34:25.000Z</time>
      </trkpt>
      <trkpt lat="43.44492" lon="3.44536">
        <ele>84</ele>
        <time>2014-10-08T11:34:27.000Z</time>
      </trkpt>
      <trkpt lat="43.4449" lon="3.44544">
        <ele>85</ele>
        <time>2014-10-08T11:34:29.000Z</time>
      </trkpt>
      <trkpt lat="43.44489" lon="3.44552">
        <ele>85</ele>
        <time>2014-10-08T11:34:31.000Z</time>
      </trkpt>
      <trkpt lat="43.44489" lon="3.4456">
        <ele>85</ele>
        <time>2014-10-08T11:34:33.000Z</time>
      </trkpt>
      <trkpt lat="43.44488" lon="3.44568">
        <ele>85</ele>
        <time>2014-10-08T11:34:35.000Z</time>
      </trkpt>
      <trkpt lat="43.44488" lon="3.44576">
        <ele>86</ele>
        <time>2014-10-08T11:34:37.000Z</time>
      </trkpt>
      <trkpt lat="43.44488" lon="3.44584">
        <ele>86</ele>
        <time>2014-10-08T11:34:39.000Z</time>
      </trkpt>
      <trkpt lat="43.44489" lon="3.44594">
        <ele>85</ele>
        <time>2014-10-08T11:34:41.000Z</time>
      </trkpt>
      <trkpt lat="43.44489" lon="3.44603">
        <ele>84</ele>
        <time>2014-10-08T11:34:43.000Z</time>
      </trkpt>
      <trkpt lat="43.44489" lon="3.44613">
        <ele>83</ele>
        <time>2014-10-08T11:34:45.000Z</time>
      </trkpt>
      <trkpt lat="43.44488" lon="3.44623">
        <ele>82</ele>
        <time>2014-10-08T11:34:47.000Z</time>
      </trkpt>
      <trkpt lat="43.44485" lon="3.44632">
        <ele>84</ele>
        <time>2014-10-08T11:34:49.000Z</time>
      </trkpt>
      <trkpt lat="43.44481" lon="3.44639">
        <ele>84</ele>
        <time>2014-10-08T11:34:51.000Z</time>
      </trkpt>
      <trkpt lat="43.44477" lon="3.44647">
        <ele>85</ele>
        <time>2014-10-08T11:34:53.000Z</time>
      </trkpt>
      <trkpt lat="43.44473" lon="3.44655">
        <ele>85</ele>
        <time>2014-10-08T11:34:55.000Z</time>
      </trkpt>
      <trkpt lat="43.44469" lon="3.44664">
        <ele>86</ele>
        <time>2014-10-08T11:34:57.000Z</time>
      </trkpt>
      <trkpt lat="43.44466" lon="3.44672">
        <ele>87</ele>
        <time>2014-10-08T11:34:59.000Z</time>
      </trkpt>
      <trkpt lat="43.44463" lon="3.44681">
        <ele>88</ele>
        <time>2014-10-08T11:35:01.000Z</time>
      </trkpt>
      <trkpt lat="43.44461" lon="3.44689">
        <ele>89</ele>
        <time>2014-10-08T11:35:03.000Z</time>
      </trkpt>
      <trkpt lat="43.44458" lon="3.44698">
        <ele>90</ele>
        <time>2014-10-08T11:35:05.000Z</time>
      </trkpt>
      <trkpt lat="43.44455" lon="3.44706">
        <ele>90</ele>
        <time>2014-10-08T11:35:07.000Z</time>
      </trkpt>
      <trkpt lat="43.44453" lon="3.44714">
        <ele>91</ele>
        <time>2014-10-08T11:35:09.000Z</time>
      </trkpt>
      <trkpt lat="43.4445" lon="3.44723">
        <ele>91</ele>
        <time>2014-10-08T11:35:11.000Z</time>
      </trkpt>
      <trkpt lat="43.44449" lon="3.44732">
        <ele>91</ele>
        <time>2014-10-08T11:35:13.000Z</time>
      </trkpt>
      <trkpt lat="43.44448" lon="3.44741">
        <ele>91</ele>
        <time>2014-10-08T11:35:15.000Z</time>
      </trkpt>
      <trkpt lat="43.44448" lon="3.44749">
        <ele>92</ele>
        <time>2014-10-08T11:35:17.000Z</time>
      </trkpt>
      <trkpt lat="43.44447" lon="3.44758">
        <ele>92</ele>
        <time>2014-10-08T11:35:19.000Z</time>
      </trkpt>
      <trkpt lat="43.44447" lon="3.44767">
        <ele>91</ele>
        <time>2014-10-08T11:35:21.000Z</time>
      </trkpt>
      <trkpt lat="43.44445" lon="3.44776">
        <ele>91</ele>
        <time>2014-10-08T11:35:23.000Z</time>
      </trkpt>
      <trkpt lat="43.44443" lon="3.44784">
        <ele>93</ele>
        <time>2014-10-08T11:35:25.000Z</time>
      </trkpt>
      <trkpt lat="43.4444" lon="3.4479">
        <ele>94</ele>
        <time>2014-10-08T11:35:27.000Z</time>
      </trkpt>
      <trkpt lat="43.4444" lon="3.4479">
        <ele>94</ele>
        <time>2014-10-08T11:35:29.000Z</time>
      </trkpt>
      <trkpt lat="43.44435" lon="3.44803">
        <ele>95</ele>
        <time>2014-10-08T11:35:31.000Z</time>
      </trkpt>
      <trkpt lat="43.44435" lon="3.44803">
        <ele>95</ele>
        <time>2014-10-08T11:35:33.000Z</time>
      </trkpt>
      <trkpt lat="43.44429" lon="3.44815">
        <ele>96</ele>
        <time>2014-10-08T11:35:35.000Z</time>
      </trkpt>
      <trkpt lat="43.44429" lon="3.44815">
        <ele>96</ele>
        <time>2014-10-08T11:35:37.000Z</time>
      </trkpt>
      <trkpt lat="43.44425" lon="3.44826">
        <ele>97</ele>
        <time>2014-10-08T11:35:39.000Z</time>
      </trkpt>
      <trkpt lat="43.44425" lon="3.44826">
        <ele>97</ele>
        <time>2014-10-08T11:35:41.000Z</time>
      </trkpt>
      <trkpt lat="43.44419" lon="3.44837">
        <ele>97</ele>
        <time>2014-10-08T11:35:43.000Z</time>
      </trkpt>
      <trkpt lat="43.44419" lon="3.44837">
        <ele>97</ele>
        <time>2014-10-08T11:35:45.000Z</time>
      </trkpt>
      <trkpt lat="43.44415" lon="3.44849">
        <ele>97</ele>
        <time>2014-10-08T11:35:47.000Z</time>
      </trkpt>
      <trkpt lat="43.44413" lon="3.44856">
        <ele>95</ele>
        <time>2014-10-08T11:35:49.000Z</time>
      </trkpt>
      <trkpt lat="43.4441" lon="3.44865">
        <ele>94</ele>
        <time>2014-10-08T11:35:51.000Z</time>
      </trkpt>
      <trkpt lat="43.44408" lon="3.44873">
        <ele>94</ele>
        <time>2014-10-08T11:35:53.000Z</time>
      </trkpt>
      <trkpt lat="43.44405" lon="3.4488">
        <ele>94</ele>
        <time>2014-10-08T11:35:55.000Z</time>
      </trkpt>
      <trkpt lat="43.44402" lon="3.44887">
        <ele>95</ele>
        <time>2014-10-08T11:35:57.000Z</time>
      </trkpt>
      <trkpt lat="43.44399" lon="3.44893">
        <ele>95</ele>
        <time>2014-10-08T11:35:59.000Z</time>
      </trkpt>
      <trkpt lat="43.44396" lon="3.449">
        <ele>95</ele>
        <time>2014-10-08T11:36:01.000Z</time>
      </trkpt>
      <trkpt lat="43.44393" lon="3.44907">
        <ele>96</ele>
        <time>2014-10-08T11:36:03.000Z</time>
      </trkpt>
      <trkpt lat="43.44389" lon="3.44913">
        <ele>96</ele>
        <time>2014-10-08T11:36:05.000Z</time>
      </trkpt>
      <trkpt lat="43.44386" lon="3.4492">
        <ele>96</ele>
        <time>2014-10-08T11:36:07.000Z</time>
      </trkpt>
      <trkpt lat="43.44382" lon="3.44926">
        <ele>97</ele>
        <time>2014-10-08T11:36:09.000Z</time>
      </trkpt>
      <trkpt lat="43.44378" lon="3.44933">
        <ele>97</ele>
        <time>2014-10-08T11:36:11.000Z</time>
      </trkpt>
      <trkpt lat="43.44374" lon="3.4494">
        <ele>97</ele>
        <time>2014-10-08T11:36:13.000Z</time>
      </trkpt>
      <trkpt lat="43.44368" lon="3.44951">
        <ele>98</ele>
        <time>2014-10-08T11:36:17.000Z</time>
      </trkpt>
      <trkpt lat="43.44368" lon="3.44951">
        <ele>98</ele>
        <time>2014-10-08T11:36:19.000Z</time>
      </trkpt>
      <trkpt lat="43.44363" lon="3.44963">
        <ele>99</ele>
        <time>2014-10-08T11:36:21.000Z</time>
      </trkpt>
      <trkpt lat="43.44363" lon="3.44963">
        <ele>99</ele>
        <time>2014-10-08T11:36:23.000Z</time>
      </trkpt>
      <trkpt lat="43.44357" lon="3.44976">
        <ele>98</ele>
        <time>2014-10-08T11:36:26.000Z</time>
      </trkpt>
      <trkpt lat="43.44355" lon="3.44983">
        <ele>98</ele>
        <time>2014-10-08T11:36:27.000Z</time>
      </trkpt>
      <trkpt lat="43.44352" lon="3.4499">
        <ele>98</ele>
        <time>2014-10-08T11:36:29.000Z</time>
      </trkpt>
      <trkpt lat="43.44349" lon="3.44997">
        <ele>99</ele>
        <time>2014-10-08T11:36:31.000Z</time>
      </trkpt>
      <trkpt lat="43.44346" lon="3.45004">
        <ele>100</ele>
        <time>2014-10-08T11:36:33.000Z</time>
      </trkpt>
      <trkpt lat="43.44343" lon="3.45011">
        <ele>100</ele>
        <time>2014-10-08T11:36:35.000Z</time>
      </trkpt>
      <trkpt lat="43.4434" lon="3.45017">
        <ele>100</ele>
        <time>2014-10-08T11:36:37.000Z</time>
      </trkpt>
      <trkpt lat="43.44337" lon="3.45024">
        <ele>101</ele>
        <time>2014-10-08T11:36:39.000Z</time>
      </trkpt>
      <trkpt lat="43.44334" lon="3.45031">
        <ele>101</ele>
        <time>2014-10-08T11:36:41.000Z</time>
      </trkpt>
      <trkpt lat="43.44331" lon="3.45038">
        <ele>100</ele>
        <time>2014-10-08T11:36:43.000Z</time>
      </trkpt>
      <trkpt lat="43.44328" lon="3.45046">
        <ele>101</ele>
        <time>2014-10-08T11:36:45.000Z</time>
      </trkpt>
      <trkpt lat="43.44325" lon="3.45052">
        <ele>100</ele>
        <time>2014-10-08T11:36:47.000Z</time>
      </trkpt>
      <trkpt lat="43.44322" lon="3.45059">
        <ele>101</ele>
        <time>2014-10-08T11:36:49.000Z</time>
      </trkpt>
      <trkpt lat="43.44319" lon="3.45066">
        <ele>101</ele>
        <time>2014-10-08T11:36:51.000Z</time>
      </trkpt>
      <trkpt lat="43.44319" lon="3.45066">
        <ele>101</ele>
        <time>2014-10-08T11:36:53.000Z</time>
      </trkpt>
      <trkpt lat="43.44315" lon="3.45079">
        <ele>102</ele>
        <time>2014-10-08T11:36:55.000Z</time>
      </trkpt>
      <trkpt lat="43.44315" lon="3.45079">
        <ele>102</ele>
        <time>2014-10-08T11:36:57.000Z</time>
      </trkpt>
      <trkpt lat="43.44312" lon="3.45089">
        <ele>104</ele>
        <time>2014-10-08T11:36:59.000Z</time>
      </trkpt>
      <trkpt lat="43.44312" lon="3.45089">
        <ele>104</ele>
        <time>2014-10-08T11:37:01.000Z</time>
      </trkpt>
      <trkpt lat="43.44311" lon="3.45094">
        <ele>107</ele>
        <time>2014-10-08T11:37:03.000Z</time>
      </trkpt>
      <trkpt lat="43.44309" lon="3.45099">
        <ele>107</ele>
        <time>2014-10-08T11:37:05.000Z</time>
      </trkpt>
      <trkpt lat="43.44308" lon="3.45104">
        <ele>108</ele>
        <time>2014-10-08T11:37:07.000Z</time>
      </trkpt>
      <trkpt lat="43.44306" lon="3.45109">
        <ele>108</ele>
        <time>2014-10-08T11:37:09.000Z</time>
      </trkpt>
      <trkpt lat="43.44305" lon="3.45114">
        <ele>109</ele>
        <time>2014-10-08T11:37:11.000Z</time>
      </trkpt>
      <trkpt lat="43.44302" lon="3.45124">
        <ele>110</ele>
        <time>2014-10-08T11:37:13.000Z</time>
      </trkpt>
      <trkpt lat="43.44302" lon="3.45124">
        <ele>110</ele>
        <time>2014-10-08T11:37:15.000Z</time>
      </trkpt>
      <trkpt lat="43.44299" lon="3.45135">
        <ele>112</ele>
        <time>2014-10-08T11:37:17.000Z</time>
      </trkpt>
      <trkpt lat="43.44299" lon="3.45135">
        <ele>112</ele>
        <time>2014-10-08T11:37:19.000Z</time>
      </trkpt>
      <trkpt lat="43.44295" lon="3.45145">
        <ele>113</ele>
        <time>2014-10-08T11:37:21.000Z</time>
      </trkpt>
      <trkpt lat="43.44295" lon="3.45145">
        <ele>113</ele>
        <time>2014-10-08T11:37:23.000Z</time>
      </trkpt>
      <trkpt lat="43.44292" lon="3.45156">
        <ele>115</ele>
        <time>2014-10-08T11:37:25.000Z</time>
      </trkpt>
      <trkpt lat="43.44292" lon="3.45156">
        <ele>115</ele>
        <time>2014-10-08T11:37:27.000Z</time>
      </trkpt>
      <trkpt lat="43.44288" lon="3.45166">
        <ele>117</ele>
        <time>2014-10-08T11:37:29.000Z</time>
      </trkpt>
      <trkpt lat="43.44288" lon="3.45166">
        <ele>117</ele>
        <time>2014-10-08T11:37:31.000Z</time>
      </trkpt>
      <trkpt lat="43.44287" lon="3.45178">
        <ele>115</ele>
        <time>2014-10-08T11:37:33.000Z</time>
      </trkpt>
      <trkpt lat="43.44287" lon="3.45186">
        <ele>115</ele>
        <time>2014-10-08T11:37:35.000Z</time>
      </trkpt>
      <trkpt lat="43.44286" lon="3.45194">
        <ele>115</ele>
        <time>2014-10-08T11:37:37.000Z</time>
      </trkpt>
      <trkpt lat="43.44283" lon="3.45201">
        <ele>116</ele>
        <time>2014-10-08T11:37:39.000Z</time>
      </trkpt>
      <trkpt lat="43.44278" lon="3.45215">
        <ele>115</ele>
        <time>2014-10-08T11:37:43.000Z</time>
      </trkpt>
      <trkpt lat="43.44275" lon="3.45222">
        <ele>113</ele>
        <time>2014-10-08T11:37:45.000Z</time>
      </trkpt>
      <trkpt lat="43.44271" lon="3.4523">
        <ele>114</ele>
        <time>2014-10-08T11:37:47.000Z</time>
      </trkpt>
      <trkpt lat="43.44267" lon="3.45238">
        <ele>113</ele>
        <time>2014-10-08T11:37:49.000Z</time>
      </trkpt>
      <trkpt lat="43.44262" lon="3.45247">
        <ele>113</ele>
        <time>2014-10-08T11:37:51.000Z</time>
      </trkpt>
      <trkpt lat="43.44255" lon="3.45261">
        <ele>110</ele>
        <time>2014-10-08T11:37:53.000Z</time>
      </trkpt>
      <trkpt lat="43.44249" lon="3.45269">
        <ele>110</ele>
        <time>2014-10-08T11:37:55.000Z</time>
      </trkpt>
      <trkpt lat="43.44244" lon="3.45281">
        <ele>110</ele>
        <time>2014-10-08T11:37:57.000Z</time>
      </trkpt>
      <trkpt lat="43.44238" lon="3.45295">
        <ele>109</ele>
        <time>2014-10-08T11:37:59.000Z</time>
      </trkpt>
      <trkpt lat="43.44231" lon="3.45307">
        <ele>106</ele>
        <time>2014-10-08T11:38:01.000Z</time>
      </trkpt>
      <trkpt lat="43.44226" lon="3.4532">
        <ele>104</ele>
        <time>2014-10-08T11:38:03.000Z</time>
      </trkpt>
      <trkpt lat="43.44218" lon="3.45331">
        <ele>104</ele>
        <time>2014-10-08T11:38:05.000Z</time>
      </trkpt>
      <trkpt lat="43.44211" lon="3.45343">
        <ele>103</ele>
        <time>2014-10-08T11:38:07.000Z</time>
      </trkpt>
      <trkpt lat="43.44204" lon="3.45356">
        <ele>102</ele>
        <time>2014-10-08T11:38:09.000Z</time>
      </trkpt>
      <trkpt lat="43.44196" lon="3.4537">
        <ele>103</ele>
        <time>2014-10-08T11:38:11.000Z</time>
      </trkpt>
      <trkpt lat="43.4419" lon="3.45383">
        <ele>104</ele>
        <time>2014-10-08T11:38:13.000Z</time>
      </trkpt>
      <trkpt lat="43.44179" lon="3.45414">
        <ele>101</ele>
        <time>2014-10-08T11:38:16.000Z</time>
      </trkpt>
      <trkpt lat="43.44176" lon="3.45434">
        <ele>101</ele>
        <time>2014-10-08T11:38:18.000Z</time>
      </trkpt>
      <trkpt lat="43.44175" lon="3.45453">
        <ele>100</ele>
        <time>2014-10-08T11:38:20.000Z</time>
      </trkpt>
      <trkpt lat="43.44168" lon="3.45465">
        <ele>98</ele>
        <time>2014-10-08T11:38:22.000Z</time>
      </trkpt>
      <trkpt lat="43.44163" lon="3.45472">
        <ele>99</ele>
        <time>2014-10-08T11:38:24.000Z</time>
      </trkpt>
      <trkpt lat="43.44157" lon="3.45474">
        <ele>99</ele>
        <time>2014-10-08T11:38:26.000Z</time>
      </trkpt>
      <trkpt lat="43.44157" lon="3.45474">
        <ele>99</ele>
        <time>2014-10-08T11:38:28.000Z</time>
      </trkpt>
      <trkpt lat="43.44153" lon="3.45487">
        <ele>97</ele>
        <time>2014-10-08T11:38:30.000Z</time>
      </trkpt>
      <trkpt lat="43.44153" lon="3.45487">
        <ele>97</ele>
        <time>2014-10-08T11:38:32.000Z</time>
      </trkpt>
      <trkpt lat="43.44152" lon="3.45496">
        <ele>96</ele>
        <time>2014-10-08T11:38:34.000Z</time>
      </trkpt>
      <trkpt lat="43.44152" lon="3.45496">
        <ele>96</ele>
        <time>2014-10-08T11:38:36.000Z</time>
      </trkpt>
      <trkpt lat="43.44152" lon="3.45496">
        <ele>96</ele>
        <time>2014-10-08T11:38:38.000Z</time>
      </trkpt>
      <trkpt lat="43.44147" lon="3.45505">
        <ele>100</ele>
        <time>2014-10-08T11:38:40.000Z</time>
      </trkpt>
      <trkpt lat="43.44147" lon="3.45505">
        <ele>100</ele>
        <time>2014-10-08T11:38:42.000Z</time>
      </trkpt>
      <trkpt lat="43.44143" lon="3.45512">
        <ele>101</ele>
        <time>2014-10-08T11:38:44.000Z</time>
      </trkpt>
      <trkpt lat="43.44138" lon="3.45521">
        <ele>100</ele>
        <time>2014-10-08T11:38:48.000Z</time>
      </trkpt>
      <trkpt lat="43.44133" lon="3.4553">
        <ele>103</ele>
        <time>2014-10-08T11:38:52.000Z</time>
      </trkpt>
      <trkpt lat="43.44133" lon="3.4553">
        <ele>103</ele>
        <time>2014-10-08T11:38:54.000Z</time>
      </trkpt>
      <trkpt lat="43.44133" lon="3.4553">
        <ele>103</ele>
        <time>2014-10-08T11:38:56.000Z</time>
      </trkpt>
      <trkpt lat="43.44128" lon="3.4554">
        <ele>104</ele>
        <time>2014-10-08T11:38:58.000Z</time>
      </trkpt>
      <trkpt lat="43.44123" lon="3.45553">
        <ele>104</ele>
        <time>2014-10-08T11:39:02.000Z</time>
      </trkpt>
      <trkpt lat="43.44118" lon="3.45567">
        <ele>102</ele>
        <time>2014-10-08T11:39:06.000Z</time>
      </trkpt>
      <trkpt lat="43.44114" lon="3.45575">
        <ele>101</ele>
        <time>2014-10-08T11:39:08.000Z</time>
      </trkpt>
      <trkpt lat="43.44111" lon="3.45581">
        <ele>102</ele>
        <time>2014-10-08T11:39:10.000Z</time>
      </trkpt>
      <trkpt lat="43.44111" lon="3.45581">
        <ele>102</ele>
        <time>2014-10-08T11:39:12.000Z</time>
      </trkpt>
      <trkpt lat="43.44106" lon="3.45593">
        <ele>103</ele>
        <time>2014-10-08T11:39:14.000Z</time>
      </trkpt>
      <trkpt lat="43.44102" lon="3.45599">
        <ele>101</ele>
        <time>2014-10-08T11:39:16.000Z</time>
      </trkpt>
      <trkpt lat="43.44099" lon="3.45606">
        <ele>102</ele>
        <time>2014-10-08T11:39:18.000Z</time>
      </trkpt>
      <trkpt lat="43.44096" lon="3.45613">
        <ele>102</ele>
        <time>2014-10-08T11:39:20.000Z</time>
      </trkpt>
      <trkpt lat="43.44096" lon="3.45613">
        <ele>102</ele>
        <time>2014-10-08T11:39:22.000Z</time>
      </trkpt>
      <trkpt lat="43.44093" lon="3.45621">
        <ele>104</ele>
        <time>2014-10-08T11:39:24.000Z</time>
      </trkpt>
      <trkpt lat="43.44093" lon="3.45621">
        <ele>104</ele>
        <time>2014-10-08T11:39:26.000Z</time>
      </trkpt>
      <trkpt lat="43.44086" lon="3.45627">
        <ele>105</ele>
        <time>2014-10-08T11:39:28.000Z</time>
      </trkpt>
      <trkpt lat="43.4408" lon="3.45632">
        <ele>107</ele>
        <time>2014-10-08T11:39:32.000Z</time>
      </trkpt>
      <trkpt lat="43.4408" lon="3.45632">
        <ele>107</ele>
        <time>2014-10-08T11:39:34.000Z</time>
      </trkpt>
      <trkpt lat="43.44074" lon="3.45628">
        <ele>103</ele>
        <time>2014-10-08T11:39:36.000Z</time>
      </trkpt>
      <trkpt lat="43.44068" lon="3.45616">
        <ele>102</ele>
        <time>2014-10-08T11:39:40.000Z</time>
      </trkpt>
      <trkpt lat="43.44065" lon="3.45608">
        <ele>102</ele>
        <time>2014-10-08T11:39:44.000Z</time>
      </trkpt>
      <trkpt lat="43.44065" lon="3.45608">
        <ele>102</ele>
        <time>2014-10-08T11:39:46.000Z</time>
      </trkpt>
      <trkpt lat="43.44064" lon="3.45599">
        <ele>102</ele>
        <time>2014-10-08T11:39:48.000Z</time>
      </trkpt>
      <trkpt lat="43.44064" lon="3.45599">
        <ele>102</ele>
        <time>2014-10-08T11:39:50.000Z</time>
      </trkpt>
      <trkpt lat="43.44063" lon="3.45589">
        <ele>105</ele>
        <time>2014-10-08T11:39:52.000Z</time>
      </trkpt>
      <trkpt lat="43.44063" lon="3.45589">
        <ele>105</ele>
        <time>2014-10-08T11:39:54.000Z</time>
      </trkpt>
      <trkpt lat="43.44057" lon="3.45582">
        <ele>105</ele>
        <time>2014-10-08T11:39:56.000Z</time>
      </trkpt>
      <trkpt lat="43.44054" lon="3.45571">
        <ele>108</ele>
        <time>2014-10-08T11:40:00.000Z</time>
      </trkpt>
      <trkpt lat="43.44054" lon="3.45571">
        <ele>108</ele>
        <time>2014-10-08T11:40:02.000Z</time>
      </trkpt>
      <trkpt lat="43.44051" lon="3.45564">
        <ele>110</ele>
        <time>2014-10-08T11:40:04.000Z</time>
      </trkpt>
      <trkpt lat="43.44051" lon="3.45564">
        <ele>110</ele>
        <time>2014-10-08T11:40:06.000Z</time>
      </trkpt>
      <trkpt lat="43.44051" lon="3.45564">
        <ele>110</ele>
        <time>2014-10-08T11:40:08.000Z</time>
      </trkpt>
      <trkpt lat="43.44051" lon="3.45564">
        <ele>110</ele>
        <time>2014-10-08T11:40:10.000Z</time>
      </trkpt>
      <trkpt lat="43.44051" lon="3.45564">
        <ele>110</ele>
        <time>2014-10-08T11:40:12.000Z</time>
      </trkpt>
      <trkpt lat="43.44051" lon="3.45564">
        <ele>110</ele>
        <time>2014-10-08T11:40:14.000Z</time>
      </trkpt>
      <trkpt lat="43.44049" lon="3.45543">
        <ele>117</ele>
        <time>2014-10-08T11:40:34.000Z</time>
      </trkpt>
      <trkpt lat="43.44049" lon="3.45543">
        <ele>117</ele>
        <time>2014-10-08T11:40:36.000Z</time>
      </trkpt>
      <trkpt lat="43.44049" lon="3.45543">
        <ele>117</ele>
        <time>2014-10-08T11:40:38.000Z</time>
      </trkpt>
      <trkpt lat="43.44049" lon="3.45543">
        <ele>117</ele>
        <time>2014-10-08T11:40:40.000Z</time>
      </trkpt>
      <trkpt lat="43.4404" lon="3.45517">
        <ele>112</ele>
        <time>2014-10-08T11:40:52.000Z</time>
      </trkpt>
      <trkpt lat="43.44032" lon="3.455">
        <ele>113</ele>
        <time>2014-10-08T11:40:54.000Z</time>
      </trkpt>
      <trkpt lat="43.44026" lon="3.45489">
        <ele>112</ele>
        <time>2014-10-08T11:40:56.000Z</time>
      </trkpt>
      <trkpt lat="43.44021" lon="3.45481">
        <ele>111</ele>
        <time>2014-10-08T11:40:58.000Z</time>
      </trkpt>
      <trkpt lat="43.44015" lon="3.45475">
        <ele>112</ele>
        <time>2014-10-08T11:41:00.000Z</time>
      </trkpt>
      <trkpt lat="43.44004" lon="3.4546">
        <ele>111</ele>
        <time>2014-10-08T11:41:02.000Z</time>
      </trkpt>
      <trkpt lat="43.44" lon="3.4545">
        <ele>111</ele>
        <time>2014-10-08T11:41:04.000Z</time>
      </trkpt>
      <trkpt lat="43.43996" lon="3.45443">
        <ele>111</ele>
        <time>2014-10-08T11:41:06.000Z</time>
      </trkpt>
      <trkpt lat="43.43991" lon="3.45436">
        <ele>113</ele>
        <time>2014-10-08T11:41:08.000Z</time>
      </trkpt>
      <trkpt lat="43.43988" lon="3.45427">
        <ele>111</ele>
        <time>2014-10-08T11:41:10.000Z</time>
      </trkpt>
      <trkpt lat="43.43984" lon="3.4542">
        <ele>114</ele>
        <time>2014-10-08T11:41:12.000Z</time>
      </trkpt>
      <trkpt lat="43.4398" lon="3.45415">
        <ele>113</ele>
        <time>2014-10-08T11:41:14.000Z</time>
      </trkpt>
      <trkpt lat="43.43974" lon="3.4541">
        <ele>113</ele>
        <time>2014-10-08T11:41:16.000Z</time>
      </trkpt>
      <trkpt lat="43.43974" lon="3.4541">
        <ele>113</ele>
        <time>2014-10-08T11:41:18.000Z</time>
      </trkpt>
      <trkpt lat="43.43966" lon="3.45398">
        <ele>111</ele>
        <time>2014-10-08T11:41:20.000Z</time>
      </trkpt>
      <trkpt lat="43.43962" lon="3.45391">
        <ele>113</ele>
        <time>2014-10-08T11:41:22.000Z</time>
      </trkpt>
      <trkpt lat="43.43956" lon="3.45386">
        <ele>110</ele>
        <time>2014-10-08T11:41:24.000Z</time>
      </trkpt>
      <trkpt lat="43.43956" lon="3.45386">
        <ele>110</ele>
        <time>2014-10-08T11:41:26.000Z</time>
      </trkpt>
      <trkpt lat="43.43948" lon="3.45381">
        <ele>109</ele>
        <time>2014-10-08T11:41:28.000Z</time>
      </trkpt>
      <trkpt lat="43.43948" lon="3.45381">
        <ele>109</ele>
        <time>2014-10-08T11:41:30.000Z</time>
      </trkpt>
      <trkpt lat="43.43943" lon="3.4537">
        <ele>112</ele>
        <time>2014-10-08T11:41:32.000Z</time>
      </trkpt>
      <trkpt lat="43.43943" lon="3.4537">
        <ele>112</ele>
        <time>2014-10-08T11:41:34.000Z</time>
      </trkpt>
      <trkpt lat="43.43936" lon="3.45356">
        <ele>110</ele>
        <time>2014-10-08T11:41:36.000Z</time>
      </trkpt>
      <trkpt lat="43.4393" lon="3.45352">
        <ele>109</ele>
        <time>2014-10-08T11:41:38.000Z</time>
      </trkpt>
      <trkpt lat="43.43923" lon="3.45347">
        <ele>109</ele>
        <time>2014-10-08T11:41:40.000Z</time>
      </trkpt>
      <trkpt lat="43.43914" lon="3.4534">
        <ele>110</ele>
        <time>2014-10-08T11:41:42.000Z</time>
      </trkpt>
      <trkpt lat="43.43907" lon="3.4533">
        <ele>108</ele>
        <time>2014-10-08T11:41:44.000Z</time>
      </trkpt>
      <trkpt lat="43.43901" lon="3.45321">
        <ele>111</ele>
        <time>2014-10-08T11:41:46.000Z</time>
      </trkpt>
      <trkpt lat="43.43895" lon="3.45315">
        <ele>111</ele>
        <time>2014-10-08T11:41:48.000Z</time>
      </trkpt>
      <trkpt lat="43.43887" lon="3.45312">
        <ele>110</ele>
        <time>2014-10-08T11:41:50.000Z</time>
      </trkpt>
      <trkpt lat="43.43877" lon="3.4531">
        <ele>108</ele>
        <time>2014-10-08T11:41:52.000Z</time>
      </trkpt>
      <trkpt lat="43.4387" lon="3.4531">
        <ele>105</ele>
        <time>2014-10-08T11:41:54.000Z</time>
      </trkpt>
      <trkpt lat="43.43863" lon="3.45307">
        <ele>104</ele>
        <time>2014-10-08T11:41:56.000Z</time>
      </trkpt>
      <trkpt lat="43.43856" lon="3.45301">
        <ele>100</ele>
        <time>2014-10-08T11:41:58.000Z</time>
      </trkpt>
      <trkpt lat="43.43835" lon="3.45289">
        <ele>98</ele>
        <time>2014-10-08T11:42:01.000Z</time>
      </trkpt>
      <trkpt lat="43.43826" lon="3.45284">
        <ele>96</ele>
        <time>2014-10-08T11:42:03.000Z</time>
      </trkpt>
      <trkpt lat="43.43814" lon="3.45278">
        <ele>95</ele>
        <time>2014-10-08T11:42:05.000Z</time>
      </trkpt>
      <trkpt lat="43.43807" lon="3.45268">
        <ele>95</ele>
        <time>2014-10-08T11:42:08.000Z</time>
      </trkpt>
      <trkpt lat="43.43798" lon="3.45249">
        <ele>97</ele>
        <time>2014-10-08T11:42:11.000Z</time>
      </trkpt>
      <trkpt lat="43.43792" lon="3.4524">
        <ele>94</ele>
        <time>2014-10-08T11:42:13.000Z</time>
      </trkpt>
      <trkpt lat="43.43786" lon="3.45237">
        <ele>92</ele>
        <time>2014-10-08T11:42:15.000Z</time>
      </trkpt>
      <trkpt lat="43.43778" lon="3.45234">
        <ele>92</ele>
        <time>2014-10-08T11:42:17.000Z</time>
      </trkpt>
      <trkpt lat="43.43769" lon="3.45232">
        <ele>90</ele>
        <time>2014-10-08T11:42:19.000Z</time>
      </trkpt>
      <trkpt lat="43.4376" lon="3.45227">
        <ele>90</ele>
        <time>2014-10-08T11:42:21.000Z</time>
      </trkpt>
      <trkpt lat="43.43753" lon="3.45224">
        <ele>86</ele>
        <time>2014-10-08T11:42:23.000Z</time>
      </trkpt>
      <trkpt lat="43.43749" lon="3.45216">
        <ele>84</ele>
        <time>2014-10-08T11:42:25.000Z</time>
      </trkpt>
      <trkpt lat="43.43748" lon="3.45207">
        <ele>84</ele>
        <time>2014-10-08T11:42:27.000Z</time>
      </trkpt>
      <trkpt lat="43.43746" lon="3.45198">
        <ele>85</ele>
        <time>2014-10-08T11:42:29.000Z</time>
      </trkpt>
      <trkpt lat="43.43746" lon="3.45198">
        <ele>85</ele>
        <time>2014-10-08T11:42:31.000Z</time>
      </trkpt>
      <trkpt lat="43.43738" lon="3.45197">
        <ele>87</ele>
        <time>2014-10-08T11:42:33.000Z</time>
      </trkpt>
      <trkpt lat="43.43738" lon="3.45197">
        <ele>87</ele>
        <time>2014-10-08T11:42:35.000Z</time>
      </trkpt>
      <trkpt lat="43.4373" lon="3.45202">
        <ele>85</ele>
        <time>2014-10-08T11:42:37.000Z</time>
      </trkpt>
      <trkpt lat="43.43723" lon="3.45202">
        <ele>85</ele>
        <time>2014-10-08T11:42:39.000Z</time>
      </trkpt>
      <trkpt lat="43.43717" lon="3.45203">
        <ele>85</ele>
        <time>2014-10-08T11:42:41.000Z</time>
      </trkpt>
      <trkpt lat="43.43717" lon="3.45203">
        <ele>85</ele>
        <time>2014-10-08T11:42:43.000Z</time>
      </trkpt>
      <trkpt lat="43.43717" lon="3.45203">
        <ele>85</ele>
        <time>2014-10-08T11:42:45.000Z</time>
      </trkpt>
      <trkpt lat="43.43711" lon="3.45209">
        <ele>85</ele>
        <time>2014-10-08T11:42:47.000Z</time>
      </trkpt>
      <trkpt lat="43.43705" lon="3.45207">
        <ele>86</ele>
        <time>2014-10-08T11:42:51.000Z</time>
      </trkpt>
      <trkpt lat="43.43703" lon="3.45193">
        <ele>88</ele>
        <time>2014-10-08T11:42:55.000Z</time>
      </trkpt>
      <trkpt lat="43.43702" lon="3.45179">
        <ele>87</ele>
        <time>2014-10-08T11:42:59.000Z</time>
      </trkpt>
      <trkpt lat="43.43699" lon="3.45167">
        <ele>88</ele>
        <time>2014-10-08T11:43:03.000Z</time>
      </trkpt>
      <trkpt lat="43.43699" lon="3.45167">
        <ele>88</ele>
        <time>2014-10-08T11:43:05.000Z</time>
      </trkpt>
      <trkpt lat="43.43693" lon="3.45156">
        <ele>88</ele>
        <time>2014-10-08T11:43:07.000Z</time>
      </trkpt>
      <trkpt lat="43.43693" lon="3.45156">
        <ele>88</ele>
        <time>2014-10-08T11:43:09.000Z</time>
      </trkpt>
      <trkpt lat="43.43686" lon="3.45147">
        <ele>89</ele>
        <time>2014-10-08T11:43:11.000Z</time>
      </trkpt>
      <trkpt lat="43.43686" lon="3.45147">
        <ele>89</ele>
        <time>2014-10-08T11:43:13.000Z</time>
      </trkpt>
      <trkpt lat="43.43681" lon="3.45138">
        <ele>91</ele>
        <time>2014-10-08T11:43:15.000Z</time>
      </trkpt>
      <trkpt lat="43.43681" lon="3.45138">
        <ele>91</ele>
        <time>2014-10-08T11:43:17.000Z</time>
      </trkpt>
      <trkpt lat="43.43675" lon="3.45126">
        <ele>91</ele>
        <time>2014-10-08T11:43:19.000Z</time>
      </trkpt>
      <trkpt lat="43.43675" lon="3.45126">
        <ele>91</ele>
        <time>2014-10-08T11:43:21.000Z</time>
      </trkpt>
      <trkpt lat="43.43669" lon="3.45115">
        <ele>96</ele>
        <time>2014-10-08T11:43:23.000Z</time>
      </trkpt>
      <trkpt lat="43.43664" lon="3.4511">
        <ele>92</ele>
        <time>2014-10-08T11:43:25.000Z</time>
      </trkpt>
      <trkpt lat="43.43664" lon="3.4511">
        <ele>92</ele>
        <time>2014-10-08T11:43:27.000Z</time>
      </trkpt>
      <trkpt lat="43.43656" lon="3.45103">
        <ele>94</ele>
        <time>2014-10-08T11:43:29.000Z</time>
      </trkpt>
      <trkpt lat="43.43656" lon="3.45103">
        <ele>94</ele>
        <time>2014-10-08T11:43:31.000Z</time>
      </trkpt>
      <trkpt lat="43.43649" lon="3.45098">
        <ele>96</ele>
        <time>2014-10-08T11:43:33.000Z</time>
      </trkpt>
      <trkpt lat="43.43649" lon="3.45098">
        <ele>96</ele>
        <time>2014-10-08T11:43:35.000Z</time>
      </trkpt>
      <trkpt lat="43.43641" lon="3.45098">
        <ele>98</ele>
        <time>2014-10-08T11:43:37.000Z</time>
      </trkpt>
      <trkpt lat="43.43641" lon="3.45098">
        <ele>98</ele>
        <time>2014-10-08T11:43:39.000Z</time>
      </trkpt>
      <trkpt lat="43.43632" lon="3.45098">
        <ele>99</ele>
        <time>2014-10-08T11:43:41.000Z</time>
      </trkpt>
      <trkpt lat="43.43632" lon="3.45098">
        <ele>99</ele>
        <time>2014-10-08T11:43:43.000Z</time>
      </trkpt>
      <trkpt lat="43.43623" lon="3.45101">
        <ele>100</ele>
        <time>2014-10-08T11:43:45.000Z</time>
      </trkpt>
      <trkpt lat="43.43623" lon="3.45101">
        <ele>100</ele>
        <time>2014-10-08T11:43:47.000Z</time>
      </trkpt>
      <trkpt lat="43.43613" lon="3.45106">
        <ele>99</ele>
        <time>2014-10-08T11:43:49.000Z</time>
      </trkpt>
      <trkpt lat="43.43608" lon="3.4511">
        <ele>100</ele>
        <time>2014-10-08T11:43:51.000Z</time>
      </trkpt>
      <trkpt lat="43.43603" lon="3.45115">
        <ele>99</ele>
        <time>2014-10-08T11:43:53.000Z</time>
      </trkpt>
      <trkpt lat="43.43598" lon="3.4512">
        <ele>101</ele>
        <time>2014-10-08T11:43:55.000Z</time>
      </trkpt>
      <trkpt lat="43.43594" lon="3.45125">
        <ele>103</ele>
        <time>2014-10-08T11:43:57.000Z</time>
      </trkpt>
      <trkpt lat="43.43586" lon="3.45131">
        <ele>103</ele>
        <time>2014-10-08T11:44:01.000Z</time>
      </trkpt>
      <trkpt lat="43.43586" lon="3.45131">
        <ele>103</ele>
        <time>2014-10-08T11:44:03.000Z</time>
      </trkpt>
      <trkpt lat="43.43585" lon="3.45142">
        <ele>102</ele>
        <time>2014-10-08T11:44:05.000Z</time>
      </trkpt>
      <trkpt lat="43.43585" lon="3.45142">
        <ele>102</ele>
        <time>2014-10-08T11:44:07.000Z</time>
      </trkpt>
      <trkpt lat="43.43577" lon="3.45141">
        <ele>102</ele>
        <time>2014-10-08T11:44:09.000Z</time>
      </trkpt>
      <trkpt lat="43.43568" lon="3.45129">
        <ele>102</ele>
        <time>2014-10-08T11:44:13.000Z</time>
      </trkpt>
      <trkpt lat="43.43564" lon="3.45121">
        <ele>101</ele>
        <time>2014-10-08T11:44:15.000Z</time>
      </trkpt>
      <trkpt lat="43.43559" lon="3.45115">
        <ele>101</ele>
        <time>2014-10-08T11:44:17.000Z</time>
      </trkpt>
      <trkpt lat="43.43554" lon="3.45111">
        <ele>100</ele>
        <time>2014-10-08T11:44:19.000Z</time>
      </trkpt>
      <trkpt lat="43.43549" lon="3.45107">
        <ele>101</ele>
        <time>2014-10-08T11:44:21.000Z</time>
      </trkpt>
      <trkpt lat="43.43546" lon="3.451">
        <ele>100</ele>
        <time>2014-10-08T11:44:23.000Z</time>
      </trkpt>
      <trkpt lat="43.4354" lon="3.45097">
        <ele>99</ele>
        <time>2014-10-08T11:44:25.000Z</time>
      </trkpt>
      <trkpt lat="43.43534" lon="3.45094">
        <ele>99</ele>
        <time>2014-10-08T11:44:27.000Z</time>
      </trkpt>
      <trkpt lat="43.43527" lon="3.45089">
        <ele>98</ele>
        <time>2014-10-08T11:44:29.000Z</time>
      </trkpt>
      <trkpt lat="43.43527" lon="3.45089">
        <ele>98</ele>
        <time>2014-10-08T11:44:32.000Z</time>
      </trkpt>
      <trkpt lat="43.43521" lon="3.45092">
        <ele>99</ele>
        <time>2014-10-08T11:44:34.000Z</time>
      </trkpt>
      <trkpt lat="43.43521" lon="3.45092">
        <ele>99</ele>
        <time>2014-10-08T11:44:36.000Z</time>
      </trkpt>
      <trkpt lat="43.4352" lon="3.45107">
        <ele>98</ele>
        <time>2014-10-08T11:44:38.000Z</time>
      </trkpt>
      <trkpt lat="43.4352" lon="3.45113">
        <ele>96</ele>
        <time>2014-10-08T11:44:42.000Z</time>
      </trkpt>
      <trkpt lat="43.43519" lon="3.45118">
        <ele>96</ele>
        <time>2014-10-08T11:44:44.000Z</time>
      </trkpt>
      <trkpt lat="43.43518" lon="3.45124">
        <ele>96</ele>
        <time>2014-10-08T11:44:46.000Z</time>
      </trkpt>
      <trkpt lat="43.43518" lon="3.4513">
        <ele>96</ele>
        <time>2014-10-08T11:44:48.000Z</time>
      </trkpt>
      <trkpt lat="43.43518" lon="3.45135">
        <ele>95</ele>
        <time>2014-10-08T11:44:50.000Z</time>
      </trkpt>
      <trkpt lat="43.43519" lon="3.45147">
        <ele>94</ele>
        <time>2014-10-08T11:44:52.000Z</time>
      </trkpt>
      <trkpt lat="43.43517" lon="3.45159">
        <ele>95</ele>
        <time>2014-10-08T11:44:56.000Z</time>
      </trkpt>
      <trkpt lat="43.43517" lon="3.45173">
        <ele>92</ele>
        <time>2014-10-08T11:45:00.000Z</time>
      </trkpt>
      <trkpt lat="43.43517" lon="3.45181">
        <ele>93</ele>
        <time>2014-10-08T11:45:02.000Z</time>
      </trkpt>
      <trkpt lat="43.43518" lon="3.45189">
        <ele>92</ele>
        <time>2014-10-08T11:45:04.000Z</time>
      </trkpt>
      <trkpt lat="43.4352" lon="3.45197">
        <ele>93</ele>
        <time>2014-10-08T11:45:06.000Z</time>
      </trkpt>
      <trkpt lat="43.43523" lon="3.45205">
        <ele>96</ele>
        <time>2014-10-08T11:45:08.000Z</time>
      </trkpt>
      <trkpt lat="43.43525" lon="3.45213">
        <ele>93</ele>
        <time>2014-10-08T11:45:10.000Z</time>
      </trkpt>
      <trkpt lat="43.43527" lon="3.45222">
        <ele>92</ele>
        <time>2014-10-08T11:45:12.000Z</time>
      </trkpt>
      <trkpt lat="43.43529" lon="3.4523">
        <ele>93</ele>
        <time>2014-10-08T11:45:14.000Z</time>
      </trkpt>
      <trkpt lat="43.4353" lon="3.45239">
        <ele>91</ele>
        <time>2014-10-08T11:45:16.000Z</time>
      </trkpt>
      <trkpt lat="43.43531" lon="3.45247">
        <ele>92</ele>
        <time>2014-10-08T11:45:18.000Z</time>
      </trkpt>
      <trkpt lat="43.43531" lon="3.45256">
        <ele>95</ele>
        <time>2014-10-08T11:45:20.000Z</time>
      </trkpt>
      <trkpt lat="43.43531" lon="3.45266">
        <ele>93</ele>
        <time>2014-10-08T11:45:22.000Z</time>
      </trkpt>
      <trkpt lat="43.4353" lon="3.45276">
        <ele>94</ele>
        <time>2014-10-08T11:45:24.000Z</time>
      </trkpt>
      <trkpt lat="43.43529" lon="3.45284">
        <ele>92</ele>
        <time>2014-10-08T11:45:26.000Z</time>
      </trkpt>
      <trkpt lat="43.43529" lon="3.45292">
        <ele>92</ele>
        <time>2014-10-08T11:45:28.000Z</time>
      </trkpt>
      <trkpt lat="43.43529" lon="3.45292">
        <ele>92</ele>
        <time>2014-10-08T11:45:30.000Z</time>
      </trkpt>
      <trkpt lat="43.43526" lon="3.45306">
        <ele>95</ele>
        <time>2014-10-08T11:45:32.000Z</time>
      </trkpt>
      <trkpt lat="43.43526" lon="3.45306">
        <ele>95</ele>
        <time>2014-10-08T11:45:34.000Z</time>
      </trkpt>
      <trkpt lat="43.43523" lon="3.4532">
        <ele>97</ele>
        <time>2014-10-08T11:45:36.000Z</time>
      </trkpt>
      <trkpt lat="43.43523" lon="3.45327">
        <ele>97</ele>
        <time>2014-10-08T11:45:38.000Z</time>
      </trkpt>
      <trkpt lat="43.43523" lon="3.45327">
        <ele>97</ele>
        <time>2014-10-08T11:45:40.000Z</time>
      </trkpt>
      <trkpt lat="43.43524" lon="3.4534">
        <ele>99</ele>
        <time>2014-10-08T11:45:42.000Z</time>
      </trkpt>
      <trkpt lat="43.43524" lon="3.4534">
        <ele>99</ele>
        <time>2014-10-08T11:45:44.000Z</time>
      </trkpt>
      <trkpt lat="43.43525" lon="3.45352">
        <ele>101</ele>
        <time>2014-10-08T11:45:46.000Z</time>
      </trkpt>
      <trkpt lat="43.43525" lon="3.45352">
        <ele>101</ele>
        <time>2014-10-08T11:45:48.000Z</time>
      </trkpt>
      <trkpt lat="43.43517" lon="3.45359">
        <ele>103</ele>
        <time>2014-10-08T11:45:50.000Z</time>
      </trkpt>
      <trkpt lat="43.43517" lon="3.45359">
        <ele>103</ele>
        <time>2014-10-08T11:45:52.000Z</time>
      </trkpt>
      <trkpt lat="43.43507" lon="3.45358">
        <ele>104</ele>
        <time>2014-10-08T11:45:54.000Z</time>
      </trkpt>
      <trkpt lat="43.43507" lon="3.45358">
        <ele>104</ele>
        <time>2014-10-08T11:45:56.000Z</time>
      </trkpt>
      <trkpt lat="43.43499" lon="3.45349">
        <ele>105</ele>
        <time>2014-10-08T11:45:58.000Z</time>
      </trkpt>
      <trkpt lat="43.43499" lon="3.45349">
        <ele>105</ele>
        <time>2014-10-08T11:46:00.000Z</time>
      </trkpt>
      <trkpt lat="43.43499" lon="3.45349">
        <ele>105</ele>
        <time>2014-10-08T11:46:02.000Z</time>
      </trkpt>
      <trkpt lat="43.43499" lon="3.45349">
        <ele>105</ele>
        <time>2014-10-08T11:46:04.000Z</time>
      </trkpt>
      <trkpt lat="43.43499" lon="3.45349">
        <ele>105</ele>
        <time>2014-10-08T11:46:06.000Z</time>
      </trkpt>
      <trkpt lat="43.43506" lon="3.45352">
        <ele>105</ele>
        <time>2014-10-08T11:46:08.000Z</time>
      </trkpt>
      <trkpt lat="43.43514" lon="3.45362">
        <ele>104</ele>
        <time>2014-10-08T11:46:12.000Z</time>
      </trkpt>
      <trkpt lat="43.4352" lon="3.45371">
        <ele>101</ele>
        <time>2014-10-08T11:46:16.000Z</time>
      </trkpt>
      <trkpt lat="43.4352" lon="3.45371">
        <ele>101</ele>
        <time>2014-10-08T11:46:18.000Z</time>
      </trkpt>
      <trkpt lat="43.43518" lon="3.45383">
        <ele>103</ele>
        <time>2014-10-08T11:46:20.000Z</time>
      </trkpt>
      <trkpt lat="43.43515" lon="3.4539">
        <ele>102</ele>
        <time>2014-10-08T11:46:22.000Z</time>
      </trkpt>
      <trkpt lat="43.43507" lon="3.45398">
        <ele>104</ele>
        <time>2014-10-08T11:46:26.000Z</time>
      </trkpt>
      <trkpt lat="43.43502" lon="3.45402">
        <ele>106</ele>
        <time>2014-10-08T11:46:28.000Z</time>
      </trkpt>
      <trkpt lat="43.43494" lon="3.45411">
        <ele>107</ele>
        <time>2014-10-08T11:46:32.000Z</time>
      </trkpt>
      <trkpt lat="43.43483" lon="3.45414">
        <ele>109</ele>
        <time>2014-10-08T11:46:36.000Z</time>
      </trkpt>
      <trkpt lat="43.43474" lon="3.45414">
        <ele>110</ele>
        <time>2014-10-08T11:46:40.000Z</time>
      </trkpt>
      <trkpt lat="43.43465" lon="3.45416">
        <ele>108</ele>
        <time>2014-10-08T11:46:44.000Z</time>
      </trkpt>
      <trkpt lat="43.43455" lon="3.4542">
        <ele>110</ele>
        <time>2014-10-08T11:46:48.000Z</time>
      </trkpt>
      <trkpt lat="43.43455" lon="3.4542">
        <ele>110</ele>
        <time>2014-10-08T11:46:50.000Z</time>
      </trkpt>
      <trkpt lat="43.43449" lon="3.45423">
        <ele>111</ele>
        <time>2014-10-08T11:46:52.000Z</time>
      </trkpt>
      <trkpt lat="43.43449" lon="3.45423">
        <ele>111</ele>
        <time>2014-10-08T11:46:54.000Z</time>
      </trkpt>
      <trkpt lat="43.43439" lon="3.45416">
        <ele>107</ele>
        <time>2014-10-08T11:46:56.000Z</time>
      </trkpt>
      <trkpt lat="43.43437" lon="3.45408">
        <ele>106</ele>
        <time>2014-10-08T11:46:58.000Z</time>
      </trkpt>
      <trkpt lat="43.43436" lon="3.45398">
        <ele>107</ele>
        <time>2014-10-08T11:47:00.000Z</time>
      </trkpt>
      <trkpt lat="43.43433" lon="3.4539">
        <ele>106</ele>
        <time>2014-10-08T11:47:02.000Z</time>
      </trkpt>
      <trkpt lat="43.43428" lon="3.45384">
        <ele>106</ele>
        <time>2014-10-08T11:47:04.000Z</time>
      </trkpt>
      <trkpt lat="43.43423" lon="3.45376">
        <ele>106</ele>
        <time>2014-10-08T11:47:08.000Z</time>
      </trkpt>
      <trkpt lat="43.43423" lon="3.45376">
        <ele>106</ele>
        <time>2014-10-08T11:47:10.000Z</time>
      </trkpt>
      <trkpt lat="43.43423" lon="3.45363">
        <ele>106</ele>
        <time>2014-10-08T11:47:12.000Z</time>
      </trkpt>
      <trkpt lat="43.43423" lon="3.45363">
        <ele>106</ele>
        <time>2014-10-08T11:47:14.000Z</time>
      </trkpt>
      <trkpt lat="43.43423" lon="3.45363">
        <ele>106</ele>
        <time>2014-10-08T11:47:16.000Z</time>
      </trkpt>
      <trkpt lat="43.43423" lon="3.45363">
        <ele>106</ele>
        <time>2014-10-08T11:47:18.000Z</time>
      </trkpt>
      <trkpt lat="43.43423" lon="3.45363">
        <ele>106</ele>
        <time>2014-10-08T11:47:20.000Z</time>
      </trkpt>
      <trkpt lat="43.43423" lon="3.45363">
        <ele>106</ele>
        <time>2014-10-08T11:47:22.000Z</time>
      </trkpt>
      <trkpt lat="43.4342" lon="3.45373">
        <ele>109</ele>
        <time>2014-10-08T11:47:50.000Z</time>
      </trkpt>
      <trkpt lat="43.43421" lon="3.45381">
        <ele>109</ele>
        <time>2014-10-08T11:47:52.000Z</time>
      </trkpt>
      <trkpt lat="43.43422" lon="3.45386">
        <ele>110</ele>
        <time>2014-10-08T11:47:54.000Z</time>
      </trkpt>
      <trkpt lat="43.43424" lon="3.45391">
        <ele>110</ele>
        <time>2014-10-08T11:47:56.000Z</time>
      </trkpt>
      <trkpt lat="43.43426" lon="3.45395">
        <ele>108</ele>
        <time>2014-10-08T11:47:58.000Z</time>
      </trkpt>
      <trkpt lat="43.43429" lon="3.45404">
        <ele>107</ele>
        <time>2014-10-08T11:48:00.000Z</time>
      </trkpt>
      <trkpt lat="43.43431" lon="3.45412">
        <ele>107</ele>
        <time>2014-10-08T11:48:02.000Z</time>
      </trkpt>
      <trkpt lat="43.43433" lon="3.45421">
        <ele>105</ele>
        <time>2014-10-08T11:48:04.000Z</time>
      </trkpt>
      <trkpt lat="43.43436" lon="3.45428">
        <ele>105</ele>
        <time>2014-10-08T11:48:06.000Z</time>
      </trkpt>
      <trkpt lat="43.43435" lon="3.45442">
        <ele>106</ele>
        <time>2014-10-08T11:48:10.000Z</time>
      </trkpt>
      <trkpt lat="43.43433" lon="3.45449">
        <ele>108</ele>
        <time>2014-10-08T11:48:12.000Z</time>
      </trkpt>
      <trkpt lat="43.43429" lon="3.45455">
        <ele>108</ele>
        <time>2014-10-08T11:48:14.000Z</time>
      </trkpt>
      <trkpt lat="43.43427" lon="3.45463">
        <ele>108</ele>
        <time>2014-10-08T11:48:16.000Z</time>
      </trkpt>
      <trkpt lat="43.43424" lon="3.45474">
        <ele>110</ele>
        <time>2014-10-08T11:48:20.000Z</time>
      </trkpt>
      <trkpt lat="43.43424" lon="3.45474">
        <ele>110</ele>
        <time>2014-10-08T11:48:22.000Z</time>
      </trkpt>
      <trkpt lat="43.43418" lon="3.4548">
        <ele>110</ele>
        <time>2014-10-08T11:48:24.000Z</time>
      </trkpt>
      <trkpt lat="43.43418" lon="3.4548">
        <ele>110</ele>
        <time>2014-10-08T11:48:26.000Z</time>
      </trkpt>
      <trkpt lat="43.43409" lon="3.45484">
        <ele>111</ele>
        <time>2014-10-08T11:48:28.000Z</time>
      </trkpt>
      <trkpt lat="43.43404" lon="3.45489">
        <ele>111</ele>
        <time>2014-10-08T11:48:30.000Z</time>
      </trkpt>
      <trkpt lat="43.43399" lon="3.45494">
        <ele>112</ele>
        <time>2014-10-08T11:48:32.000Z</time>
      </trkpt>
      <trkpt lat="43.43396" lon="3.455">
        <ele>112</ele>
        <time>2014-10-08T11:48:34.000Z</time>
      </trkpt>
      <trkpt lat="43.43392" lon="3.45506">
        <ele>111</ele>
        <time>2014-10-08T11:48:36.000Z</time>
      </trkpt>
      <trkpt lat="43.43383" lon="3.45509">
        <ele>113</ele>
        <time>2014-10-08T11:48:40.000Z</time>
      </trkpt>
      <trkpt lat="43.43383" lon="3.45509">
        <ele>113</ele>
        <time>2014-10-08T11:48:42.000Z</time>
      </trkpt>
      <trkpt lat="43.43375" lon="3.45509">
        <ele>113</ele>
        <time>2014-10-08T11:48:44.000Z</time>
      </trkpt>
      <trkpt lat="43.43375" lon="3.45509">
        <ele>113</ele>
        <time>2014-10-08T11:48:46.000Z</time>
      </trkpt>
      <trkpt lat="43.43364" lon="3.45514">
        <ele>113</ele>
        <time>2014-10-08T11:48:48.000Z</time>
      </trkpt>
      <trkpt lat="43.43358" lon="3.45517">
        <ele>114</ele>
        <time>2014-10-08T11:48:50.000Z</time>
      </trkpt>
      <trkpt lat="43.43352" lon="3.4552">
        <ele>113</ele>
        <time>2014-10-08T11:48:52.000Z</time>
      </trkpt>
      <trkpt lat="43.43346" lon="3.45523">
        <ele>113</ele>
        <time>2014-10-08T11:48:54.000Z</time>
      </trkpt>
      <trkpt lat="43.43346" lon="3.45523">
        <ele>113</ele>
        <time>2014-10-08T11:48:56.000Z</time>
      </trkpt>
      <trkpt lat="43.43341" lon="3.45524">
        <ele>111</ele>
        <time>2014-10-08T11:48:58.000Z</time>
      </trkpt>
      <trkpt lat="43.43341" lon="3.45524">
        <ele>111</ele>
        <time>2014-10-08T11:49:00.000Z</time>
      </trkpt>
      <trkpt lat="43.43341" lon="3.45524">
        <ele>111</ele>
        <time>2014-10-08T11:49:02.000Z</time>
      </trkpt>
      <trkpt lat="43.43332" lon="3.45533">
        <ele>110</ele>
        <time>2014-10-08T11:49:04.000Z</time>
      </trkpt>
      <trkpt lat="43.43326" lon="3.45542">
        <ele>110</ele>
        <time>2014-10-08T11:49:06.000Z</time>
      </trkpt>
      <trkpt lat="43.43322" lon="3.4555">
        <ele>110</ele>
        <time>2014-10-08T11:49:08.000Z</time>
      </trkpt>
      <trkpt lat="43.43318" lon="3.45557">
        <ele>111</ele>
        <time>2014-10-08T11:49:10.000Z</time>
      </trkpt>
      <trkpt lat="43.43318" lon="3.45557">
        <ele>111</ele>
        <time>2014-10-08T11:49:12.000Z</time>
      </trkpt>
      <trkpt lat="43.43313" lon="3.45569">
        <ele>113</ele>
        <time>2014-10-08T11:49:14.000Z</time>
      </trkpt>
      <trkpt lat="43.43313" lon="3.45569">
        <ele>113</ele>
        <time>2014-10-08T11:49:16.000Z</time>
      </trkpt>
      <trkpt lat="43.43308" lon="3.45583">
        <ele>112</ele>
        <time>2014-10-08T11:49:18.000Z</time>
      </trkpt>
      <trkpt lat="43.43307" lon="3.45592">
        <ele>111</ele>
        <time>2014-10-08T11:49:20.000Z</time>
      </trkpt>
      <trkpt lat="43.43302" lon="3.45602">
        <ele>108</ele>
        <time>2014-10-08T11:49:22.000Z</time>
      </trkpt>
      <trkpt lat="43.43297" lon="3.4561">
        <ele>109</ele>
        <time>2014-10-08T11:49:24.000Z</time>
      </trkpt>
      <trkpt lat="43.43292" lon="3.45614">
        <ele>109</ele>
        <time>2014-10-08T11:49:26.000Z</time>
      </trkpt>
      <trkpt lat="43.43292" lon="3.45614">
        <ele>109</ele>
        <time>2014-10-08T11:49:28.000Z</time>
      </trkpt>
      <trkpt lat="43.43286" lon="3.45624">
        <ele>109</ele>
        <time>2014-10-08T11:49:30.000Z</time>
      </trkpt>
      <trkpt lat="43.43286" lon="3.45624">
        <ele>109</ele>
        <time>2014-10-08T11:49:32.000Z</time>
      </trkpt>
      <trkpt lat="43.43282" lon="3.4563">
        <ele>112</ele>
        <time>2014-10-08T11:49:34.000Z</time>
      </trkpt>
      <trkpt lat="43.43282" lon="3.4563">
        <ele>112</ele>
        <time>2014-10-08T11:49:36.000Z</time>
      </trkpt>
      <trkpt lat="43.43276" lon="3.45627">
        <ele>112</ele>
        <time>2014-10-08T11:49:38.000Z</time>
      </trkpt>
      <trkpt lat="43.43276" lon="3.45627">
        <ele>112</ele>
        <time>2014-10-08T11:49:40.000Z</time>
      </trkpt>
      <trkpt lat="43.43276" lon="3.45627">
        <ele>112</ele>
        <time>2014-10-08T11:49:42.000Z</time>
      </trkpt>
      <trkpt lat="43.43271" lon="3.45618">
        <ele>113</ele>
        <time>2014-10-08T11:49:44.000Z</time>
      </trkpt>
      <trkpt lat="43.43269" lon="3.45609">
        <ele>112</ele>
        <time>2014-10-08T11:49:46.000Z</time>
      </trkpt>
      <trkpt lat="43.43267" lon="3.45598">
        <ele>112</ele>
        <time>2014-10-08T11:49:48.000Z</time>
      </trkpt>
      <trkpt lat="43.43261" lon="3.45589">
        <ele>112</ele>
        <time>2014-10-08T11:49:50.000Z</time>
      </trkpt>
      <trkpt lat="43.43253" lon="3.45582">
        <ele>113</ele>
        <time>2014-10-08T11:49:52.000Z</time>
      </trkpt>
      <trkpt lat="43.4324" lon="3.45575">
        <ele>112</ele>
        <time>2014-10-08T11:49:54.000Z</time>
      </trkpt>
      <trkpt lat="43.43228" lon="3.45568">
        <ele>111</ele>
        <time>2014-10-08T11:49:56.000Z</time>
      </trkpt>
      <trkpt lat="43.43218" lon="3.45557">
        <ele>110</ele>
        <time>2014-10-08T11:49:58.000Z</time>
      </trkpt>
      <trkpt lat="43.4321" lon="3.45547">
        <ele>109</ele>
        <time>2014-10-08T11:50:00.000Z</time>
      </trkpt>
      <trkpt lat="43.43199" lon="3.45539">
        <ele>111</ele>
        <time>2014-10-08T11:50:02.000Z</time>
      </trkpt>
      <trkpt lat="43.43189" lon="3.45535">
        <ele>110</ele>
        <time>2014-10-08T11:50:04.000Z</time>
      </trkpt>
      <trkpt lat="43.43181" lon="3.45534">
        <ele>109</ele>
        <time>2014-10-08T11:50:06.000Z</time>
      </trkpt>
      <trkpt lat="43.43174" lon="3.45533">
        <ele>109</ele>
        <time>2014-10-08T11:50:08.000Z</time>
      </trkpt>
      <trkpt lat="43.43165" lon="3.45533">
        <ele>108</ele>
        <time>2014-10-08T11:50:10.000Z</time>
      </trkpt>
      <trkpt lat="43.43159" lon="3.45532">
        <ele>109</ele>
        <time>2014-10-08T11:50:12.000Z</time>
      </trkpt>
      <trkpt lat="43.43153" lon="3.45536">
        <ele>110</ele>
        <time>2014-10-08T11:50:14.000Z</time>
      </trkpt>
      <trkpt lat="43.43147" lon="3.45543">
        <ele>109</ele>
        <time>2014-10-08T11:50:16.000Z</time>
      </trkpt>
      <trkpt lat="43.43141" lon="3.45553">
        <ele>107</ele>
        <time>2014-10-08T11:50:18.000Z</time>
      </trkpt>
      <trkpt lat="43.43135" lon="3.45563">
        <ele>109</ele>
        <time>2014-10-08T11:50:20.000Z</time>
      </trkpt>
      <trkpt lat="43.4313" lon="3.45571">
        <ele>110</ele>
        <time>2014-10-08T11:50:22.000Z</time>
      </trkpt>
      <trkpt lat="43.43127" lon="3.45579">
        <ele>110</ele>
        <time>2014-10-08T11:50:24.000Z</time>
      </trkpt>
      <trkpt lat="43.43127" lon="3.45579">
        <ele>110</ele>
        <time>2014-10-08T11:50:27.000Z</time>
      </trkpt>
      <trkpt lat="43.43127" lon="3.45579">
        <ele>110</ele>
        <time>2014-10-08T11:50:29.000Z</time>
      </trkpt>
      <trkpt lat="43.43127" lon="3.45579">
        <ele>110</ele>
        <time>2014-10-08T11:50:31.000Z</time>
      </trkpt>
      <trkpt lat="43.43127" lon="3.45579">
        <ele>110</ele>
        <time>2014-10-08T11:50:33.000Z</time>
      </trkpt>
      <trkpt lat="43.43125" lon="3.4559">
        <ele>118</ele>
        <time>2014-10-08T11:52:57.000Z</time>
      </trkpt>
      <trkpt lat="43.43124" lon="3.45598">
        <ele>119</ele>
        <time>2014-10-08T11:52:59.000Z</time>
      </trkpt>
      <trkpt lat="43.43122" lon="3.45604">
        <ele>120</ele>
        <time>2014-10-08T11:53:01.000Z</time>
      </trkpt>
      <trkpt lat="43.4312" lon="3.45609">
        <ele>119</ele>
        <time>2014-10-08T11:53:03.000Z</time>
      </trkpt>
      <trkpt lat="43.43118" lon="3.45615">
        <ele>118</ele>
        <time>2014-10-08T11:53:05.000Z</time>
      </trkpt>
      <trkpt lat="43.43114" lon="3.45628">
        <ele>117</ele>
        <time>2014-10-08T11:53:07.000Z</time>
      </trkpt>
      <trkpt lat="43.43112" lon="3.45636">
        <ele>117</ele>
        <time>2014-10-08T11:53:09.000Z</time>
      </trkpt>
      <trkpt lat="43.4311" lon="3.45644">
        <ele>116</ele>
        <time>2014-10-08T11:53:11.000Z</time>
      </trkpt>
      <trkpt lat="43.43108" lon="3.45652">
        <ele>116</ele>
        <time>2014-10-08T11:53:13.000Z</time>
      </trkpt>
      <trkpt lat="43.43106" lon="3.45659">
        <ele>116</ele>
        <time>2014-10-08T11:53:15.000Z</time>
      </trkpt>
      <trkpt lat="43.43104" lon="3.45666">
        <ele>117</ele>
        <time>2014-10-08T11:53:17.000Z</time>
      </trkpt>
      <trkpt lat="43.43102" lon="3.45674">
        <ele>117</ele>
        <time>2014-10-08T11:53:19.000Z</time>
      </trkpt>
      <trkpt lat="43.43101" lon="3.45685">
        <ele>117</ele>
        <time>2014-10-08T11:53:21.000Z</time>
      </trkpt>
      <trkpt lat="43.43098" lon="3.45697">
        <ele>114</ele>
        <time>2014-10-08T11:53:23.000Z</time>
      </trkpt>
      <trkpt lat="43.43094" lon="3.45709">
        <ele>111</ele>
        <time>2014-10-08T11:53:25.000Z</time>
      </trkpt>
      <trkpt lat="43.4309" lon="3.45718">
        <ele>111</ele>
        <time>2014-10-08T11:53:27.000Z</time>
      </trkpt>
      <trkpt lat="43.43086" lon="3.45727">
        <ele>111</ele>
        <time>2014-10-08T11:53:29.000Z</time>
      </trkpt>
      <trkpt lat="43.43084" lon="3.45737">
        <ele>110</ele>
        <time>2014-10-08T11:53:31.000Z</time>
      </trkpt>
      <trkpt lat="43.43082" lon="3.45748">
        <ele>111</ele>
        <time>2014-10-08T11:53:33.000Z</time>
      </trkpt>
      <trkpt lat="43.43081" lon="3.45761">
        <ele>110</ele>
        <time>2014-10-08T11:53:35.000Z</time>
      </trkpt>
      <trkpt lat="43.43084" lon="3.45777">
        <ele>110</ele>
        <time>2014-10-08T11:53:37.000Z</time>
      </trkpt>
      <trkpt lat="43.43083" lon="3.45789">
        <ele>111</ele>
        <time>2014-10-08T11:53:39.000Z</time>
      </trkpt>
      <trkpt lat="43.43081" lon="3.45802">
        <ele>110</ele>
        <time>2014-10-08T11:53:41.000Z</time>
      </trkpt>
      <trkpt lat="43.43082" lon="3.45821">
        <ele>109</ele>
        <time>2014-10-08T11:53:43.000Z</time>
      </trkpt>
      <trkpt lat="43.43082" lon="3.45837">
        <ele>107</ele>
        <time>2014-10-08T11:53:45.000Z</time>
      </trkpt>
      <trkpt lat="43.43082" lon="3.45848">
        <ele>109</ele>
        <time>2014-10-08T11:53:47.000Z</time>
      </trkpt>
      <trkpt lat="43.4308" lon="3.45862">
        <ele>110</ele>
        <time>2014-10-08T11:53:49.000Z</time>
      </trkpt>
      <trkpt lat="43.43076" lon="3.45873">
        <ele>111</ele>
        <time>2014-10-08T11:53:51.000Z</time>
      </trkpt>
      <trkpt lat="43.43073" lon="3.45884">
        <ele>111</ele>
        <time>2014-10-08T11:53:53.000Z</time>
      </trkpt>
      <trkpt lat="43.43068" lon="3.45895">
        <ele>113</ele>
        <time>2014-10-08T11:53:55.000Z</time>
      </trkpt>
      <trkpt lat="43.43061" lon="3.45902">
        <ele>113</ele>
        <time>2014-10-08T11:53:57.000Z</time>
      </trkpt>
      <trkpt lat="43.43058" lon="3.45911">
        <ele>113</ele>
        <time>2014-10-08T11:53:59.000Z</time>
      </trkpt>
      <trkpt lat="43.43055" lon="3.4592">
        <ele>113</ele>
        <time>2014-10-08T11:54:01.000Z</time>
      </trkpt>
      <trkpt lat="43.43052" lon="3.45932">
        <ele>112</ele>
        <time>2014-10-08T11:54:03.000Z</time>
      </trkpt>
      <trkpt lat="43.4305" lon="3.45942">
        <ele>112</ele>
        <time>2014-10-08T11:54:05.000Z</time>
      </trkpt>
      <trkpt lat="43.43045" lon="3.45947">
        <ele>113</ele>
        <time>2014-10-08T11:54:07.000Z</time>
      </trkpt>
      <trkpt lat="43.43039" lon="3.45955">
        <ele>114</ele>
        <time>2014-10-08T11:54:09.000Z</time>
      </trkpt>
      <trkpt lat="43.43035" lon="3.45964">
        <ele>112</ele>
        <time>2014-10-08T11:54:11.000Z</time>
      </trkpt>
      <trkpt lat="43.4303" lon="3.45975">
        <ele>113</ele>
        <time>2014-10-08T11:54:13.000Z</time>
      </trkpt>
      <trkpt lat="43.43026" lon="3.45985">
        <ele>112</ele>
        <time>2014-10-08T11:54:15.000Z</time>
      </trkpt>
      <trkpt lat="43.43021" lon="3.45994">
        <ele>113</ele>
        <time>2014-10-08T11:54:17.000Z</time>
      </trkpt>
      <trkpt lat="43.43018" lon="3.46001">
        <ele>113</ele>
        <time>2014-10-08T11:54:19.000Z</time>
      </trkpt>
      <trkpt lat="43.43018" lon="3.46001">
        <ele>113</ele>
        <time>2014-10-08T11:54:21.000Z</time>
      </trkpt>
      <trkpt lat="43.43013" lon="3.46014">
        <ele>114</ele>
        <time>2014-10-08T11:54:23.000Z</time>
      </trkpt>
      <trkpt lat="43.4301" lon="3.46023">
        <ele>112</ele>
        <time>2014-10-08T11:54:25.000Z</time>
      </trkpt>
      <trkpt lat="43.43007" lon="3.46032">
        <ele>113</ele>
        <time>2014-10-08T11:54:27.000Z</time>
      </trkpt>
      <trkpt lat="43.43002" lon="3.46036">
        <ele>114</ele>
        <time>2014-10-08T11:54:29.000Z</time>
      </trkpt>
      <trkpt lat="43.43002" lon="3.46036">
        <ele>114</ele>
        <time>2014-10-08T11:54:31.000Z</time>
      </trkpt>
      <trkpt lat="43.42997" lon="3.46043">
        <ele>114</ele>
        <time>2014-10-08T11:54:33.000Z</time>
      </trkpt>
      <trkpt lat="43.42997" lon="3.46043">
        <ele>114</ele>
        <time>2014-10-08T11:54:35.000Z</time>
      </trkpt>
      <trkpt lat="43.42997" lon="3.46052">
        <ele>115</ele>
        <time>2014-10-08T11:54:37.000Z</time>
      </trkpt>
      <trkpt lat="43.42997" lon="3.46052">
        <ele>115</ele>
        <time>2014-10-08T11:54:39.000Z</time>
      </trkpt>
      <trkpt lat="43.42996" lon="3.46063">
        <ele>112</ele>
        <time>2014-10-08T11:54:41.000Z</time>
      </trkpt>
      <trkpt lat="43.42997" lon="3.46074">
        <ele>108</ele>
        <time>2014-10-08T11:54:43.000Z</time>
      </trkpt>
      <trkpt lat="43.42997" lon="3.46084">
        <ele>104</ele>
        <time>2014-10-08T11:54:45.000Z</time>
      </trkpt>
      <trkpt lat="43.42996" lon="3.46093">
        <ele>106</ele>
        <time>2014-10-08T11:54:47.000Z</time>
      </trkpt>
      <trkpt lat="43.42995" lon="3.46103">
        <ele>104</ele>
        <time>2014-10-08T11:54:49.000Z</time>
      </trkpt>
      <trkpt lat="43.42994" lon="3.46113">
        <ele>100</ele>
        <time>2014-10-08T11:54:51.000Z</time>
      </trkpt>
      <trkpt lat="43.42995" lon="3.46124">
        <ele>105</ele>
        <time>2014-10-08T11:54:53.000Z</time>
      </trkpt>
      <trkpt lat="43.42995" lon="3.46136">
        <ele>106</ele>
        <time>2014-10-08T11:54:55.000Z</time>
      </trkpt>
      <trkpt lat="43.42996" lon="3.4615">
        <ele>105</ele>
        <time>2014-10-08T11:54:57.000Z</time>
      </trkpt>
      <trkpt lat="43.42999" lon="3.4618">
        <ele>100</ele>
        <time>2014-10-08T11:55:00.000Z</time>
      </trkpt>
      <trkpt lat="43.42996" lon="3.46196">
        <ele>100</ele>
        <time>2014-10-08T11:55:03.000Z</time>
      </trkpt>
      <trkpt lat="43.42996" lon="3.46196">
        <ele>100</ele>
        <time>2014-10-08T11:55:05.000Z</time>
      </trkpt>
      <trkpt lat="43.42994" lon="3.46214">
        <ele>104</ele>
        <time>2014-10-08T11:55:07.000Z</time>
      </trkpt>
      <trkpt lat="43.42996" lon="3.46223">
        <ele>107</ele>
        <time>2014-10-08T11:55:09.000Z</time>
      </trkpt>
      <trkpt lat="43.42997" lon="3.46257">
        <ele>111</ele>
        <time>2014-10-08T11:55:13.000Z</time>
      </trkpt>
      <trkpt lat="43.43" lon="3.46275">
        <ele>111</ele>
        <time>2014-10-08T11:55:15.000Z</time>
      </trkpt>
      <trkpt lat="43.43005" lon="3.4629">
        <ele>111</ele>
        <time>2014-10-08T11:55:17.000Z</time>
      </trkpt>
      <trkpt lat="43.43008" lon="3.46302">
        <ele>113</ele>
        <time>2014-10-08T11:55:20.000Z</time>
      </trkpt>
      <trkpt lat="43.43007" lon="3.46314">
        <ele>112</ele>
        <time>2014-10-08T11:55:22.000Z</time>
      </trkpt>
      <trkpt lat="43.43003" lon="3.46328">
        <ele>111</ele>
        <time>2014-10-08T11:55:24.000Z</time>
      </trkpt>
      <trkpt lat="43.42997" lon="3.46339">
        <ele>110</ele>
        <time>2014-10-08T11:55:26.000Z</time>
      </trkpt>
      <trkpt lat="43.42991" lon="3.46352">
        <ele>110</ele>
        <time>2014-10-08T11:55:28.000Z</time>
      </trkpt>
      <trkpt lat="43.42985" lon="3.46367">
        <ele>109</ele>
        <time>2014-10-08T11:55:30.000Z</time>
      </trkpt>
      <trkpt lat="43.42981" lon="3.46382">
        <ele>108</ele>
        <time>2014-10-08T11:55:32.000Z</time>
      </trkpt>
      <trkpt lat="43.4298" lon="3.46396">
        <ele>107</ele>
        <time>2014-10-08T11:55:34.000Z</time>
      </trkpt>
      <trkpt lat="43.42978" lon="3.46407">
        <ele>106</ele>
        <time>2014-10-08T11:55:36.000Z</time>
      </trkpt>
      <trkpt lat="43.42979" lon="3.46415">
        <ele>107</ele>
        <time>2014-10-08T11:55:38.000Z</time>
      </trkpt>
      <trkpt lat="43.42991" lon="3.46431">
        <ele>102</ele>
        <time>2014-10-08T11:55:41.000Z</time>
      </trkpt>
      <trkpt lat="43.43" lon="3.46439">
        <ele>101</ele>
        <time>2014-10-08T11:55:43.000Z</time>
      </trkpt>
      <trkpt lat="43.43004" lon="3.46454">
        <ele>102</ele>
        <time>2014-10-08T11:55:45.000Z</time>
      </trkpt>
      <trkpt lat="43.43011" lon="3.46465">
        <ele>103</ele>
        <time>2014-10-08T11:55:47.000Z</time>
      </trkpt>
      <trkpt lat="43.43016" lon="3.46481">
        <ele>99</ele>
        <time>2014-10-08T11:55:49.000Z</time>
      </trkpt>
      <trkpt lat="43.43023" lon="3.46494">
        <ele>99</ele>
        <time>2014-10-08T11:55:51.000Z</time>
      </trkpt>
      <trkpt lat="43.43026" lon="3.46502">
        <ele>100</ele>
        <time>2014-10-08T11:55:53.000Z</time>
      </trkpt>
      <trkpt lat="43.43031" lon="3.46515">
        <ele>99</ele>
        <time>2014-10-08T11:55:55.000Z</time>
      </trkpt>
      <trkpt lat="43.43036" lon="3.46526">
        <ele>97</ele>
        <time>2014-10-08T11:55:57.000Z</time>
      </trkpt>
      <trkpt lat="43.43037" lon="3.46533">
        <ele>98</ele>
        <time>2014-10-08T11:55:59.000Z</time>
      </trkpt>
      <trkpt lat="43.43037" lon="3.46533">
        <ele>98</ele>
        <time>2014-10-08T11:56:01.000Z</time>
      </trkpt>
      <trkpt lat="43.43032" lon="3.46543">
        <ele>100</ele>
        <time>2014-10-08T11:56:03.000Z</time>
      </trkpt>
      <trkpt lat="43.43027" lon="3.46549">
        <ele>99</ele>
        <time>2014-10-08T11:56:05.000Z</time>
      </trkpt>
      <trkpt lat="43.43023" lon="3.46556">
        <ele>99</ele>
        <time>2014-10-08T11:56:07.000Z</time>
      </trkpt>
      <trkpt lat="43.43018" lon="3.46564">
        <ele>98</ele>
        <time>2014-10-08T11:56:09.000Z</time>
      </trkpt>
      <trkpt lat="43.43013" lon="3.46574">
        <ele>98</ele>
        <time>2014-10-08T11:56:11.000Z</time>
      </trkpt>
      <trkpt lat="43.43008" lon="3.46584">
        <ele>100</ele>
        <time>2014-10-08T11:56:13.000Z</time>
      </trkpt>
      <trkpt lat="43.43004" lon="3.46594">
        <ele>98</ele>
        <time>2014-10-08T11:56:15.000Z</time>
      </trkpt>
      <trkpt lat="43.43002" lon="3.46606">
        <ele>98</ele>
        <time>2014-10-08T11:56:17.000Z</time>
      </trkpt>
      <trkpt lat="43.43" lon="3.46617">
        <ele>98</ele>
        <time>2014-10-08T11:56:19.000Z</time>
      </trkpt>
      <trkpt lat="43.42999" lon="3.46629">
        <ele>98</ele>
        <time>2014-10-08T11:56:21.000Z</time>
      </trkpt>
      <trkpt lat="43.42997" lon="3.4664">
        <ele>98</ele>
        <time>2014-10-08T11:56:23.000Z</time>
      </trkpt>
      <trkpt lat="43.42996" lon="3.46653">
        <ele>96</ele>
        <time>2014-10-08T11:56:25.000Z</time>
      </trkpt>
      <trkpt lat="43.42993" lon="3.46664">
        <ele>94</ele>
        <time>2014-10-08T11:56:27.000Z</time>
      </trkpt>
      <trkpt lat="43.42988" lon="3.46674">
        <ele>94</ele>
        <time>2014-10-08T11:56:29.000Z</time>
      </trkpt>
      <trkpt lat="43.42984" lon="3.46686">
        <ele>94</ele>
        <time>2014-10-08T11:56:31.000Z</time>
      </trkpt>
      <trkpt lat="43.42978" lon="3.46698">
        <ele>94</ele>
        <time>2014-10-08T11:56:33.000Z</time>
      </trkpt>
      <trkpt lat="43.42971" lon="3.46711">
        <ele>94</ele>
        <time>2014-10-08T11:56:35.000Z</time>
      </trkpt>
      <trkpt lat="43.42964" lon="3.46725">
        <ele>94</ele>
        <time>2014-10-08T11:56:37.000Z</time>
      </trkpt>
      <trkpt lat="43.42959" lon="3.46737">
        <ele>93</ele>
        <time>2014-10-08T11:56:39.000Z</time>
      </trkpt>
      <trkpt lat="43.42951" lon="3.46747">
        <ele>96</ele>
        <time>2014-10-08T11:56:41.000Z</time>
      </trkpt>
      <trkpt lat="43.42945" lon="3.4676">
        <ele>97</ele>
        <time>2014-10-08T11:56:43.000Z</time>
      </trkpt>
      <trkpt lat="43.42939" lon="3.46772">
        <ele>96</ele>
        <time>2014-10-08T11:56:45.000Z</time>
      </trkpt>
      <trkpt lat="43.42932" lon="3.46785">
        <ele>95</ele>
        <time>2014-10-08T11:56:47.000Z</time>
      </trkpt>
      <trkpt lat="43.42925" lon="3.46798">
        <ele>94</ele>
        <time>2014-10-08T11:56:49.000Z</time>
      </trkpt>
      <trkpt lat="43.42918" lon="3.46809">
        <ele>94</ele>
        <time>2014-10-08T11:56:51.000Z</time>
      </trkpt>
      <trkpt lat="43.42908" lon="3.46822">
        <ele>94</ele>
        <time>2014-10-08T11:56:53.000Z</time>
      </trkpt>
      <trkpt lat="43.42897" lon="3.46833">
        <ele>94</ele>
        <time>2014-10-08T11:56:55.000Z</time>
      </trkpt>
      <trkpt lat="43.42889" lon="3.46842">
        <ele>94</ele>
        <time>2014-10-08T11:56:57.000Z</time>
      </trkpt>
      <trkpt lat="43.42883" lon="3.46854">
        <ele>93</ele>
        <time>2014-10-08T11:56:59.000Z</time>
      </trkpt>
      <trkpt lat="43.42878" lon="3.46863">
        <ele>93</ele>
        <time>2014-10-08T11:57:01.000Z</time>
      </trkpt>
      <trkpt lat="43.42875" lon="3.4687">
        <ele>93</ele>
        <time>2014-10-08T11:57:03.000Z</time>
      </trkpt>
      <trkpt lat="43.42869" lon="3.46874">
        <ele>93</ele>
        <time>2014-10-08T11:57:05.000Z</time>
      </trkpt>
      <trkpt lat="43.4286" lon="3.46879">
        <ele>93</ele>
        <time>2014-10-08T11:57:07.000Z</time>
      </trkpt>
      <trkpt lat="43.42853" lon="3.46885">
        <ele>92</ele>
        <time>2014-10-08T11:57:09.000Z</time>
      </trkpt>
      <trkpt lat="43.42842" lon="3.46904">
        <ele>91</ele>
        <time>2014-10-08T11:57:12.000Z</time>
      </trkpt>
      <trkpt lat="43.42834" lon="3.46914">
        <ele>93</ele>
        <time>2014-10-08T11:57:14.000Z</time>
      </trkpt>
      <trkpt lat="43.42825" lon="3.46927">
        <ele>90</ele>
        <time>2014-10-08T11:57:16.000Z</time>
      </trkpt>
      <trkpt lat="43.42816" lon="3.46939">
        <ele>88</ele>
        <time>2014-10-08T11:57:18.000Z</time>
      </trkpt>
      <trkpt lat="43.42807" lon="3.46951">
        <ele>87</ele>
        <time>2014-10-08T11:57:20.000Z</time>
      </trkpt>
      <trkpt lat="43.428" lon="3.46962">
        <ele>88</ele>
        <time>2014-10-08T11:57:22.000Z</time>
      </trkpt>
      <trkpt lat="43.4279" lon="3.46974">
        <ele>88</ele>
        <time>2014-10-08T11:57:24.000Z</time>
      </trkpt>
      <trkpt lat="43.42781" lon="3.46986">
        <ele>88</ele>
        <time>2014-10-08T11:57:26.000Z</time>
      </trkpt>
      <trkpt lat="43.42772" lon="3.46998">
        <ele>89</ele>
        <time>2014-10-08T11:57:28.000Z</time>
      </trkpt>
      <trkpt lat="43.42762" lon="3.47015">
        <ele>86</ele>
        <time>2014-10-08T11:57:30.000Z</time>
      </trkpt>
      <trkpt lat="43.42752" lon="3.47029">
        <ele>86</ele>
        <time>2014-10-08T11:57:32.000Z</time>
      </trkpt>
      <trkpt lat="43.42743" lon="3.4704">
        <ele>86</ele>
        <time>2014-10-08T11:57:34.000Z</time>
      </trkpt>
      <trkpt lat="43.42735" lon="3.47051">
        <ele>86</ele>
        <time>2014-10-08T11:57:36.000Z</time>
      </trkpt>
      <trkpt lat="43.42727" lon="3.47063">
        <ele>87</ele>
        <time>2014-10-08T11:57:38.000Z</time>
      </trkpt>
      <trkpt lat="43.42719" lon="3.47071">
        <ele>87</ele>
        <time>2014-10-08T11:57:40.000Z</time>
      </trkpt>
      <trkpt lat="43.42711" lon="3.47082">
        <ele>87</ele>
        <time>2014-10-08T11:57:42.000Z</time>
      </trkpt>
      <trkpt lat="43.42705" lon="3.47089">
        <ele>89</ele>
        <time>2014-10-08T11:57:44.000Z</time>
      </trkpt>
      <trkpt lat="43.42699" lon="3.47102">
        <ele>89</ele>
        <time>2014-10-08T11:57:46.000Z</time>
      </trkpt>
      <trkpt lat="43.42695" lon="3.47115">
        <ele>88</ele>
        <time>2014-10-08T11:57:48.000Z</time>
      </trkpt>
      <trkpt lat="43.42689" lon="3.47122">
        <ele>88</ele>
        <time>2014-10-08T11:57:50.000Z</time>
      </trkpt>
      <trkpt lat="43.4268" lon="3.47127">
        <ele>89</ele>
        <time>2014-10-08T11:57:52.000Z</time>
      </trkpt>
      <trkpt lat="43.42673" lon="3.47131">
        <ele>87</ele>
        <time>2014-10-08T11:57:54.000Z</time>
      </trkpt>
      <trkpt lat="43.42666" lon="3.47134">
        <ele>88</ele>
        <time>2014-10-08T11:57:56.000Z</time>
      </trkpt>
      <trkpt lat="43.42661" lon="3.4714">
        <ele>87</ele>
        <time>2014-10-08T11:57:58.000Z</time>
      </trkpt>
      <trkpt lat="43.42655" lon="3.47148">
        <ele>86</ele>
        <time>2014-10-08T11:58:00.000Z</time>
      </trkpt>
      <trkpt lat="43.42655" lon="3.47148">
        <ele>86</ele>
        <time>2014-10-08T11:58:02.000Z</time>
      </trkpt>
      <trkpt lat="43.42647" lon="3.47164">
        <ele>85</ele>
        <time>2014-10-08T11:58:04.000Z</time>
      </trkpt>
      <trkpt lat="43.42641" lon="3.47172">
        <ele>83</ele>
        <time>2014-10-08T11:58:06.000Z</time>
      </trkpt>
      <trkpt lat="43.42631" lon="3.47176">
        <ele>81</ele>
        <time>2014-10-08T11:58:08.000Z</time>
      </trkpt>
      <trkpt lat="43.42621" lon="3.47173">
        <ele>81</ele>
        <time>2014-10-08T11:58:11.000Z</time>
      </trkpt>
      <trkpt lat="43.42614" lon="3.47171">
        <ele>81</ele>
        <time>2014-10-08T11:58:13.000Z</time>
      </trkpt>
      <trkpt lat="43.42608" lon="3.4717">
        <ele>80</ele>
        <time>2014-10-08T11:58:15.000Z</time>
      </trkpt>
      <trkpt lat="43.42601" lon="3.47169">
        <ele>81</ele>
        <time>2014-10-08T11:58:17.000Z</time>
      </trkpt>
      <trkpt lat="43.42595" lon="3.4717">
        <ele>84</ele>
        <time>2014-10-08T11:58:19.000Z</time>
      </trkpt>
      <trkpt lat="43.42588" lon="3.47172">
        <ele>84</ele>
        <time>2014-10-08T11:58:21.000Z</time>
      </trkpt>
      <trkpt lat="43.42582" lon="3.47172">
        <ele>83</ele>
        <time>2014-10-08T11:58:23.000Z</time>
      </trkpt>
      <trkpt lat="43.42576" lon="3.47174">
        <ele>85</ele>
        <time>2014-10-08T11:58:25.000Z</time>
      </trkpt>
      <trkpt lat="43.42576" lon="3.47174">
        <ele>85</ele>
        <time>2014-10-08T11:58:27.000Z</time>
      </trkpt>
      <trkpt lat="43.42567" lon="3.47175">
        <ele>88</ele>
        <time>2014-10-08T11:58:29.000Z</time>
      </trkpt>
      <trkpt lat="43.42567" lon="3.47175">
        <ele>88</ele>
        <time>2014-10-08T11:58:31.000Z</time>
      </trkpt>
      <trkpt lat="43.42561" lon="3.47174">
        <ele>87</ele>
        <time>2014-10-08T11:58:33.000Z</time>
      </trkpt>
      <trkpt lat="43.42561" lon="3.47174">
        <ele>87</ele>
        <time>2014-10-08T11:58:35.000Z</time>
      </trkpt>
      <trkpt lat="43.42553" lon="3.47178">
        <ele>90</ele>
        <time>2014-10-08T11:58:37.000Z</time>
      </trkpt>
      <trkpt lat="43.42553" lon="3.47178">
        <ele>90</ele>
        <time>2014-10-08T11:58:39.000Z</time>
      </trkpt>
      <trkpt lat="43.42545" lon="3.47174">
        <ele>91</ele>
        <time>2014-10-08T11:58:41.000Z</time>
      </trkpt>
      <trkpt lat="43.42545" lon="3.47174">
        <ele>91</ele>
        <time>2014-10-08T11:58:43.000Z</time>
      </trkpt>
      <trkpt lat="43.42537" lon="3.47179">
        <ele>89</ele>
        <time>2014-10-08T11:58:45.000Z</time>
      </trkpt>
      <trkpt lat="43.42537" lon="3.47179">
        <ele>89</ele>
        <time>2014-10-08T11:58:47.000Z</time>
      </trkpt>
      <trkpt lat="43.42531" lon="3.47189">
        <ele>90</ele>
        <time>2014-10-08T11:58:49.000Z</time>
      </trkpt>
      <trkpt lat="43.42524" lon="3.472">
        <ele>92</ele>
        <time>2014-10-08T11:58:53.000Z</time>
      </trkpt>
      <trkpt lat="43.42515" lon="3.47202">
        <ele>91</ele>
        <time>2014-10-08T11:58:57.000Z</time>
      </trkpt>
      <trkpt lat="43.42506" lon="3.47204">
        <ele>94</ele>
        <time>2014-10-08T11:59:01.000Z</time>
      </trkpt>
      <trkpt lat="43.42506" lon="3.47204">
        <ele>94</ele>
        <time>2014-10-08T11:59:03.000Z</time>
      </trkpt>
      <trkpt lat="43.42501" lon="3.47208">
        <ele>95</ele>
        <time>2014-10-08T11:59:05.000Z</time>
      </trkpt>
      <trkpt lat="43.42501" lon="3.47208">
        <ele>95</ele>
        <time>2014-10-08T11:59:07.000Z</time>
      </trkpt>
      <trkpt lat="43.42501" lon="3.47208">
        <ele>95</ele>
        <time>2014-10-08T11:59:09.000Z</time>
      </trkpt>
      <trkpt lat="43.42498" lon="3.47215">
        <ele>94</ele>
        <time>2014-10-08T11:59:11.000Z</time>
      </trkpt>
      <trkpt lat="43.42498" lon="3.47215">
        <ele>94</ele>
        <time>2014-10-08T11:59:13.000Z</time>
      </trkpt>
      <trkpt lat="43.42491" lon="3.47219">
        <ele>96</ele>
        <time>2014-10-08T11:59:17.000Z</time>
      </trkpt>
      <trkpt lat="43.42484" lon="3.47215">
        <ele>97</ele>
        <time>2014-10-08T11:59:21.000Z</time>
      </trkpt>
      <trkpt lat="43.42477" lon="3.47214">
        <ele>95</ele>
        <time>2014-10-08T11:59:25.000Z</time>
      </trkpt>
      <trkpt lat="43.42467" lon="3.47216">
        <ele>94</ele>
        <time>2014-10-08T11:59:29.000Z</time>
      </trkpt>
      <trkpt lat="43.42461" lon="3.47219">
        <ele>97</ele>
        <time>2014-10-08T11:59:33.000Z</time>
      </trkpt>
      <trkpt lat="43.42461" lon="3.47219">
        <ele>97</ele>
        <time>2014-10-08T11:59:35.000Z</time>
      </trkpt>
      <trkpt lat="43.42461" lon="3.47219">
        <ele>97</ele>
        <time>2014-10-08T11:59:37.000Z</time>
      </trkpt>
      <trkpt lat="43.42454" lon="3.47222">
        <ele>101</ele>
        <time>2014-10-08T11:59:39.000Z</time>
      </trkpt>
      <trkpt lat="43.42454" lon="3.47222">
        <ele>101</ele>
        <time>2014-10-08T11:59:41.000Z</time>
      </trkpt>
      <trkpt lat="43.42454" lon="3.47222">
        <ele>101</ele>
        <time>2014-10-08T11:59:43.000Z</time>
      </trkpt>
      <trkpt lat="43.42454" lon="3.47222">
        <ele>101</ele>
        <time>2014-10-08T11:59:45.000Z</time>
      </trkpt>
      <trkpt lat="43.42444" lon="3.4724">
        <ele>100</ele>
        <time>2014-10-08T12:00:33.000Z</time>
      </trkpt>
      <trkpt lat="43.42439" lon="3.47251">
        <ele>103</ele>
        <time>2014-10-08T12:00:35.000Z</time>
      </trkpt>
      <trkpt lat="43.42434" lon="3.47257">
        <ele>105</ele>
        <time>2014-10-08T12:00:37.000Z</time>
      </trkpt>
      <trkpt lat="43.4243" lon="3.4726">
        <ele>105</ele>
        <time>2014-10-08T12:00:39.000Z</time>
      </trkpt>
      <trkpt lat="43.42426" lon="3.47261">
        <ele>104</ele>
        <time>2014-10-08T12:00:41.000Z</time>
      </trkpt>
      <trkpt lat="43.42418" lon="3.47264">
        <ele>100</ele>
        <time>2014-10-08T12:00:43.000Z</time>
      </trkpt>
      <trkpt lat="43.42414" lon="3.4727">
        <ele>102</ele>
        <time>2014-10-08T12:00:47.000Z</time>
      </trkpt>
      <trkpt lat="43.42412" lon="3.47283">
        <ele>101</ele>
        <time>2014-10-08T12:00:51.000Z</time>
      </trkpt>
      <trkpt lat="43.42408" lon="3.47292">
        <ele>101</ele>
        <time>2014-10-08T12:00:55.000Z</time>
      </trkpt>
      <trkpt lat="43.42408" lon="3.47292">
        <ele>101</ele>
        <time>2014-10-08T12:00:57.000Z</time>
      </trkpt>
      <trkpt lat="43.42407" lon="3.47302">
        <ele>100</ele>
        <time>2014-10-08T12:00:59.000Z</time>
      </trkpt>
      <trkpt lat="43.42407" lon="3.47302">
        <ele>100</ele>
        <time>2014-10-08T12:01:01.000Z</time>
      </trkpt>
      <trkpt lat="43.42406" lon="3.4731">
        <ele>95</ele>
        <time>2014-10-08T12:01:03.000Z</time>
      </trkpt>
      <trkpt lat="43.42406" lon="3.4731">
        <ele>95</ele>
        <time>2014-10-08T12:01:05.000Z</time>
      </trkpt>
      <trkpt lat="43.42405" lon="3.47319">
        <ele>91</ele>
        <time>2014-10-08T12:01:07.000Z</time>
      </trkpt>
      <trkpt lat="43.42404" lon="3.47329">
        <ele>89</ele>
        <time>2014-10-08T12:01:11.000Z</time>
      </trkpt>
      <trkpt lat="43.42402" lon="3.47338">
        <ele>94</ele>
        <time>2014-10-08T12:01:15.000Z</time>
      </trkpt>
      <trkpt lat="43.42402" lon="3.47338">
        <ele>94</ele>
        <time>2014-10-08T12:01:17.000Z</time>
      </trkpt>
      <trkpt lat="43.42398" lon="3.47345">
        <ele>95</ele>
        <time>2014-10-08T12:01:19.000Z</time>
      </trkpt>
      <trkpt lat="43.42398" lon="3.47345">
        <ele>95</ele>
        <time>2014-10-08T12:01:21.000Z</time>
      </trkpt>
      <trkpt lat="43.42393" lon="3.47354">
        <ele>99</ele>
        <time>2014-10-08T12:01:25.000Z</time>
      </trkpt>
      <trkpt lat="43.42393" lon="3.47354">
        <ele>99</ele>
        <time>2014-10-08T12:01:29.000Z</time>
      </trkpt>
      <trkpt lat="43.42393" lon="3.47354">
        <ele>99</ele>
        <time>2014-10-08T12:01:31.000Z</time>
      </trkpt>
      <trkpt lat="43.42393" lon="3.47354">
        <ele>99</ele>
        <time>2014-10-08T12:01:33.000Z</time>
      </trkpt>
      <trkpt lat="43.42393" lon="3.47354">
        <ele>99</ele>
        <time>2014-10-08T12:01:35.000Z</time>
      </trkpt>
      <trkpt lat="43.42393" lon="3.47354">
        <ele>99</ele>
        <time>2014-10-08T12:01:45.000Z</time>
      </trkpt>
      <trkpt lat="43.42373" lon="3.47383">
        <ele>98</ele>
        <time>2014-10-08T12:03:01.000Z</time>
      </trkpt>
      <trkpt lat="43.42361" lon="3.47399">
        <ele>96</ele>
        <time>2014-10-08T12:03:03.000Z</time>
      </trkpt>
      <trkpt lat="43.42353" lon="3.47408">
        <ele>96</ele>
        <time>2014-10-08T12:03:05.000Z</time>
      </trkpt>
      <trkpt lat="43.42347" lon="3.47413">
        <ele>97</ele>
        <time>2014-10-08T12:03:07.000Z</time>
      </trkpt>
      <trkpt lat="43.42347" lon="3.47413">
        <ele>97</ele>
        <time>2014-10-08T12:03:09.000Z</time>
      </trkpt>
      <trkpt lat="43.42343" lon="3.47419">
        <ele>103</ele>
        <time>2014-10-08T12:03:15.000Z</time>
      </trkpt>
      <trkpt lat="43.4234" lon="3.47423">
        <ele>102</ele>
        <time>2014-10-08T12:03:17.000Z</time>
      </trkpt>
      <trkpt lat="43.42339" lon="3.47427">
        <ele>102</ele>
        <time>2014-10-08T12:03:19.000Z</time>
      </trkpt>
      <trkpt lat="43.42338" lon="3.47432">
        <ele>102</ele>
        <time>2014-10-08T12:03:21.000Z</time>
      </trkpt>
      <trkpt lat="43.4234" lon="3.47435">
        <ele>101</ele>
        <time>2014-10-08T12:03:23.000Z</time>
      </trkpt>
      <trkpt lat="43.42345" lon="3.47441">
        <ele>101</ele>
        <time>2014-10-08T12:03:25.000Z</time>
      </trkpt>
      <trkpt lat="43.4235" lon="3.47443">
        <ele>99</ele>
        <time>2014-10-08T12:03:27.000Z</time>
      </trkpt>
      <trkpt lat="43.42362" lon="3.47443">
        <ele>99</ele>
        <time>2014-10-08T12:03:31.000Z</time>
      </trkpt>
      <trkpt lat="43.42368" lon="3.4744">
        <ele>99</ele>
        <time>2014-10-08T12:03:33.000Z</time>
      </trkpt>
      <trkpt lat="43.42373" lon="3.47436">
        <ele>97</ele>
        <time>2014-10-08T12:03:35.000Z</time>
      </trkpt>
      <trkpt lat="43.42382" lon="3.47431">
        <ele>97</ele>
        <time>2014-10-08T12:03:37.000Z</time>
      </trkpt>
      <trkpt lat="43.42393" lon="3.47423">
        <ele>97</ele>
        <time>2014-10-08T12:03:39.000Z</time>
      </trkpt>
      <trkpt lat="43.42401" lon="3.47417">
        <ele>94</ele>
        <time>2014-10-08T12:03:41.000Z</time>
      </trkpt>
      <trkpt lat="43.4241" lon="3.47411">
        <ele>93</ele>
        <time>2014-10-08T12:03:45.000Z</time>
      </trkpt>
      <trkpt lat="43.4241" lon="3.47411">
        <ele>93</ele>
        <time>2014-10-08T12:03:47.000Z</time>
      </trkpt>
      <trkpt lat="43.42418" lon="3.47419">
        <ele>96</ele>
        <time>2014-10-08T12:03:49.000Z</time>
      </trkpt>
      <trkpt lat="43.42422" lon="3.47427">
        <ele>96</ele>
        <time>2014-10-08T12:03:51.000Z</time>
      </trkpt>
      <trkpt lat="43.42429" lon="3.47433">
        <ele>96</ele>
        <time>2014-10-08T12:03:53.000Z</time>
      </trkpt>
      <trkpt lat="43.42435" lon="3.4744">
        <ele>95</ele>
        <time>2014-10-08T12:03:55.000Z</time>
      </trkpt>
      <trkpt lat="43.42443" lon="3.47452">
        <ele>94</ele>
        <time>2014-10-08T12:03:57.000Z</time>
      </trkpt>
      <trkpt lat="43.42449" lon="3.47463">
        <ele>94</ele>
        <time>2014-10-08T12:03:59.000Z</time>
      </trkpt>
      <trkpt lat="43.42458" lon="3.47471">
        <ele>92</ele>
        <time>2014-10-08T12:04:01.000Z</time>
      </trkpt>
      <trkpt lat="43.42465" lon="3.47484">
        <ele>91</ele>
        <time>2014-10-08T12:04:03.000Z</time>
      </trkpt>
      <trkpt lat="43.42471" lon="3.47495">
        <ele>93</ele>
        <time>2014-10-08T12:04:05.000Z</time>
      </trkpt>
      <trkpt lat="43.42482" lon="3.47503">
        <ele>93</ele>
        <time>2014-10-08T12:04:07.000Z</time>
      </trkpt>
      <trkpt lat="43.42489" lon="3.47511">
        <ele>93</ele>
        <time>2014-10-08T12:04:09.000Z</time>
      </trkpt>
      <trkpt lat="43.42489" lon="3.47511">
        <ele>93</ele>
        <time>2014-10-08T12:04:12.000Z</time>
      </trkpt>
      <trkpt lat="43.42496" lon="3.47502">
        <ele>92</ele>
        <time>2014-10-08T12:04:14.000Z</time>
      </trkpt>
      <trkpt lat="43.42498" lon="3.47494">
        <ele>92</ele>
        <time>2014-10-08T12:04:16.000Z</time>
      </trkpt>
      <trkpt lat="43.42501" lon="3.47481">
        <ele>90</ele>
        <time>2014-10-08T12:04:18.000Z</time>
      </trkpt>
      <trkpt lat="43.42503" lon="3.4747">
        <ele>92</ele>
        <time>2014-10-08T12:04:20.000Z</time>
      </trkpt>
      <trkpt lat="43.42506" lon="3.4746">
        <ele>92</ele>
        <time>2014-10-08T12:04:22.000Z</time>
      </trkpt>
      <trkpt lat="43.4251" lon="3.4745">
        <ele>92</ele>
        <time>2014-10-08T12:04:24.000Z</time>
      </trkpt>
      <trkpt lat="43.42513" lon="3.47439">
        <ele>91</ele>
        <time>2014-10-08T12:04:26.000Z</time>
      </trkpt>
      <trkpt lat="43.42516" lon="3.47429">
        <ele>91</ele>
        <time>2014-10-08T12:04:28.000Z</time>
      </trkpt>
      <trkpt lat="43.42519" lon="3.47418">
        <ele>91</ele>
        <time>2014-10-08T12:04:30.000Z</time>
      </trkpt>
      <trkpt lat="43.42522" lon="3.47409">
        <ele>91</ele>
        <time>2014-10-08T12:04:32.000Z</time>
      </trkpt>
      <trkpt lat="43.42525" lon="3.47399">
        <ele>92</ele>
        <time>2014-10-08T12:04:34.000Z</time>
      </trkpt>
      <trkpt lat="43.42529" lon="3.47389">
        <ele>92</ele>
        <time>2014-10-08T12:04:36.000Z</time>
      </trkpt>
      <trkpt lat="43.42532" lon="3.4738">
        <ele>92</ele>
        <time>2014-10-08T12:04:38.000Z</time>
      </trkpt>
      <trkpt lat="43.42534" lon="3.47371">
        <ele>90</ele>
        <time>2014-10-08T12:04:40.000Z</time>
      </trkpt>
      <trkpt lat="43.42536" lon="3.47363">
        <ele>90</ele>
        <time>2014-10-08T12:04:42.000Z</time>
      </trkpt>
      <trkpt lat="43.42538" lon="3.47354">
        <ele>89</ele>
        <time>2014-10-08T12:04:44.000Z</time>
      </trkpt>
      <trkpt lat="43.42539" lon="3.47343">
        <ele>86</ele>
        <time>2014-10-08T12:04:46.000Z</time>
      </trkpt>
      <trkpt lat="43.42542" lon="3.47329">
        <ele>86</ele>
        <time>2014-10-08T12:04:48.000Z</time>
      </trkpt>
      <trkpt lat="43.42548" lon="3.47317">
        <ele>89</ele>
        <time>2014-10-08T12:04:50.000Z</time>
      </trkpt>
      <trkpt lat="43.42554" lon="3.47301">
        <ele>86</ele>
        <time>2014-10-08T12:04:52.000Z</time>
      </trkpt>
      <trkpt lat="43.42559" lon="3.47291">
        <ele>87</ele>
        <time>2014-10-08T12:04:54.000Z</time>
      </trkpt>
      <trkpt lat="43.42562" lon="3.47278">
        <ele>87</ele>
        <time>2014-10-08T12:04:56.000Z</time>
      </trkpt>
      <trkpt lat="43.42566" lon="3.47267">
        <ele>87</ele>
        <time>2014-10-08T12:04:58.000Z</time>
      </trkpt>
      <trkpt lat="43.4257" lon="3.47254">
        <ele>87</ele>
        <time>2014-10-08T12:05:00.000Z</time>
      </trkpt>
      <trkpt lat="43.42575" lon="3.47245">
        <ele>89</ele>
        <time>2014-10-08T12:05:02.000Z</time>
      </trkpt>
      <trkpt lat="43.4258" lon="3.47234">
        <ele>91</ele>
        <time>2014-10-08T12:05:04.000Z</time>
      </trkpt>
      <trkpt lat="43.42584" lon="3.47221">
        <ele>91</ele>
        <time>2014-10-08T12:05:06.000Z</time>
      </trkpt>
      <trkpt lat="43.42588" lon="3.47207">
        <ele>91</ele>
        <time>2014-10-08T12:05:08.000Z</time>
      </trkpt>
      <trkpt lat="43.42592" lon="3.47195">
        <ele>91</ele>
        <time>2014-10-08T12:05:10.000Z</time>
      </trkpt>
      <trkpt lat="43.42598" lon="3.47182">
        <ele>91</ele>
        <time>2014-10-08T12:05:12.000Z</time>
      </trkpt>
      <trkpt lat="43.42603" lon="3.47172">
        <ele>91</ele>
        <time>2014-10-08T12:05:14.000Z</time>
      </trkpt>
      <trkpt lat="43.42609" lon="3.47161">
        <ele>91</ele>
        <time>2014-10-08T12:05:16.000Z</time>
      </trkpt>
      <trkpt lat="43.42609" lon="3.47152">
        <ele>92</ele>
        <time>2014-10-08T12:05:18.000Z</time>
      </trkpt>
      <trkpt lat="43.4261" lon="3.47143">
        <ele>92</ele>
        <time>2014-10-08T12:05:20.000Z</time>
      </trkpt>
      <trkpt lat="43.42612" lon="3.47135">
        <ele>92</ele>
        <time>2014-10-08T12:05:22.000Z</time>
      </trkpt>
      <trkpt lat="43.42614" lon="3.47126">
        <ele>92</ele>
        <time>2014-10-08T12:05:24.000Z</time>
      </trkpt>
      <trkpt lat="43.42614" lon="3.47116">
        <ele>91</ele>
        <time>2014-10-08T12:05:26.000Z</time>
      </trkpt>
      <trkpt lat="43.42617" lon="3.47105">
        <ele>91</ele>
        <time>2014-10-08T12:05:28.000Z</time>
      </trkpt>
      <trkpt lat="43.42617" lon="3.47089">
        <ele>90</ele>
        <time>2014-10-08T12:05:30.000Z</time>
      </trkpt>
      <trkpt lat="43.42618" lon="3.47077">
        <ele>90</ele>
        <time>2014-10-08T12:05:32.000Z</time>
      </trkpt>
      <trkpt lat="43.42619" lon="3.47065">
        <ele>91</ele>
        <time>2014-10-08T12:05:34.000Z</time>
      </trkpt>
      <trkpt lat="43.42617" lon="3.47048">
        <ele>91</ele>
        <time>2014-10-08T12:05:36.000Z</time>
      </trkpt>
      <trkpt lat="43.42614" lon="3.47031">
        <ele>91</ele>
        <time>2014-10-08T12:05:38.000Z</time>
      </trkpt>
      <trkpt lat="43.42609" lon="3.47018">
        <ele>91</ele>
        <time>2014-10-08T12:05:40.000Z</time>
      </trkpt>
      <trkpt lat="43.42606" lon="3.4701">
        <ele>90</ele>
        <time>2014-10-08T12:05:42.000Z</time>
      </trkpt>
      <trkpt lat="43.42606" lon="3.4701">
        <ele>90</ele>
        <time>2014-10-08T12:05:44.000Z</time>
      </trkpt>
      <trkpt lat="43.426" lon="3.46998">
        <ele>88</ele>
        <time>2014-10-08T12:05:46.000Z</time>
      </trkpt>
      <trkpt lat="43.426" lon="3.46998">
        <ele>88</ele>
        <time>2014-10-08T12:05:48.000Z</time>
      </trkpt>
      <trkpt lat="43.42591" lon="3.46988">
        <ele>86</ele>
        <time>2014-10-08T12:05:50.000Z</time>
      </trkpt>
      <trkpt lat="43.42588" lon="3.46981">
        <ele>86</ele>
        <time>2014-10-08T12:05:52.000Z</time>
      </trkpt>
      <trkpt lat="43.42584" lon="3.46974">
        <ele>87</ele>
        <time>2014-10-08T12:05:54.000Z</time>
      </trkpt>
      <trkpt lat="43.4258" lon="3.46966">
        <ele>87</ele>
        <time>2014-10-08T12:05:56.000Z</time>
      </trkpt>
      <trkpt lat="43.42577" lon="3.46959">
        <ele>89</ele>
        <time>2014-10-08T12:05:58.000Z</time>
      </trkpt>
      <trkpt lat="43.42577" lon="3.46959">
        <ele>89</ele>
        <time>2014-10-08T12:06:00.000Z</time>
      </trkpt>
      <trkpt lat="43.4257" lon="3.46951">
        <ele>91</ele>
        <time>2014-10-08T12:06:02.000Z</time>
      </trkpt>
      <trkpt lat="43.4257" lon="3.46951">
        <ele>91</ele>
        <time>2014-10-08T12:06:04.000Z</time>
      </trkpt>
      <trkpt lat="43.42561" lon="3.46954">
        <ele>90</ele>
        <time>2014-10-08T12:06:06.000Z</time>
      </trkpt>
      <trkpt lat="43.42561" lon="3.46954">
        <ele>90</ele>
        <time>2014-10-08T12:06:08.000Z</time>
      </trkpt>
      <trkpt lat="43.42553" lon="3.46964">
        <ele>89</ele>
        <time>2014-10-08T12:06:10.000Z</time>
      </trkpt>
      <trkpt lat="43.4255" lon="3.46971">
        <ele>89</ele>
        <time>2014-10-08T12:06:12.000Z</time>
      </trkpt>
      <trkpt lat="43.42545" lon="3.46977">
        <ele>89</ele>
        <time>2014-10-08T12:06:14.000Z</time>
      </trkpt>
      <trkpt lat="43.42541" lon="3.46982">
        <ele>89</ele>
        <time>2014-10-08T12:06:16.000Z</time>
      </trkpt>
      <trkpt lat="43.42533" lon="3.46991">
        <ele>90</ele>
        <time>2014-10-08T12:06:20.000Z</time>
      </trkpt>
      <trkpt lat="43.42524" lon="3.46999">
        <ele>90</ele>
        <time>2014-10-08T12:06:24.000Z</time>
      </trkpt>
      <trkpt lat="43.42515" lon="3.47006">
        <ele>91</ele>
        <time>2014-10-08T12:06:28.000Z</time>
      </trkpt>
      <trkpt lat="43.42515" lon="3.47006">
        <ele>91</ele>
        <time>2014-10-08T12:06:30.000Z</time>
      </trkpt>
      <trkpt lat="43.42505" lon="3.47011">
        <ele>93</ele>
        <time>2014-10-08T12:06:32.000Z</time>
      </trkpt>
      <trkpt lat="43.42505" lon="3.47011">
        <ele>93</ele>
        <time>2014-10-08T12:06:34.000Z</time>
      </trkpt>
      <trkpt lat="43.42496" lon="3.47013">
        <ele>96</ele>
        <time>2014-10-08T12:06:36.000Z</time>
      </trkpt>
      <trkpt lat="43.42496" lon="3.47013">
        <ele>96</ele>
        <time>2014-10-08T12:06:38.000Z</time>
      </trkpt>
      <trkpt lat="43.42487" lon="3.47013">
        <ele>95</ele>
        <time>2014-10-08T12:06:40.000Z</time>
      </trkpt>
      <trkpt lat="43.42487" lon="3.47013">
        <ele>95</ele>
        <time>2014-10-08T12:06:42.000Z</time>
      </trkpt>
      <trkpt lat="43.42476" lon="3.47013">
        <ele>94</ele>
        <time>2014-10-08T12:06:44.000Z</time>
      </trkpt>
      <trkpt lat="43.42476" lon="3.47013">
        <ele>94</ele>
        <time>2014-10-08T12:06:46.000Z</time>
      </trkpt>
      <trkpt lat="43.4247" lon="3.47012">
        <ele>94</ele>
        <time>2014-10-08T12:06:48.000Z</time>
      </trkpt>
      <trkpt lat="43.4247" lon="3.47012">
        <ele>94</ele>
        <time>2014-10-08T12:06:50.000Z</time>
      </trkpt>
      <trkpt lat="43.4247" lon="3.47012">
        <ele>94</ele>
        <time>2014-10-08T12:06:52.000Z</time>
      </trkpt>
      <trkpt lat="43.42461" lon="3.4701">
        <ele>95</ele>
        <time>2014-10-08T12:06:54.000Z</time>
      </trkpt>
      <trkpt lat="43.42451" lon="3.47009">
        <ele>96</ele>
        <time>2014-10-08T12:06:58.000Z</time>
      </trkpt>
      <trkpt lat="43.42442" lon="3.47008">
        <ele>97</ele>
        <time>2014-10-08T12:07:02.000Z</time>
      </trkpt>
      <trkpt lat="43.42436" lon="3.46999">
        <ele>98</ele>
        <time>2014-10-08T12:07:06.000Z</time>
      </trkpt>
      <trkpt lat="43.42436" lon="3.46999">
        <ele>98</ele>
        <time>2014-10-08T12:07:08.000Z</time>
      </trkpt>
      <trkpt lat="43.42434" lon="3.46988">
        <ele>100</ele>
        <time>2014-10-08T12:07:10.000Z</time>
      </trkpt>
      <trkpt lat="43.42434" lon="3.46988">
        <ele>100</ele>
        <time>2014-10-08T12:07:12.000Z</time>
      </trkpt>
      <trkpt lat="43.42429" lon="3.46978">
        <ele>99</ele>
        <time>2014-10-08T12:07:14.000Z</time>
      </trkpt>
      <trkpt lat="43.42424" lon="3.46968">
        <ele>96</ele>
        <time>2014-10-08T12:07:18.000Z</time>
      </trkpt>
      <trkpt lat="43.42424" lon="3.46968">
        <ele>96</ele>
        <time>2014-10-08T12:07:20.000Z</time>
      </trkpt>
      <trkpt lat="43.42419" lon="3.46959">
        <ele>98</ele>
        <time>2014-10-08T12:07:22.000Z</time>
      </trkpt>
      <trkpt lat="43.42419" lon="3.46959">
        <ele>98</ele>
        <time>2014-10-08T12:07:24.000Z</time>
      </trkpt>
      <trkpt lat="43.42417" lon="3.4695">
        <ele>101</ele>
        <time>2014-10-08T12:07:26.000Z</time>
      </trkpt>
      <trkpt lat="43.42417" lon="3.4695">
        <ele>101</ele>
        <time>2014-10-08T12:07:28.000Z</time>
      </trkpt>
      <trkpt lat="43.42422" lon="3.46941">
        <ele>100</ele>
        <time>2014-10-08T12:07:30.000Z</time>
      </trkpt>
      <trkpt lat="43.42429" lon="3.46933">
        <ele>101</ele>
        <time>2014-10-08T12:07:34.000Z</time>
      </trkpt>
      <trkpt lat="43.42429" lon="3.46933">
        <ele>101</ele>
        <time>2014-10-08T12:07:36.000Z</time>
      </trkpt>
      <trkpt lat="43.4243" lon="3.46929">
        <ele>102</ele>
        <time>2014-10-08T12:07:38.000Z</time>
      </trkpt>
      <trkpt lat="43.42432" lon="3.46925">
        <ele>103</ele>
        <time>2014-10-08T12:07:40.000Z</time>
      </trkpt>
      <trkpt lat="43.42433" lon="3.46921">
        <ele>102</ele>
        <time>2014-10-08T12:07:42.000Z</time>
      </trkpt>
      <trkpt lat="43.42435" lon="3.46917">
        <ele>102</ele>
        <time>2014-10-08T12:07:44.000Z</time>
      </trkpt>
      <trkpt lat="43.42439" lon="3.46912">
        <ele>102</ele>
        <time>2014-10-08T12:07:46.000Z</time>
      </trkpt>
      <trkpt lat="43.42448" lon="3.46902">
        <ele>102</ele>
        <time>2014-10-08T12:07:48.000Z</time>
      </trkpt>
      <trkpt lat="43.42452" lon="3.46897">
        <ele>101</ele>
        <time>2014-10-08T12:07:50.000Z</time>
      </trkpt>
      <trkpt lat="43.42457" lon="3.46891">
        <ele>101</ele>
        <time>2014-10-08T12:07:52.000Z</time>
      </trkpt>
      <trkpt lat="43.42464" lon="3.46883">
        <ele>99</ele>
        <time>2014-10-08T12:07:54.000Z</time>
      </trkpt>
      <trkpt lat="43.42469" lon="3.46875">
        <ele>98</ele>
        <time>2014-10-08T12:07:56.000Z</time>
      </trkpt>
      <trkpt lat="43.42475" lon="3.46868">
        <ele>97</ele>
        <time>2014-10-08T12:07:58.000Z</time>
      </trkpt>
      <trkpt lat="43.42481" lon="3.46861">
        <ele>98</ele>
        <time>2014-10-08T12:08:00.000Z</time>
      </trkpt>
      <trkpt lat="43.42488" lon="3.46853">
        <ele>96</ele>
        <time>2014-10-08T12:08:02.000Z</time>
      </trkpt>
      <trkpt lat="43.42493" lon="3.46844">
        <ele>94</ele>
        <time>2014-10-08T12:08:04.000Z</time>
      </trkpt>
      <trkpt lat="43.42493" lon="3.46844">
        <ele>94</ele>
        <time>2014-10-08T12:08:06.000Z</time>
      </trkpt>
      <trkpt lat="43.4249" lon="3.46835">
        <ele>94</ele>
        <time>2014-10-08T12:08:08.000Z</time>
      </trkpt>
      <trkpt lat="43.4249" lon="3.46835">
        <ele>94</ele>
        <time>2014-10-08T12:08:10.000Z</time>
      </trkpt>
      <trkpt lat="43.42485" lon="3.46828">
        <ele>92</ele>
        <time>2014-10-08T12:08:12.000Z</time>
      </trkpt>
      <trkpt lat="43.42485" lon="3.46828">
        <ele>92</ele>
        <time>2014-10-08T12:08:14.000Z</time>
      </trkpt>
      <trkpt lat="43.42479" lon="3.46821">
        <ele>92</ele>
        <time>2014-10-08T12:08:16.000Z</time>
      </trkpt>
      <trkpt lat="43.42479" lon="3.46821">
        <ele>92</ele>
        <time>2014-10-08T12:08:18.000Z</time>
      </trkpt>
      <trkpt lat="43.42479" lon="3.46821">
        <ele>92</ele>
        <time>2014-10-08T12:08:20.000Z</time>
      </trkpt>
      <trkpt lat="43.42479" lon="3.46821">
        <ele>92</ele>
        <time>2014-10-08T12:08:22.000Z</time>
      </trkpt>
      <trkpt lat="43.42479" lon="3.46821">
        <ele>92</ele>
        <time>2014-10-08T12:08:24.000Z</time>
      </trkpt>
      <trkpt lat="43.42489" lon="3.4683">
        <ele>97</ele>
        <time>2014-10-08T12:08:52.000Z</time>
      </trkpt>
      <trkpt lat="43.42492" lon="3.46837">
        <ele>96</ele>
        <time>2014-10-08T12:08:54.000Z</time>
      </trkpt>
      <trkpt lat="43.42494" lon="3.46845">
        <ele>97</ele>
        <time>2014-10-08T12:08:56.000Z</time>
      </trkpt>
      <trkpt lat="43.42494" lon="3.46845">
        <ele>97</ele>
        <time>2014-10-08T12:08:58.000Z</time>
      </trkpt>
      <trkpt lat="43.42488" lon="3.46855">
        <ele>100</ele>
        <time>2014-10-08T12:09:00.000Z</time>
      </trkpt>
      <trkpt lat="43.42488" lon="3.46855">
        <ele>100</ele>
        <time>2014-10-08T12:09:02.000Z</time>
      </trkpt>
      <trkpt lat="43.42479" lon="3.46862">
        <ele>101</ele>
        <time>2014-10-08T12:09:04.000Z</time>
      </trkpt>
      <trkpt lat="43.42474" lon="3.46868">
        <ele>100</ele>
        <time>2014-10-08T12:09:06.000Z</time>
      </trkpt>
      <trkpt lat="43.42465" lon="3.46874">
        <ele>103</ele>
        <time>2014-10-08T12:09:10.000Z</time>
      </trkpt>
      <trkpt lat="43.42465" lon="3.46874">
        <ele>103</ele>
        <time>2014-10-08T12:09:12.000Z</time>
      </trkpt>
      <trkpt lat="43.42455" lon="3.4688">
        <ele>103</ele>
        <time>2014-10-08T12:09:14.000Z</time>
      </trkpt>
      <trkpt lat="43.42455" lon="3.4688">
        <ele>103</ele>
        <time>2014-10-08T12:09:16.000Z</time>
      </trkpt>
      <trkpt lat="43.42448" lon="3.46888">
        <ele>106</ele>
        <time>2014-10-08T12:09:18.000Z</time>
      </trkpt>
      <trkpt lat="43.42448" lon="3.46888">
        <ele>106</ele>
        <time>2014-10-08T12:09:20.000Z</time>
      </trkpt>
      <trkpt lat="43.42442" lon="3.46893">
        <ele>109</ele>
        <time>2014-10-08T12:09:22.000Z</time>
      </trkpt>
      <trkpt lat="43.42442" lon="3.46893">
        <ele>109</ele>
        <time>2014-10-08T12:09:24.000Z</time>
      </trkpt>
      <trkpt lat="43.42436" lon="3.469">
        <ele>108</ele>
        <time>2014-10-08T12:09:26.000Z</time>
      </trkpt>
      <trkpt lat="43.42436" lon="3.469">
        <ele>108</ele>
        <time>2014-10-08T12:09:28.000Z</time>
      </trkpt>
      <trkpt lat="43.4243" lon="3.46909">
        <ele>109</ele>
        <time>2014-10-08T12:09:30.000Z</time>
      </trkpt>
      <trkpt lat="43.4243" lon="3.46909">
        <ele>109</ele>
        <time>2014-10-08T12:09:32.000Z</time>
      </trkpt>
      <trkpt lat="43.42427" lon="3.4692">
        <ele>108</ele>
        <time>2014-10-08T12:09:34.000Z</time>
      </trkpt>
      <trkpt lat="43.42423" lon="3.46927">
        <ele>107</ele>
        <time>2014-10-08T12:09:36.000Z</time>
      </trkpt>
      <trkpt lat="43.4242" lon="3.46934">
        <ele>106</ele>
        <time>2014-10-08T12:09:38.000Z</time>
      </trkpt>
      <trkpt lat="43.42418" lon="3.46939">
        <ele>107</ele>
        <time>2014-10-08T12:09:42.000Z</time>
      </trkpt>
      <trkpt lat="43.42418" lon="3.46939">
        <ele>107</ele>
        <time>2014-10-08T12:09:44.000Z</time>
      </trkpt>
      <trkpt lat="43.42418" lon="3.46939">
        <ele>107</ele>
        <time>2014-10-08T12:09:46.000Z</time>
      </trkpt>
      <trkpt lat="43.42421" lon="3.46939">
        <ele>102</ele>
        <time>2014-10-08T12:09:48.000Z</time>
      </trkpt>
      <trkpt lat="43.42426" lon="3.46938">
        <ele>101</ele>
        <time>2014-10-08T12:09:50.000Z</time>
      </trkpt>
      <trkpt lat="43.42431" lon="3.46934">
        <ele>101</ele>
        <time>2014-10-08T12:09:52.000Z</time>
      </trkpt>
      <trkpt lat="43.42436" lon="3.46929">
        <ele>101</ele>
        <time>2014-10-08T12:09:54.000Z</time>
      </trkpt>
      <trkpt lat="43.42442" lon="3.46922">
        <ele>100</ele>
        <time>2014-10-08T12:09:56.000Z</time>
      </trkpt>
      <trkpt lat="43.42452" lon="3.46908">
        <ele>99</ele>
        <time>2014-10-08T12:09:58.000Z</time>
      </trkpt>
      <trkpt lat="43.42458" lon="3.46899">
        <ele>98</ele>
        <time>2014-10-08T12:10:00.000Z</time>
      </trkpt>
      <trkpt lat="43.42464" lon="3.46889">
        <ele>96</ele>
        <time>2014-10-08T12:10:02.000Z</time>
      </trkpt>
      <trkpt lat="43.42466" lon="3.46882">
        <ele>95</ele>
        <time>2014-10-08T12:10:04.000Z</time>
      </trkpt>
      <trkpt lat="43.42466" lon="3.46882">
        <ele>95</ele>
        <time>2014-10-08T12:10:07.000Z</time>
      </trkpt>
      <trkpt lat="43.42466" lon="3.46882">
        <ele>95</ele>
        <time>2014-10-08T12:10:09.000Z</time>
      </trkpt>
      <trkpt lat="43.42466" lon="3.46882">
        <ele>95</ele>
        <time>2014-10-08T12:10:11.000Z</time>
      </trkpt>
      <trkpt lat="43.42466" lon="3.46882">
        <ele>95</ele>
        <time>2014-10-08T12:10:13.000Z</time>
      </trkpt>
      <trkpt lat="43.42453" lon="3.46905">
        <ele>97</ele>
        <time>2014-10-08T12:10:27.000Z</time>
      </trkpt>
      <trkpt lat="43.42449" lon="3.46912">
        <ele>96</ele>
        <time>2014-10-08T12:10:29.000Z</time>
      </trkpt>
      <trkpt lat="43.42445" lon="3.46918">
        <ele>97</ele>
        <time>2014-10-08T12:10:31.000Z</time>
      </trkpt>
      <trkpt lat="43.42441" lon="3.46924">
        <ele>97</ele>
        <time>2014-10-08T12:10:33.000Z</time>
      </trkpt>
      <trkpt lat="43.42437" lon="3.46931">
        <ele>98</ele>
        <time>2014-10-08T12:10:35.000Z</time>
      </trkpt>
      <trkpt lat="43.42432" lon="3.46937">
        <ele>96</ele>
        <time>2014-10-08T12:10:37.000Z</time>
      </trkpt>
      <trkpt lat="43.42427" lon="3.46943">
        <ele>96</ele>
        <time>2014-10-08T12:10:39.000Z</time>
      </trkpt>
      <trkpt lat="43.42421" lon="3.46948">
        <ele>97</ele>
        <time>2014-10-08T12:10:41.000Z</time>
      </trkpt>
      <trkpt lat="43.42416" lon="3.46952">
        <ele>98</ele>
        <time>2014-10-08T12:10:43.000Z</time>
      </trkpt>
      <trkpt lat="43.42416" lon="3.46952">
        <ele>98</ele>
        <time>2014-10-08T12:10:45.000Z</time>
      </trkpt>
      <trkpt lat="43.42414" lon="3.46962">
        <ele>100</ele>
        <time>2014-10-08T12:10:47.000Z</time>
      </trkpt>
      <trkpt lat="43.42414" lon="3.46962">
        <ele>100</ele>
        <time>2014-10-08T12:10:49.000Z</time>
      </trkpt>
      <trkpt lat="43.42423" lon="3.46974">
        <ele>100</ele>
        <time>2014-10-08T12:10:51.000Z</time>
      </trkpt>
      <trkpt lat="43.42428" lon="3.46985">
        <ele>97</ele>
        <time>2014-10-08T12:10:53.000Z</time>
      </trkpt>
      <trkpt lat="43.42433" lon="3.46997">
        <ele>98</ele>
        <time>2014-10-08T12:10:55.000Z</time>
      </trkpt>
      <trkpt lat="43.42438" lon="3.47008">
        <ele>96</ele>
        <time>2014-10-08T12:10:57.000Z</time>
      </trkpt>
      <trkpt lat="43.42444" lon="3.47016">
        <ele>97</ele>
        <time>2014-10-08T12:10:59.000Z</time>
      </trkpt>
      <trkpt lat="43.4245" lon="3.4702">
        <ele>96</ele>
        <time>2014-10-08T12:11:01.000Z</time>
      </trkpt>
      <trkpt lat="43.42458" lon="3.4702">
        <ele>94</ele>
        <time>2014-10-08T12:11:03.000Z</time>
      </trkpt>
      <trkpt lat="43.42466" lon="3.47018">
        <ele>92</ele>
        <time>2014-10-08T12:11:05.000Z</time>
      </trkpt>
      <trkpt lat="43.42477" lon="3.47017">
        <ele>92</ele>
        <time>2014-10-08T12:11:07.000Z</time>
      </trkpt>
      <trkpt lat="43.42487" lon="3.47015">
        <ele>91</ele>
        <time>2014-10-08T12:11:09.000Z</time>
      </trkpt>
      <trkpt lat="43.42492" lon="3.47018">
        <ele>92</ele>
        <time>2014-10-08T12:11:11.000Z</time>
      </trkpt>
      <trkpt lat="43.42501" lon="3.47015">
        <ele>91</ele>
        <time>2014-10-08T12:11:13.000Z</time>
      </trkpt>
      <trkpt lat="43.42508" lon="3.47013">
        <ele>91</ele>
        <time>2014-10-08T12:11:15.000Z</time>
      </trkpt>
      <trkpt lat="43.42508" lon="3.47013">
        <ele>91</ele>
        <time>2014-10-08T12:11:17.000Z</time>
      </trkpt>
      <trkpt lat="43.42518" lon="3.47009">
        <ele>92</ele>
        <time>2014-10-08T12:11:19.000Z</time>
      </trkpt>
      <trkpt lat="43.42518" lon="3.47009">
        <ele>92</ele>
        <time>2014-10-08T12:11:21.000Z</time>
      </trkpt>
      <trkpt lat="43.42527" lon="3.47002">
        <ele>91</ele>
        <time>2014-10-08T12:11:23.000Z</time>
      </trkpt>
      <trkpt lat="43.42527" lon="3.47002">
        <ele>91</ele>
        <time>2014-10-08T12:11:25.000Z</time>
      </trkpt>
      <trkpt lat="43.42538" lon="3.46995">
        <ele>87</ele>
        <time>2014-10-08T12:11:27.000Z</time>
      </trkpt>
      <trkpt lat="43.42545" lon="3.4699">
        <ele>85</ele>
        <time>2014-10-08T12:11:29.000Z</time>
      </trkpt>
      <trkpt lat="43.42551" lon="3.46983">
        <ele>85</ele>
        <time>2014-10-08T12:11:31.000Z</time>
      </trkpt>
      <trkpt lat="43.42557" lon="3.46976">
        <ele>85</ele>
        <time>2014-10-08T12:11:33.000Z</time>
      </trkpt>
      <trkpt lat="43.42563" lon="3.46968">
        <ele>84</ele>
        <time>2014-10-08T12:11:35.000Z</time>
      </trkpt>
      <trkpt lat="43.42569" lon="3.46963">
        <ele>82</ele>
        <time>2014-10-08T12:11:37.000Z</time>
      </trkpt>
      <trkpt lat="43.42569" lon="3.46963">
        <ele>82</ele>
        <time>2014-10-08T12:11:39.000Z</time>
      </trkpt>
      <trkpt lat="43.42569" lon="3.46963">
        <ele>82</ele>
        <time>2014-10-08T12:11:41.000Z</time>
      </trkpt>
      <trkpt lat="43.42575" lon="3.46953">
        <ele>85</ele>
        <time>2014-10-08T12:11:43.000Z</time>
      </trkpt>
      <trkpt lat="43.42575" lon="3.46953">
        <ele>85</ele>
        <time>2014-10-08T12:11:45.000Z</time>
      </trkpt>
      <trkpt lat="43.42582" lon="3.46944">
        <ele>84</ele>
        <time>2014-10-08T12:11:47.000Z</time>
      </trkpt>
      <trkpt lat="43.42585" lon="3.46937">
        <ele>84</ele>
        <time>2014-10-08T12:11:49.000Z</time>
      </trkpt>
      <trkpt lat="43.42586" lon="3.46927">
        <ele>83</ele>
        <time>2014-10-08T12:11:51.000Z</time>
      </trkpt>
      <trkpt lat="43.42587" lon="3.46917">
        <ele>81</ele>
        <time>2014-10-08T12:11:53.000Z</time>
      </trkpt>
      <trkpt lat="43.42591" lon="3.46909">
        <ele>82</ele>
        <time>2014-10-08T12:11:55.000Z</time>
      </trkpt>
      <trkpt lat="43.42598" lon="3.46903">
        <ele>82</ele>
        <time>2014-10-08T12:11:57.000Z</time>
      </trkpt>
      <trkpt lat="43.42605" lon="3.46895">
        <ele>82</ele>
        <time>2014-10-08T12:11:59.000Z</time>
      </trkpt>
      <trkpt lat="43.42611" lon="3.46886">
        <ele>82</ele>
        <time>2014-10-08T12:12:01.000Z</time>
      </trkpt>
      <trkpt lat="43.42616" lon="3.46878">
        <ele>83</ele>
        <time>2014-10-08T12:12:03.000Z</time>
      </trkpt>
      <trkpt lat="43.42619" lon="3.46871">
        <ele>82</ele>
        <time>2014-10-08T12:12:05.000Z</time>
      </trkpt>
      <trkpt lat="43.42621" lon="3.46862">
        <ele>80</ele>
        <time>2014-10-08T12:12:07.000Z</time>
      </trkpt>
      <trkpt lat="43.42619" lon="3.46853">
        <ele>79</ele>
        <time>2014-10-08T12:12:09.000Z</time>
      </trkpt>
      <trkpt lat="43.42616" lon="3.46843">
        <ele>78</ele>
        <time>2014-10-08T12:12:11.000Z</time>
      </trkpt>
      <trkpt lat="43.42611" lon="3.46832">
        <ele>78</ele>
        <time>2014-10-08T12:12:13.000Z</time>
      </trkpt>
      <trkpt lat="43.42608" lon="3.46822">
        <ele>79</ele>
        <time>2014-10-08T12:12:15.000Z</time>
      </trkpt>
      <trkpt lat="43.42604" lon="3.46812">
        <ele>78</ele>
        <time>2014-10-08T12:12:17.000Z</time>
      </trkpt>
      <trkpt lat="43.42598" lon="3.468">
        <ele>78</ele>
        <time>2014-10-08T12:12:19.000Z</time>
      </trkpt>
      <trkpt lat="43.42589" lon="3.46787">
        <ele>77</ele>
        <time>2014-10-08T12:12:21.000Z</time>
      </trkpt>
      <trkpt lat="43.42583" lon="3.46778">
        <ele>78</ele>
        <time>2014-10-08T12:12:23.000Z</time>
      </trkpt>
      <trkpt lat="43.42576" lon="3.46766">
        <ele>76</ele>
        <time>2014-10-08T12:12:25.000Z</time>
      </trkpt>
      <trkpt lat="43.42571" lon="3.46754">
        <ele>76</ele>
        <time>2014-10-08T12:12:27.000Z</time>
      </trkpt>
      <trkpt lat="43.42567" lon="3.46745">
        <ele>78</ele>
        <time>2014-10-08T12:12:29.000Z</time>
      </trkpt>
      <trkpt lat="43.42564" lon="3.46736">
        <ele>77</ele>
        <time>2014-10-08T12:12:31.000Z</time>
      </trkpt>
      <trkpt lat="43.42561" lon="3.46728">
        <ele>78</ele>
        <time>2014-10-08T12:12:33.000Z</time>
      </trkpt>
      <trkpt lat="43.42561" lon="3.46728">
        <ele>78</ele>
        <time>2014-10-08T12:12:35.000Z</time>
      </trkpt>
      <trkpt lat="43.42556" lon="3.46714">
        <ele>78</ele>
        <time>2014-10-08T12:12:37.000Z</time>
      </trkpt>
      <trkpt lat="43.42556" lon="3.46714">
        <ele>78</ele>
        <time>2014-10-08T12:12:39.000Z</time>
      </trkpt>
      <trkpt lat="43.42551" lon="3.46704">
        <ele>79</ele>
        <time>2014-10-08T12:12:41.000Z</time>
      </trkpt>
      <trkpt lat="43.42551" lon="3.46704">
        <ele>79</ele>
        <time>2014-10-08T12:12:43.000Z</time>
      </trkpt>
      <trkpt lat="43.42544" lon="3.46695">
        <ele>78</ele>
        <time>2014-10-08T12:12:45.000Z</time>
      </trkpt>
      <trkpt lat="43.42544" lon="3.46695">
        <ele>78</ele>
        <time>2014-10-08T12:12:47.000Z</time>
      </trkpt>
      <trkpt lat="43.42536" lon="3.46688">
        <ele>81</ele>
        <time>2014-10-08T12:12:49.000Z</time>
      </trkpt>
      <trkpt lat="43.42528" lon="3.46679">
        <ele>81</ele>
        <time>2014-10-08T12:12:53.000Z</time>
      </trkpt>
      <trkpt lat="43.42522" lon="3.46666">
        <ele>80</ele>
        <time>2014-10-08T12:12:57.000Z</time>
      </trkpt>
      <trkpt lat="43.42522" lon="3.46666">
        <ele>80</ele>
        <time>2014-10-08T12:12:59.000Z</time>
      </trkpt>
      <trkpt lat="43.42518" lon="3.46657">
        <ele>82</ele>
        <time>2014-10-08T12:13:01.000Z</time>
      </trkpt>
      <trkpt lat="43.42518" lon="3.46657">
        <ele>82</ele>
        <time>2014-10-08T12:13:03.000Z</time>
      </trkpt>
      <trkpt lat="43.42518" lon="3.46657">
        <ele>82</ele>
        <time>2014-10-08T12:13:05.000Z</time>
      </trkpt>
      <trkpt lat="43.42518" lon="3.46657">
        <ele>82</ele>
        <time>2014-10-08T12:13:07.000Z</time>
      </trkpt>
      <trkpt lat="43.42518" lon="3.46657">
        <ele>82</ele>
        <time>2014-10-08T12:13:09.000Z</time>
      </trkpt>
      <trkpt lat="43.42522" lon="3.46666">
        <ele>84</ele>
        <time>2014-10-08T12:13:43.000Z</time>
      </trkpt>
      <trkpt lat="43.42526" lon="3.46674">
        <ele>83</ele>
        <time>2014-10-08T12:13:45.000Z</time>
      </trkpt>
      <trkpt lat="43.4253" lon="3.4668">
        <ele>82</ele>
        <time>2014-10-08T12:13:47.000Z</time>
      </trkpt>
      <trkpt lat="43.42534" lon="3.46687">
        <ele>81</ele>
        <time>2014-10-08T12:13:49.000Z</time>
      </trkpt>
      <trkpt lat="43.42539" lon="3.46693">
        <ele>82</ele>
        <time>2014-10-08T12:13:51.000Z</time>
      </trkpt>
      <trkpt lat="43.42548" lon="3.46705">
        <ele>83</ele>
        <time>2014-10-08T12:13:53.000Z</time>
      </trkpt>
      <trkpt lat="43.42553" lon="3.46711">
        <ele>82</ele>
        <time>2014-10-08T12:13:55.000Z</time>
      </trkpt>
      <trkpt lat="43.42556" lon="3.46719">
        <ele>81</ele>
        <time>2014-10-08T12:13:57.000Z</time>
      </trkpt>
      <trkpt lat="43.42559" lon="3.46727">
        <ele>81</ele>
        <time>2014-10-08T12:13:59.000Z</time>
      </trkpt>
      <trkpt lat="43.42565" lon="3.4674">
        <ele>81</ele>
        <time>2014-10-08T12:14:03.000Z</time>
      </trkpt>
      <trkpt lat="43.42565" lon="3.4674">
        <ele>81</ele>
        <time>2014-10-08T12:14:05.000Z</time>
      </trkpt>
      <trkpt lat="43.4257" lon="3.46755">
        <ele>77</ele>
        <time>2014-10-08T12:14:07.000Z</time>
      </trkpt>
      <trkpt lat="43.42574" lon="3.46763">
        <ele>77</ele>
        <time>2014-10-08T12:14:09.000Z</time>
      </trkpt>
      <trkpt lat="43.42579" lon="3.46772">
        <ele>78</ele>
        <time>2014-10-08T12:14:11.000Z</time>
      </trkpt>
      <trkpt lat="43.42584" lon="3.46781">
        <ele>76</ele>
        <time>2014-10-08T12:14:13.000Z</time>
      </trkpt>
      <trkpt lat="43.42589" lon="3.46791">
        <ele>76</ele>
        <time>2014-10-08T12:14:15.000Z</time>
      </trkpt>
      <trkpt lat="43.42593" lon="3.468">
        <ele>77</ele>
        <time>2014-10-08T12:14:17.000Z</time>
      </trkpt>
      <trkpt lat="43.42596" lon="3.4681">
        <ele>77</ele>
        <time>2014-10-08T12:14:19.000Z</time>
      </trkpt>
      <trkpt lat="43.426" lon="3.46819">
        <ele>78</ele>
        <time>2014-10-08T12:14:21.000Z</time>
      </trkpt>
      <trkpt lat="43.42603" lon="3.46827">
        <ele>77</ele>
        <time>2014-10-08T12:14:23.000Z</time>
      </trkpt>
      <trkpt lat="43.42607" lon="3.46835">
        <ele>78</ele>
        <time>2014-10-08T12:14:25.000Z</time>
      </trkpt>
      <trkpt lat="43.42611" lon="3.46843">
        <ele>75</ele>
        <time>2014-10-08T12:14:27.000Z</time>
      </trkpt>
      <trkpt lat="43.42614" lon="3.46852">
        <ele>75</ele>
        <time>2014-10-08T12:14:29.000Z</time>
      </trkpt>
      <trkpt lat="43.42616" lon="3.46861">
        <ele>74</ele>
        <time>2014-10-08T12:14:31.000Z</time>
      </trkpt>
      <trkpt lat="43.4262" lon="3.46869">
        <ele>74</ele>
        <time>2014-10-08T12:14:33.000Z</time>
      </trkpt>
      <trkpt lat="43.42619" lon="3.46878">
        <ele>75</ele>
        <time>2014-10-08T12:14:35.000Z</time>
      </trkpt>
      <trkpt lat="43.42613" lon="3.46885">
        <ele>76</ele>
        <time>2014-10-08T12:14:37.000Z</time>
      </trkpt>
      <trkpt lat="43.42607" lon="3.46891">
        <ele>77</ele>
        <time>2014-10-08T12:14:39.000Z</time>
      </trkpt>
      <trkpt lat="43.42601" lon="3.46897">
        <ele>79</ele>
        <time>2014-10-08T12:14:41.000Z</time>
      </trkpt>
      <trkpt lat="43.42596" lon="3.46902">
        <ele>82</ele>
        <time>2014-10-08T12:14:43.000Z</time>
      </trkpt>
      <trkpt lat="43.4259" lon="3.46906">
        <ele>82</ele>
        <time>2014-10-08T12:14:45.000Z</time>
      </trkpt>
      <trkpt lat="43.42586" lon="3.46912">
        <ele>85</ele>
        <time>2014-10-08T12:14:47.000Z</time>
      </trkpt>
      <trkpt lat="43.42582" lon="3.46919">
        <ele>85</ele>
        <time>2014-10-08T12:14:49.000Z</time>
      </trkpt>
      <trkpt lat="43.42582" lon="3.46919">
        <ele>85</ele>
        <time>2014-10-08T12:14:51.000Z</time>
      </trkpt>
      <trkpt lat="43.42582" lon="3.46929">
        <ele>86</ele>
        <time>2014-10-08T12:14:53.000Z</time>
      </trkpt>
      <trkpt lat="43.42582" lon="3.46929">
        <ele>86</ele>
        <time>2014-10-08T12:14:55.000Z</time>
      </trkpt>
      <trkpt lat="43.42575" lon="3.46937">
        <ele>86</ele>
        <time>2014-10-08T12:14:57.000Z</time>
      </trkpt>
      <trkpt lat="43.42571" lon="3.46943">
        <ele>89</ele>
        <time>2014-10-08T12:14:59.000Z</time>
      </trkpt>
      <trkpt lat="43.42567" lon="3.46948">
        <ele>86</ele>
        <time>2014-10-08T12:15:01.000Z</time>
      </trkpt>
      <trkpt lat="43.42569" lon="3.46961">
        <ele>88</ele>
        <time>2014-10-08T12:15:05.000Z</time>
      </trkpt>
      <trkpt lat="43.42574" lon="3.46968">
        <ele>85</ele>
        <time>2014-10-08T12:15:07.000Z</time>
      </trkpt>
      <trkpt lat="43.42579" lon="3.46977">
        <ele>87</ele>
        <time>2014-10-08T12:15:09.000Z</time>
      </trkpt>
      <trkpt lat="43.42583" lon="3.46983">
        <ele>87</ele>
        <time>2014-10-08T12:15:11.000Z</time>
      </trkpt>
      <trkpt lat="43.42589" lon="3.4699">
        <ele>86</ele>
        <time>2014-10-08T12:15:13.000Z</time>
      </trkpt>
      <trkpt lat="43.42594" lon="3.46996">
        <ele>85</ele>
        <time>2014-10-08T12:15:15.000Z</time>
      </trkpt>
      <trkpt lat="43.42599" lon="3.47004">
        <ele>85</ele>
        <time>2014-10-08T12:15:17.000Z</time>
      </trkpt>
      <trkpt lat="43.42602" lon="3.47012">
        <ele>85</ele>
        <time>2014-10-08T12:15:19.000Z</time>
      </trkpt>
      <trkpt lat="43.42605" lon="3.4702">
        <ele>83</ele>
        <time>2014-10-08T12:15:21.000Z</time>
      </trkpt>
      <trkpt lat="43.42605" lon="3.4702">
        <ele>83</ele>
        <time>2014-10-08T12:15:23.000Z</time>
      </trkpt>
      <trkpt lat="43.42608" lon="3.47035">
        <ele>83</ele>
        <time>2014-10-08T12:15:25.000Z</time>
      </trkpt>
      <trkpt lat="43.42611" lon="3.47044">
        <ele>83</ele>
        <time>2014-10-08T12:15:27.000Z</time>
      </trkpt>
      <trkpt lat="43.42612" lon="3.47052">
        <ele>85</ele>
        <time>2014-10-08T12:15:29.000Z</time>
      </trkpt>
      <trkpt lat="43.42614" lon="3.47062">
        <ele>86</ele>
        <time>2014-10-08T12:15:31.000Z</time>
      </trkpt>
      <trkpt lat="43.42614" lon="3.47071">
        <ele>85</ele>
        <time>2014-10-08T12:15:33.000Z</time>
      </trkpt>
      <trkpt lat="43.42614" lon="3.4708">
        <ele>87</ele>
        <time>2014-10-08T12:15:35.000Z</time>
      </trkpt>
      <trkpt lat="43.42613" lon="3.4709">
        <ele>86</ele>
        <time>2014-10-08T12:15:37.000Z</time>
      </trkpt>
      <trkpt lat="43.42612" lon="3.471">
        <ele>85</ele>
        <time>2014-10-08T12:15:39.000Z</time>
      </trkpt>
      <trkpt lat="43.42611" lon="3.47112">
        <ele>84</ele>
        <time>2014-10-08T12:15:41.000Z</time>
      </trkpt>
      <trkpt lat="43.42611" lon="3.47123">
        <ele>83</ele>
        <time>2014-10-08T12:15:43.000Z</time>
      </trkpt>
      <trkpt lat="43.42609" lon="3.47135">
        <ele>83</ele>
        <time>2014-10-08T12:15:45.000Z</time>
      </trkpt>
      <trkpt lat="43.42608" lon="3.47145">
        <ele>83</ele>
        <time>2014-10-08T12:15:47.000Z</time>
      </trkpt>
      <trkpt lat="43.42605" lon="3.47156">
        <ele>83</ele>
        <time>2014-10-08T12:15:49.000Z</time>
      </trkpt>
      <trkpt lat="43.42604" lon="3.47166">
        <ele>81</ele>
        <time>2014-10-08T12:15:51.000Z</time>
      </trkpt>
      <trkpt lat="43.42604" lon="3.47166">
        <ele>81</ele>
        <time>2014-10-08T12:15:53.000Z</time>
      </trkpt>
      <trkpt lat="43.42614" lon="3.47174">
        <ele>81</ele>
        <time>2014-10-08T12:15:55.000Z</time>
      </trkpt>
      <trkpt lat="43.42622" lon="3.47174">
        <ele>83</ele>
        <time>2014-10-08T12:15:57.000Z</time>
      </trkpt>
      <trkpt lat="43.4263" lon="3.47175">
        <ele>84</ele>
        <time>2014-10-08T12:15:59.000Z</time>
      </trkpt>
      <trkpt lat="43.42638" lon="3.47176">
        <ele>86</ele>
        <time>2014-10-08T12:16:01.000Z</time>
      </trkpt>
      <trkpt lat="43.42646" lon="3.47175">
        <ele>85</ele>
        <time>2014-10-08T12:16:03.000Z</time>
      </trkpt>
      <trkpt lat="43.42654" lon="3.47171">
        <ele>85</ele>
        <time>2014-10-08T12:16:05.000Z</time>
      </trkpt>
      <trkpt lat="43.42659" lon="3.47163">
        <ele>85</ele>
        <time>2014-10-08T12:16:07.000Z</time>
      </trkpt>
      <trkpt lat="43.42664" lon="3.47155">
        <ele>85</ele>
        <time>2014-10-08T12:16:09.000Z</time>
      </trkpt>
      <trkpt lat="43.4267" lon="3.47147">
        <ele>84</ele>
        <time>2014-10-08T12:16:11.000Z</time>
      </trkpt>
      <trkpt lat="43.42676" lon="3.4714">
        <ele>85</ele>
        <time>2014-10-08T12:16:13.000Z</time>
      </trkpt>
      <trkpt lat="43.42682" lon="3.47134">
        <ele>85</ele>
        <time>2014-10-08T12:16:15.000Z</time>
      </trkpt>
      <trkpt lat="43.42687" lon="3.4713">
        <ele>87</ele>
        <time>2014-10-08T12:16:17.000Z</time>
      </trkpt>
      <trkpt lat="43.42687" lon="3.4713">
        <ele>87</ele>
        <time>2014-10-08T12:16:19.000Z</time>
      </trkpt>
      <trkpt lat="43.42695" lon="3.4713">
        <ele>88</ele>
        <time>2014-10-08T12:16:21.000Z</time>
      </trkpt>
      <trkpt lat="43.42695" lon="3.4713">
        <ele>88</ele>
        <time>2014-10-08T12:16:23.000Z</time>
      </trkpt>
      <trkpt lat="43.42701" lon="3.47128">
        <ele>86</ele>
        <time>2014-10-08T12:16:25.000Z</time>
      </trkpt>
      <trkpt lat="43.42704" lon="3.4712">
        <ele>85</ele>
        <time>2014-10-08T12:16:27.000Z</time>
      </trkpt>
      <trkpt lat="43.42707" lon="3.47111">
        <ele>85</ele>
        <time>2014-10-08T12:16:29.000Z</time>
      </trkpt>
      <trkpt lat="43.4271" lon="3.47101">
        <ele>86</ele>
        <time>2014-10-08T12:16:31.000Z</time>
      </trkpt>
      <trkpt lat="43.42715" lon="3.4709">
        <ele>85</ele>
        <time>2014-10-08T12:16:33.000Z</time>
      </trkpt>
      <trkpt lat="43.42719" lon="3.47081">
        <ele>84</ele>
        <time>2014-10-08T12:16:35.000Z</time>
      </trkpt>
      <trkpt lat="43.42724" lon="3.47075">
        <ele>85</ele>
        <time>2014-10-08T12:16:37.000Z</time>
      </trkpt>
      <trkpt lat="43.42729" lon="3.47069">
        <ele>86</ele>
        <time>2014-10-08T12:16:39.000Z</time>
      </trkpt>
      <trkpt lat="43.42735" lon="3.47063">
        <ele>87</ele>
        <time>2014-10-08T12:16:41.000Z</time>
      </trkpt>
      <trkpt lat="43.42742" lon="3.47055">
        <ele>88</ele>
        <time>2014-10-08T12:16:43.000Z</time>
      </trkpt>
      <trkpt lat="43.42749" lon="3.47046">
        <ele>90</ele>
        <time>2014-10-08T12:16:45.000Z</time>
      </trkpt>
      <trkpt lat="43.42755" lon="3.47036">
        <ele>91</ele>
        <time>2014-10-08T12:16:47.000Z</time>
      </trkpt>
      <trkpt lat="43.42764" lon="3.47026">
        <ele>91</ele>
        <time>2014-10-08T12:16:49.000Z</time>
      </trkpt>
      <trkpt lat="43.42774" lon="3.47014">
        <ele>90</ele>
        <time>2014-10-08T12:16:51.000Z</time>
      </trkpt>
      <trkpt lat="43.42781" lon="3.47004">
        <ele>90</ele>
        <time>2014-10-08T12:16:53.000Z</time>
      </trkpt>
      <trkpt lat="43.42786" lon="3.46994">
        <ele>88</ele>
        <time>2014-10-08T12:16:55.000Z</time>
      </trkpt>
      <trkpt lat="43.428" lon="3.46976">
        <ele>87</ele>
        <time>2014-10-08T12:16:58.000Z</time>
      </trkpt>
      <trkpt lat="43.42806" lon="3.46966">
        <ele>88</ele>
        <time>2014-10-08T12:17:00.000Z</time>
      </trkpt>
      <trkpt lat="43.42812" lon="3.4695">
        <ele>88</ele>
        <time>2014-10-08T12:17:02.000Z</time>
      </trkpt>
      <trkpt lat="43.42823" lon="3.46943">
        <ele>87</ele>
        <time>2014-10-08T12:17:04.000Z</time>
      </trkpt>
      <trkpt lat="43.42831" lon="3.46934">
        <ele>88</ele>
        <time>2014-10-08T12:17:06.000Z</time>
      </trkpt>
      <trkpt lat="43.42838" lon="3.46926">
        <ele>87</ele>
        <time>2014-10-08T12:17:08.000Z</time>
      </trkpt>
      <trkpt lat="43.42845" lon="3.46916">
        <ele>88</ele>
        <time>2014-10-08T12:17:10.000Z</time>
      </trkpt>
      <trkpt lat="43.42852" lon="3.46906">
        <ele>88</ele>
        <time>2014-10-08T12:17:12.000Z</time>
      </trkpt>
      <trkpt lat="43.4286" lon="3.46892">
        <ele>88</ele>
        <time>2014-10-08T12:17:14.000Z</time>
      </trkpt>
      <trkpt lat="43.42865" lon="3.46883">
        <ele>90</ele>
        <time>2014-10-08T12:17:16.000Z</time>
      </trkpt>
      <trkpt lat="43.42871" lon="3.46876">
        <ele>90</ele>
        <time>2014-10-08T12:17:18.000Z</time>
      </trkpt>
      <trkpt lat="43.42879" lon="3.46865">
        <ele>93</ele>
        <time>2014-10-08T12:17:20.000Z</time>
      </trkpt>
      <trkpt lat="43.42885" lon="3.4685">
        <ele>93</ele>
        <time>2014-10-08T12:17:22.000Z</time>
      </trkpt>
      <trkpt lat="43.42888" lon="3.46836">
        <ele>93</ele>
        <time>2014-10-08T12:17:24.000Z</time>
      </trkpt>
      <trkpt lat="43.4289" lon="3.4682">
        <ele>93</ele>
        <time>2014-10-08T12:17:26.000Z</time>
      </trkpt>
      <trkpt lat="43.42891" lon="3.46803">
        <ele>92</ele>
        <time>2014-10-08T12:17:28.000Z</time>
      </trkpt>
      <trkpt lat="43.42891" lon="3.46787">
        <ele>92</ele>
        <time>2014-10-08T12:17:30.000Z</time>
      </trkpt>
      <trkpt lat="43.42889" lon="3.46772">
        <ele>92</ele>
        <time>2014-10-08T12:17:32.000Z</time>
      </trkpt>
      <trkpt lat="43.42883" lon="3.46758">
        <ele>91</ele>
        <time>2014-10-08T12:17:34.000Z</time>
      </trkpt>
      <trkpt lat="43.4288" lon="3.46744">
        <ele>93</ele>
        <time>2014-10-08T12:17:36.000Z</time>
      </trkpt>
      <trkpt lat="43.42878" lon="3.46731">
        <ele>93</ele>
        <time>2014-10-08T12:17:38.000Z</time>
      </trkpt>
      <trkpt lat="43.42875" lon="3.46717">
        <ele>91</ele>
        <time>2014-10-08T12:17:40.000Z</time>
      </trkpt>
      <trkpt lat="43.42871" lon="3.46703">
        <ele>91</ele>
        <time>2014-10-08T12:17:42.000Z</time>
      </trkpt>
      <trkpt lat="43.42868" lon="3.46689">
        <ele>92</ele>
        <time>2014-10-08T12:17:44.000Z</time>
      </trkpt>
      <trkpt lat="43.42864" lon="3.46676">
        <ele>92</ele>
        <time>2014-10-08T12:17:46.000Z</time>
      </trkpt>
      <trkpt lat="43.4286" lon="3.46661">
        <ele>93</ele>
        <time>2014-10-08T12:17:48.000Z</time>
      </trkpt>
      <trkpt lat="43.42854" lon="3.46646">
        <ele>92</ele>
        <time>2014-10-08T12:17:50.000Z</time>
      </trkpt>
      <trkpt lat="43.42849" lon="3.46632">
        <ele>93</ele>
        <time>2014-10-08T12:17:52.000Z</time>
      </trkpt>
      <trkpt lat="43.42847" lon="3.46616">
        <ele>93</ele>
        <time>2014-10-08T12:17:54.000Z</time>
      </trkpt>
      <trkpt lat="43.42843" lon="3.46601">
        <ele>93</ele>
        <time>2014-10-08T12:17:56.000Z</time>
      </trkpt>
      <trkpt lat="43.42841" lon="3.46587">
        <ele>92</ele>
        <time>2014-10-08T12:17:58.000Z</time>
      </trkpt>
      <trkpt lat="43.42838" lon="3.46572">
        <ele>92</ele>
        <time>2014-10-08T12:18:00.000Z</time>
      </trkpt>
      <trkpt lat="43.42834" lon="3.46558">
        <ele>92</ele>
        <time>2014-10-08T12:18:02.000Z</time>
      </trkpt>
      <trkpt lat="43.42828" lon="3.46544">
        <ele>92</ele>
        <time>2014-10-08T12:18:04.000Z</time>
      </trkpt>
      <trkpt lat="43.42825" lon="3.46529">
        <ele>93</ele>
        <time>2014-10-08T12:18:06.000Z</time>
      </trkpt>
      <trkpt lat="43.42822" lon="3.46511">
        <ele>93</ele>
        <time>2014-10-08T12:18:08.000Z</time>
      </trkpt>
      <trkpt lat="43.42817" lon="3.46493">
        <ele>91</ele>
        <time>2014-10-08T12:18:10.000Z</time>
      </trkpt>
      <trkpt lat="43.42811" lon="3.46475">
        <ele>92</ele>
        <time>2014-10-08T12:18:12.000Z</time>
      </trkpt>
      <trkpt lat="43.42807" lon="3.46456">
        <ele>91</ele>
        <time>2014-10-08T12:18:14.000Z</time>
      </trkpt>
      <trkpt lat="43.42801" lon="3.46437">
        <ele>92</ele>
        <time>2014-10-08T12:18:16.000Z</time>
      </trkpt>
      <trkpt lat="43.42795" lon="3.4642">
        <ele>91</ele>
        <time>2014-10-08T12:18:18.000Z</time>
      </trkpt>
      <trkpt lat="43.42791" lon="3.46401">
        <ele>92</ele>
        <time>2014-10-08T12:18:20.000Z</time>
      </trkpt>
      <trkpt lat="43.42784" lon="3.46381">
        <ele>93</ele>
        <time>2014-10-08T12:18:22.000Z</time>
      </trkpt>
      <trkpt lat="43.4278" lon="3.46364">
        <ele>91</ele>
        <time>2014-10-08T12:18:24.000Z</time>
      </trkpt>
      <trkpt lat="43.42776" lon="3.46347">
        <ele>92</ele>
        <time>2014-10-08T12:18:26.000Z</time>
      </trkpt>
      <trkpt lat="43.42771" lon="3.46331">
        <ele>93</ele>
        <time>2014-10-08T12:18:28.000Z</time>
      </trkpt>
      <trkpt lat="43.42768" lon="3.46315">
        <ele>92</ele>
        <time>2014-10-08T12:18:30.000Z</time>
      </trkpt>
      <trkpt lat="43.42764" lon="3.46302">
        <ele>93</ele>
        <time>2014-10-08T12:18:32.000Z</time>
      </trkpt>
      <trkpt lat="43.4276" lon="3.46293">
        <ele>94</ele>
        <time>2014-10-08T12:18:34.000Z</time>
      </trkpt>
      <trkpt lat="43.42751" lon="3.46292">
        <ele>94</ele>
        <time>2014-10-08T12:18:36.000Z</time>
      </trkpt>
      <trkpt lat="43.42746" lon="3.46301">
        <ele>94</ele>
        <time>2014-10-08T12:18:38.000Z</time>
      </trkpt>
      <trkpt lat="43.42739" lon="3.46308">
        <ele>93</ele>
        <time>2014-10-08T12:18:40.000Z</time>
      </trkpt>
      <trkpt lat="43.42729" lon="3.46316">
        <ele>94</ele>
        <time>2014-10-08T12:18:42.000Z</time>
      </trkpt>
      <trkpt lat="43.42717" lon="3.46323">
        <ele>95</ele>
        <time>2014-10-08T12:18:44.000Z</time>
      </trkpt>
      <trkpt lat="43.42707" lon="3.46329">
        <ele>95</ele>
        <time>2014-10-08T12:18:46.000Z</time>
      </trkpt>
      <trkpt lat="43.42688" lon="3.46346">
        <ele>88</ele>
        <time>2014-10-08T12:18:49.000Z</time>
      </trkpt>
      <trkpt lat="43.42672" lon="3.46354">
        <ele>90</ele>
        <time>2014-10-08T12:18:52.000Z</time>
      </trkpt>
      <trkpt lat="43.42661" lon="3.46359">
        <ele>90</ele>
        <time>2014-10-08T12:18:54.000Z</time>
      </trkpt>
      <trkpt lat="43.42651" lon="3.46364">
        <ele>90</ele>
        <time>2014-10-08T12:18:56.000Z</time>
      </trkpt>
      <trkpt lat="43.42643" lon="3.46368">
        <ele>91</ele>
        <time>2014-10-08T12:18:58.000Z</time>
      </trkpt>
      <trkpt lat="43.42631" lon="3.46374">
        <ele>92</ele>
        <time>2014-10-08T12:19:00.000Z</time>
      </trkpt>
      <trkpt lat="43.4262" lon="3.46382">
        <ele>92</ele>
        <time>2014-10-08T12:19:02.000Z</time>
      </trkpt>
      <trkpt lat="43.42611" lon="3.46387">
        <ele>91</ele>
        <time>2014-10-08T12:19:04.000Z</time>
      </trkpt>
      <trkpt lat="43.42603" lon="3.4639">
        <ele>92</ele>
        <time>2014-10-08T12:19:06.000Z</time>
      </trkpt>
      <trkpt lat="43.42593" lon="3.46396">
        <ele>91</ele>
        <time>2014-10-08T12:19:08.000Z</time>
      </trkpt>
      <trkpt lat="43.4258" lon="3.46405">
        <ele>90</ele>
        <time>2014-10-08T12:19:10.000Z</time>
      </trkpt>
      <trkpt lat="43.42571" lon="3.46416">
        <ele>86</ele>
        <time>2014-10-08T12:19:12.000Z</time>
      </trkpt>
      <trkpt lat="43.4256" lon="3.46423">
        <ele>86</ele>
        <time>2014-10-08T12:19:14.000Z</time>
      </trkpt>
      <trkpt lat="43.42551" lon="3.46428">
        <ele>86</ele>
        <time>2014-10-08T12:19:16.000Z</time>
      </trkpt>
      <trkpt lat="43.42551" lon="3.46428">
        <ele>86</ele>
        <time>2014-10-08T12:19:19.000Z</time>
      </trkpt>
      <trkpt lat="43.42541" lon="3.46432">
        <ele>88</ele>
        <time>2014-10-08T12:19:21.000Z</time>
      </trkpt>
      <trkpt lat="43.42534" lon="3.4643">
        <ele>85</ele>
        <time>2014-10-08T12:19:23.000Z</time>
      </trkpt>
      <trkpt lat="43.42527" lon="3.46426">
        <ele>85</ele>
        <time>2014-10-08T12:19:25.000Z</time>
      </trkpt>
      <trkpt lat="43.42521" lon="3.46425">
        <ele>84</ele>
        <time>2014-10-08T12:19:27.000Z</time>
      </trkpt>
      <trkpt lat="43.42514" lon="3.46426">
        <ele>86</ele>
        <time>2014-10-08T12:19:29.000Z</time>
      </trkpt>
      <trkpt lat="43.42508" lon="3.46431">
        <ele>87</ele>
        <time>2014-10-08T12:19:31.000Z</time>
      </trkpt>
      <trkpt lat="43.42502" lon="3.46436">
        <ele>88</ele>
        <time>2014-10-08T12:19:33.000Z</time>
      </trkpt>
      <trkpt lat="43.42496" lon="3.46441">
        <ele>88</ele>
        <time>2014-10-08T12:19:35.000Z</time>
      </trkpt>
      <trkpt lat="43.42489" lon="3.46446">
        <ele>85</ele>
        <time>2014-10-08T12:19:37.000Z</time>
      </trkpt>
      <trkpt lat="43.42479" lon="3.46454">
        <ele>85</ele>
        <time>2014-10-08T12:19:39.000Z</time>
      </trkpt>
      <trkpt lat="43.4247" lon="3.4646">
        <ele>83</ele>
        <time>2014-10-08T12:19:41.000Z</time>
      </trkpt>
      <trkpt lat="43.42462" lon="3.46463">
        <ele>83</ele>
        <time>2014-10-08T12:19:43.000Z</time>
      </trkpt>
      <trkpt lat="43.42456" lon="3.46465">
        <ele>84</ele>
        <time>2014-10-08T12:19:45.000Z</time>
      </trkpt>
      <trkpt lat="43.42456" lon="3.46465">
        <ele>84</ele>
        <time>2014-10-08T12:19:47.000Z</time>
      </trkpt>
      <trkpt lat="43.42449" lon="3.46472">
        <ele>88</ele>
        <time>2014-10-08T12:19:49.000Z</time>
      </trkpt>
      <trkpt lat="43.42449" lon="3.46472">
        <ele>88</ele>
        <time>2014-10-08T12:19:51.000Z</time>
      </trkpt>
      <trkpt lat="43.42439" lon="3.4647">
        <ele>90</ele>
        <time>2014-10-08T12:19:53.000Z</time>
      </trkpt>
      <trkpt lat="43.42439" lon="3.4647">
        <ele>90</ele>
        <time>2014-10-08T12:19:55.000Z</time>
      </trkpt>
      <trkpt lat="43.4243" lon="3.46463">
        <ele>88</ele>
        <time>2014-10-08T12:19:57.000Z</time>
      </trkpt>
      <trkpt lat="43.4243" lon="3.46463">
        <ele>88</ele>
        <time>2014-10-08T12:19:59.000Z</time>
      </trkpt>
      <trkpt lat="43.42421" lon="3.46455">
        <ele>88</ele>
        <time>2014-10-08T12:20:01.000Z</time>
      </trkpt>
      <trkpt lat="43.42414" lon="3.46453">
        <ele>88</ele>
        <time>2014-10-08T12:20:03.000Z</time>
      </trkpt>
      <trkpt lat="43.42408" lon="3.46454">
        <ele>87</ele>
        <time>2014-10-08T12:20:05.000Z</time>
      </trkpt>
      <trkpt lat="43.42408" lon="3.46454">
        <ele>87</ele>
        <time>2014-10-08T12:20:07.000Z</time>
      </trkpt>
      <trkpt lat="43.42399" lon="3.46451">
        <ele>87</ele>
        <time>2014-10-08T12:20:09.000Z</time>
      </trkpt>
      <trkpt lat="43.42399" lon="3.46451">
        <ele>87</ele>
        <time>2014-10-08T12:20:11.000Z</time>
      </trkpt>
      <trkpt lat="43.42394" lon="3.46435">
        <ele>87</ele>
        <time>2014-10-08T12:20:13.000Z</time>
      </trkpt>
      <trkpt lat="43.42392" lon="3.46423">
        <ele>88</ele>
        <time>2014-10-08T12:20:15.000Z</time>
      </trkpt>
      <trkpt lat="43.42386" lon="3.46415">
        <ele>84</ele>
        <time>2014-10-08T12:20:17.000Z</time>
      </trkpt>
      <trkpt lat="43.42384" lon="3.46405">
        <ele>84</ele>
        <time>2014-10-08T12:20:19.000Z</time>
      </trkpt>
      <trkpt lat="43.42383" lon="3.46393">
        <ele>84</ele>
        <time>2014-10-08T12:20:21.000Z</time>
      </trkpt>
      <trkpt lat="43.42385" lon="3.4638">
        <ele>83</ele>
        <time>2014-10-08T12:20:23.000Z</time>
      </trkpt>
      <trkpt lat="43.42388" lon="3.46366">
        <ele>83</ele>
        <time>2014-10-08T12:20:25.000Z</time>
      </trkpt>
      <trkpt lat="43.42385" lon="3.46352">
        <ele>82</ele>
        <time>2014-10-08T12:20:27.000Z</time>
      </trkpt>
      <trkpt lat="43.42383" lon="3.46338">
        <ele>82</ele>
        <time>2014-10-08T12:20:29.000Z</time>
      </trkpt>
      <trkpt lat="43.42381" lon="3.46322">
        <ele>84</ele>
        <time>2014-10-08T12:20:31.000Z</time>
      </trkpt>
      <trkpt lat="43.42377" lon="3.46308">
        <ele>84</ele>
        <time>2014-10-08T12:20:33.000Z</time>
      </trkpt>
      <trkpt lat="43.42374" lon="3.46297">
        <ele>85</ele>
        <time>2014-10-08T12:20:35.000Z</time>
      </trkpt>
      <trkpt lat="43.42372" lon="3.46289">
        <ele>83</ele>
        <time>2014-10-08T12:20:37.000Z</time>
      </trkpt>
      <trkpt lat="43.42365" lon="3.46283">
        <ele>84</ele>
        <time>2014-10-08T12:20:39.000Z</time>
      </trkpt>
      <trkpt lat="43.42358" lon="3.46278">
        <ele>85</ele>
        <time>2014-10-08T12:20:41.000Z</time>
      </trkpt>
      <trkpt lat="43.42358" lon="3.46278">
        <ele>85</ele>
        <time>2014-10-08T12:20:43.000Z</time>
      </trkpt>
      <trkpt lat="43.42352" lon="3.46271">
        <ele>85</ele>
        <time>2014-10-08T12:20:45.000Z</time>
      </trkpt>
      <trkpt lat="43.42352" lon="3.46271">
        <ele>85</ele>
        <time>2014-10-08T12:20:47.000Z</time>
      </trkpt>
      <trkpt lat="43.42352" lon="3.4626">
        <ele>83</ele>
        <time>2014-10-08T12:20:49.000Z</time>
      </trkpt>
      <trkpt lat="43.42352" lon="3.4626">
        <ele>83</ele>
        <time>2014-10-08T12:20:51.000Z</time>
      </trkpt>
      <trkpt lat="43.42352" lon="3.4626">
        <ele>83</ele>
        <time>2014-10-08T12:20:53.000Z</time>
      </trkpt>
      <trkpt lat="43.42352" lon="3.4626">
        <ele>83</ele>
        <time>2014-10-08T12:20:55.000Z</time>
      </trkpt>
      <trkpt lat="43.42352" lon="3.4626">
        <ele>83</ele>
        <time>2014-10-08T12:20:57.000Z</time>
      </trkpt>
      <trkpt lat="43.42353" lon="3.46252">
        <ele>91</ele>
        <time>2014-10-08T12:21:25.000Z</time>
      </trkpt>
      <trkpt lat="43.42353" lon="3.46246">
        <ele>87</ele>
        <time>2014-10-08T12:21:27.000Z</time>
      </trkpt>
      <trkpt lat="43.42351" lon="3.46239">
        <ele>88</ele>
        <time>2014-10-08T12:21:29.000Z</time>
      </trkpt>
      <trkpt lat="43.42349" lon="3.46233">
        <ele>88</ele>
        <time>2014-10-08T12:21:31.000Z</time>
      </trkpt>
      <trkpt lat="43.42347" lon="3.46227">
        <ele>89</ele>
        <time>2014-10-08T12:21:33.000Z</time>
      </trkpt>
      <trkpt lat="43.4234" lon="3.46211">
        <ele>88</ele>
        <time>2014-10-08T12:21:35.000Z</time>
      </trkpt>
      <trkpt lat="43.42339" lon="3.46203">
        <ele>88</ele>
        <time>2014-10-08T12:21:37.000Z</time>
      </trkpt>
      <trkpt lat="43.42339" lon="3.46203">
        <ele>88</ele>
        <time>2014-10-08T12:21:40.000Z</time>
      </trkpt>
      <trkpt lat="43.42339" lon="3.46203">
        <ele>88</ele>
        <time>2014-10-08T12:21:42.000Z</time>
      </trkpt>
      <trkpt lat="43.42339" lon="3.46203">
        <ele>88</ele>
        <time>2014-10-08T12:21:44.000Z</time>
      </trkpt>
      <trkpt lat="43.42339" lon="3.46203">
        <ele>88</ele>
        <time>2014-10-08T12:21:46.000Z</time>
      </trkpt>
      <trkpt lat="43.42337" lon="3.46216">
        <ele>89</ele>
        <time>2014-10-08T12:21:52.000Z</time>
      </trkpt>
      <trkpt lat="43.42337" lon="3.46231">
        <ele>90</ele>
        <time>2014-10-08T12:21:56.000Z</time>
      </trkpt>
      <trkpt lat="43.42335" lon="3.46245">
        <ele>89</ele>
        <time>2014-10-08T12:22:00.000Z</time>
      </trkpt>
      <trkpt lat="43.42326" lon="3.46254">
        <ele>91</ele>
        <time>2014-10-08T12:22:04.000Z</time>
      </trkpt>
      <trkpt lat="43.42326" lon="3.46254">
        <ele>91</ele>
        <time>2014-10-08T12:22:06.000Z</time>
      </trkpt>
      <trkpt lat="43.42326" lon="3.46254">
        <ele>91</ele>
        <time>2014-10-08T12:22:08.000Z</time>
      </trkpt>
      <trkpt lat="43.42326" lon="3.46254">
        <ele>91</ele>
        <time>2014-10-08T12:22:10.000Z</time>
      </trkpt>
      <trkpt lat="43.42326" lon="3.46254">
        <ele>91</ele>
        <time>2014-10-08T12:22:12.000Z</time>
      </trkpt>
      <trkpt lat="43.42326" lon="3.46254">
        <ele>91</ele>
        <time>2014-10-08T12:22:14.000Z</time>
      </trkpt>
      <trkpt lat="43.42326" lon="3.46254">
        <ele>91</ele>
        <time>2014-10-08T12:22:18.000Z</time>
      </trkpt>
      <trkpt lat="43.42326" lon="3.46254">
        <ele>91</ele>
        <time>2014-10-08T12:22:20.000Z</time>
      </trkpt>
      <trkpt lat="43.42317" lon="3.46258">
        <ele>96</ele>
        <time>2014-10-08T12:24:08.000Z</time>
      </trkpt>
      <trkpt lat="43.42317" lon="3.46258">
        <ele>96</ele>
        <time>2014-10-08T12:24:10.000Z</time>
      </trkpt>
      <trkpt lat="43.42317" lon="3.46258">
        <ele>96</ele>
        <time>2014-10-08T12:24:12.000Z</time>
      </trkpt>
      <trkpt lat="43.42317" lon="3.46258">
        <ele>96</ele>
        <time>2014-10-08T12:24:14.000Z</time>
      </trkpt>
      <trkpt lat="43.42273" lon="3.46274">
        <ele>139</ele>
        <time>2014-10-08T12:28:24.000Z</time>
      </trkpt>
      <trkpt lat="43.42252" lon="3.46286">
        <ele>139</ele>
        <time>2014-10-08T12:28:26.000Z</time>
      </trkpt>
      <trkpt lat="43.42241" lon="3.46295">
        <ele>140</ele>
        <time>2014-10-08T12:28:28.000Z</time>
      </trkpt>
      <trkpt lat="43.42235" lon="3.46303">
        <ele>141</ele>
        <time>2014-10-08T12:28:30.000Z</time>
      </trkpt>
      <trkpt lat="43.42232" lon="3.46309">
        <ele>141</ele>
        <time>2014-10-08T12:28:32.000Z</time>
      </trkpt>
      <trkpt lat="43.4223" lon="3.4632">
        <ele>141</ele>
        <time>2014-10-08T12:28:34.000Z</time>
      </trkpt>
      <trkpt lat="43.42234" lon="3.46327">
        <ele>140</ele>
        <time>2014-10-08T12:28:36.000Z</time>
      </trkpt>
      <trkpt lat="43.42239" lon="3.46335">
        <ele>140</ele>
        <time>2014-10-08T12:28:38.000Z</time>
      </trkpt>
      <trkpt lat="43.42242" lon="3.46343">
        <ele>140</ele>
        <time>2014-10-08T12:28:40.000Z</time>
      </trkpt>
      <trkpt lat="43.42246" lon="3.46356">
        <ele>140</ele>
        <time>2014-10-08T12:28:44.000Z</time>
      </trkpt>
      <trkpt lat="43.42246" lon="3.46356">
        <ele>140</ele>
        <time>2014-10-08T12:28:46.000Z</time>
      </trkpt>
      <trkpt lat="43.42249" lon="3.46367">
        <ele>141</ele>
        <time>2014-10-08T12:28:48.000Z</time>
      </trkpt>
      <trkpt lat="43.42249" lon="3.46367">
        <ele>141</ele>
        <time>2014-10-08T12:28:50.000Z</time>
      </trkpt>
      <trkpt lat="43.4225" lon="3.46379">
        <ele>141</ele>
        <time>2014-10-08T12:28:52.000Z</time>
      </trkpt>
      <trkpt lat="43.4225" lon="3.46379">
        <ele>141</ele>
        <time>2014-10-08T12:28:54.000Z</time>
      </trkpt>
      <trkpt lat="43.42252" lon="3.46392">
        <ele>142</ele>
        <time>2014-10-08T12:28:56.000Z</time>
      </trkpt>
      <trkpt lat="43.42252" lon="3.46392">
        <ele>142</ele>
        <time>2014-10-08T12:28:58.000Z</time>
      </trkpt>
      <trkpt lat="43.42248" lon="3.46401">
        <ele>143</ele>
        <time>2014-10-08T12:29:00.000Z</time>
      </trkpt>
      <trkpt lat="43.42248" lon="3.46401">
        <ele>143</ele>
        <time>2014-10-08T12:29:02.000Z</time>
      </trkpt>
      <trkpt lat="43.42251" lon="3.4641">
        <ele>143</ele>
        <time>2014-10-08T12:29:04.000Z</time>
      </trkpt>
      <trkpt lat="43.42256" lon="3.46416">
        <ele>142</ele>
        <time>2014-10-08T12:29:06.000Z</time>
      </trkpt>
      <trkpt lat="43.42259" lon="3.46423">
        <ele>142</ele>
        <time>2014-10-08T12:29:08.000Z</time>
      </trkpt>
      <trkpt lat="43.42262" lon="3.46434">
        <ele>142</ele>
        <time>2014-10-08T12:29:12.000Z</time>
      </trkpt>
      <trkpt lat="43.42262" lon="3.46434">
        <ele>142</ele>
        <time>2014-10-08T12:29:14.000Z</time>
      </trkpt>
      <trkpt lat="43.42262" lon="3.46434">
        <ele>142</ele>
        <time>2014-10-08T12:29:16.000Z</time>
      </trkpt>
      <trkpt lat="43.42262" lon="3.46434">
        <ele>142</ele>
        <time>2014-10-08T12:29:18.000Z</time>
      </trkpt>
      <trkpt lat="43.42262" lon="3.46434">
        <ele>142</ele>
        <time>2014-10-08T12:29:20.000Z</time>
      </trkpt>
      <trkpt lat="43.42262" lon="3.46434">
        <ele>142</ele>
        <time>2014-10-08T12:29:22.000Z</time>
      </trkpt>
      <trkpt lat="43.42263" lon="3.46449">
        <ele>140</ele>
        <time>2014-10-08T12:31:30.000Z</time>
      </trkpt>
      <trkpt lat="43.42263" lon="3.4646">
        <ele>140</ele>
        <time>2014-10-08T12:31:32.000Z</time>
      </trkpt>
      <trkpt lat="43.42264" lon="3.46469">
        <ele>140</ele>
        <time>2014-10-08T12:31:34.000Z</time>
      </trkpt>
      <trkpt lat="43.42264" lon="3.46477">
        <ele>138</ele>
        <time>2014-10-08T12:31:36.000Z</time>
      </trkpt>
      <trkpt lat="43.42264" lon="3.46483">
        <ele>138</ele>
        <time>2014-10-08T12:31:38.000Z</time>
      </trkpt>
      <trkpt lat="43.42264" lon="3.46493">
        <ele>138</ele>
        <time>2014-10-08T12:31:40.000Z</time>
      </trkpt>
      <trkpt lat="43.42264" lon="3.46493">
        <ele>138</ele>
        <time>2014-10-08T12:31:42.000Z</time>
      </trkpt>
      <trkpt lat="43.42265" lon="3.46503">
        <ele>138</ele>
        <time>2014-10-08T12:31:44.000Z</time>
      </trkpt>
      <trkpt lat="43.42267" lon="3.46517">
        <ele>138</ele>
        <time>2014-10-08T12:31:48.000Z</time>
      </trkpt>
      <trkpt lat="43.42269" lon="3.46531">
        <ele>137</ele>
        <time>2014-10-08T12:31:52.000Z</time>
      </trkpt>
      <trkpt lat="43.42269" lon="3.46546">
        <ele>137</ele>
        <time>2014-10-08T12:31:56.000Z</time>
      </trkpt>
      <trkpt lat="43.42268" lon="3.46561">
        <ele>138</ele>
        <time>2014-10-08T12:32:00.000Z</time>
      </trkpt>
      <trkpt lat="43.42266" lon="3.46575">
        <ele>138</ele>
        <time>2014-10-08T12:32:04.000Z</time>
      </trkpt>
      <trkpt lat="43.42266" lon="3.4659">
        <ele>137</ele>
        <time>2014-10-08T12:32:08.000Z</time>
      </trkpt>
      <trkpt lat="43.42266" lon="3.46599">
        <ele>138</ele>
        <time>2014-10-08T12:32:10.000Z</time>
      </trkpt>
      <trkpt lat="43.42266" lon="3.46609">
        <ele>136</ele>
        <time>2014-10-08T12:32:12.000Z</time>
      </trkpt>
      <trkpt lat="43.42266" lon="3.46619">
        <ele>137</ele>
        <time>2014-10-08T12:32:14.000Z</time>
      </trkpt>
      <trkpt lat="43.42267" lon="3.4663">
        <ele>136</ele>
        <time>2014-10-08T12:32:16.000Z</time>
      </trkpt>
      <trkpt lat="43.42266" lon="3.4664">
        <ele>137</ele>
        <time>2014-10-08T12:32:18.000Z</time>
      </trkpt>
      <trkpt lat="43.42266" lon="3.4665">
        <ele>139</ele>
        <time>2014-10-08T12:32:20.000Z</time>
      </trkpt>
      <trkpt lat="43.42266" lon="3.46661">
        <ele>137</ele>
        <time>2014-10-08T12:32:22.000Z</time>
      </trkpt>
      <trkpt lat="43.42266" lon="3.46672">
        <ele>136</ele>
        <time>2014-10-08T12:32:24.000Z</time>
      </trkpt>
      <trkpt lat="43.42266" lon="3.46682">
        <ele>137</ele>
        <time>2014-10-08T12:32:26.000Z</time>
      </trkpt>
      <trkpt lat="43.42267" lon="3.46693">
        <ele>135</ele>
        <time>2014-10-08T12:32:28.000Z</time>
      </trkpt>
      <trkpt lat="43.42268" lon="3.46704">
        <ele>136</ele>
        <time>2014-10-08T12:32:30.000Z</time>
      </trkpt>
      <trkpt lat="43.42268" lon="3.46715">
        <ele>135</ele>
        <time>2014-10-08T12:32:32.000Z</time>
      </trkpt>
      <trkpt lat="43.42268" lon="3.46726">
        <ele>135</ele>
        <time>2014-10-08T12:32:34.000Z</time>
      </trkpt>
      <trkpt lat="43.42268" lon="3.46736">
        <ele>134</ele>
        <time>2014-10-08T12:32:36.000Z</time>
      </trkpt>
      <trkpt lat="43.42269" lon="3.46748">
        <ele>134</ele>
        <time>2014-10-08T12:32:38.000Z</time>
      </trkpt>
      <trkpt lat="43.4227" lon="3.46759">
        <ele>134</ele>
        <time>2014-10-08T12:32:40.000Z</time>
      </trkpt>
      <trkpt lat="43.4227" lon="3.4677">
        <ele>133</ele>
        <time>2014-10-08T12:32:42.000Z</time>
      </trkpt>
      <trkpt lat="43.42271" lon="3.46781">
        <ele>134</ele>
        <time>2014-10-08T12:32:44.000Z</time>
      </trkpt>
      <trkpt lat="43.4227" lon="3.46791">
        <ele>134</ele>
        <time>2014-10-08T12:32:46.000Z</time>
      </trkpt>
      <trkpt lat="43.42269" lon="3.46802">
        <ele>133</ele>
        <time>2014-10-08T12:32:48.000Z</time>
      </trkpt>
      <trkpt lat="43.42268" lon="3.46812">
        <ele>136</ele>
        <time>2014-10-08T12:32:50.000Z</time>
      </trkpt>
      <trkpt lat="43.42266" lon="3.46822">
        <ele>137</ele>
        <time>2014-10-08T12:32:52.000Z</time>
      </trkpt>
      <trkpt lat="43.42264" lon="3.46832">
        <ele>138</ele>
        <time>2014-10-08T12:32:54.000Z</time>
      </trkpt>
      <trkpt lat="43.42263" lon="3.46841">
        <ele>140</ele>
        <time>2014-10-08T12:32:56.000Z</time>
      </trkpt>
      <trkpt lat="43.42263" lon="3.46841">
        <ele>140</ele>
        <time>2014-10-08T12:32:58.000Z</time>
      </trkpt>
      <trkpt lat="43.4226" lon="3.46853">
        <ele>143</ele>
        <time>2014-10-08T12:33:00.000Z</time>
      </trkpt>
      <trkpt lat="43.42256" lon="3.4686">
        <ele>145</ele>
        <time>2014-10-08T12:33:02.000Z</time>
      </trkpt>
      <trkpt lat="43.42253" lon="3.46869">
        <ele>143</ele>
        <time>2014-10-08T12:33:04.000Z</time>
      </trkpt>
      <trkpt lat="43.42252" lon="3.46877">
        <ele>146</ele>
        <time>2014-10-08T12:33:06.000Z</time>
      </trkpt>
      <trkpt lat="43.42249" lon="3.46886">
        <ele>146</ele>
        <time>2014-10-08T12:33:08.000Z</time>
      </trkpt>
      <trkpt lat="43.42246" lon="3.46895">
        <ele>148</ele>
        <time>2014-10-08T12:33:10.000Z</time>
      </trkpt>
      <trkpt lat="43.42242" lon="3.46906">
        <ele>149</ele>
        <time>2014-10-08T12:33:12.000Z</time>
      </trkpt>
      <trkpt lat="43.42237" lon="3.46915">
        <ele>150</ele>
        <time>2014-10-08T12:33:14.000Z</time>
      </trkpt>
      <trkpt lat="43.42232" lon="3.46924">
        <ele>151</ele>
        <time>2014-10-08T12:33:16.000Z</time>
      </trkpt>
      <trkpt lat="43.42226" lon="3.46933">
        <ele>150</ele>
        <time>2014-10-08T12:33:18.000Z</time>
      </trkpt>
      <trkpt lat="43.42223" lon="3.46945">
        <ele>150</ele>
        <time>2014-10-08T12:33:20.000Z</time>
      </trkpt>
      <trkpt lat="43.42221" lon="3.46958">
        <ele>150</ele>
        <time>2014-10-08T12:33:22.000Z</time>
      </trkpt>
      <trkpt lat="43.42221" lon="3.46973">
        <ele>149</ele>
        <time>2014-10-08T12:33:24.000Z</time>
      </trkpt>
      <trkpt lat="43.42229" lon="3.46999">
        <ele>149</ele>
        <time>2014-10-08T12:33:27.000Z</time>
      </trkpt>
      <trkpt lat="43.42233" lon="3.47017">
        <ele>151</ele>
        <time>2014-10-08T12:33:30.000Z</time>
      </trkpt>
      <trkpt lat="43.42234" lon="3.47026">
        <ele>154</ele>
        <time>2014-10-08T12:33:32.000Z</time>
      </trkpt>
      <trkpt lat="43.42235" lon="3.47036">
        <ele>154</ele>
        <time>2014-10-08T12:33:34.000Z</time>
      </trkpt>
      <trkpt lat="43.42236" lon="3.47045">
        <ele>154</ele>
        <time>2014-10-08T12:33:37.000Z</time>
      </trkpt>
      <trkpt lat="43.42236" lon="3.47056">
        <ele>155</ele>
        <time>2014-10-08T12:33:38.000Z</time>
      </trkpt>
      <trkpt lat="43.42236" lon="3.47065">
        <ele>155</ele>
        <time>2014-10-08T12:33:40.000Z</time>
      </trkpt>
      <trkpt lat="43.42235" lon="3.47074">
        <ele>155</ele>
        <time>2014-10-08T12:33:42.000Z</time>
      </trkpt>
      <trkpt lat="43.42234" lon="3.47083">
        <ele>155</ele>
        <time>2014-10-08T12:33:44.000Z</time>
      </trkpt>
      <trkpt lat="43.42233" lon="3.4709">
        <ele>157</ele>
        <time>2014-10-08T12:33:46.000Z</time>
      </trkpt>
      <trkpt lat="43.42233" lon="3.4709">
        <ele>157</ele>
        <time>2014-10-08T12:33:48.000Z</time>
      </trkpt>
      <trkpt lat="43.42229" lon="3.47104">
        <ele>158</ele>
        <time>2014-10-08T12:33:50.000Z</time>
      </trkpt>
      <trkpt lat="43.42229" lon="3.47104">
        <ele>158</ele>
        <time>2014-10-08T12:33:52.000Z</time>
      </trkpt>
      <trkpt lat="43.42227" lon="3.47118">
        <ele>159</ele>
        <time>2014-10-08T12:33:54.000Z</time>
      </trkpt>
      <trkpt lat="43.42227" lon="3.47118">
        <ele>159</ele>
        <time>2014-10-08T12:33:56.000Z</time>
      </trkpt>
      <trkpt lat="43.42225" lon="3.47133">
        <ele>159</ele>
        <time>2014-10-08T12:33:58.000Z</time>
      </trkpt>
      <trkpt lat="43.42222" lon="3.47141">
        <ele>160</ele>
        <time>2014-10-08T12:34:00.000Z</time>
      </trkpt>
      <trkpt lat="43.4222" lon="3.47149">
        <ele>159</ele>
        <time>2014-10-08T12:34:02.000Z</time>
      </trkpt>
      <trkpt lat="43.42217" lon="3.47157">
        <ele>162</ele>
        <time>2014-10-08T12:34:04.000Z</time>
      </trkpt>
      <trkpt lat="43.42213" lon="3.47165">
        <ele>162</ele>
        <time>2014-10-08T12:34:06.000Z</time>
      </trkpt>
      <trkpt lat="43.42209" lon="3.47174">
        <ele>164</ele>
        <time>2014-10-08T12:34:08.000Z</time>
      </trkpt>
      <trkpt lat="43.42205" lon="3.47183">
        <ele>163</ele>
        <time>2014-10-08T12:34:10.000Z</time>
      </trkpt>
      <trkpt lat="43.42202" lon="3.47193">
        <ele>162</ele>
        <time>2014-10-08T12:34:12.000Z</time>
      </trkpt>
      <trkpt lat="43.422" lon="3.47203">
        <ele>163</ele>
        <time>2014-10-08T12:34:14.000Z</time>
      </trkpt>
      <trkpt lat="43.42197" lon="3.47212">
        <ele>163</ele>
        <time>2014-10-08T12:34:16.000Z</time>
      </trkpt>
      <trkpt lat="43.42195" lon="3.47222">
        <ele>163</ele>
        <time>2014-10-08T12:34:18.000Z</time>
      </trkpt>
      <trkpt lat="43.42193" lon="3.47233">
        <ele>163</ele>
        <time>2014-10-08T12:34:20.000Z</time>
      </trkpt>
      <trkpt lat="43.42191" lon="3.47243">
        <ele>164</ele>
        <time>2014-10-08T12:34:22.000Z</time>
      </trkpt>
      <trkpt lat="43.42187" lon="3.47253">
        <ele>165</ele>
        <time>2014-10-08T12:34:24.000Z</time>
      </trkpt>
      <trkpt lat="43.42186" lon="3.47265">
        <ele>157</ele>
        <time>2014-10-08T12:34:26.000Z</time>
      </trkpt>
      <trkpt lat="43.42188" lon="3.47279">
        <ele>157</ele>
        <time>2014-10-08T12:34:28.000Z</time>
      </trkpt>
      <trkpt lat="43.42188" lon="3.47292">
        <ele>157</ele>
        <time>2014-10-08T12:34:30.000Z</time>
      </trkpt>
      <trkpt lat="43.42186" lon="3.47303">
        <ele>156</ele>
        <time>2014-10-08T12:34:32.000Z</time>
      </trkpt>
      <trkpt lat="43.42184" lon="3.47313">
        <ele>158</ele>
        <time>2014-10-08T12:34:34.000Z</time>
      </trkpt>
      <trkpt lat="43.4218" lon="3.47323">
        <ele>157</ele>
        <time>2014-10-08T12:34:36.000Z</time>
      </trkpt>
      <trkpt lat="43.42176" lon="3.47333">
        <ele>158</ele>
        <time>2014-10-08T12:34:38.000Z</time>
      </trkpt>
      <trkpt lat="43.42173" lon="3.47344">
        <ele>158</ele>
        <time>2014-10-08T12:34:40.000Z</time>
      </trkpt>
      <trkpt lat="43.42169" lon="3.47354">
        <ele>158</ele>
        <time>2014-10-08T12:34:42.000Z</time>
      </trkpt>
      <trkpt lat="43.42166" lon="3.47364">
        <ele>158</ele>
        <time>2014-10-08T12:34:44.000Z</time>
      </trkpt>
      <trkpt lat="43.42163" lon="3.47376">
        <ele>158</ele>
        <time>2014-10-08T12:34:46.000Z</time>
      </trkpt>
      <trkpt lat="43.42157" lon="3.47386">
        <ele>158</ele>
        <time>2014-10-08T12:34:48.000Z</time>
      </trkpt>
      <trkpt lat="43.42153" lon="3.47398">
        <ele>158</ele>
        <time>2014-10-08T12:34:50.000Z</time>
      </trkpt>
      <trkpt lat="43.4215" lon="3.47411">
        <ele>160</ele>
        <time>2014-10-08T12:34:52.000Z</time>
      </trkpt>
      <trkpt lat="43.42145" lon="3.47423">
        <ele>159</ele>
        <time>2014-10-08T12:34:54.000Z</time>
      </trkpt>
      <trkpt lat="43.42141" lon="3.47434">
        <ele>160</ele>
        <time>2014-10-08T12:34:56.000Z</time>
      </trkpt>
      <trkpt lat="43.42136" lon="3.47445">
        <ele>160</ele>
        <time>2014-10-08T12:34:58.000Z</time>
      </trkpt>
      <trkpt lat="43.42131" lon="3.47457">
        <ele>161</ele>
        <time>2014-10-08T12:35:00.000Z</time>
      </trkpt>
      <trkpt lat="43.42126" lon="3.47469">
        <ele>161</ele>
        <time>2014-10-08T12:35:02.000Z</time>
      </trkpt>
      <trkpt lat="43.42121" lon="3.4748">
        <ele>163</ele>
        <time>2014-10-08T12:35:04.000Z</time>
      </trkpt>
      <trkpt lat="43.42115" lon="3.47492">
        <ele>162</ele>
        <time>2014-10-08T12:35:06.000Z</time>
      </trkpt>
      <trkpt lat="43.42109" lon="3.47505">
        <ele>163</ele>
        <time>2014-10-08T12:35:08.000Z</time>
      </trkpt>
      <trkpt lat="43.42104" lon="3.47517">
        <ele>163</ele>
        <time>2014-10-08T12:35:10.000Z</time>
      </trkpt>
      <trkpt lat="43.42099" lon="3.47529">
        <ele>164</ele>
        <time>2014-10-08T12:35:12.000Z</time>
      </trkpt>
      <trkpt lat="43.42093" lon="3.47541">
        <ele>164</ele>
        <time>2014-10-08T12:35:14.000Z</time>
      </trkpt>
      <trkpt lat="43.42086" lon="3.47553">
        <ele>164</ele>
        <time>2014-10-08T12:35:16.000Z</time>
      </trkpt>
      <trkpt lat="43.4208" lon="3.47563">
        <ele>166</ele>
        <time>2014-10-08T12:35:18.000Z</time>
      </trkpt>
      <trkpt lat="43.42074" lon="3.47577">
        <ele>165</ele>
        <time>2014-10-08T12:35:20.000Z</time>
      </trkpt>
      <trkpt lat="43.42068" lon="3.4759">
        <ele>164</ele>
        <time>2014-10-08T12:35:22.000Z</time>
      </trkpt>
      <trkpt lat="43.42061" lon="3.47603">
        <ele>163</ele>
        <time>2014-10-08T12:35:24.000Z</time>
      </trkpt>
      <trkpt lat="43.42054" lon="3.47618">
        <ele>161</ele>
        <time>2014-10-08T12:35:26.000Z</time>
      </trkpt>
      <trkpt lat="43.42047" lon="3.47634">
        <ele>160</ele>
        <time>2014-10-08T12:35:28.000Z</time>
      </trkpt>
      <trkpt lat="43.42039" lon="3.47648">
        <ele>159</ele>
        <time>2014-10-08T12:35:30.000Z</time>
      </trkpt>
      <trkpt lat="43.4203" lon="3.47663">
        <ele>159</ele>
        <time>2014-10-08T12:35:32.000Z</time>
      </trkpt>
      <trkpt lat="43.42023" lon="3.47678">
        <ele>159</ele>
        <time>2014-10-08T12:35:34.000Z</time>
      </trkpt>
      <trkpt lat="43.42015" lon="3.47694">
        <ele>159</ele>
        <time>2014-10-08T12:35:36.000Z</time>
      </trkpt>
      <trkpt lat="43.42007" lon="3.47707">
        <ele>158</ele>
        <time>2014-10-08T12:35:38.000Z</time>
      </trkpt>
      <trkpt lat="43.41998" lon="3.47719">
        <ele>158</ele>
        <time>2014-10-08T12:35:40.000Z</time>
      </trkpt>
      <trkpt lat="43.41989" lon="3.47732">
        <ele>158</ele>
        <time>2014-10-08T12:35:42.000Z</time>
      </trkpt>
      <trkpt lat="43.41982" lon="3.47747">
        <ele>158</ele>
        <time>2014-10-08T12:35:44.000Z</time>
      </trkpt>
      <trkpt lat="43.41975" lon="3.47759">
        <ele>157</ele>
        <time>2014-10-08T12:35:46.000Z</time>
      </trkpt>
      <trkpt lat="43.4197" lon="3.47774">
        <ele>156</ele>
        <time>2014-10-08T12:35:48.000Z</time>
      </trkpt>
      <trkpt lat="43.41965" lon="3.47789">
        <ele>156</ele>
        <time>2014-10-08T12:35:50.000Z</time>
      </trkpt>
      <trkpt lat="43.41957" lon="3.47802">
        <ele>155</ele>
        <time>2014-10-08T12:35:52.000Z</time>
      </trkpt>
      <trkpt lat="43.4195" lon="3.47813">
        <ele>155</ele>
        <time>2014-10-08T12:35:54.000Z</time>
      </trkpt>
      <trkpt lat="43.41945" lon="3.47827">
        <ele>155</ele>
        <time>2014-10-08T12:35:56.000Z</time>
      </trkpt>
      <trkpt lat="43.41939" lon="3.4784">
        <ele>154</ele>
        <time>2014-10-08T12:35:58.000Z</time>
      </trkpt>
      <trkpt lat="43.41932" lon="3.4785">
        <ele>154</ele>
        <time>2014-10-08T12:36:00.000Z</time>
      </trkpt>
      <trkpt lat="43.41925" lon="3.47862">
        <ele>154</ele>
        <time>2014-10-08T12:36:02.000Z</time>
      </trkpt>
      <trkpt lat="43.41919" lon="3.47877">
        <ele>152</ele>
        <time>2014-10-08T12:36:04.000Z</time>
      </trkpt>
      <trkpt lat="43.41912" lon="3.47892">
        <ele>152</ele>
        <time>2014-10-08T12:36:06.000Z</time>
      </trkpt>
      <trkpt lat="43.41906" lon="3.47907">
        <ele>152</ele>
        <time>2014-10-08T12:36:08.000Z</time>
      </trkpt>
      <trkpt lat="43.419" lon="3.47921">
        <ele>152</ele>
        <time>2014-10-08T12:36:10.000Z</time>
      </trkpt>
      <trkpt lat="43.41894" lon="3.47937">
        <ele>151</ele>
        <time>2014-10-08T12:36:12.000Z</time>
      </trkpt>
      <trkpt lat="43.41889" lon="3.47952">
        <ele>151</ele>
        <time>2014-10-08T12:36:14.000Z</time>
      </trkpt>
      <trkpt lat="43.41883" lon="3.47966">
        <ele>151</ele>
        <time>2014-10-08T12:36:16.000Z</time>
      </trkpt>
      <trkpt lat="43.41879" lon="3.47981">
        <ele>151</ele>
        <time>2014-10-08T12:36:18.000Z</time>
      </trkpt>
      <trkpt lat="43.41873" lon="3.47997">
        <ele>149</ele>
        <time>2014-10-08T12:36:20.000Z</time>
      </trkpt>
      <trkpt lat="43.41866" lon="3.48007">
        <ele>149</ele>
        <time>2014-10-08T12:36:22.000Z</time>
      </trkpt>
      <trkpt lat="43.41859" lon="3.48016">
        <ele>150</ele>
        <time>2014-10-08T12:36:24.000Z</time>
      </trkpt>
      <trkpt lat="43.41849" lon="3.48024">
        <ele>150</ele>
        <time>2014-10-08T12:36:26.000Z</time>
      </trkpt>
      <trkpt lat="43.41841" lon="3.48032">
        <ele>152</ele>
        <time>2014-10-08T12:36:28.000Z</time>
      </trkpt>
      <trkpt lat="43.41837" lon="3.48037">
        <ele>153</ele>
        <time>2014-10-08T12:36:30.000Z</time>
      </trkpt>
      <trkpt lat="43.41832" lon="3.48044">
        <ele>155</ele>
        <time>2014-10-08T12:36:32.000Z</time>
      </trkpt>
      <trkpt lat="43.41828" lon="3.48052">
        <ele>154</ele>
        <time>2014-10-08T12:36:34.000Z</time>
      </trkpt>
      <trkpt lat="43.41822" lon="3.48066">
        <ele>152</ele>
        <time>2014-10-08T12:36:36.000Z</time>
      </trkpt>
      <trkpt lat="43.41816" lon="3.48069">
        <ele>151</ele>
        <time>2014-10-08T12:36:38.000Z</time>
      </trkpt>
      <trkpt lat="43.41808" lon="3.48074">
        <ele>150</ele>
        <time>2014-10-08T12:36:40.000Z</time>
      </trkpt>
      <trkpt lat="43.41799" lon="3.4808">
        <ele>150</ele>
        <time>2014-10-08T12:36:42.000Z</time>
      </trkpt>
      <trkpt lat="43.41792" lon="3.48088">
        <ele>149</ele>
        <time>2014-10-08T12:36:44.000Z</time>
      </trkpt>
      <trkpt lat="43.41785" lon="3.48097">
        <ele>149</ele>
        <time>2014-10-08T12:36:46.000Z</time>
      </trkpt>
      <trkpt lat="43.41778" lon="3.48107">
        <ele>148</ele>
        <time>2014-10-08T12:36:48.000Z</time>
      </trkpt>
      <trkpt lat="43.41771" lon="3.48115">
        <ele>148</ele>
        <time>2014-10-08T12:36:50.000Z</time>
      </trkpt>
      <trkpt lat="43.41762" lon="3.48123">
        <ele>149</ele>
        <time>2014-10-08T12:36:52.000Z</time>
      </trkpt>
      <trkpt lat="43.41753" lon="3.4813">
        <ele>150</ele>
        <time>2014-10-08T12:36:54.000Z</time>
      </trkpt>
      <trkpt lat="43.41746" lon="3.48136">
        <ele>151</ele>
        <time>2014-10-08T12:36:56.000Z</time>
      </trkpt>
      <trkpt lat="43.41738" lon="3.48146">
        <ele>151</ele>
        <time>2014-10-08T12:36:58.000Z</time>
      </trkpt>
      <trkpt lat="43.4173" lon="3.48157">
        <ele>151</ele>
        <time>2014-10-08T12:37:00.000Z</time>
      </trkpt>
      <trkpt lat="43.41723" lon="3.48166">
        <ele>149</ele>
        <time>2014-10-08T12:37:02.000Z</time>
      </trkpt>
      <trkpt lat="43.41716" lon="3.48181">
        <ele>146</ele>
        <time>2014-10-08T12:37:04.000Z</time>
      </trkpt>
      <trkpt lat="43.41707" lon="3.48186">
        <ele>146</ele>
        <time>2014-10-08T12:37:06.000Z</time>
      </trkpt>
      <trkpt lat="43.41698" lon="3.48192">
        <ele>146</ele>
        <time>2014-10-08T12:37:08.000Z</time>
      </trkpt>
      <trkpt lat="43.41691" lon="3.48202">
        <ele>146</ele>
        <time>2014-10-08T12:37:10.000Z</time>
      </trkpt>
      <trkpt lat="43.41687" lon="3.48211">
        <ele>145</ele>
        <time>2014-10-08T12:37:12.000Z</time>
      </trkpt>
      <trkpt lat="43.41688" lon="3.4822">
        <ele>146</ele>
        <time>2014-10-08T12:37:14.000Z</time>
      </trkpt>
      <trkpt lat="43.41692" lon="3.48228">
        <ele>146</ele>
        <time>2014-10-08T12:37:16.000Z</time>
      </trkpt>
      <trkpt lat="43.41694" lon="3.48237">
        <ele>144</ele>
        <time>2014-10-08T12:37:18.000Z</time>
      </trkpt>
      <trkpt lat="43.41694" lon="3.48237">
        <ele>144</ele>
        <time>2014-10-08T12:37:20.000Z</time>
      </trkpt>
      <trkpt lat="43.41692" lon="3.48249">
        <ele>146</ele>
        <time>2014-10-08T12:37:22.000Z</time>
      </trkpt>
      <trkpt lat="43.41692" lon="3.48249">
        <ele>146</ele>
        <time>2014-10-08T12:37:24.000Z</time>
      </trkpt>
      <trkpt lat="43.41684" lon="3.4826">
        <ele>148</ele>
        <time>2014-10-08T12:37:26.000Z</time>
      </trkpt>
      <trkpt lat="43.41679" lon="3.48266">
        <ele>148</ele>
        <time>2014-10-08T12:37:28.000Z</time>
      </trkpt>
      <trkpt lat="43.41672" lon="3.48271">
        <ele>148</ele>
        <time>2014-10-08T12:37:30.000Z</time>
      </trkpt>
      <trkpt lat="43.41664" lon="3.48277">
        <ele>146</ele>
        <time>2014-10-08T12:37:32.000Z</time>
      </trkpt>
      <trkpt lat="43.41656" lon="3.48283">
        <ele>145</ele>
        <time>2014-10-08T12:37:34.000Z</time>
      </trkpt>
      <trkpt lat="43.41647" lon="3.48288">
        <ele>145</ele>
        <time>2014-10-08T12:37:36.000Z</time>
      </trkpt>
      <trkpt lat="43.4164" lon="3.48295">
        <ele>145</ele>
        <time>2014-10-08T12:37:39.000Z</time>
      </trkpt>
      <trkpt lat="43.41637" lon="3.48302">
        <ele>146</ele>
        <time>2014-10-08T12:37:40.000Z</time>
      </trkpt>
      <trkpt lat="43.41636" lon="3.48311">
        <ele>145</ele>
        <time>2014-10-08T12:37:42.000Z</time>
      </trkpt>
      <trkpt lat="43.41636" lon="3.48311">
        <ele>145</ele>
        <time>2014-10-08T12:37:44.000Z</time>
      </trkpt>
      <trkpt lat="43.41636" lon="3.48319">
        <ele>144</ele>
        <time>2014-10-08T12:37:46.000Z</time>
      </trkpt>
      <trkpt lat="43.41636" lon="3.48319">
        <ele>144</ele>
        <time>2014-10-08T12:37:48.000Z</time>
      </trkpt>
      <trkpt lat="43.41636" lon="3.48319">
        <ele>144</ele>
        <time>2014-10-08T12:37:50.000Z</time>
      </trkpt>
      <trkpt lat="43.41636" lon="3.48319">
        <ele>144</ele>
        <time>2014-10-08T12:37:52.000Z</time>
      </trkpt>
      <trkpt lat="43.41643" lon="3.4832">
        <ele>138</ele>
        <time>2014-10-08T12:38:28.000Z</time>
      </trkpt>
      <trkpt lat="43.41651" lon="3.4832">
        <ele>136</ele>
        <time>2014-10-08T12:38:30.000Z</time>
      </trkpt>
      <trkpt lat="43.41658" lon="3.4832">
        <ele>134</ele>
        <time>2014-10-08T12:38:32.000Z</time>
      </trkpt>
      <trkpt lat="43.41666" lon="3.4832">
        <ele>134</ele>
        <time>2014-10-08T12:38:34.000Z</time>
      </trkpt>
      <trkpt lat="43.41676" lon="3.48319">
        <ele>133</ele>
        <time>2014-10-08T12:38:36.000Z</time>
      </trkpt>
      <trkpt lat="43.41697" lon="3.48318">
        <ele>131</ele>
        <time>2014-10-08T12:38:38.000Z</time>
      </trkpt>
      <trkpt lat="43.41707" lon="3.48314">
        <ele>131</ele>
        <time>2014-10-08T12:38:40.000Z</time>
      </trkpt>
      <trkpt lat="43.41714" lon="3.48306">
        <ele>130</ele>
        <time>2014-10-08T12:38:42.000Z</time>
      </trkpt>
      <trkpt lat="43.41722" lon="3.48301">
        <ele>129</ele>
        <time>2014-10-08T12:38:44.000Z</time>
      </trkpt>
      <trkpt lat="43.41732" lon="3.48294">
        <ele>128</ele>
        <time>2014-10-08T12:38:46.000Z</time>
      </trkpt>
      <trkpt lat="43.41743" lon="3.48284">
        <ele>127</ele>
        <time>2014-10-08T12:38:48.000Z</time>
      </trkpt>
      <trkpt lat="43.41753" lon="3.48273">
        <ele>125</ele>
        <time>2014-10-08T12:38:50.000Z</time>
      </trkpt>
      <trkpt lat="43.41764" lon="3.48261">
        <ele>124</ele>
        <time>2014-10-08T12:38:52.000Z</time>
      </trkpt>
      <trkpt lat="43.41774" lon="3.48247">
        <ele>123</ele>
        <time>2014-10-08T12:38:54.000Z</time>
      </trkpt>
      <trkpt lat="43.41785" lon="3.48234">
        <ele>122</ele>
        <time>2014-10-08T12:38:56.000Z</time>
      </trkpt>
      <trkpt lat="43.41797" lon="3.48228">
        <ele>124</ele>
        <time>2014-10-08T12:38:58.000Z</time>
      </trkpt>
      <trkpt lat="43.41811" lon="3.48218">
        <ele>121</ele>
        <time>2014-10-08T12:39:00.000Z</time>
      </trkpt>
      <trkpt lat="43.41823" lon="3.4821">
        <ele>120</ele>
        <time>2014-10-08T12:39:02.000Z</time>
      </trkpt>
      <trkpt lat="43.41837" lon="3.482">
        <ele>118</ele>
        <time>2014-10-08T12:39:04.000Z</time>
      </trkpt>
      <trkpt lat="43.4185" lon="3.48191">
        <ele>117</ele>
        <time>2014-10-08T12:39:06.000Z</time>
      </trkpt>
      <trkpt lat="43.41863" lon="3.4818">
        <ele>116</ele>
        <time>2014-10-08T12:39:08.000Z</time>
      </trkpt>
      <trkpt lat="43.41876" lon="3.48167">
        <ele>115</ele>
        <time>2014-10-08T12:39:10.000Z</time>
      </trkpt>
      <trkpt lat="43.41887" lon="3.48154">
        <ele>114</ele>
        <time>2014-10-08T12:39:12.000Z</time>
      </trkpt>
      <trkpt lat="43.41898" lon="3.48145">
        <ele>116</ele>
        <time>2014-10-08T12:39:14.000Z</time>
      </trkpt>
      <trkpt lat="43.41907" lon="3.48136">
        <ele>114</ele>
        <time>2014-10-08T12:39:16.000Z</time>
      </trkpt>
      <trkpt lat="43.41916" lon="3.48128">
        <ele>114</ele>
        <time>2014-10-08T12:39:18.000Z</time>
      </trkpt>
      <trkpt lat="43.41922" lon="3.48122">
        <ele>113</ele>
        <time>2014-10-08T12:39:20.000Z</time>
      </trkpt>
      <trkpt lat="43.41927" lon="3.48116">
        <ele>112</ele>
        <time>2014-10-08T12:39:22.000Z</time>
      </trkpt>
      <trkpt lat="43.41933" lon="3.48112">
        <ele>113</ele>
        <time>2014-10-08T12:39:24.000Z</time>
      </trkpt>
      <trkpt lat="43.41938" lon="3.48105">
        <ele>114</ele>
        <time>2014-10-08T12:39:26.000Z</time>
      </trkpt>
      <trkpt lat="43.41943" lon="3.48097">
        <ele>113</ele>
        <time>2014-10-08T12:39:28.000Z</time>
      </trkpt>
      <trkpt lat="43.41943" lon="3.48097">
        <ele>113</ele>
        <time>2014-10-08T12:39:30.000Z</time>
      </trkpt>
      <trkpt lat="43.41953" lon="3.48098">
        <ele>114</ele>
        <time>2014-10-08T12:39:32.000Z</time>
      </trkpt>
      <trkpt lat="43.41959" lon="3.48102">
        <ele>114</ele>
        <time>2014-10-08T12:39:34.000Z</time>
      </trkpt>
      <trkpt lat="43.41966" lon="3.48102">
        <ele>113</ele>
        <time>2014-10-08T12:39:37.000Z</time>
      </trkpt>
      <trkpt lat="43.41975" lon="3.48098">
        <ele>110</ele>
        <time>2014-10-08T12:39:38.000Z</time>
      </trkpt>
      <trkpt lat="43.41983" lon="3.48089">
        <ele>110</ele>
        <time>2014-10-08T12:39:40.000Z</time>
      </trkpt>
      <trkpt lat="43.41989" lon="3.48081">
        <ele>109</ele>
        <time>2014-10-08T12:39:42.000Z</time>
      </trkpt>
      <trkpt lat="43.41996" lon="3.48072">
        <ele>107</ele>
        <time>2014-10-08T12:39:44.000Z</time>
      </trkpt>
      <trkpt lat="43.42002" lon="3.48063">
        <ele>107</ele>
        <time>2014-10-08T12:39:46.000Z</time>
      </trkpt>
      <trkpt lat="43.42007" lon="3.48059">
        <ele>107</ele>
        <time>2014-10-08T12:39:48.000Z</time>
      </trkpt>
      <trkpt lat="43.42007" lon="3.48059">
        <ele>107</ele>
        <time>2014-10-08T12:39:50.000Z</time>
      </trkpt>
      <trkpt lat="43.42021" lon="3.48051">
        <ele>105</ele>
        <time>2014-10-08T12:39:52.000Z</time>
      </trkpt>
      <trkpt lat="43.42029" lon="3.48047">
        <ele>104</ele>
        <time>2014-10-08T12:39:54.000Z</time>
      </trkpt>
      <trkpt lat="43.42037" lon="3.48043">
        <ele>104</ele>
        <time>2014-10-08T12:39:56.000Z</time>
      </trkpt>
      <trkpt lat="43.42044" lon="3.48038">
        <ele>104</ele>
        <time>2014-10-08T12:39:58.000Z</time>
      </trkpt>
      <trkpt lat="43.42051" lon="3.48031">
        <ele>104</ele>
        <time>2014-10-08T12:40:00.000Z</time>
      </trkpt>
      <trkpt lat="43.42062" lon="3.48022">
        <ele>104</ele>
        <time>2014-10-08T12:40:02.000Z</time>
      </trkpt>
      <trkpt lat="43.4207" lon="3.48015">
        <ele>105</ele>
        <time>2014-10-08T12:40:04.000Z</time>
      </trkpt>
      <trkpt lat="43.42077" lon="3.48008">
        <ele>104</ele>
        <time>2014-10-08T12:40:06.000Z</time>
      </trkpt>
      <trkpt lat="43.42085" lon="3.48002">
        <ele>102</ele>
        <time>2014-10-08T12:40:08.000Z</time>
      </trkpt>
      <trkpt lat="43.42096" lon="3.47999">
        <ele>101</ele>
        <time>2014-10-08T12:40:10.000Z</time>
      </trkpt>
      <trkpt lat="43.42107" lon="3.47992">
        <ele>100</ele>
        <time>2014-10-08T12:40:12.000Z</time>
      </trkpt>
      <trkpt lat="43.42118" lon="3.47988">
        <ele>100</ele>
        <time>2014-10-08T12:40:14.000Z</time>
      </trkpt>
      <trkpt lat="43.4213" lon="3.47986">
        <ele>99</ele>
        <time>2014-10-08T12:40:16.000Z</time>
      </trkpt>
      <trkpt lat="43.42139" lon="3.47987">
        <ele>98</ele>
        <time>2014-10-08T12:40:18.000Z</time>
      </trkpt>
      <trkpt lat="43.42149" lon="3.47991">
        <ele>98</ele>
        <time>2014-10-08T12:40:20.000Z</time>
      </trkpt>
      <trkpt lat="43.42156" lon="3.47993">
        <ele>97</ele>
        <time>2014-10-08T12:40:22.000Z</time>
      </trkpt>
      <trkpt lat="43.42162" lon="3.47996">
        <ele>96</ele>
        <time>2014-10-08T12:40:24.000Z</time>
      </trkpt>
      <trkpt lat="43.42162" lon="3.47996">
        <ele>96</ele>
        <time>2014-10-08T12:40:26.000Z</time>
      </trkpt>
      <trkpt lat="43.42168" lon="3.48006">
        <ele>96</ele>
        <time>2014-10-08T12:40:28.000Z</time>
      </trkpt>
      <trkpt lat="43.42168" lon="3.48006">
        <ele>96</ele>
        <time>2014-10-08T12:40:30.000Z</time>
      </trkpt>
      <trkpt lat="43.4217" lon="3.48022">
        <ele>96</ele>
        <time>2014-10-08T12:40:32.000Z</time>
      </trkpt>
      <trkpt lat="43.42169" lon="3.4803">
        <ele>96</ele>
        <time>2014-10-08T12:40:34.000Z</time>
      </trkpt>
      <trkpt lat="43.42169" lon="3.4803">
        <ele>96</ele>
        <time>2014-10-08T12:40:37.000Z</time>
      </trkpt>
      <trkpt lat="43.4217" lon="3.4804">
        <ele>94</ele>
        <time>2014-10-08T12:40:38.000Z</time>
      </trkpt>
      <trkpt lat="43.4217" lon="3.4804">
        <ele>94</ele>
        <time>2014-10-08T12:40:40.000Z</time>
      </trkpt>
      <trkpt lat="43.42175" lon="3.48046">
        <ele>94</ele>
        <time>2014-10-08T12:40:42.000Z</time>
      </trkpt>
      <trkpt lat="43.42179" lon="3.48051">
        <ele>94</ele>
        <time>2014-10-08T12:40:44.000Z</time>
      </trkpt>
      <trkpt lat="43.42188" lon="3.48059">
        <ele>94</ele>
        <time>2014-10-08T12:40:48.000Z</time>
      </trkpt>
      <trkpt lat="43.42196" lon="3.48065">
        <ele>94</ele>
        <time>2014-10-08T12:40:52.000Z</time>
      </trkpt>
      <trkpt lat="43.42196" lon="3.48065">
        <ele>94</ele>
        <time>2014-10-08T12:40:54.000Z</time>
      </trkpt>
      <trkpt lat="43.42202" lon="3.48072">
        <ele>92</ele>
        <time>2014-10-08T12:40:56.000Z</time>
      </trkpt>
      <trkpt lat="43.42202" lon="3.48072">
        <ele>92</ele>
        <time>2014-10-08T12:40:58.000Z</time>
      </trkpt>
      <trkpt lat="43.42213" lon="3.4808">
        <ele>91</ele>
        <time>2014-10-08T12:41:00.000Z</time>
      </trkpt>
      <trkpt lat="43.42218" lon="3.48085">
        <ele>92</ele>
        <time>2014-10-08T12:41:02.000Z</time>
      </trkpt>
      <trkpt lat="43.42226" lon="3.4809">
        <ele>91</ele>
        <time>2014-10-08T12:41:06.000Z</time>
      </trkpt>
      <trkpt lat="43.42226" lon="3.4809">
        <ele>91</ele>
        <time>2014-10-08T12:41:08.000Z</time>
      </trkpt>
      <trkpt lat="43.42233" lon="3.48099">
        <ele>92</ele>
        <time>2014-10-08T12:41:10.000Z</time>
      </trkpt>
      <trkpt lat="43.42241" lon="3.48106">
        <ele>93</ele>
        <time>2014-10-08T12:41:14.000Z</time>
      </trkpt>
      <trkpt lat="43.42246" lon="3.48111">
        <ele>94</ele>
        <time>2014-10-08T12:41:16.000Z</time>
      </trkpt>
      <trkpt lat="43.42255" lon="3.48118">
        <ele>93</ele>
        <time>2014-10-08T12:41:20.000Z</time>
      </trkpt>
      <trkpt lat="43.42255" lon="3.48118">
        <ele>93</ele>
        <time>2014-10-08T12:41:22.000Z</time>
      </trkpt>
      <trkpt lat="43.42264" lon="3.48126">
        <ele>93</ele>
        <time>2014-10-08T12:41:24.000Z</time>
      </trkpt>
      <trkpt lat="43.42269" lon="3.4813">
        <ele>93</ele>
        <time>2014-10-08T12:41:26.000Z</time>
      </trkpt>
      <trkpt lat="43.42276" lon="3.48137">
        <ele>92</ele>
        <time>2014-10-08T12:41:30.000Z</time>
      </trkpt>
      <trkpt lat="43.42276" lon="3.48137">
        <ele>92</ele>
        <time>2014-10-08T12:41:32.000Z</time>
      </trkpt>
      <trkpt lat="43.42284" lon="3.48144">
        <ele>92</ele>
        <time>2014-10-08T12:41:34.000Z</time>
      </trkpt>
      <trkpt lat="43.42284" lon="3.48144">
        <ele>92</ele>
        <time>2014-10-08T12:41:36.000Z</time>
      </trkpt>
      <trkpt lat="43.42292" lon="3.48152">
        <ele>90</ele>
        <time>2014-10-08T12:41:38.000Z</time>
      </trkpt>
      <trkpt lat="43.423" lon="3.48159">
        <ele>90</ele>
        <time>2014-10-08T12:41:42.000Z</time>
      </trkpt>
      <trkpt lat="43.423" lon="3.48159">
        <ele>90</ele>
        <time>2014-10-08T12:41:44.000Z</time>
      </trkpt>
      <trkpt lat="43.423" lon="3.48159">
        <ele>90</ele>
        <time>2014-10-08T12:41:46.000Z</time>
      </trkpt>
      <trkpt lat="43.42307" lon="3.48165">
        <ele>88</ele>
        <time>2014-10-08T12:41:48.000Z</time>
      </trkpt>
      <trkpt lat="43.42307" lon="3.48165">
        <ele>88</ele>
        <time>2014-10-08T12:41:50.000Z</time>
      </trkpt>
      <trkpt lat="43.42311" lon="3.48171">
        <ele>89</ele>
        <time>2014-10-08T12:41:52.000Z</time>
      </trkpt>
      <trkpt lat="43.42317" lon="3.48176">
        <ele>89</ele>
        <time>2014-10-08T12:41:56.000Z</time>
      </trkpt>
      <trkpt lat="43.42323" lon="3.4818">
        <ele>88</ele>
        <time>2014-10-08T12:42:00.000Z</time>
      </trkpt>
      <trkpt lat="43.42328" lon="3.48185">
        <ele>87</ele>
        <time>2014-10-08T12:42:04.000Z</time>
      </trkpt>
      <trkpt lat="43.42333" lon="3.48189">
        <ele>89</ele>
        <time>2014-10-08T12:42:08.000Z</time>
      </trkpt>
      <trkpt lat="43.42333" lon="3.48189">
        <ele>89</ele>
        <time>2014-10-08T12:42:10.000Z</time>
      </trkpt>
      <trkpt lat="43.42333" lon="3.48189">
        <ele>89</ele>
        <time>2014-10-08T12:42:12.000Z</time>
      </trkpt>
      <trkpt lat="43.42333" lon="3.48189">
        <ele>89</ele>
        <time>2014-10-08T12:42:14.000Z</time>
      </trkpt>
      <trkpt lat="43.42342" lon="3.48194">
        <ele>88</ele>
        <time>2014-10-08T12:44:02.000Z</time>
      </trkpt>
      <trkpt lat="43.42348" lon="3.48198">
        <ele>90</ele>
        <time>2014-10-08T12:44:04.000Z</time>
      </trkpt>
      <trkpt lat="43.42353" lon="3.48202">
        <ele>90</ele>
        <time>2014-10-08T12:44:06.000Z</time>
      </trkpt>
      <trkpt lat="43.42358" lon="3.48206">
        <ele>91</ele>
        <time>2014-10-08T12:44:08.000Z</time>
      </trkpt>
      <trkpt lat="43.42363" lon="3.48209">
        <ele>90</ele>
        <time>2014-10-08T12:44:10.000Z</time>
      </trkpt>
      <trkpt lat="43.42373" lon="3.48218">
        <ele>89</ele>
        <time>2014-10-08T12:44:12.000Z</time>
      </trkpt>
      <trkpt lat="43.42378" lon="3.48223">
        <ele>88</ele>
        <time>2014-10-08T12:44:14.000Z</time>
      </trkpt>
      <trkpt lat="43.42384" lon="3.48228">
        <ele>88</ele>
        <time>2014-10-08T12:44:16.000Z</time>
      </trkpt>
      <trkpt lat="43.4239" lon="3.48233">
        <ele>88</ele>
        <time>2014-10-08T12:44:18.000Z</time>
      </trkpt>
      <trkpt lat="43.4239" lon="3.48233">
        <ele>88</ele>
        <time>2014-10-08T12:44:20.000Z</time>
      </trkpt>
      <trkpt lat="43.42397" lon="3.48242">
        <ele>89</ele>
        <time>2014-10-08T12:44:22.000Z</time>
      </trkpt>
      <trkpt lat="43.42403" lon="3.48246">
        <ele>90</ele>
        <time>2014-10-08T12:44:24.000Z</time>
      </trkpt>
      <trkpt lat="43.42408" lon="3.48251">
        <ele>91</ele>
        <time>2014-10-08T12:44:26.000Z</time>
      </trkpt>
      <trkpt lat="43.42414" lon="3.48256">
        <ele>88</ele>
        <time>2014-10-08T12:44:28.000Z</time>
      </trkpt>
      <trkpt lat="43.4242" lon="3.48261">
        <ele>89</ele>
        <time>2014-10-08T12:44:30.000Z</time>
      </trkpt>
      <trkpt lat="43.42426" lon="3.48266">
        <ele>90</ele>
        <time>2014-10-08T12:44:32.000Z</time>
      </trkpt>
      <trkpt lat="43.42426" lon="3.48266">
        <ele>90</ele>
        <time>2014-10-08T12:44:34.000Z</time>
      </trkpt>
      <trkpt lat="43.42429" lon="3.48274">
        <ele>89</ele>
        <time>2014-10-08T12:44:36.000Z</time>
      </trkpt>
      <trkpt lat="43.42429" lon="3.48274">
        <ele>89</ele>
        <time>2014-10-08T12:44:38.000Z</time>
      </trkpt>
      <trkpt lat="43.42429" lon="3.48284">
        <ele>89</ele>
        <time>2014-10-08T12:44:40.000Z</time>
      </trkpt>
      <trkpt lat="43.42427" lon="3.48295">
        <ele>88</ele>
        <time>2014-10-08T12:44:44.000Z</time>
      </trkpt>
      <trkpt lat="43.42425" lon="3.48307">
        <ele>87</ele>
        <time>2014-10-08T12:44:48.000Z</time>
      </trkpt>
      <trkpt lat="43.42428" lon="3.48321">
        <ele>90</ele>
        <time>2014-10-08T12:44:52.000Z</time>
      </trkpt>
      <trkpt lat="43.42435" lon="3.48333">
        <ele>89</ele>
        <time>2014-10-08T12:44:56.000Z</time>
      </trkpt>
      <trkpt lat="43.42444" lon="3.48345">
        <ele>87</ele>
        <time>2014-10-08T12:45:00.000Z</time>
      </trkpt>
      <trkpt lat="43.42448" lon="3.48351">
        <ele>87</ele>
        <time>2014-10-08T12:45:02.000Z</time>
      </trkpt>
      <trkpt lat="43.42452" lon="3.48359">
        <ele>85</ele>
        <time>2014-10-08T12:45:04.000Z</time>
      </trkpt>
      <trkpt lat="43.42457" lon="3.48366">
        <ele>83</ele>
        <time>2014-10-08T12:45:06.000Z</time>
      </trkpt>
      <trkpt lat="43.42463" lon="3.48373">
        <ele>83</ele>
        <time>2014-10-08T12:45:08.000Z</time>
      </trkpt>
      <trkpt lat="43.42467" lon="3.4838">
        <ele>83</ele>
        <time>2014-10-08T12:45:10.000Z</time>
      </trkpt>
      <trkpt lat="43.42471" lon="3.4839">
        <ele>84</ele>
        <time>2014-10-08T12:45:12.000Z</time>
      </trkpt>
      <trkpt lat="43.42475" lon="3.48398">
        <ele>84</ele>
        <time>2014-10-08T12:45:14.000Z</time>
      </trkpt>
      <trkpt lat="43.4248" lon="3.48408">
        <ele>81</ele>
        <time>2014-10-08T12:45:16.000Z</time>
      </trkpt>
      <trkpt lat="43.42485" lon="3.48418">
        <ele>81</ele>
        <time>2014-10-08T12:45:18.000Z</time>
      </trkpt>
      <trkpt lat="43.4249" lon="3.48428">
        <ele>83</ele>
        <time>2014-10-08T12:45:20.000Z</time>
      </trkpt>
      <trkpt lat="43.42493" lon="3.48439">
        <ele>85</ele>
        <time>2014-10-08T12:45:22.000Z</time>
      </trkpt>
      <trkpt lat="43.42497" lon="3.4845">
        <ele>86</ele>
        <time>2014-10-08T12:45:24.000Z</time>
      </trkpt>
      <trkpt lat="43.42501" lon="3.48459">
        <ele>87</ele>
        <time>2014-10-08T12:45:26.000Z</time>
      </trkpt>
      <trkpt lat="43.42505" lon="3.48468">
        <ele>87</ele>
        <time>2014-10-08T12:45:28.000Z</time>
      </trkpt>
      <trkpt lat="43.42508" lon="3.48475">
        <ele>87</ele>
        <time>2014-10-08T12:45:30.000Z</time>
      </trkpt>
      <trkpt lat="43.42511" lon="3.48484">
        <ele>87</ele>
        <time>2014-10-08T12:45:32.000Z</time>
      </trkpt>
      <trkpt lat="43.42514" lon="3.48492">
        <ele>87</ele>
        <time>2014-10-08T12:45:34.000Z</time>
      </trkpt>
      <trkpt lat="43.42518" lon="3.485">
        <ele>88</ele>
        <time>2014-10-08T12:45:36.000Z</time>
      </trkpt>
      <trkpt lat="43.42522" lon="3.48509">
        <ele>87</ele>
        <time>2014-10-08T12:45:38.000Z</time>
      </trkpt>
      <trkpt lat="43.42525" lon="3.48517">
        <ele>87</ele>
        <time>2014-10-08T12:45:40.000Z</time>
      </trkpt>
      <trkpt lat="43.42529" lon="3.48526">
        <ele>88</ele>
        <time>2014-10-08T12:45:42.000Z</time>
      </trkpt>
      <trkpt lat="43.42533" lon="3.48534">
        <ele>88</ele>
        <time>2014-10-08T12:45:44.000Z</time>
      </trkpt>
      <trkpt lat="43.4254" lon="3.48542">
        <ele>87</ele>
        <time>2014-10-08T12:45:46.000Z</time>
      </trkpt>
      <trkpt lat="43.42546" lon="3.4855">
        <ele>88</ele>
        <time>2014-10-08T12:45:48.000Z</time>
      </trkpt>
      <trkpt lat="43.4255" lon="3.4856">
        <ele>90</ele>
        <time>2014-10-08T12:45:50.000Z</time>
      </trkpt>
      <trkpt lat="43.42554" lon="3.48569">
        <ele>89</ele>
        <time>2014-10-08T12:45:52.000Z</time>
      </trkpt>
      <trkpt lat="43.42559" lon="3.48577">
        <ele>89</ele>
        <time>2014-10-08T12:45:54.000Z</time>
      </trkpt>
      <trkpt lat="43.42566" lon="3.48584">
        <ele>89</ele>
        <time>2014-10-08T12:45:56.000Z</time>
      </trkpt>
      <trkpt lat="43.42573" lon="3.48591">
        <ele>90</ele>
        <time>2014-10-08T12:45:58.000Z</time>
      </trkpt>
      <trkpt lat="43.4258" lon="3.48599">
        <ele>91</ele>
        <time>2014-10-08T12:46:00.000Z</time>
      </trkpt>
      <trkpt lat="43.42586" lon="3.48606">
        <ele>91</ele>
        <time>2014-10-08T12:46:02.000Z</time>
      </trkpt>
      <trkpt lat="43.42593" lon="3.48612">
        <ele>92</ele>
        <time>2014-10-08T12:46:04.000Z</time>
      </trkpt>
      <trkpt lat="43.42599" lon="3.4862">
        <ele>92</ele>
        <time>2014-10-08T12:46:06.000Z</time>
      </trkpt>
      <trkpt lat="43.42607" lon="3.48625">
        <ele>90</ele>
        <time>2014-10-08T12:46:08.000Z</time>
      </trkpt>
      <trkpt lat="43.42611" lon="3.48633">
        <ele>90</ele>
        <time>2014-10-08T12:46:10.000Z</time>
      </trkpt>
      <trkpt lat="43.42615" lon="3.48639">
        <ele>92</ele>
        <time>2014-10-08T12:46:12.000Z</time>
      </trkpt>
      <trkpt lat="43.42619" lon="3.48647">
        <ele>91</ele>
        <time>2014-10-08T12:46:14.000Z</time>
      </trkpt>
      <trkpt lat="43.42625" lon="3.48655">
        <ele>92</ele>
        <time>2014-10-08T12:46:16.000Z</time>
      </trkpt>
      <trkpt lat="43.42632" lon="3.48663">
        <ele>93</ele>
        <time>2014-10-08T12:46:18.000Z</time>
      </trkpt>
      <trkpt lat="43.42635" lon="3.48674">
        <ele>96</ele>
        <time>2014-10-08T12:46:20.000Z</time>
      </trkpt>
      <trkpt lat="43.42638" lon="3.48684">
        <ele>95</ele>
        <time>2014-10-08T12:46:22.000Z</time>
      </trkpt>
      <trkpt lat="43.42641" lon="3.48693">
        <ele>98</ele>
        <time>2014-10-08T12:46:24.000Z</time>
      </trkpt>
      <trkpt lat="43.42644" lon="3.48702">
        <ele>99</ele>
        <time>2014-10-08T12:46:26.000Z</time>
      </trkpt>
      <trkpt lat="43.42644" lon="3.4871">
        <ele>97</ele>
        <time>2014-10-08T12:46:28.000Z</time>
      </trkpt>
      <trkpt lat="43.4264" lon="3.48717">
        <ele>97</ele>
        <time>2014-10-08T12:46:30.000Z</time>
      </trkpt>
      <trkpt lat="43.42632" lon="3.4872">
        <ele>97</ele>
        <time>2014-10-08T12:46:32.000Z</time>
      </trkpt>
      <trkpt lat="43.42625" lon="3.48723">
        <ele>98</ele>
        <time>2014-10-08T12:46:34.000Z</time>
      </trkpt>
      <trkpt lat="43.4262" lon="3.4873">
        <ele>99</ele>
        <time>2014-10-08T12:46:36.000Z</time>
      </trkpt>
      <trkpt lat="43.42619" lon="3.48739">
        <ele>96</ele>
        <time>2014-10-08T12:46:38.000Z</time>
      </trkpt>
      <trkpt lat="43.42619" lon="3.48739">
        <ele>96</ele>
        <time>2014-10-08T12:46:40.000Z</time>
      </trkpt>
      <trkpt lat="43.42622" lon="3.48753">
        <ele>96</ele>
        <time>2014-10-08T12:46:42.000Z</time>
      </trkpt>
      <trkpt lat="43.42622" lon="3.48753">
        <ele>96</ele>
        <time>2014-10-08T12:46:44.000Z</time>
      </trkpt>
      <trkpt lat="43.42622" lon="3.48769">
        <ele>98</ele>
        <time>2014-10-08T12:46:46.000Z</time>
      </trkpt>
      <trkpt lat="43.42623" lon="3.48779">
        <ele>96</ele>
        <time>2014-10-08T12:46:48.000Z</time>
      </trkpt>
      <trkpt lat="43.42623" lon="3.48788">
        <ele>96</ele>
        <time>2014-10-08T12:46:50.000Z</time>
      </trkpt>
      <trkpt lat="43.42622" lon="3.48797">
        <ele>99</ele>
        <time>2014-10-08T12:46:52.000Z</time>
      </trkpt>
      <trkpt lat="43.42621" lon="3.48805">
        <ele>99</ele>
        <time>2014-10-08T12:46:54.000Z</time>
      </trkpt>
      <trkpt lat="43.42621" lon="3.48814">
        <ele>98</ele>
        <time>2014-10-08T12:46:56.000Z</time>
      </trkpt>
      <trkpt lat="43.4262" lon="3.48822">
        <ele>98</ele>
        <time>2014-10-08T12:46:58.000Z</time>
      </trkpt>
      <trkpt lat="43.42621" lon="3.48832">
        <ele>97</ele>
        <time>2014-10-08T12:47:00.000Z</time>
      </trkpt>
      <trkpt lat="43.42622" lon="3.48842">
        <ele>98</ele>
        <time>2014-10-08T12:47:02.000Z</time>
      </trkpt>
      <trkpt lat="43.42622" lon="3.48852">
        <ele>101</ele>
        <time>2014-10-08T12:47:04.000Z</time>
      </trkpt>
      <trkpt lat="43.42621" lon="3.48862">
        <ele>100</ele>
        <time>2014-10-08T12:47:06.000Z</time>
      </trkpt>
      <trkpt lat="43.4262" lon="3.48871">
        <ele>99</ele>
        <time>2014-10-08T12:47:08.000Z</time>
      </trkpt>
      <trkpt lat="43.42619" lon="3.48881">
        <ele>100</ele>
        <time>2014-10-08T12:47:10.000Z</time>
      </trkpt>
      <trkpt lat="43.42618" lon="3.4889">
        <ele>103</ele>
        <time>2014-10-08T12:47:12.000Z</time>
      </trkpt>
      <trkpt lat="43.42619" lon="3.489">
        <ele>102</ele>
        <time>2014-10-08T12:47:14.000Z</time>
      </trkpt>
      <trkpt lat="43.4262" lon="3.48909">
        <ele>102</ele>
        <time>2014-10-08T12:47:16.000Z</time>
      </trkpt>
      <trkpt lat="43.4262" lon="3.48919">
        <ele>102</ele>
        <time>2014-10-08T12:47:18.000Z</time>
      </trkpt>
      <trkpt lat="43.4262" lon="3.48929">
        <ele>103</ele>
        <time>2014-10-08T12:47:20.000Z</time>
      </trkpt>
      <trkpt lat="43.42621" lon="3.48939">
        <ele>100</ele>
        <time>2014-10-08T12:47:22.000Z</time>
      </trkpt>
      <trkpt lat="43.42622" lon="3.48948">
        <ele>100</ele>
        <time>2014-10-08T12:47:24.000Z</time>
      </trkpt>
      <trkpt lat="43.42621" lon="3.48957">
        <ele>100</ele>
        <time>2014-10-08T12:47:26.000Z</time>
      </trkpt>
      <trkpt lat="43.42621" lon="3.48957">
        <ele>100</ele>
        <time>2014-10-08T12:47:28.000Z</time>
      </trkpt>
      <trkpt lat="43.42622" lon="3.48969">
        <ele>103</ele>
        <time>2014-10-08T12:47:30.000Z</time>
      </trkpt>
      <trkpt lat="43.42624" lon="3.48977">
        <ele>103</ele>
        <time>2014-10-08T12:47:32.000Z</time>
      </trkpt>
      <trkpt lat="43.42625" lon="3.48985">
        <ele>103</ele>
        <time>2014-10-08T12:47:34.000Z</time>
      </trkpt>
      <trkpt lat="43.42628" lon="3.48992">
        <ele>103</ele>
        <time>2014-10-08T12:47:36.000Z</time>
      </trkpt>
      <trkpt lat="43.42628" lon="3.48992">
        <ele>103</ele>
        <time>2014-10-08T12:47:38.000Z</time>
      </trkpt>
      <trkpt lat="43.42628" lon="3.49001">
        <ele>103</ele>
        <time>2014-10-08T12:47:40.000Z</time>
      </trkpt>
      <trkpt lat="43.42628" lon="3.49001">
        <ele>103</ele>
        <time>2014-10-08T12:47:42.000Z</time>
      </trkpt>
      <trkpt lat="43.42628" lon="3.49001">
        <ele>103</ele>
        <time>2014-10-08T12:47:44.000Z</time>
      </trkpt>
      <trkpt lat="43.42628" lon="3.49001">
        <ele>103</ele>
        <time>2014-10-08T12:47:46.000Z</time>
      </trkpt>
      <trkpt lat="43.4262" lon="3.49006">
        <ele>103</ele>
        <time>2014-10-08T12:47:48.000Z</time>
      </trkpt>
      <trkpt lat="43.42614" lon="3.49005">
        <ele>104</ele>
        <time>2014-10-08T12:47:52.000Z</time>
      </trkpt>
      <trkpt lat="43.42614" lon="3.49005">
        <ele>104</ele>
        <time>2014-10-08T12:47:54.000Z</time>
      </trkpt>
      <trkpt lat="43.42614" lon="3.49005">
        <ele>104</ele>
        <time>2014-10-08T12:47:56.000Z</time>
      </trkpt>
      <trkpt lat="43.42614" lon="3.49005">
        <ele>104</ele>
        <time>2014-10-08T12:47:58.000Z</time>
      </trkpt>
      <trkpt lat="43.42606" lon="3.49014">
        <ele>102</ele>
        <time>2014-10-08T12:48:36.000Z</time>
      </trkpt>
      <trkpt lat="43.42606" lon="3.49014">
        <ele>102</ele>
        <time>2014-10-08T12:48:38.000Z</time>
      </trkpt>
      <trkpt lat="43.42606" lon="3.49014">
        <ele>102</ele>
        <time>2014-10-08T12:48:40.000Z</time>
      </trkpt>
      <trkpt lat="43.42605" lon="3.49029">
        <ele>96</ele>
        <time>2014-10-08T12:48:52.000Z</time>
      </trkpt>
      <trkpt lat="43.42606" lon="3.49039">
        <ele>97</ele>
        <time>2014-10-08T12:48:54.000Z</time>
      </trkpt>
      <trkpt lat="43.42607" lon="3.49046">
        <ele>99</ele>
        <time>2014-10-08T12:48:56.000Z</time>
      </trkpt>
      <trkpt lat="43.42609" lon="3.49051">
        <ele>100</ele>
        <time>2014-10-08T12:48:58.000Z</time>
      </trkpt>
      <trkpt lat="43.42611" lon="3.49055">
        <ele>98</ele>
        <time>2014-10-08T12:49:00.000Z</time>
      </trkpt>
      <trkpt lat="43.42615" lon="3.49062">
        <ele>99</ele>
        <time>2014-10-08T12:49:02.000Z</time>
      </trkpt>
      <trkpt lat="43.42615" lon="3.49062">
        <ele>99</ele>
        <time>2014-10-08T12:49:04.000Z</time>
      </trkpt>
      <trkpt lat="43.42615" lon="3.49062">
        <ele>99</ele>
        <time>2014-10-08T12:49:06.000Z</time>
      </trkpt>
      <trkpt lat="43.42619" lon="3.49068">
        <ele>99</ele>
        <time>2014-10-08T12:49:08.000Z</time>
      </trkpt>
      <trkpt lat="43.42619" lon="3.49068">
        <ele>99</ele>
        <time>2014-10-08T12:49:10.000Z</time>
      </trkpt>
      <trkpt lat="43.42619" lon="3.49068">
        <ele>99</ele>
        <time>2014-10-08T12:49:12.000Z</time>
      </trkpt>
      <trkpt lat="43.42619" lon="3.49068">
        <ele>99</ele>
        <time>2014-10-08T12:49:14.000Z</time>
      </trkpt>
      <trkpt lat="43.42624" lon="3.49079">
        <ele>107</ele>
        <time>2014-10-08T12:49:32.000Z</time>
      </trkpt>
      <trkpt lat="43.42624" lon="3.49079">
        <ele>107</ele>
        <time>2014-10-08T12:49:34.000Z</time>
      </trkpt>
      <trkpt lat="43.42624" lon="3.49079">
        <ele>107</ele>
        <time>2014-10-08T12:49:36.000Z</time>
      </trkpt>
      <trkpt lat="43.42627" lon="3.49089">
        <ele>112</ele>
        <time>2014-10-08T12:49:38.000Z</time>
      </trkpt>
      <trkpt lat="43.42628" lon="3.49098">
        <ele>112</ele>
        <time>2014-10-08T12:49:42.000Z</time>
      </trkpt>
      <trkpt lat="43.42632" lon="3.49109">
        <ele>112</ele>
        <time>2014-10-08T12:49:46.000Z</time>
      </trkpt>
      <trkpt lat="43.42637" lon="3.49119">
        <ele>111</ele>
        <time>2014-10-08T12:49:50.000Z</time>
      </trkpt>
      <trkpt lat="43.42643" lon="3.49128">
        <ele>110</ele>
        <time>2014-10-08T12:49:54.000Z</time>
      </trkpt>
      <trkpt lat="43.42643" lon="3.49128">
        <ele>110</ele>
        <time>2014-10-08T12:49:56.000Z</time>
      </trkpt>
      <trkpt lat="43.4265" lon="3.49134">
        <ele>110</ele>
        <time>2014-10-08T12:49:58.000Z</time>
      </trkpt>
      <trkpt lat="43.42653" lon="3.49143">
        <ele>110</ele>
        <time>2014-10-08T12:50:02.000Z</time>
      </trkpt>
      <trkpt lat="43.42656" lon="3.49152">
        <ele>109</ele>
        <time>2014-10-08T12:50:06.000Z</time>
      </trkpt>
      <trkpt lat="43.42659" lon="3.49161">
        <ele>113</ele>
        <time>2014-10-08T12:50:10.000Z</time>
      </trkpt>
      <trkpt lat="43.42669" lon="3.49168">
        <ele>110</ele>
        <time>2014-10-08T12:50:14.000Z</time>
      </trkpt>
      <trkpt lat="43.42678" lon="3.49172">
        <ele>108</ele>
        <time>2014-10-08T12:50:18.000Z</time>
      </trkpt>
      <trkpt lat="43.42678" lon="3.49172">
        <ele>108</ele>
        <time>2014-10-08T12:50:20.000Z</time>
      </trkpt>
      <trkpt lat="43.42678" lon="3.49172">
        <ele>108</ele>
        <time>2014-10-08T12:50:22.000Z</time>
      </trkpt>
      <trkpt lat="43.42678" lon="3.49172">
        <ele>108</ele>
        <time>2014-10-08T12:50:24.000Z</time>
      </trkpt>
      <trkpt lat="43.42678" lon="3.49172">
        <ele>108</ele>
        <time>2014-10-08T12:50:26.000Z</time>
      </trkpt>
      <trkpt lat="43.42691" lon="3.49167">
        <ele>118</ele>
        <time>2014-10-08T12:50:40.000Z</time>
      </trkpt>
      <trkpt lat="43.427" lon="3.49166">
        <ele>117</ele>
        <time>2014-10-08T12:50:42.000Z</time>
      </trkpt>
      <trkpt lat="43.42707" lon="3.49168">
        <ele>116</ele>
        <time>2014-10-08T12:50:44.000Z</time>
      </trkpt>
      <trkpt lat="43.42714" lon="3.4917">
        <ele>114</ele>
        <time>2014-10-08T12:50:46.000Z</time>
      </trkpt>
      <trkpt lat="43.42719" lon="3.49175">
        <ele>116</ele>
        <time>2014-10-08T12:50:48.000Z</time>
      </trkpt>
      <trkpt lat="43.42726" lon="3.49188">
        <ele>118</ele>
        <time>2014-10-08T12:50:50.000Z</time>
      </trkpt>
      <trkpt lat="43.42726" lon="3.49188">
        <ele>118</ele>
        <time>2014-10-08T12:50:52.000Z</time>
      </trkpt>
      <trkpt lat="43.42734" lon="3.49198">
        <ele>121</ele>
        <time>2014-10-08T12:50:54.000Z</time>
      </trkpt>
      <trkpt lat="43.4274" lon="3.49203">
        <ele>119</ele>
        <time>2014-10-08T12:50:56.000Z</time>
      </trkpt>
      <trkpt lat="43.42749" lon="3.49208">
        <ele>119</ele>
        <time>2014-10-08T12:50:58.000Z</time>
      </trkpt>
      <trkpt lat="43.42758" lon="3.49211">
        <ele>119</ele>
        <time>2014-10-08T12:51:00.000Z</time>
      </trkpt>
      <trkpt lat="43.42766" lon="3.49214">
        <ele>118</ele>
        <time>2014-10-08T12:51:02.000Z</time>
      </trkpt>
      <trkpt lat="43.42775" lon="3.49216">
        <ele>116</ele>
        <time>2014-10-08T12:51:04.000Z</time>
      </trkpt>
      <trkpt lat="43.42784" lon="3.49217">
        <ele>117</ele>
        <time>2014-10-08T12:51:06.000Z</time>
      </trkpt>
      <trkpt lat="43.42793" lon="3.49219">
        <ele>119</ele>
        <time>2014-10-08T12:51:08.000Z</time>
      </trkpt>
      <trkpt lat="43.42802" lon="3.49219">
        <ele>119</ele>
        <time>2014-10-08T12:51:10.000Z</time>
      </trkpt>
      <trkpt lat="43.42811" lon="3.4922">
        <ele>120</ele>
        <time>2014-10-08T12:51:12.000Z</time>
      </trkpt>
      <trkpt lat="43.42823" lon="3.4922">
        <ele>122</ele>
        <time>2014-10-08T12:51:14.000Z</time>
      </trkpt>
      <trkpt lat="43.42832" lon="3.49223">
        <ele>122</ele>
        <time>2014-10-08T12:51:16.000Z</time>
      </trkpt>
      <trkpt lat="43.42842" lon="3.49225">
        <ele>121</ele>
        <time>2014-10-08T12:51:18.000Z</time>
      </trkpt>
      <trkpt lat="43.42848" lon="3.49233">
        <ele>119</ele>
        <time>2014-10-08T12:51:20.000Z</time>
      </trkpt>
      <trkpt lat="43.42856" lon="3.49239">
        <ele>118</ele>
        <time>2014-10-08T12:51:22.000Z</time>
      </trkpt>
      <trkpt lat="43.42867" lon="3.49246">
        <ele>118</ele>
        <time>2014-10-08T12:51:24.000Z</time>
      </trkpt>
      <trkpt lat="43.42874" lon="3.49252">
        <ele>117</ele>
        <time>2014-10-08T12:51:26.000Z</time>
      </trkpt>
      <trkpt lat="43.42881" lon="3.49259">
        <ele>118</ele>
        <time>2014-10-08T12:51:28.000Z</time>
      </trkpt>
      <trkpt lat="43.42888" lon="3.49266">
        <ele>118</ele>
        <time>2014-10-08T12:51:30.000Z</time>
      </trkpt>
      <trkpt lat="43.42892" lon="3.49274">
        <ele>119</ele>
        <time>2014-10-08T12:51:32.000Z</time>
      </trkpt>
      <trkpt lat="43.42892" lon="3.49274">
        <ele>119</ele>
        <time>2014-10-08T12:51:34.000Z</time>
      </trkpt>
      <trkpt lat="43.42902" lon="3.4928">
        <ele>118</ele>
        <time>2014-10-08T12:51:36.000Z</time>
      </trkpt>
      <trkpt lat="43.42902" lon="3.4928">
        <ele>118</ele>
        <time>2014-10-08T12:51:38.000Z</time>
      </trkpt>
      <trkpt lat="43.42912" lon="3.49286">
        <ele>120</ele>
        <time>2014-10-08T12:51:40.000Z</time>
      </trkpt>
      <trkpt lat="43.42918" lon="3.4929">
        <ele>117</ele>
        <time>2014-10-08T12:51:42.000Z</time>
      </trkpt>
      <trkpt lat="43.42925" lon="3.49295">
        <ele>117</ele>
        <time>2014-10-08T12:51:44.000Z</time>
      </trkpt>
      <trkpt lat="43.42932" lon="3.49302">
        <ele>117</ele>
        <time>2014-10-08T12:51:46.000Z</time>
      </trkpt>
      <trkpt lat="43.42939" lon="3.49307">
        <ele>115</ele>
        <time>2014-10-08T12:51:48.000Z</time>
      </trkpt>
      <trkpt lat="43.42949" lon="3.49312">
        <ele>114</ele>
        <time>2014-10-08T12:51:50.000Z</time>
      </trkpt>
      <trkpt lat="43.42957" lon="3.49317">
        <ele>114</ele>
        <time>2014-10-08T12:51:52.000Z</time>
      </trkpt>
      <trkpt lat="43.42968" lon="3.49323">
        <ele>114</ele>
        <time>2014-10-08T12:51:54.000Z</time>
      </trkpt>
      <trkpt lat="43.42976" lon="3.49329">
        <ele>113</ele>
        <time>2014-10-08T12:51:56.000Z</time>
      </trkpt>
      <trkpt lat="43.42985" lon="3.49334">
        <ele>112</ele>
        <time>2014-10-08T12:51:58.000Z</time>
      </trkpt>
      <trkpt lat="43.42994" lon="3.4934">
        <ele>113</ele>
        <time>2014-10-08T12:52:00.000Z</time>
      </trkpt>
      <trkpt lat="43.43003" lon="3.49347">
        <ele>113</ele>
        <time>2014-10-08T12:52:02.000Z</time>
      </trkpt>
      <trkpt lat="43.43014" lon="3.49351">
        <ele>111</ele>
        <time>2014-10-08T12:52:04.000Z</time>
      </trkpt>
      <trkpt lat="43.43022" lon="3.49356">
        <ele>112</ele>
        <time>2014-10-08T12:52:06.000Z</time>
      </trkpt>
      <trkpt lat="43.43033" lon="3.49358">
        <ele>112</ele>
        <time>2014-10-08T12:52:08.000Z</time>
      </trkpt>
      <trkpt lat="43.43042" lon="3.4936">
        <ele>113</ele>
        <time>2014-10-08T12:52:10.000Z</time>
      </trkpt>
      <trkpt lat="43.43052" lon="3.49363">
        <ele>113</ele>
        <time>2014-10-08T12:52:12.000Z</time>
      </trkpt>
      <trkpt lat="43.43063" lon="3.49364">
        <ele>111</ele>
        <time>2014-10-08T12:52:14.000Z</time>
      </trkpt>
      <trkpt lat="43.43072" lon="3.49366">
        <ele>114</ele>
        <time>2014-10-08T12:52:16.000Z</time>
      </trkpt>
      <trkpt lat="43.43082" lon="3.49368">
        <ele>115</ele>
        <time>2014-10-08T12:52:18.000Z</time>
      </trkpt>
      <trkpt lat="43.43091" lon="3.49372">
        <ele>114</ele>
        <time>2014-10-08T12:52:20.000Z</time>
      </trkpt>
      <trkpt lat="43.43099" lon="3.49376">
        <ele>113</ele>
        <time>2014-10-08T12:52:22.000Z</time>
      </trkpt>
      <trkpt lat="43.43106" lon="3.49381">
        <ele>114</ele>
        <time>2014-10-08T12:52:24.000Z</time>
      </trkpt>
      <trkpt lat="43.43114" lon="3.49386">
        <ele>110</ele>
        <time>2014-10-08T12:52:26.000Z</time>
      </trkpt>
      <trkpt lat="43.43122" lon="3.4939">
        <ele>110</ele>
        <time>2014-10-08T12:52:28.000Z</time>
      </trkpt>
      <trkpt lat="43.43131" lon="3.49393">
        <ele>109</ele>
        <time>2014-10-08T12:52:30.000Z</time>
      </trkpt>
      <trkpt lat="43.4314" lon="3.49396">
        <ele>108</ele>
        <time>2014-10-08T12:52:32.000Z</time>
      </trkpt>
      <trkpt lat="43.43147" lon="3.49402">
        <ele>110</ele>
        <time>2014-10-08T12:52:34.000Z</time>
      </trkpt>
      <trkpt lat="43.43155" lon="3.49409">
        <ele>110</ele>
        <time>2014-10-08T12:52:36.000Z</time>
      </trkpt>
      <trkpt lat="43.43161" lon="3.49412">
        <ele>110</ele>
        <time>2014-10-08T12:52:38.000Z</time>
      </trkpt>
      <trkpt lat="43.43175" lon="3.49424">
        <ele>108</ele>
        <time>2014-10-08T12:52:41.000Z</time>
      </trkpt>
      <trkpt lat="43.4318" lon="3.49432">
        <ele>106</ele>
        <time>2014-10-08T12:52:43.000Z</time>
      </trkpt>
      <trkpt lat="43.43186" lon="3.49439">
        <ele>106</ele>
        <time>2014-10-08T12:52:45.000Z</time>
      </trkpt>
      <trkpt lat="43.4319" lon="3.49446">
        <ele>105</ele>
        <time>2014-10-08T12:52:47.000Z</time>
      </trkpt>
      <trkpt lat="43.4319" lon="3.49446">
        <ele>105</ele>
        <time>2014-10-08T12:52:49.000Z</time>
      </trkpt>
      <trkpt lat="43.43192" lon="3.49454">
        <ele>105</ele>
        <time>2014-10-08T12:52:51.000Z</time>
      </trkpt>
      <trkpt lat="43.43192" lon="3.49454">
        <ele>105</ele>
        <time>2014-10-08T12:52:53.000Z</time>
      </trkpt>
      <trkpt lat="43.43192" lon="3.49454">
        <ele>105</ele>
        <time>2014-10-08T12:52:55.000Z</time>
      </trkpt>
      <trkpt lat="43.43203" lon="3.49456">
        <ele>107</ele>
        <time>2014-10-08T12:52:57.000Z</time>
      </trkpt>
      <trkpt lat="43.43209" lon="3.49457">
        <ele>110</ele>
        <time>2014-10-08T12:52:59.000Z</time>
      </trkpt>
      <trkpt lat="43.43214" lon="3.49458">
        <ele>112</ele>
        <time>2014-10-08T12:53:01.000Z</time>
      </trkpt>
      <trkpt lat="43.43221" lon="3.4946">
        <ele>113</ele>
        <time>2014-10-08T12:53:03.000Z</time>
      </trkpt>
      <trkpt lat="43.43227" lon="3.49461">
        <ele>114</ele>
        <time>2014-10-08T12:53:05.000Z</time>
      </trkpt>
      <trkpt lat="43.43235" lon="3.49464">
        <ele>115</ele>
        <time>2014-10-08T12:53:07.000Z</time>
      </trkpt>
      <trkpt lat="43.43245" lon="3.49468">
        <ele>115</ele>
        <time>2014-10-08T12:53:09.000Z</time>
      </trkpt>
      <trkpt lat="43.43259" lon="3.49471">
        <ele>116</ele>
        <time>2014-10-08T12:53:11.000Z</time>
      </trkpt>
      <trkpt lat="43.43268" lon="3.49478">
        <ele>117</ele>
        <time>2014-10-08T12:53:13.000Z</time>
      </trkpt>
      <trkpt lat="43.43276" lon="3.49483">
        <ele>118</ele>
        <time>2014-10-08T12:53:15.000Z</time>
      </trkpt>
      <trkpt lat="43.43287" lon="3.49487">
        <ele>118</ele>
        <time>2014-10-08T12:53:17.000Z</time>
      </trkpt>
      <trkpt lat="43.43294" lon="3.49493">
        <ele>119</ele>
        <time>2014-10-08T12:53:19.000Z</time>
      </trkpt>
      <trkpt lat="43.43304" lon="3.49497">
        <ele>119</ele>
        <time>2014-10-08T12:53:21.000Z</time>
      </trkpt>
      <trkpt lat="43.43312" lon="3.49502">
        <ele>117</ele>
        <time>2014-10-08T12:53:23.000Z</time>
      </trkpt>
      <trkpt lat="43.4332" lon="3.49507">
        <ele>118</ele>
        <time>2014-10-08T12:53:25.000Z</time>
      </trkpt>
      <trkpt lat="43.43327" lon="3.4951">
        <ele>119</ele>
        <time>2014-10-08T12:53:27.000Z</time>
      </trkpt>
      <trkpt lat="43.43336" lon="3.49515">
        <ele>121</ele>
        <time>2014-10-08T12:53:29.000Z</time>
      </trkpt>
      <trkpt lat="43.43335" lon="3.49524">
        <ele>120</ele>
        <time>2014-10-08T12:53:32.000Z</time>
      </trkpt>
      <trkpt lat="43.43331" lon="3.49532">
        <ele>120</ele>
        <time>2014-10-08T12:53:34.000Z</time>
      </trkpt>
      <trkpt lat="43.43326" lon="3.49542">
        <ele>120</ele>
        <time>2014-10-08T12:53:36.000Z</time>
      </trkpt>
      <trkpt lat="43.4332" lon="3.49551">
        <ele>119</ele>
        <time>2014-10-08T12:53:38.000Z</time>
      </trkpt>
      <trkpt lat="43.43315" lon="3.49559">
        <ele>120</ele>
        <time>2014-10-08T12:53:40.000Z</time>
      </trkpt>
      <trkpt lat="43.43312" lon="3.49567">
        <ele>119</ele>
        <time>2014-10-08T12:53:42.000Z</time>
      </trkpt>
      <trkpt lat="43.43309" lon="3.49577">
        <ele>120</ele>
        <time>2014-10-08T12:53:44.000Z</time>
      </trkpt>
      <trkpt lat="43.43306" lon="3.49584">
        <ele>119</ele>
        <time>2014-10-08T12:53:46.000Z</time>
      </trkpt>
      <trkpt lat="43.43306" lon="3.49584">
        <ele>119</ele>
        <time>2014-10-08T12:53:48.000Z</time>
      </trkpt>
      <trkpt lat="43.43306" lon="3.49594">
        <ele>116</ele>
        <time>2014-10-08T12:53:50.000Z</time>
      </trkpt>
      <trkpt lat="43.43309" lon="3.49614">
        <ele>114</ele>
        <time>2014-10-08T12:53:53.000Z</time>
      </trkpt>
      <trkpt lat="43.43308" lon="3.49623">
        <ele>112</ele>
        <time>2014-10-08T12:53:55.000Z</time>
      </trkpt>
      <trkpt lat="43.43308" lon="3.49631">
        <ele>111</ele>
        <time>2014-10-08T12:53:57.000Z</time>
      </trkpt>
      <trkpt lat="43.43306" lon="3.49639">
        <ele>110</ele>
        <time>2014-10-08T12:53:59.000Z</time>
      </trkpt>
      <trkpt lat="43.43303" lon="3.49647">
        <ele>110</ele>
        <time>2014-10-08T12:54:01.000Z</time>
      </trkpt>
      <trkpt lat="43.433" lon="3.49656">
        <ele>110</ele>
        <time>2014-10-08T12:54:03.000Z</time>
      </trkpt>
      <trkpt lat="43.43297" lon="3.49667">
        <ele>109</ele>
        <time>2014-10-08T12:54:05.000Z</time>
      </trkpt>
      <trkpt lat="43.43296" lon="3.49678">
        <ele>109</ele>
        <time>2014-10-08T12:54:07.000Z</time>
      </trkpt>
      <trkpt lat="43.43297" lon="3.49689">
        <ele>111</ele>
        <time>2014-10-08T12:54:09.000Z</time>
      </trkpt>
      <trkpt lat="43.43303" lon="3.49701">
        <ele>110</ele>
        <time>2014-10-08T12:54:11.000Z</time>
      </trkpt>
      <trkpt lat="43.43309" lon="3.49713">
        <ele>112</ele>
        <time>2014-10-08T12:54:13.000Z</time>
      </trkpt>
      <trkpt lat="43.43316" lon="3.49727">
        <ele>110</ele>
        <time>2014-10-08T12:54:15.000Z</time>
      </trkpt>
      <trkpt lat="43.43319" lon="3.49742">
        <ele>110</ele>
        <time>2014-10-08T12:54:17.000Z</time>
      </trkpt>
      <trkpt lat="43.43321" lon="3.49758">
        <ele>111</ele>
        <time>2014-10-08T12:54:19.000Z</time>
      </trkpt>
      <trkpt lat="43.43325" lon="3.49771">
        <ele>109</ele>
        <time>2014-10-08T12:54:21.000Z</time>
      </trkpt>
      <trkpt lat="43.43328" lon="3.4978">
        <ele>109</ele>
        <time>2014-10-08T12:54:23.000Z</time>
      </trkpt>
      <trkpt lat="43.43328" lon="3.49789">
        <ele>110</ele>
        <time>2014-10-08T12:54:25.000Z</time>
      </trkpt>
      <trkpt lat="43.43328" lon="3.498">
        <ele>109</ele>
        <time>2014-10-08T12:54:27.000Z</time>
      </trkpt>
      <trkpt lat="43.43324" lon="3.4981">
        <ele>109</ele>
        <time>2014-10-08T12:54:29.000Z</time>
      </trkpt>
      <trkpt lat="43.43317" lon="3.49819">
        <ele>107</ele>
        <time>2014-10-08T12:54:31.000Z</time>
      </trkpt>
      <trkpt lat="43.43308" lon="3.49828">
        <ele>109</ele>
        <time>2014-10-08T12:54:33.000Z</time>
      </trkpt>
      <trkpt lat="43.43304" lon="3.49838">
        <ele>110</ele>
        <time>2014-10-08T12:54:35.000Z</time>
      </trkpt>
      <trkpt lat="43.43304" lon="3.49853">
        <ele>107</ele>
        <time>2014-10-08T12:54:37.000Z</time>
      </trkpt>
      <trkpt lat="43.43299" lon="3.49865">
        <ele>106</ele>
        <time>2014-10-08T12:54:39.000Z</time>
      </trkpt>
      <trkpt lat="43.43292" lon="3.49875">
        <ele>109</ele>
        <time>2014-10-08T12:54:41.000Z</time>
      </trkpt>
      <trkpt lat="43.4329" lon="3.49886">
        <ele>108</ele>
        <time>2014-10-08T12:54:43.000Z</time>
      </trkpt>
      <trkpt lat="43.43285" lon="3.49899">
        <ele>109</ele>
        <time>2014-10-08T12:54:45.000Z</time>
      </trkpt>
      <trkpt lat="43.43281" lon="3.49911">
        <ele>107</ele>
        <time>2014-10-08T12:54:47.000Z</time>
      </trkpt>
      <trkpt lat="43.43274" lon="3.49922">
        <ele>107</ele>
        <time>2014-10-08T12:54:49.000Z</time>
      </trkpt>
      <trkpt lat="43.43268" lon="3.49936">
        <ele>105</ele>
        <time>2014-10-08T12:54:51.000Z</time>
      </trkpt>
      <trkpt lat="43.43265" lon="3.49946">
        <ele>102</ele>
        <time>2014-10-08T12:54:53.000Z</time>
      </trkpt>
      <trkpt lat="43.43258" lon="3.49953">
        <ele>101</ele>
        <time>2014-10-08T12:54:55.000Z</time>
      </trkpt>
      <trkpt lat="43.4325" lon="3.49959">
        <ele>103</ele>
        <time>2014-10-08T12:54:57.000Z</time>
      </trkpt>
      <trkpt lat="43.43242" lon="3.49966">
        <ele>103</ele>
        <time>2014-10-08T12:54:59.000Z</time>
      </trkpt>
      <trkpt lat="43.43242" lon="3.49966">
        <ele>103</ele>
        <time>2014-10-08T12:55:01.000Z</time>
      </trkpt>
      <trkpt lat="43.43241" lon="3.49975">
        <ele>107</ele>
        <time>2014-10-08T12:55:03.000Z</time>
      </trkpt>
      <trkpt lat="43.43248" lon="3.49972">
        <ele>104</ele>
        <time>2014-10-08T12:55:05.000Z</time>
      </trkpt>
      <trkpt lat="43.43254" lon="3.49966">
        <ele>104</ele>
        <time>2014-10-08T12:55:07.000Z</time>
      </trkpt>
      <trkpt lat="43.43262" lon="3.49963">
        <ele>104</ele>
        <time>2014-10-08T12:55:09.000Z</time>
      </trkpt>
      <trkpt lat="43.43269" lon="3.49963">
        <ele>101</ele>
        <time>2014-10-08T12:55:11.000Z</time>
      </trkpt>
      <trkpt lat="43.43269" lon="3.49963">
        <ele>101</ele>
        <time>2014-10-08T12:55:13.000Z</time>
      </trkpt>
      <trkpt lat="43.43277" lon="3.49969">
        <ele>100</ele>
        <time>2014-10-08T12:55:15.000Z</time>
      </trkpt>
      <trkpt lat="43.43277" lon="3.49969">
        <ele>100</ele>
        <time>2014-10-08T12:55:17.000Z</time>
      </trkpt>
      <trkpt lat="43.43286" lon="3.49975">
        <ele>101</ele>
        <time>2014-10-08T12:55:19.000Z</time>
      </trkpt>
      <trkpt lat="43.43295" lon="3.49979">
        <ele>102</ele>
        <time>2014-10-08T12:55:21.000Z</time>
      </trkpt>
      <trkpt lat="43.43302" lon="3.49983">
        <ele>103</ele>
        <time>2014-10-08T12:55:23.000Z</time>
      </trkpt>
      <trkpt lat="43.43309" lon="3.49985">
        <ele>98</ele>
        <time>2014-10-08T12:55:25.000Z</time>
      </trkpt>
      <trkpt lat="43.43317" lon="3.49986">
        <ele>98</ele>
        <time>2014-10-08T12:55:27.000Z</time>
      </trkpt>
      <trkpt lat="43.43324" lon="3.49988">
        <ele>97</ele>
        <time>2014-10-08T12:55:29.000Z</time>
      </trkpt>
      <trkpt lat="43.43324" lon="3.49988">
        <ele>97</ele>
        <time>2014-10-08T12:55:31.000Z</time>
      </trkpt>
      <trkpt lat="43.43335" lon="3.49993">
        <ele>99</ele>
        <time>2014-10-08T12:55:33.000Z</time>
      </trkpt>
      <trkpt lat="43.43341" lon="3.49996">
        <ele>102</ele>
        <time>2014-10-08T12:55:35.000Z</time>
      </trkpt>
      <trkpt lat="43.43347" lon="3.49999">
        <ele>102</ele>
        <time>2014-10-08T12:55:37.000Z</time>
      </trkpt>
      <trkpt lat="43.43353" lon="3.50003">
        <ele>104</ele>
        <time>2014-10-08T12:55:39.000Z</time>
      </trkpt>
      <trkpt lat="43.4336" lon="3.50007">
        <ele>104</ele>
        <time>2014-10-08T12:55:41.000Z</time>
      </trkpt>
      <trkpt lat="43.43365" lon="3.50011">
        <ele>105</ele>
        <time>2014-10-08T12:55:43.000Z</time>
      </trkpt>
      <trkpt lat="43.43371" lon="3.50014">
        <ele>105</ele>
        <time>2014-10-08T12:55:45.000Z</time>
      </trkpt>
      <trkpt lat="43.43378" lon="3.50016">
        <ele>104</ele>
        <time>2014-10-08T12:55:47.000Z</time>
      </trkpt>
      <trkpt lat="43.43385" lon="3.50018">
        <ele>105</ele>
        <time>2014-10-08T12:55:49.000Z</time>
      </trkpt>
      <trkpt lat="43.43391" lon="3.5002">
        <ele>108</ele>
        <time>2014-10-08T12:55:51.000Z</time>
      </trkpt>
      <trkpt lat="43.43398" lon="3.50021">
        <ele>108</ele>
        <time>2014-10-08T12:55:53.000Z</time>
      </trkpt>
      <trkpt lat="43.43406" lon="3.50022">
        <ele>107</ele>
        <time>2014-10-08T12:55:55.000Z</time>
      </trkpt>
      <trkpt lat="43.43413" lon="3.50023">
        <ele>107</ele>
        <time>2014-10-08T12:55:57.000Z</time>
      </trkpt>
      <trkpt lat="43.4342" lon="3.50025">
        <ele>108</ele>
        <time>2014-10-08T12:55:59.000Z</time>
      </trkpt>
      <trkpt lat="43.43427" lon="3.50026">
        <ele>108</ele>
        <time>2014-10-08T12:56:01.000Z</time>
      </trkpt>
      <trkpt lat="43.43435" lon="3.50026">
        <ele>106</ele>
        <time>2014-10-08T12:56:03.000Z</time>
      </trkpt>
      <trkpt lat="43.43441" lon="3.50024">
        <ele>108</ele>
        <time>2014-10-08T12:56:05.000Z</time>
      </trkpt>
      <trkpt lat="43.43448" lon="3.50021">
        <ele>109</ele>
        <time>2014-10-08T12:56:07.000Z</time>
      </trkpt>
      <trkpt lat="43.43454" lon="3.50015">
        <ele>109</ele>
        <time>2014-10-08T12:56:09.000Z</time>
      </trkpt>
      <trkpt lat="43.43454" lon="3.50015">
        <ele>109</ele>
        <time>2014-10-08T12:56:11.000Z</time>
      </trkpt>
      <trkpt lat="43.43459" lon="3.5001">
        <ele>109</ele>
        <time>2014-10-08T12:56:13.000Z</time>
      </trkpt>
      <trkpt lat="43.43459" lon="3.5001">
        <ele>109</ele>
        <time>2014-10-08T12:56:15.000Z</time>
      </trkpt>
      <trkpt lat="43.43467" lon="3.50001">
        <ele>111</ele>
        <time>2014-10-08T12:56:17.000Z</time>
      </trkpt>
      <trkpt lat="43.43476" lon="3.49994">
        <ele>110</ele>
        <time>2014-10-08T12:56:21.000Z</time>
      </trkpt>
      <trkpt lat="43.43484" lon="3.49988">
        <ele>109</ele>
        <time>2014-10-08T12:56:23.000Z</time>
      </trkpt>
      <trkpt lat="43.43491" lon="3.49982">
        <ele>110</ele>
        <time>2014-10-08T12:56:25.000Z</time>
      </trkpt>
      <trkpt lat="43.43497" lon="3.49975">
        <ele>111</ele>
        <time>2014-10-08T12:56:27.000Z</time>
      </trkpt>
      <trkpt lat="43.43501" lon="3.49966">
        <ele>112</ele>
        <time>2014-10-08T12:56:29.000Z</time>
      </trkpt>
      <trkpt lat="43.43504" lon="3.49959">
        <ele>111</ele>
        <time>2014-10-08T12:56:31.000Z</time>
      </trkpt>
      <trkpt lat="43.43509" lon="3.49952">
        <ele>109</ele>
        <time>2014-10-08T12:56:33.000Z</time>
      </trkpt>
      <trkpt lat="43.43509" lon="3.49952">
        <ele>109</ele>
        <time>2014-10-08T12:56:35.000Z</time>
      </trkpt>
      <trkpt lat="43.43519" lon="3.49949">
        <ele>110</ele>
        <time>2014-10-08T12:56:37.000Z</time>
      </trkpt>
      <trkpt lat="43.43519" lon="3.49949">
        <ele>110</ele>
        <time>2014-10-08T12:56:39.000Z</time>
      </trkpt>
      <trkpt lat="43.4353" lon="3.4995">
        <ele>108</ele>
        <time>2014-10-08T12:56:41.000Z</time>
      </trkpt>
      <trkpt lat="43.4353" lon="3.4995">
        <ele>108</ele>
        <time>2014-10-08T12:56:43.000Z</time>
      </trkpt>
      <trkpt lat="43.43539" lon="3.49948">
        <ele>108</ele>
        <time>2014-10-08T12:56:45.000Z</time>
      </trkpt>
      <trkpt lat="43.43545" lon="3.49944">
        <ele>109</ele>
        <time>2014-10-08T12:56:47.000Z</time>
      </trkpt>
      <trkpt lat="43.43551" lon="3.49939">
        <ele>111</ele>
        <time>2014-10-08T12:56:49.000Z</time>
      </trkpt>
      <trkpt lat="43.43557" lon="3.49933">
        <ele>110</ele>
        <time>2014-10-08T12:56:51.000Z</time>
      </trkpt>
      <trkpt lat="43.43563" lon="3.49924">
        <ele>109</ele>
        <time>2014-10-08T12:56:53.000Z</time>
      </trkpt>
      <trkpt lat="43.43577" lon="3.49903">
        <ele>106</ele>
        <time>2014-10-08T12:56:56.000Z</time>
      </trkpt>
      <trkpt lat="43.43584" lon="3.49891">
        <ele>106</ele>
        <time>2014-10-08T12:56:58.000Z</time>
      </trkpt>
      <trkpt lat="43.43589" lon="3.49878">
        <ele>106</ele>
        <time>2014-10-08T12:57:00.000Z</time>
      </trkpt>
      <trkpt lat="43.43592" lon="3.49868">
        <ele>108</ele>
        <time>2014-10-08T12:57:02.000Z</time>
      </trkpt>
      <trkpt lat="43.43598" lon="3.49858">
        <ele>108</ele>
        <time>2014-10-08T12:57:04.000Z</time>
      </trkpt>
      <trkpt lat="43.436" lon="3.4985">
        <ele>109</ele>
        <time>2014-10-08T12:57:06.000Z</time>
      </trkpt>
      <trkpt lat="43.43605" lon="3.49838">
        <ele>107</ele>
        <time>2014-10-08T12:57:08.000Z</time>
      </trkpt>
      <trkpt lat="43.43615" lon="3.49825">
        <ele>103</ele>
        <time>2014-10-08T12:57:10.000Z</time>
      </trkpt>
      <trkpt lat="43.43624" lon="3.49821">
        <ele>106</ele>
        <time>2014-10-08T12:57:13.000Z</time>
      </trkpt>
      <trkpt lat="43.43631" lon="3.49822">
        <ele>105</ele>
        <time>2014-10-08T12:57:15.000Z</time>
      </trkpt>
      <trkpt lat="43.43638" lon="3.49825">
        <ele>104</ele>
        <time>2014-10-08T12:57:17.000Z</time>
      </trkpt>
      <trkpt lat="43.43645" lon="3.49828">
        <ele>103</ele>
        <time>2014-10-08T12:57:19.000Z</time>
      </trkpt>
      <trkpt lat="43.43654" lon="3.49827">
        <ele>105</ele>
        <time>2014-10-08T12:57:21.000Z</time>
      </trkpt>
      <trkpt lat="43.43654" lon="3.49827">
        <ele>105</ele>
        <time>2014-10-08T12:57:23.000Z</time>
      </trkpt>
      <trkpt lat="43.43661" lon="3.49832">
        <ele>105</ele>
        <time>2014-10-08T12:57:25.000Z</time>
      </trkpt>
      <trkpt lat="43.43661" lon="3.49832">
        <ele>105</ele>
        <time>2014-10-08T12:57:27.000Z</time>
      </trkpt>
      <trkpt lat="43.43675" lon="3.49828">
        <ele>108</ele>
        <time>2014-10-08T12:57:29.000Z</time>
      </trkpt>
      <trkpt lat="43.43683" lon="3.49823">
        <ele>109</ele>
        <time>2014-10-08T12:57:31.000Z</time>
      </trkpt>
      <trkpt lat="43.43691" lon="3.49821">
        <ele>110</ele>
        <time>2014-10-08T12:57:33.000Z</time>
      </trkpt>
      <trkpt lat="43.43702" lon="3.49815">
        <ele>111</ele>
        <time>2014-10-08T12:57:35.000Z</time>
      </trkpt>
      <trkpt lat="43.43712" lon="3.49814">
        <ele>110</ele>
        <time>2014-10-08T12:57:37.000Z</time>
      </trkpt>
      <trkpt lat="43.4372" lon="3.49816">
        <ele>109</ele>
        <time>2014-10-08T12:57:39.000Z</time>
      </trkpt>
      <trkpt lat="43.43731" lon="3.49813">
        <ele>108</ele>
        <time>2014-10-08T12:57:41.000Z</time>
      </trkpt>
      <trkpt lat="43.43742" lon="3.49812">
        <ele>107</ele>
        <time>2014-10-08T12:57:43.000Z</time>
      </trkpt>
      <trkpt lat="43.43751" lon="3.49807">
        <ele>108</ele>
        <time>2014-10-08T12:57:45.000Z</time>
      </trkpt>
      <trkpt lat="43.4376" lon="3.49802">
        <ele>110</ele>
        <time>2014-10-08T12:57:47.000Z</time>
      </trkpt>
      <trkpt lat="43.43768" lon="3.49798">
        <ele>109</ele>
        <time>2014-10-08T12:57:49.000Z</time>
      </trkpt>
      <trkpt lat="43.43776" lon="3.49792">
        <ele>110</ele>
        <time>2014-10-08T12:57:51.000Z</time>
      </trkpt>
      <trkpt lat="43.43783" lon="3.49783">
        <ele>111</ele>
        <time>2014-10-08T12:57:53.000Z</time>
      </trkpt>
      <trkpt lat="43.43789" lon="3.49774">
        <ele>112</ele>
        <time>2014-10-08T12:57:55.000Z</time>
      </trkpt>
      <trkpt lat="43.43795" lon="3.49764">
        <ele>111</ele>
        <time>2014-10-08T12:57:57.000Z</time>
      </trkpt>
      <trkpt lat="43.43801" lon="3.49756">
        <ele>111</ele>
        <time>2014-10-08T12:57:59.000Z</time>
      </trkpt>
      <trkpt lat="43.43808" lon="3.49751">
        <ele>111</ele>
        <time>2014-10-08T12:58:01.000Z</time>
      </trkpt>
      <trkpt lat="43.43814" lon="3.49745">
        <ele>111</ele>
        <time>2014-10-08T12:58:03.000Z</time>
      </trkpt>
      <trkpt lat="43.43819" lon="3.49738">
        <ele>111</ele>
        <time>2014-10-08T12:58:05.000Z</time>
      </trkpt>
      <trkpt lat="43.43825" lon="3.49732">
        <ele>109</ele>
        <time>2014-10-08T12:58:07.000Z</time>
      </trkpt>
      <trkpt lat="43.43831" lon="3.49731">
        <ele>110</ele>
        <time>2014-10-08T12:58:09.000Z</time>
      </trkpt>
      <trkpt lat="43.43831" lon="3.49731">
        <ele>110</ele>
        <time>2014-10-08T12:58:11.000Z</time>
      </trkpt>
      <trkpt lat="43.43839" lon="3.49732">
        <ele>110</ele>
        <time>2014-10-08T12:58:13.000Z</time>
      </trkpt>
      <trkpt lat="43.43839" lon="3.49732">
        <ele>110</ele>
        <time>2014-10-08T12:58:15.000Z</time>
      </trkpt>
      <trkpt lat="43.43839" lon="3.49732">
        <ele>110</ele>
        <time>2014-10-08T12:58:17.000Z</time>
      </trkpt>
      <trkpt lat="43.43843" lon="3.49725">
        <ele>111</ele>
        <time>2014-10-08T12:58:19.000Z</time>
      </trkpt>
      <trkpt lat="43.43843" lon="3.49725">
        <ele>111</ele>
        <time>2014-10-08T12:58:21.000Z</time>
      </trkpt>
      <trkpt lat="43.43843" lon="3.49725">
        <ele>111</ele>
        <time>2014-10-08T12:58:23.000Z</time>
      </trkpt>
      <trkpt lat="43.43848" lon="3.49719">
        <ele>111</ele>
        <time>2014-10-08T12:58:25.000Z</time>
      </trkpt>
      <trkpt lat="43.43848" lon="3.49719">
        <ele>111</ele>
        <time>2014-10-08T12:58:27.000Z</time>
      </trkpt>
      <trkpt lat="43.43848" lon="3.49719">
        <ele>111</ele>
        <time>2014-10-08T12:58:29.000Z</time>
      </trkpt>
      <trkpt lat="43.43851" lon="3.49711">
        <ele>111</ele>
        <time>2014-10-08T12:58:31.000Z</time>
      </trkpt>
      <trkpt lat="43.43851" lon="3.49711">
        <ele>111</ele>
        <time>2014-10-08T12:58:33.000Z</time>
      </trkpt>
      <trkpt lat="43.43853" lon="3.49703">
        <ele>113</ele>
        <time>2014-10-08T12:58:35.000Z</time>
      </trkpt>
      <trkpt lat="43.43853" lon="3.49703">
        <ele>113</ele>
        <time>2014-10-08T12:58:37.000Z</time>
      </trkpt>
      <trkpt lat="43.43856" lon="3.49694">
        <ele>112</ele>
        <time>2014-10-08T12:58:39.000Z</time>
      </trkpt>
      <trkpt lat="43.43856" lon="3.49694">
        <ele>112</ele>
        <time>2014-10-08T12:58:41.000Z</time>
      </trkpt>
      <trkpt lat="43.43859" lon="3.49683">
        <ele>111</ele>
        <time>2014-10-08T12:58:43.000Z</time>
      </trkpt>
      <trkpt lat="43.4386" lon="3.49677">
        <ele>111</ele>
        <time>2014-10-08T12:58:47.000Z</time>
      </trkpt>
      <trkpt lat="43.43861" lon="3.49671">
        <ele>112</ele>
        <time>2014-10-08T12:58:49.000Z</time>
      </trkpt>
      <trkpt lat="43.43864" lon="3.49668">
        <ele>112</ele>
        <time>2014-10-08T12:58:51.000Z</time>
      </trkpt>
      <trkpt lat="43.43867" lon="3.49667">
        <ele>111</ele>
        <time>2014-10-08T12:58:53.000Z</time>
      </trkpt>
      <trkpt lat="43.4387" lon="3.49667">
        <ele>112</ele>
        <time>2014-10-08T12:58:55.000Z</time>
      </trkpt>
      <trkpt lat="43.43876" lon="3.49669">
        <ele>111</ele>
        <time>2014-10-08T12:58:57.000Z</time>
      </trkpt>
      <trkpt lat="43.43876" lon="3.49669">
        <ele>111</ele>
        <time>2014-10-08T12:58:59.000Z</time>
      </trkpt>
      <trkpt lat="43.43876" lon="3.49669">
        <ele>111</ele>
        <time>2014-10-08T12:59:01.000Z</time>
      </trkpt>
      <trkpt lat="43.43876" lon="3.49669">
        <ele>111</ele>
        <time>2014-10-08T12:59:03.000Z</time>
      </trkpt>
      <trkpt lat="43.43876" lon="3.49669">
        <ele>111</ele>
        <time>2014-10-08T12:59:05.000Z</time>
      </trkpt>
      <trkpt lat="43.43882" lon="3.4967">
        <ele>114</ele>
        <time>2014-10-08T12:59:07.000Z</time>
      </trkpt>
      <trkpt lat="43.43888" lon="3.4967">
        <ele>116</ele>
        <time>2014-10-08T12:59:11.000Z</time>
      </trkpt>
      <trkpt lat="43.43895" lon="3.49671">
        <ele>117</ele>
        <time>2014-10-08T12:59:15.000Z</time>
      </trkpt>
      <trkpt lat="43.439" lon="3.49675">
        <ele>116</ele>
        <time>2014-10-08T12:59:19.000Z</time>
      </trkpt>
      <trkpt lat="43.439" lon="3.49675">
        <ele>116</ele>
        <time>2014-10-08T12:59:21.000Z</time>
      </trkpt>
      <trkpt lat="43.439" lon="3.49675">
        <ele>116</ele>
        <time>2014-10-08T12:59:23.000Z</time>
      </trkpt>
      <trkpt lat="43.43906" lon="3.49682">
        <ele>116</ele>
        <time>2014-10-08T12:59:25.000Z</time>
      </trkpt>
      <trkpt lat="43.43906" lon="3.49682">
        <ele>116</ele>
        <time>2014-10-08T12:59:27.000Z</time>
      </trkpt>
      <trkpt lat="43.43906" lon="3.49682">
        <ele>116</ele>
        <time>2014-10-08T12:59:29.000Z</time>
      </trkpt>
      <trkpt lat="43.43913" lon="3.49687">
        <ele>119</ele>
        <time>2014-10-08T12:59:33.000Z</time>
      </trkpt>
      <trkpt lat="43.43918" lon="3.49696">
        <ele>120</ele>
        <time>2014-10-08T12:59:39.000Z</time>
      </trkpt>
      <trkpt lat="43.43924" lon="3.497">
        <ele>122</ele>
        <time>2014-10-08T12:59:43.000Z</time>
      </trkpt>
      <trkpt lat="43.4393" lon="3.49703">
        <ele>123</ele>
        <time>2014-10-08T12:59:47.000Z</time>
      </trkpt>
      <trkpt lat="43.43935" lon="3.49709">
        <ele>126</ele>
        <time>2014-10-08T12:59:51.000Z</time>
      </trkpt>
      <trkpt lat="43.43943" lon="3.49712">
        <ele>128</ele>
        <time>2014-10-08T12:59:57.000Z</time>
      </trkpt>
      <trkpt lat="43.4395" lon="3.49716">
        <ele>125</ele>
        <time>2014-10-08T13:00:03.000Z</time>
      </trkpt>
      <trkpt lat="43.43956" lon="3.49717">
        <ele>127</ele>
        <time>2014-10-08T13:00:07.000Z</time>
      </trkpt>
      <trkpt lat="43.43963" lon="3.49715">
        <ele>127</ele>
        <time>2014-10-08T13:00:11.000Z</time>
      </trkpt>
      <trkpt lat="43.43969" lon="3.49711">
        <ele>127</ele>
        <time>2014-10-08T13:00:15.000Z</time>
      </trkpt>
      <trkpt lat="43.43977" lon="3.49706">
        <ele>127</ele>
        <time>2014-10-08T13:00:19.000Z</time>
      </trkpt>
      <trkpt lat="43.43985" lon="3.49703">
        <ele>128</ele>
        <time>2014-10-08T13:00:23.000Z</time>
      </trkpt>
      <trkpt lat="43.43993" lon="3.49701">
        <ele>130</ele>
        <time>2014-10-08T13:00:27.000Z</time>
      </trkpt>
      <trkpt lat="43.43999" lon="3.49696">
        <ele>132</ele>
        <time>2014-10-08T13:00:31.000Z</time>
      </trkpt>
      <trkpt lat="43.43999" lon="3.49696">
        <ele>132</ele>
        <time>2014-10-08T13:00:33.000Z</time>
      </trkpt>
      <trkpt lat="43.44004" lon="3.49686">
        <ele>131</ele>
        <time>2014-10-08T13:00:35.000Z</time>
      </trkpt>
      <trkpt lat="43.44008" lon="3.49681">
        <ele>130</ele>
        <time>2014-10-08T13:00:37.000Z</time>
      </trkpt>
      <trkpt lat="43.44014" lon="3.49676">
        <ele>129</ele>
        <time>2014-10-08T13:00:39.000Z</time>
      </trkpt>
      <trkpt lat="43.4402" lon="3.49672">
        <ele>128</ele>
        <time>2014-10-08T13:00:41.000Z</time>
      </trkpt>
      <trkpt lat="43.44028" lon="3.49668">
        <ele>129</ele>
        <time>2014-10-08T13:00:43.000Z</time>
      </trkpt>
      <trkpt lat="43.44035" lon="3.49664">
        <ele>128</ele>
        <time>2014-10-08T13:00:45.000Z</time>
      </trkpt>
      <trkpt lat="43.44043" lon="3.4966">
        <ele>127</ele>
        <time>2014-10-08T13:00:47.000Z</time>
      </trkpt>
      <trkpt lat="43.44052" lon="3.49658">
        <ele>128</ele>
        <time>2014-10-08T13:00:49.000Z</time>
      </trkpt>
      <trkpt lat="43.44061" lon="3.49659">
        <ele>128</ele>
        <time>2014-10-08T13:00:51.000Z</time>
      </trkpt>
      <trkpt lat="43.44071" lon="3.49665">
        <ele>130</ele>
        <time>2014-10-08T13:00:53.000Z</time>
      </trkpt>
      <trkpt lat="43.44078" lon="3.49664">
        <ele>130</ele>
        <time>2014-10-08T13:00:55.000Z</time>
      </trkpt>
      <trkpt lat="43.44078" lon="3.49664">
        <ele>130</ele>
        <time>2014-10-08T13:00:57.000Z</time>
      </trkpt>
      <trkpt lat="43.44083" lon="3.49665">
        <ele>130</ele>
        <time>2014-10-08T13:00:59.000Z</time>
      </trkpt>
      <trkpt lat="43.44087" lon="3.49666">
        <ele>130</ele>
        <time>2014-10-08T13:01:01.000Z</time>
      </trkpt>
      <trkpt lat="43.44091" lon="3.49668">
        <ele>131</ele>
        <time>2014-10-08T13:01:03.000Z</time>
      </trkpt>
      <trkpt lat="43.44094" lon="3.4967">
        <ele>132</ele>
        <time>2014-10-08T13:01:05.000Z</time>
      </trkpt>
      <trkpt lat="43.44098" lon="3.49672">
        <ele>134</ele>
        <time>2014-10-08T13:01:07.000Z</time>
      </trkpt>
      <trkpt lat="43.44104" lon="3.49674">
        <ele>134</ele>
        <time>2014-10-08T13:01:09.000Z</time>
      </trkpt>
      <trkpt lat="43.44104" lon="3.49674">
        <ele>134</ele>
        <time>2014-10-08T13:01:11.000Z</time>
      </trkpt>
      <trkpt lat="43.44109" lon="3.49681">
        <ele>134</ele>
        <time>2014-10-08T13:01:13.000Z</time>
      </trkpt>
      <trkpt lat="43.44118" lon="3.4969">
        <ele>132</ele>
        <time>2014-10-08T13:01:17.000Z</time>
      </trkpt>
      <trkpt lat="43.44123" lon="3.49694">
        <ele>132</ele>
        <time>2014-10-08T13:01:19.000Z</time>
      </trkpt>
      <trkpt lat="43.44129" lon="3.49696">
        <ele>133</ele>
        <time>2014-10-08T13:01:21.000Z</time>
      </trkpt>
      <trkpt lat="43.44135" lon="3.49697">
        <ele>133</ele>
        <time>2014-10-08T13:01:23.000Z</time>
      </trkpt>
      <trkpt lat="43.44143" lon="3.49698">
        <ele>132</ele>
        <time>2014-10-08T13:01:25.000Z</time>
      </trkpt>
      <trkpt lat="43.44151" lon="3.49698">
        <ele>130</ele>
        <time>2014-10-08T13:01:27.000Z</time>
      </trkpt>
      <trkpt lat="43.4416" lon="3.49701">
        <ele>129</ele>
        <time>2014-10-08T13:01:29.000Z</time>
      </trkpt>
      <trkpt lat="43.4418" lon="3.4969">
        <ele>127</ele>
        <time>2014-10-08T13:01:32.000Z</time>
      </trkpt>
      <trkpt lat="43.44189" lon="3.49678">
        <ele>126</ele>
        <time>2014-10-08T13:01:34.000Z</time>
      </trkpt>
      <trkpt lat="43.44198" lon="3.49667">
        <ele>128</ele>
        <time>2014-10-08T13:01:36.000Z</time>
      </trkpt>
      <trkpt lat="43.44204" lon="3.49661">
        <ele>129</ele>
        <time>2014-10-08T13:01:38.000Z</time>
      </trkpt>
      <trkpt lat="43.44211" lon="3.4965">
        <ele>129</ele>
        <time>2014-10-08T13:01:40.000Z</time>
      </trkpt>
      <trkpt lat="43.44216" lon="3.49639">
        <ele>128</ele>
        <time>2014-10-08T13:01:42.000Z</time>
      </trkpt>
      <trkpt lat="43.44221" lon="3.49631">
        <ele>129</ele>
        <time>2014-10-08T13:01:44.000Z</time>
      </trkpt>
      <trkpt lat="43.44228" lon="3.49628">
        <ele>128</ele>
        <time>2014-10-08T13:01:46.000Z</time>
      </trkpt>
      <trkpt lat="43.44236" lon="3.4962">
        <ele>126</ele>
        <time>2014-10-08T13:01:48.000Z</time>
      </trkpt>
      <trkpt lat="43.44242" lon="3.49618">
        <ele>127</ele>
        <time>2014-10-08T13:01:50.000Z</time>
      </trkpt>
      <trkpt lat="43.44248" lon="3.49612">
        <ele>127</ele>
        <time>2014-10-08T13:01:52.000Z</time>
      </trkpt>
      <trkpt lat="43.44254" lon="3.49604">
        <ele>127</ele>
        <time>2014-10-08T13:01:54.000Z</time>
      </trkpt>
      <trkpt lat="43.44259" lon="3.49594">
        <ele>126</ele>
        <time>2014-10-08T13:01:56.000Z</time>
      </trkpt>
      <trkpt lat="43.44265" lon="3.49585">
        <ele>126</ele>
        <time>2014-10-08T13:01:58.000Z</time>
      </trkpt>
      <trkpt lat="43.44269" lon="3.49574">
        <ele>128</ele>
        <time>2014-10-08T13:02:00.000Z</time>
      </trkpt>
      <trkpt lat="43.44274" lon="3.49562">
        <ele>127</ele>
        <time>2014-10-08T13:02:02.000Z</time>
      </trkpt>
      <trkpt lat="43.44283" lon="3.49545">
        <ele>128</ele>
        <time>2014-10-08T13:02:04.000Z</time>
      </trkpt>
      <trkpt lat="43.44291" lon="3.49537">
        <ele>130</ele>
        <time>2014-10-08T13:02:06.000Z</time>
      </trkpt>
      <trkpt lat="43.44299" lon="3.49528">
        <ele>133</ele>
        <time>2014-10-08T13:02:08.000Z</time>
      </trkpt>
      <trkpt lat="43.44307" lon="3.49519">
        <ele>133</ele>
        <time>2014-10-08T13:02:10.000Z</time>
      </trkpt>
      <trkpt lat="43.44313" lon="3.49509">
        <ele>133</ele>
        <time>2014-10-08T13:02:12.000Z</time>
      </trkpt>
      <trkpt lat="43.44321" lon="3.49502">
        <ele>135</ele>
        <time>2014-10-08T13:02:14.000Z</time>
      </trkpt>
      <trkpt lat="43.44329" lon="3.49494">
        <ele>136</ele>
        <time>2014-10-08T13:02:16.000Z</time>
      </trkpt>
      <trkpt lat="43.44336" lon="3.49485">
        <ele>136</ele>
        <time>2014-10-08T13:02:18.000Z</time>
      </trkpt>
      <trkpt lat="43.44343" lon="3.49479">
        <ele>137</ele>
        <time>2014-10-08T13:02:20.000Z</time>
      </trkpt>
      <trkpt lat="43.44351" lon="3.49473">
        <ele>137</ele>
        <time>2014-10-08T13:02:22.000Z</time>
      </trkpt>
      <trkpt lat="43.44357" lon="3.49468">
        <ele>138</ele>
        <time>2014-10-08T13:02:24.000Z</time>
      </trkpt>
      <trkpt lat="43.44364" lon="3.49468">
        <ele>138</ele>
        <time>2014-10-08T13:02:26.000Z</time>
      </trkpt>
      <trkpt lat="43.44372" lon="3.49469">
        <ele>142</ele>
        <time>2014-10-08T13:02:28.000Z</time>
      </trkpt>
      <trkpt lat="43.44378" lon="3.4947">
        <ele>142</ele>
        <time>2014-10-08T13:02:30.000Z</time>
      </trkpt>
      <trkpt lat="43.44385" lon="3.49472">
        <ele>142</ele>
        <time>2014-10-08T13:02:32.000Z</time>
      </trkpt>
      <trkpt lat="43.44391" lon="3.49474">
        <ele>145</ele>
        <time>2014-10-08T13:02:34.000Z</time>
      </trkpt>
      <trkpt lat="43.44398" lon="3.49475">
        <ele>142</ele>
        <time>2014-10-08T13:02:36.000Z</time>
      </trkpt>
      <trkpt lat="43.44405" lon="3.49475">
        <ele>143</ele>
        <time>2014-10-08T13:02:38.000Z</time>
      </trkpt>
      <trkpt lat="43.44411" lon="3.49475">
        <ele>143</ele>
        <time>2014-10-08T13:02:40.000Z</time>
      </trkpt>
      <trkpt lat="43.44417" lon="3.49472">
        <ele>142</ele>
        <time>2014-10-08T13:02:42.000Z</time>
      </trkpt>
      <trkpt lat="43.44421" lon="3.49463">
        <ele>141</ele>
        <time>2014-10-08T13:02:44.000Z</time>
      </trkpt>
      <trkpt lat="43.44423" lon="3.49453">
        <ele>141</ele>
        <time>2014-10-08T13:02:46.000Z</time>
      </trkpt>
      <trkpt lat="43.44422" lon="3.49443">
        <ele>142</ele>
        <time>2014-10-08T13:02:48.000Z</time>
      </trkpt>
      <trkpt lat="43.44421" lon="3.49432">
        <ele>143</ele>
        <time>2014-10-08T13:02:50.000Z</time>
      </trkpt>
      <trkpt lat="43.4442" lon="3.4942">
        <ele>145</ele>
        <time>2014-10-08T13:02:52.000Z</time>
      </trkpt>
      <trkpt lat="43.44419" lon="3.4941">
        <ele>145</ele>
        <time>2014-10-08T13:02:54.000Z</time>
      </trkpt>
      <trkpt lat="43.44418" lon="3.49398">
        <ele>145</ele>
        <time>2014-10-08T13:02:56.000Z</time>
      </trkpt>
      <trkpt lat="43.44416" lon="3.49387">
        <ele>146</ele>
        <time>2014-10-08T13:02:58.000Z</time>
      </trkpt>
      <trkpt lat="43.44416" lon="3.49375">
        <ele>147</ele>
        <time>2014-10-08T13:03:00.000Z</time>
      </trkpt>
      <trkpt lat="43.44416" lon="3.49363">
        <ele>149</ele>
        <time>2014-10-08T13:03:02.000Z</time>
      </trkpt>
      <trkpt lat="43.44416" lon="3.49352">
        <ele>149</ele>
        <time>2014-10-08T13:03:04.000Z</time>
      </trkpt>
      <trkpt lat="43.44418" lon="3.49341">
        <ele>149</ele>
        <time>2014-10-08T13:03:06.000Z</time>
      </trkpt>
      <trkpt lat="43.4442" lon="3.4933">
        <ele>149</ele>
        <time>2014-10-08T13:03:08.000Z</time>
      </trkpt>
      <trkpt lat="43.44423" lon="3.49316">
        <ele>149</ele>
        <time>2014-10-08T13:03:10.000Z</time>
      </trkpt>
      <trkpt lat="43.44426" lon="3.49304">
        <ele>148</ele>
        <time>2014-10-08T13:03:12.000Z</time>
      </trkpt>
      <trkpt lat="43.44425" lon="3.49291">
        <ele>149</ele>
        <time>2014-10-08T13:03:14.000Z</time>
      </trkpt>
      <trkpt lat="43.44427" lon="3.49282">
        <ele>150</ele>
        <time>2014-10-08T13:03:16.000Z</time>
      </trkpt>
      <trkpt lat="43.44428" lon="3.49272">
        <ele>150</ele>
        <time>2014-10-08T13:03:18.000Z</time>
      </trkpt>
      <trkpt lat="43.44428" lon="3.49272">
        <ele>150</ele>
        <time>2014-10-08T13:03:20.000Z</time>
      </trkpt>
      <trkpt lat="43.44428" lon="3.49272">
        <ele>150</ele>
        <time>2014-10-08T13:03:22.000Z</time>
      </trkpt>
      <trkpt lat="43.44432" lon="3.49263">
        <ele>153</ele>
        <time>2014-10-08T13:03:24.000Z</time>
      </trkpt>
      <trkpt lat="43.44432" lon="3.49263">
        <ele>153</ele>
        <time>2014-10-08T13:03:26.000Z</time>
      </trkpt>
      <trkpt lat="43.44435" lon="3.49254">
        <ele>151</ele>
        <time>2014-10-08T13:03:28.000Z</time>
      </trkpt>
      <trkpt lat="43.44439" lon="3.4924">
        <ele>150</ele>
        <time>2014-10-08T13:03:32.000Z</time>
      </trkpt>
      <trkpt lat="43.4444" lon="3.49232">
        <ele>151</ele>
        <time>2014-10-08T13:03:34.000Z</time>
      </trkpt>
      <trkpt lat="43.44442" lon="3.49223">
        <ele>152</ele>
        <time>2014-10-08T13:03:36.000Z</time>
      </trkpt>
      <trkpt lat="43.44444" lon="3.49215">
        <ele>153</ele>
        <time>2014-10-08T13:03:38.000Z</time>
      </trkpt>
      <trkpt lat="43.44445" lon="3.49205">
        <ele>152</ele>
        <time>2014-10-08T13:03:40.000Z</time>
      </trkpt>
      <trkpt lat="43.44448" lon="3.49195">
        <ele>151</ele>
        <time>2014-10-08T13:03:42.000Z</time>
      </trkpt>
      <trkpt lat="43.44451" lon="3.49184">
        <ele>150</ele>
        <time>2014-10-08T13:03:44.000Z</time>
      </trkpt>
      <trkpt lat="43.44455" lon="3.49175">
        <ele>150</ele>
        <time>2014-10-08T13:03:46.000Z</time>
      </trkpt>
      <trkpt lat="43.44458" lon="3.49165">
        <ele>149</ele>
        <time>2014-10-08T13:03:48.000Z</time>
      </trkpt>
      <trkpt lat="43.44461" lon="3.49158">
        <ele>148</ele>
        <time>2014-10-08T13:03:50.000Z</time>
      </trkpt>
      <trkpt lat="43.44461" lon="3.49158">
        <ele>148</ele>
        <time>2014-10-08T13:03:52.000Z</time>
      </trkpt>
      <trkpt lat="43.44467" lon="3.49146">
        <ele>150</ele>
        <time>2014-10-08T13:03:54.000Z</time>
      </trkpt>
      <trkpt lat="43.44467" lon="3.49146">
        <ele>150</ele>
        <time>2014-10-08T13:03:56.000Z</time>
      </trkpt>
      <trkpt lat="43.44476" lon="3.49137">
        <ele>149</ele>
        <time>2014-10-08T13:03:58.000Z</time>
      </trkpt>
      <trkpt lat="43.44482" lon="3.49131">
        <ele>149</ele>
        <time>2014-10-08T13:04:00.000Z</time>
      </trkpt>
      <trkpt lat="43.44487" lon="3.49127">
        <ele>151</ele>
        <time>2014-10-08T13:04:02.000Z</time>
      </trkpt>
      <trkpt lat="43.44492" lon="3.49124">
        <ele>152</ele>
        <time>2014-10-08T13:04:04.000Z</time>
      </trkpt>
      <trkpt lat="43.44498" lon="3.4912">
        <ele>152</ele>
        <time>2014-10-08T13:04:06.000Z</time>
      </trkpt>
      <trkpt lat="43.44503" lon="3.49116">
        <ele>152</ele>
        <time>2014-10-08T13:04:08.000Z</time>
      </trkpt>
      <trkpt lat="43.44509" lon="3.49112">
        <ele>151</ele>
        <time>2014-10-08T13:04:10.000Z</time>
      </trkpt>
      <trkpt lat="43.44516" lon="3.49106">
        <ele>151</ele>
        <time>2014-10-08T13:04:12.000Z</time>
      </trkpt>
      <trkpt lat="43.44522" lon="3.491">
        <ele>152</ele>
        <time>2014-10-08T13:04:14.000Z</time>
      </trkpt>
      <trkpt lat="43.44529" lon="3.49095">
        <ele>151</ele>
        <time>2014-10-08T13:04:16.000Z</time>
      </trkpt>
      <trkpt lat="43.44539" lon="3.49084">
        <ele>151</ele>
        <time>2014-10-08T13:04:18.000Z</time>
      </trkpt>
      <trkpt lat="43.44547" lon="3.49078">
        <ele>152</ele>
        <time>2014-10-08T13:04:20.000Z</time>
      </trkpt>
      <trkpt lat="43.44556" lon="3.49068">
        <ele>151</ele>
        <time>2014-10-08T13:04:22.000Z</time>
      </trkpt>
      <trkpt lat="43.44565" lon="3.49058">
        <ele>152</ele>
        <time>2014-10-08T13:04:24.000Z</time>
      </trkpt>
      <trkpt lat="43.44574" lon="3.49042">
        <ele>150</ele>
        <time>2014-10-08T13:04:26.000Z</time>
      </trkpt>
      <trkpt lat="43.44583" lon="3.49029">
        <ele>150</ele>
        <time>2014-10-08T13:04:28.000Z</time>
      </trkpt>
      <trkpt lat="43.44594" lon="3.49021">
        <ele>150</ele>
        <time>2014-10-08T13:04:30.000Z</time>
      </trkpt>
      <trkpt lat="43.44604" lon="3.49005">
        <ele>148</ele>
        <time>2014-10-08T13:04:32.000Z</time>
      </trkpt>
      <trkpt lat="43.44616" lon="3.48994">
        <ele>148</ele>
        <time>2014-10-08T13:04:34.000Z</time>
      </trkpt>
      <trkpt lat="43.44628" lon="3.48991">
        <ele>150</ele>
        <time>2014-10-08T13:04:36.000Z</time>
      </trkpt>
      <trkpt lat="43.4464" lon="3.48984">
        <ele>150</ele>
        <time>2014-10-08T13:04:38.000Z</time>
      </trkpt>
      <trkpt lat="43.44653" lon="3.48977">
        <ele>149</ele>
        <time>2014-10-08T13:04:40.000Z</time>
      </trkpt>
      <trkpt lat="43.44666" lon="3.48973">
        <ele>150</ele>
        <time>2014-10-08T13:04:42.000Z</time>
      </trkpt>
      <trkpt lat="43.44678" lon="3.48969">
        <ele>148</ele>
        <time>2014-10-08T13:04:44.000Z</time>
      </trkpt>
      <trkpt lat="43.44689" lon="3.48967">
        <ele>149</ele>
        <time>2014-10-08T13:04:46.000Z</time>
      </trkpt>
      <trkpt lat="43.44698" lon="3.48966">
        <ele>152</ele>
        <time>2014-10-08T13:04:48.000Z</time>
      </trkpt>
      <trkpt lat="43.44708" lon="3.48961">
        <ele>150</ele>
        <time>2014-10-08T13:04:50.000Z</time>
      </trkpt>
      <trkpt lat="43.4472" lon="3.48954">
        <ele>150</ele>
        <time>2014-10-08T13:04:52.000Z</time>
      </trkpt>
      <trkpt lat="43.44731" lon="3.48949">
        <ele>149</ele>
        <time>2014-10-08T13:04:54.000Z</time>
      </trkpt>
      <trkpt lat="43.44743" lon="3.48943">
        <ele>149</ele>
        <time>2014-10-08T13:04:56.000Z</time>
      </trkpt>
      <trkpt lat="43.44757" lon="3.4894">
        <ele>151</ele>
        <time>2014-10-08T13:04:58.000Z</time>
      </trkpt>
      <trkpt lat="43.44768" lon="3.4894">
        <ele>152</ele>
        <time>2014-10-08T13:05:00.000Z</time>
      </trkpt>
      <trkpt lat="43.44781" lon="3.48939">
        <ele>147</ele>
        <time>2014-10-08T13:05:02.000Z</time>
      </trkpt>
      <trkpt lat="43.44788" lon="3.48948">
        <ele>146</ele>
        <time>2014-10-08T13:05:04.000Z</time>
      </trkpt>
      <trkpt lat="43.44795" lon="3.48948">
        <ele>147</ele>
        <time>2014-10-08T13:05:06.000Z</time>
      </trkpt>
      <trkpt lat="43.44801" lon="3.4895">
        <ele>146</ele>
        <time>2014-10-08T13:05:08.000Z</time>
      </trkpt>
      <trkpt lat="43.44821" lon="3.4895">
        <ele>145</ele>
        <time>2014-10-08T13:05:11.000Z</time>
      </trkpt>
      <trkpt lat="43.44832" lon="3.48952">
        <ele>145</ele>
        <time>2014-10-08T13:05:13.000Z</time>
      </trkpt>
      <trkpt lat="43.44846" lon="3.4895">
        <ele>145</ele>
        <time>2014-10-08T13:05:15.000Z</time>
      </trkpt>
      <trkpt lat="43.44858" lon="3.48945">
        <ele>145</ele>
        <time>2014-10-08T13:05:17.000Z</time>
      </trkpt>
      <trkpt lat="43.4487" lon="3.48941">
        <ele>144</ele>
        <time>2014-10-08T13:05:19.000Z</time>
      </trkpt>
      <trkpt lat="43.44881" lon="3.48933">
        <ele>142</ele>
        <time>2014-10-08T13:05:21.000Z</time>
      </trkpt>
      <trkpt lat="43.44889" lon="3.48921">
        <ele>142</ele>
        <time>2014-10-08T13:05:23.000Z</time>
      </trkpt>
      <trkpt lat="43.44892" lon="3.48909">
        <ele>141</ele>
        <time>2014-10-08T13:05:25.000Z</time>
      </trkpt>
      <trkpt lat="43.44896" lon="3.48898">
        <ele>140</ele>
        <time>2014-10-08T13:05:27.000Z</time>
      </trkpt>
      <trkpt lat="43.449" lon="3.48889">
        <ele>140</ele>
        <time>2014-10-08T13:05:29.000Z</time>
      </trkpt>
      <trkpt lat="43.44904" lon="3.48879">
        <ele>141</ele>
        <time>2014-10-08T13:05:31.000Z</time>
      </trkpt>
      <trkpt lat="43.44908" lon="3.4887">
        <ele>142</ele>
        <time>2014-10-08T13:05:33.000Z</time>
      </trkpt>
      <trkpt lat="43.44912" lon="3.48858">
        <ele>144</ele>
        <time>2014-10-08T13:05:35.000Z</time>
      </trkpt>
      <trkpt lat="43.44917" lon="3.48847">
        <ele>145</ele>
        <time>2014-10-08T13:05:37.000Z</time>
      </trkpt>
      <trkpt lat="43.44923" lon="3.48836">
        <ele>146</ele>
        <time>2014-10-08T13:05:39.000Z</time>
      </trkpt>
      <trkpt lat="43.44929" lon="3.48823">
        <ele>144</ele>
        <time>2014-10-08T13:05:41.000Z</time>
      </trkpt>
      <trkpt lat="43.44935" lon="3.48818">
        <ele>146</ele>
        <time>2014-10-08T13:05:43.000Z</time>
      </trkpt>
      <trkpt lat="43.44941" lon="3.48816">
        <ele>146</ele>
        <time>2014-10-08T13:05:45.000Z</time>
      </trkpt>
      <trkpt lat="43.44941" lon="3.48816">
        <ele>146</ele>
        <time>2014-10-08T13:05:47.000Z</time>
      </trkpt>
      <trkpt lat="43.44948" lon="3.48822">
        <ele>144</ele>
        <time>2014-10-08T13:05:49.000Z</time>
      </trkpt>
      <trkpt lat="43.44948" lon="3.48822">
        <ele>144</ele>
        <time>2014-10-08T13:05:51.000Z</time>
      </trkpt>
      <trkpt lat="43.44948" lon="3.48822">
        <ele>144</ele>
        <time>2014-10-08T13:05:53.000Z</time>
      </trkpt>
      <trkpt lat="43.44956" lon="3.48827">
        <ele>145</ele>
        <time>2014-10-08T13:05:55.000Z</time>
      </trkpt>
      <trkpt lat="43.44956" lon="3.48827">
        <ele>145</ele>
        <time>2014-10-08T13:05:57.000Z</time>
      </trkpt>
      <trkpt lat="43.44963" lon="3.48832">
        <ele>149</ele>
        <time>2014-10-08T13:05:59.000Z</time>
      </trkpt>
      <trkpt lat="43.44963" lon="3.48832">
        <ele>149</ele>
        <time>2014-10-08T13:06:01.000Z</time>
      </trkpt>
      <trkpt lat="43.44963" lon="3.48832">
        <ele>149</ele>
        <time>2014-10-08T13:06:03.000Z</time>
      </trkpt>
      <trkpt lat="43.44959" lon="3.48824">
        <ele>149</ele>
        <time>2014-10-08T13:06:05.000Z</time>
      </trkpt>
      <trkpt lat="43.44951" lon="3.48819">
        <ele>149</ele>
        <time>2014-10-08T13:06:07.000Z</time>
      </trkpt>
      <trkpt lat="43.44942" lon="3.48815">
        <ele>147</ele>
        <time>2014-10-08T13:06:09.000Z</time>
      </trkpt>
      <trkpt lat="43.44933" lon="3.48817">
        <ele>146</ele>
        <time>2014-10-08T13:06:11.000Z</time>
      </trkpt>
      <trkpt lat="43.44926" lon="3.48825">
        <ele>146</ele>
        <time>2014-10-08T13:06:13.000Z</time>
      </trkpt>
      <trkpt lat="43.44919" lon="3.48834">
        <ele>146</ele>
        <time>2014-10-08T13:06:15.000Z</time>
      </trkpt>
      <trkpt lat="43.44912" lon="3.48843">
        <ele>147</ele>
        <time>2014-10-08T13:06:17.000Z</time>
      </trkpt>
      <trkpt lat="43.44907" lon="3.48853">
        <ele>149</ele>
        <time>2014-10-08T13:06:19.000Z</time>
      </trkpt>
      <trkpt lat="43.44903" lon="3.48864">
        <ele>148</ele>
        <time>2014-10-08T13:06:21.000Z</time>
      </trkpt>
      <trkpt lat="43.44897" lon="3.4887">
        <ele>147</ele>
        <time>2014-10-08T13:06:23.000Z</time>
      </trkpt>
      <trkpt lat="43.44897" lon="3.4887">
        <ele>147</ele>
        <time>2014-10-08T13:06:25.000Z</time>
      </trkpt>
      <trkpt lat="43.44892" lon="3.48859">
        <ele>142</ele>
        <time>2014-10-08T13:06:27.000Z</time>
      </trkpt>
      <trkpt lat="43.44892" lon="3.48859">
        <ele>142</ele>
        <time>2014-10-08T13:06:29.000Z</time>
      </trkpt>
      <trkpt lat="43.44888" lon="3.48843">
        <ele>142</ele>
        <time>2014-10-08T13:06:31.000Z</time>
      </trkpt>
      <trkpt lat="43.44886" lon="3.48833">
        <ele>143</ele>
        <time>2014-10-08T13:06:33.000Z</time>
      </trkpt>
      <trkpt lat="43.44884" lon="3.48823">
        <ele>142</ele>
        <time>2014-10-08T13:06:35.000Z</time>
      </trkpt>
      <trkpt lat="43.44883" lon="3.48813">
        <ele>141</ele>
        <time>2014-10-08T13:06:37.000Z</time>
      </trkpt>
      <trkpt lat="43.44882" lon="3.48803">
        <ele>142</ele>
        <time>2014-10-08T13:06:39.000Z</time>
      </trkpt>
      <trkpt lat="43.44881" lon="3.48792">
        <ele>141</ele>
        <time>2014-10-08T13:06:41.000Z</time>
      </trkpt>
      <trkpt lat="43.44881" lon="3.48781">
        <ele>141</ele>
        <time>2014-10-08T13:06:43.000Z</time>
      </trkpt>
      <trkpt lat="43.4488" lon="3.48772">
        <ele>142</ele>
        <time>2014-10-08T13:06:45.000Z</time>
      </trkpt>
      <trkpt lat="43.44879" lon="3.48764">
        <ele>142</ele>
        <time>2014-10-08T13:06:47.000Z</time>
      </trkpt>
      <trkpt lat="43.44879" lon="3.48764">
        <ele>142</ele>
        <time>2014-10-08T13:06:49.000Z</time>
      </trkpt>
      <trkpt lat="43.44879" lon="3.48764">
        <ele>142</ele>
        <time>2014-10-08T13:06:51.000Z</time>
      </trkpt>
      <trkpt lat="43.44879" lon="3.48764">
        <ele>142</ele>
        <time>2014-10-08T13:06:53.000Z</time>
      </trkpt>
      <trkpt lat="43.44878" lon="3.48753">
        <ele>142</ele>
        <time>2014-10-08T13:06:55.000Z</time>
      </trkpt>
      <trkpt lat="43.44878" lon="3.48753">
        <ele>142</ele>
        <time>2014-10-08T13:06:57.000Z</time>
      </trkpt>
      <trkpt lat="43.44878" lon="3.48753">
        <ele>142</ele>
        <time>2014-10-08T13:06:59.000Z</time>
      </trkpt>
      <trkpt lat="43.4488" lon="3.48743">
        <ele>143</ele>
        <time>2014-10-08T13:07:01.000Z</time>
      </trkpt>
      <trkpt lat="43.4488" lon="3.48743">
        <ele>143</ele>
        <time>2014-10-08T13:07:03.000Z</time>
      </trkpt>
      <trkpt lat="43.4488" lon="3.48733">
        <ele>138</ele>
        <time>2014-10-08T13:07:05.000Z</time>
      </trkpt>
      <trkpt lat="43.4488" lon="3.48733">
        <ele>138</ele>
        <time>2014-10-08T13:07:07.000Z</time>
      </trkpt>
      <trkpt lat="43.44878" lon="3.48723">
        <ele>139</ele>
        <time>2014-10-08T13:07:09.000Z</time>
      </trkpt>
      <trkpt lat="43.44878" lon="3.48723">
        <ele>139</ele>
        <time>2014-10-08T13:07:11.000Z</time>
      </trkpt>
      <trkpt lat="43.44876" lon="3.48715">
        <ele>135</ele>
        <time>2014-10-08T13:07:13.000Z</time>
      </trkpt>
      <trkpt lat="43.44876" lon="3.48715">
        <ele>135</ele>
        <time>2014-10-08T13:07:15.000Z</time>
      </trkpt>
      <trkpt lat="43.44876" lon="3.48715">
        <ele>135</ele>
        <time>2014-10-08T13:07:17.000Z</time>
      </trkpt>
      <trkpt lat="43.44867" lon="3.48713">
        <ele>131</ele>
        <time>2014-10-08T13:07:19.000Z</time>
      </trkpt>
      <trkpt lat="43.44859" lon="3.48706">
        <ele>132</ele>
        <time>2014-10-08T13:07:23.000Z</time>
      </trkpt>
      <trkpt lat="43.44852" lon="3.48698">
        <ele>131</ele>
        <time>2014-10-08T13:07:27.000Z</time>
      </trkpt>
      <trkpt lat="43.44846" lon="3.48693">
        <ele>130</ele>
        <time>2014-10-08T13:07:29.000Z</time>
      </trkpt>
      <trkpt lat="43.44843" lon="3.48682">
        <ele>130</ele>
        <time>2014-10-08T13:07:33.000Z</time>
      </trkpt>
      <trkpt lat="43.44843" lon="3.48682">
        <ele>130</ele>
        <time>2014-10-08T13:07:35.000Z</time>
      </trkpt>
      <trkpt lat="43.44843" lon="3.48682">
        <ele>130</ele>
        <time>2014-10-08T13:07:37.000Z</time>
      </trkpt>
      <trkpt lat="43.44843" lon="3.48678">
        <ele>131</ele>
        <time>2014-10-08T13:07:39.000Z</time>
      </trkpt>
      <trkpt lat="43.44843" lon="3.48673">
        <ele>130</ele>
        <time>2014-10-08T13:07:41.000Z</time>
      </trkpt>
      <trkpt lat="43.44844" lon="3.48669">
        <ele>130</ele>
        <time>2014-10-08T13:07:43.000Z</time>
      </trkpt>
      <trkpt lat="43.44845" lon="3.48663">
        <ele>130</ele>
        <time>2014-10-08T13:07:45.000Z</time>
      </trkpt>
      <trkpt lat="43.44847" lon="3.48657">
        <ele>131</ele>
        <time>2014-10-08T13:07:47.000Z</time>
      </trkpt>
      <trkpt lat="43.44849" lon="3.48643">
        <ele>132</ele>
        <time>2014-10-08T13:07:49.000Z</time>
      </trkpt>
      <trkpt lat="43.44851" lon="3.48636">
        <ele>131</ele>
        <time>2014-10-08T13:07:51.000Z</time>
      </trkpt>
      <trkpt lat="43.44851" lon="3.48628">
        <ele>131</ele>
        <time>2014-10-08T13:07:53.000Z</time>
      </trkpt>
      <trkpt lat="43.44853" lon="3.48619">
        <ele>131</ele>
        <time>2014-10-08T13:07:55.000Z</time>
      </trkpt>
      <trkpt lat="43.44855" lon="3.48611">
        <ele>132</ele>
        <time>2014-10-08T13:07:57.000Z</time>
      </trkpt>
      <trkpt lat="43.44859" lon="3.48604">
        <ele>132</ele>
        <time>2014-10-08T13:07:59.000Z</time>
      </trkpt>
      <trkpt lat="43.44864" lon="3.48597">
        <ele>133</ele>
        <time>2014-10-08T13:08:01.000Z</time>
      </trkpt>
      <trkpt lat="43.44866" lon="3.48587">
        <ele>133</ele>
        <time>2014-10-08T13:08:03.000Z</time>
      </trkpt>
      <trkpt lat="43.44867" lon="3.48577">
        <ele>133</ele>
        <time>2014-10-08T13:08:05.000Z</time>
      </trkpt>
      <trkpt lat="43.44866" lon="3.48568">
        <ele>134</ele>
        <time>2014-10-08T13:08:07.000Z</time>
      </trkpt>
      <trkpt lat="43.44862" lon="3.48558">
        <ele>134</ele>
        <time>2014-10-08T13:08:09.000Z</time>
      </trkpt>
      <trkpt lat="43.44858" lon="3.48546">
        <ele>133</ele>
        <time>2014-10-08T13:08:11.000Z</time>
      </trkpt>
      <trkpt lat="43.44845" lon="3.48522">
        <ele>131</ele>
        <time>2014-10-08T13:08:14.000Z</time>
      </trkpt>
      <trkpt lat="43.44842" lon="3.48503">
        <ele>130</ele>
        <time>2014-10-08T13:08:17.000Z</time>
      </trkpt>
      <trkpt lat="43.44843" lon="3.48491">
        <ele>131</ele>
        <time>2014-10-08T13:08:19.000Z</time>
      </trkpt>
      <trkpt lat="43.44845" lon="3.48483">
        <ele>130</ele>
        <time>2014-10-08T13:08:21.000Z</time>
      </trkpt>
      <trkpt lat="43.44845" lon="3.48483">
        <ele>130</ele>
        <time>2014-10-08T13:08:23.000Z</time>
      </trkpt>
      <trkpt lat="43.44845" lon="3.48483">
        <ele>130</ele>
        <time>2014-10-08T13:08:25.000Z</time>
      </trkpt>
      <trkpt lat="43.44839" lon="3.48476">
        <ele>128</ele>
        <time>2014-10-08T13:08:27.000Z</time>
      </trkpt>
      <trkpt lat="43.44839" lon="3.48476">
        <ele>128</ele>
        <time>2014-10-08T13:08:29.000Z</time>
      </trkpt>
      <trkpt lat="43.44832" lon="3.48479">
        <ele>129</ele>
        <time>2014-10-08T13:08:31.000Z</time>
      </trkpt>
      <trkpt lat="43.44832" lon="3.48479">
        <ele>129</ele>
        <time>2014-10-08T13:08:33.000Z</time>
      </trkpt>
      <trkpt lat="43.44825" lon="3.48479">
        <ele>130</ele>
        <time>2014-10-08T13:08:35.000Z</time>
      </trkpt>
      <trkpt lat="43.44825" lon="3.48479">
        <ele>130</ele>
        <time>2014-10-08T13:08:37.000Z</time>
      </trkpt>
      <trkpt lat="43.44818" lon="3.4848">
        <ele>131</ele>
        <time>2014-10-08T13:08:39.000Z</time>
      </trkpt>
      <trkpt lat="43.44818" lon="3.4848">
        <ele>131</ele>
        <time>2014-10-08T13:08:41.000Z</time>
      </trkpt>
      <trkpt lat="43.4481" lon="3.48481">
        <ele>132</ele>
        <time>2014-10-08T13:08:43.000Z</time>
      </trkpt>
      <trkpt lat="43.4481" lon="3.48481">
        <ele>132</ele>
        <time>2014-10-08T13:08:45.000Z</time>
      </trkpt>
      <trkpt lat="43.44801" lon="3.48481">
        <ele>133</ele>
        <time>2014-10-08T13:08:47.000Z</time>
      </trkpt>
      <trkpt lat="43.44791" lon="3.48482">
        <ele>132</ele>
        <time>2014-10-08T13:08:51.000Z</time>
      </trkpt>
      <trkpt lat="43.44781" lon="3.48484">
        <ele>132</ele>
        <time>2014-10-08T13:08:55.000Z</time>
      </trkpt>
      <trkpt lat="43.44774" lon="3.48482">
        <ele>132</ele>
        <time>2014-10-08T13:08:57.000Z</time>
      </trkpt>
      <trkpt lat="43.4477" lon="3.48475">
        <ele>131</ele>
        <time>2014-10-08T13:08:59.000Z</time>
      </trkpt>
      <trkpt lat="43.44768" lon="3.48466">
        <ele>133</ele>
        <time>2014-10-08T13:09:01.000Z</time>
      </trkpt>
      <trkpt lat="43.44766" lon="3.48457">
        <ele>132</ele>
        <time>2014-10-08T13:09:03.000Z</time>
      </trkpt>
      <trkpt lat="43.44764" lon="3.48447">
        <ele>132</ele>
        <time>2014-10-08T13:09:05.000Z</time>
      </trkpt>
      <trkpt lat="43.44762" lon="3.48438">
        <ele>133</ele>
        <time>2014-10-08T13:09:07.000Z</time>
      </trkpt>
      <trkpt lat="43.44761" lon="3.48429">
        <ele>133</ele>
        <time>2014-10-08T13:09:09.000Z</time>
      </trkpt>
      <trkpt lat="43.44761" lon="3.48419">
        <ele>132</ele>
        <time>2014-10-08T13:09:11.000Z</time>
      </trkpt>
      <trkpt lat="43.4476" lon="3.4841">
        <ele>133</ele>
        <time>2014-10-08T13:09:13.000Z</time>
      </trkpt>
      <trkpt lat="43.44759" lon="3.48402">
        <ele>133</ele>
        <time>2014-10-08T13:09:15.000Z</time>
      </trkpt>
      <trkpt lat="43.44757" lon="3.48394">
        <ele>133</ele>
        <time>2014-10-08T13:09:17.000Z</time>
      </trkpt>
      <trkpt lat="43.44756" lon="3.48385">
        <ele>134</ele>
        <time>2014-10-08T13:09:19.000Z</time>
      </trkpt>
      <trkpt lat="43.44755" lon="3.48376">
        <ele>133</ele>
        <time>2014-10-08T13:09:21.000Z</time>
      </trkpt>
      <trkpt lat="43.44754" lon="3.48365">
        <ele>133</ele>
        <time>2014-10-08T13:09:23.000Z</time>
      </trkpt>
      <trkpt lat="43.44753" lon="3.48354">
        <ele>133</ele>
        <time>2014-10-08T13:09:25.000Z</time>
      </trkpt>
      <trkpt lat="43.44751" lon="3.48344">
        <ele>133</ele>
        <time>2014-10-08T13:09:27.000Z</time>
      </trkpt>
      <trkpt lat="43.4475" lon="3.48333">
        <ele>132</ele>
        <time>2014-10-08T13:09:29.000Z</time>
      </trkpt>
      <trkpt lat="43.4475" lon="3.48323">
        <ele>134</ele>
        <time>2014-10-08T13:09:31.000Z</time>
      </trkpt>
      <trkpt lat="43.44749" lon="3.48312">
        <ele>135</ele>
        <time>2014-10-08T13:09:33.000Z</time>
      </trkpt>
      <trkpt lat="43.44746" lon="3.48301">
        <ele>134</ele>
        <time>2014-10-08T13:09:35.000Z</time>
      </trkpt>
      <trkpt lat="43.44744" lon="3.4829">
        <ele>134</ele>
        <time>2014-10-08T13:09:37.000Z</time>
      </trkpt>
      <trkpt lat="43.44744" lon="3.48279">
        <ele>135</ele>
        <time>2014-10-08T13:09:39.000Z</time>
      </trkpt>
      <trkpt lat="43.44742" lon="3.48269">
        <ele>134</ele>
        <time>2014-10-08T13:09:41.000Z</time>
      </trkpt>
      <trkpt lat="43.44741" lon="3.48258">
        <ele>135</ele>
        <time>2014-10-08T13:09:43.000Z</time>
      </trkpt>
      <trkpt lat="43.44741" lon="3.48247">
        <ele>137</ele>
        <time>2014-10-08T13:09:45.000Z</time>
      </trkpt>
      <trkpt lat="43.44743" lon="3.48236">
        <ele>138</ele>
        <time>2014-10-08T13:09:47.000Z</time>
      </trkpt>
      <trkpt lat="43.44746" lon="3.48226">
        <ele>137</ele>
        <time>2014-10-08T13:09:49.000Z</time>
      </trkpt>
      <trkpt lat="43.44749" lon="3.48217">
        <ele>138</ele>
        <time>2014-10-08T13:09:51.000Z</time>
      </trkpt>
      <trkpt lat="43.44753" lon="3.48209">
        <ele>137</ele>
        <time>2014-10-08T13:09:53.000Z</time>
      </trkpt>
      <trkpt lat="43.44758" lon="3.48203">
        <ele>136</ele>
        <time>2014-10-08T13:09:55.000Z</time>
      </trkpt>
      <trkpt lat="43.44763" lon="3.48197">
        <ele>137</ele>
        <time>2014-10-08T13:09:57.000Z</time>
      </trkpt>
      <trkpt lat="43.44769" lon="3.48194">
        <ele>138</ele>
        <time>2014-10-08T13:09:59.000Z</time>
      </trkpt>
      <trkpt lat="43.44773" lon="3.4819">
        <ele>138</ele>
        <time>2014-10-08T13:10:01.000Z</time>
      </trkpt>
      <trkpt lat="43.44773" lon="3.4819">
        <ele>138</ele>
        <time>2014-10-08T13:10:03.000Z</time>
      </trkpt>
      <trkpt lat="43.44778" lon="3.48182">
        <ele>138</ele>
        <time>2014-10-08T13:10:05.000Z</time>
      </trkpt>
      <trkpt lat="43.44778" lon="3.48182">
        <ele>138</ele>
        <time>2014-10-08T13:10:07.000Z</time>
      </trkpt>
      <trkpt lat="43.44784" lon="3.48172">
        <ele>138</ele>
        <time>2014-10-08T13:10:09.000Z</time>
      </trkpt>
      <trkpt lat="43.44784" lon="3.48172">
        <ele>138</ele>
        <time>2014-10-08T13:10:11.000Z</time>
      </trkpt>
      <trkpt lat="43.44791" lon="3.48161">
        <ele>139</ele>
        <time>2014-10-08T13:10:13.000Z</time>
      </trkpt>
      <trkpt lat="43.44794" lon="3.48154">
        <ele>141</ele>
        <time>2014-10-08T13:10:15.000Z</time>
      </trkpt>
      <trkpt lat="43.44795" lon="3.48139">
        <ele>142</ele>
        <time>2014-10-08T13:10:19.000Z</time>
      </trkpt>
      <trkpt lat="43.44792" lon="3.4813">
        <ele>141</ele>
        <time>2014-10-08T13:10:21.000Z</time>
      </trkpt>
      <trkpt lat="43.4479" lon="3.48122">
        <ele>142</ele>
        <time>2014-10-08T13:10:23.000Z</time>
      </trkpt>
      <trkpt lat="43.44788" lon="3.48113">
        <ele>142</ele>
        <time>2014-10-08T13:10:25.000Z</time>
      </trkpt>
      <trkpt lat="43.44788" lon="3.48105">
        <ele>143</ele>
        <time>2014-10-08T13:10:27.000Z</time>
      </trkpt>
      <trkpt lat="43.44788" lon="3.48105">
        <ele>143</ele>
        <time>2014-10-08T13:10:29.000Z</time>
      </trkpt>
      <trkpt lat="43.44789" lon="3.48096">
        <ele>144</ele>
        <time>2014-10-08T13:10:31.000Z</time>
      </trkpt>
      <trkpt lat="43.44789" lon="3.48096">
        <ele>144</ele>
        <time>2014-10-08T13:10:33.000Z</time>
      </trkpt>
      <trkpt lat="43.44794" lon="3.4809">
        <ele>144</ele>
        <time>2014-10-08T13:10:35.000Z</time>
      </trkpt>
      <trkpt lat="43.44794" lon="3.4809">
        <ele>144</ele>
        <time>2014-10-08T13:10:37.000Z</time>
      </trkpt>
      <trkpt lat="43.44799" lon="3.48081">
        <ele>145</ele>
        <time>2014-10-08T13:10:39.000Z</time>
      </trkpt>
      <trkpt lat="43.44805" lon="3.48076">
        <ele>144</ele>
        <time>2014-10-08T13:10:43.000Z</time>
      </trkpt>
      <trkpt lat="43.44805" lon="3.48076">
        <ele>144</ele>
        <time>2014-10-08T13:10:45.000Z</time>
      </trkpt>
      <trkpt lat="43.44808" lon="3.48068">
        <ele>146</ele>
        <time>2014-10-08T13:10:47.000Z</time>
      </trkpt>
      <trkpt lat="43.44809" lon="3.48059">
        <ele>148</ele>
        <time>2014-10-08T13:10:51.000Z</time>
      </trkpt>
      <trkpt lat="43.44809" lon="3.48047">
        <ele>148</ele>
        <time>2014-10-08T13:10:55.000Z</time>
      </trkpt>
      <trkpt lat="43.44808" lon="3.48033">
        <ele>149</ele>
        <time>2014-10-08T13:10:59.000Z</time>
      </trkpt>
      <trkpt lat="43.44808" lon="3.4802">
        <ele>151</ele>
        <time>2014-10-08T13:11:03.000Z</time>
      </trkpt>
      <trkpt lat="43.44808" lon="3.4802">
        <ele>151</ele>
        <time>2014-10-08T13:11:05.000Z</time>
      </trkpt>
      <trkpt lat="43.4481" lon="3.48012">
        <ele>148</ele>
        <time>2014-10-08T13:11:07.000Z</time>
      </trkpt>
      <trkpt lat="43.44814" lon="3.48001">
        <ele>149</ele>
        <time>2014-10-08T13:11:11.000Z</time>
      </trkpt>
      <trkpt lat="43.44818" lon="3.47992">
        <ele>151</ele>
        <time>2014-10-08T13:11:15.000Z</time>
      </trkpt>
      <trkpt lat="43.44818" lon="3.47992">
        <ele>151</ele>
        <time>2014-10-08T13:11:17.000Z</time>
      </trkpt>
      <trkpt lat="43.44819" lon="3.47982">
        <ele>153</ele>
        <time>2014-10-08T13:11:19.000Z</time>
      </trkpt>
      <trkpt lat="43.44819" lon="3.47982">
        <ele>153</ele>
        <time>2014-10-08T13:11:21.000Z</time>
      </trkpt>
      <trkpt lat="43.44821" lon="3.47974">
        <ele>152</ele>
        <time>2014-10-08T13:11:23.000Z</time>
      </trkpt>
      <trkpt lat="43.44821" lon="3.47974">
        <ele>152</ele>
        <time>2014-10-08T13:11:25.000Z</time>
      </trkpt>
      <trkpt lat="43.44821" lon="3.47974">
        <ele>152</ele>
        <time>2014-10-08T13:11:27.000Z</time>
      </trkpt>
      <trkpt lat="43.44828" lon="3.47969">
        <ele>153</ele>
        <time>2014-10-08T13:11:29.000Z</time>
      </trkpt>
      <trkpt lat="43.44832" lon="3.47968">
        <ele>153</ele>
        <time>2014-10-08T13:11:33.000Z</time>
      </trkpt>
      <trkpt lat="43.44837" lon="3.47968">
        <ele>151</ele>
        <time>2014-10-08T13:11:35.000Z</time>
      </trkpt>
      <trkpt lat="43.44842" lon="3.47969">
        <ele>152</ele>
        <time>2014-10-08T13:11:37.000Z</time>
      </trkpt>
      <trkpt lat="43.44847" lon="3.47969">
        <ele>154</ele>
        <time>2014-10-08T13:11:39.000Z</time>
      </trkpt>
      <trkpt lat="43.44852" lon="3.47968">
        <ele>153</ele>
        <time>2014-10-08T13:11:41.000Z</time>
      </trkpt>
      <trkpt lat="43.44861" lon="3.47963">
        <ele>153</ele>
        <time>2014-10-08T13:11:43.000Z</time>
      </trkpt>
      <trkpt lat="43.44864" lon="3.47956">
        <ele>154</ele>
        <time>2014-10-08T13:11:45.000Z</time>
      </trkpt>
      <trkpt lat="43.44864" lon="3.47956">
        <ele>154</ele>
        <time>2014-10-08T13:11:47.000Z</time>
      </trkpt>
      <trkpt lat="43.44868" lon="3.47944">
        <ele>156</ele>
        <time>2014-10-08T13:11:49.000Z</time>
      </trkpt>
      <trkpt lat="43.44868" lon="3.47944">
        <ele>156</ele>
        <time>2014-10-08T13:11:51.000Z</time>
      </trkpt>
      <trkpt lat="43.44875" lon="3.47942">
        <ele>157</ele>
        <time>2014-10-08T13:11:53.000Z</time>
      </trkpt>
      <trkpt lat="43.44875" lon="3.47942">
        <ele>157</ele>
        <time>2014-10-08T13:11:55.000Z</time>
      </trkpt>
      <trkpt lat="43.44885" lon="3.47945">
        <ele>157</ele>
        <time>2014-10-08T13:11:57.000Z</time>
      </trkpt>
      <trkpt lat="43.44885" lon="3.47945">
        <ele>157</ele>
        <time>2014-10-08T13:11:59.000Z</time>
      </trkpt>
      <trkpt lat="43.44893" lon="3.4795">
        <ele>153</ele>
        <time>2014-10-08T13:12:01.000Z</time>
      </trkpt>
      <trkpt lat="43.44893" lon="3.4795">
        <ele>153</ele>
        <time>2014-10-08T13:12:03.000Z</time>
      </trkpt>
      <trkpt lat="43.44901" lon="3.47951">
        <ele>154</ele>
        <time>2014-10-08T13:12:05.000Z</time>
      </trkpt>
      <trkpt lat="43.44901" lon="3.47951">
        <ele>154</ele>
        <time>2014-10-08T13:12:07.000Z</time>
      </trkpt>
      <trkpt lat="43.44906" lon="3.47942">
        <ele>158</ele>
        <time>2014-10-08T13:12:09.000Z</time>
      </trkpt>
      <trkpt lat="43.44915" lon="3.47934">
        <ele>159</ele>
        <time>2014-10-08T13:12:13.000Z</time>
      </trkpt>
      <trkpt lat="43.4492" lon="3.47926">
        <ele>160</ele>
        <time>2014-10-08T13:12:15.000Z</time>
      </trkpt>
      <trkpt lat="43.44926" lon="3.47921">
        <ele>159</ele>
        <time>2014-10-08T13:12:17.000Z</time>
      </trkpt>
      <trkpt lat="43.44933" lon="3.47917">
        <ele>158</ele>
        <time>2014-10-08T13:12:19.000Z</time>
      </trkpt>
      <trkpt lat="43.44942" lon="3.47913">
        <ele>156</ele>
        <time>2014-10-08T13:12:21.000Z</time>
      </trkpt>
      <trkpt lat="43.4495" lon="3.47911">
        <ele>155</ele>
        <time>2014-10-08T13:12:23.000Z</time>
      </trkpt>
      <trkpt lat="43.44958" lon="3.47909">
        <ele>157</ele>
        <time>2014-10-08T13:12:25.000Z</time>
      </trkpt>
      <trkpt lat="43.44964" lon="3.47906">
        <ele>159</ele>
        <time>2014-10-08T13:12:27.000Z</time>
      </trkpt>
      <trkpt lat="43.44964" lon="3.47906">
        <ele>159</ele>
        <time>2014-10-08T13:12:29.000Z</time>
      </trkpt>
      <trkpt lat="43.44971" lon="3.47901">
        <ele>160</ele>
        <time>2014-10-08T13:12:31.000Z</time>
      </trkpt>
      <trkpt lat="43.44971" lon="3.47901">
        <ele>160</ele>
        <time>2014-10-08T13:12:33.000Z</time>
      </trkpt>
      <trkpt lat="43.44979" lon="3.47897">
        <ele>162</ele>
        <time>2014-10-08T13:12:35.000Z</time>
      </trkpt>
      <trkpt lat="43.44979" lon="3.47897">
        <ele>162</ele>
        <time>2014-10-08T13:12:37.000Z</time>
      </trkpt>
      <trkpt lat="43.44985" lon="3.47895">
        <ele>163</ele>
        <time>2014-10-08T13:12:39.000Z</time>
      </trkpt>
      <trkpt lat="43.44985" lon="3.47895">
        <ele>163</ele>
        <time>2014-10-08T13:12:41.000Z</time>
      </trkpt>
      <trkpt lat="43.4499" lon="3.47887">
        <ele>163</ele>
        <time>2014-10-08T13:12:43.000Z</time>
      </trkpt>
      <trkpt lat="43.44991" lon="3.47878">
        <ele>163</ele>
        <time>2014-10-08T13:12:47.000Z</time>
      </trkpt>
      <trkpt lat="43.44991" lon="3.47878">
        <ele>163</ele>
        <time>2014-10-08T13:12:49.000Z</time>
      </trkpt>
      <trkpt lat="43.44991" lon="3.47878">
        <ele>163</ele>
        <time>2014-10-08T13:12:53.000Z</time>
      </trkpt>
      <trkpt lat="43.44991" lon="3.47878">
        <ele>163</ele>
        <time>2014-10-08T13:12:55.000Z</time>
      </trkpt>
      <trkpt lat="43.44997" lon="3.47877">
        <ele>162</ele>
        <time>2014-10-08T13:13:41.000Z</time>
      </trkpt>
      <trkpt lat="43.45002" lon="3.47877">
        <ele>160</ele>
        <time>2014-10-08T13:13:43.000Z</time>
      </trkpt>
      <trkpt lat="43.45007" lon="3.47879">
        <ele>161</ele>
        <time>2014-10-08T13:13:45.000Z</time>
      </trkpt>
      <trkpt lat="43.45012" lon="3.47881">
        <ele>158</ele>
        <time>2014-10-08T13:13:47.000Z</time>
      </trkpt>
      <trkpt lat="43.45018" lon="3.47884">
        <ele>160</ele>
        <time>2014-10-08T13:13:49.000Z</time>
      </trkpt>
      <trkpt lat="43.45029" lon="3.47889">
        <ele>159</ele>
        <time>2014-10-08T13:13:51.000Z</time>
      </trkpt>
      <trkpt lat="43.45037" lon="3.47894">
        <ele>157</ele>
        <time>2014-10-08T13:13:53.000Z</time>
      </trkpt>
      <trkpt lat="43.45045" lon="3.479">
        <ele>156</ele>
        <time>2014-10-08T13:13:55.000Z</time>
      </trkpt>
      <trkpt lat="43.45055" lon="3.47909">
        <ele>157</ele>
        <time>2014-10-08T13:13:57.000Z</time>
      </trkpt>
      <trkpt lat="43.45065" lon="3.47913">
        <ele>157</ele>
        <time>2014-10-08T13:13:59.000Z</time>
      </trkpt>
      <trkpt lat="43.45073" lon="3.47916">
        <ele>157</ele>
        <time>2014-10-08T13:14:01.000Z</time>
      </trkpt>
      <trkpt lat="43.45081" lon="3.47924">
        <ele>158</ele>
        <time>2014-10-08T13:14:03.000Z</time>
      </trkpt>
      <trkpt lat="43.4509" lon="3.47924">
        <ele>156</ele>
        <time>2014-10-08T13:14:05.000Z</time>
      </trkpt>
      <trkpt lat="43.451" lon="3.47927">
        <ele>157</ele>
        <time>2014-10-08T13:14:07.000Z</time>
      </trkpt>
      <trkpt lat="43.45108" lon="3.47926">
        <ele>159</ele>
        <time>2014-10-08T13:14:09.000Z</time>
      </trkpt>
      <trkpt lat="43.45115" lon="3.4793">
        <ele>159</ele>
        <time>2014-10-08T13:14:11.000Z</time>
      </trkpt>
      <trkpt lat="43.45123" lon="3.47935">
        <ele>159</ele>
        <time>2014-10-08T13:14:13.000Z</time>
      </trkpt>
      <trkpt lat="43.45132" lon="3.47941">
        <ele>160</ele>
        <time>2014-10-08T13:14:15.000Z</time>
      </trkpt>
      <trkpt lat="43.45141" lon="3.47948">
        <ele>160</ele>
        <time>2014-10-08T13:14:17.000Z</time>
      </trkpt>
      <trkpt lat="43.45145" lon="3.47956">
        <ele>162</ele>
        <time>2014-10-08T13:14:19.000Z</time>
      </trkpt>
      <trkpt lat="43.45153" lon="3.47961">
        <ele>162</ele>
        <time>2014-10-08T13:14:21.000Z</time>
      </trkpt>
      <trkpt lat="43.45163" lon="3.47968">
        <ele>162</ele>
        <time>2014-10-08T13:14:23.000Z</time>
      </trkpt>
      <trkpt lat="43.45173" lon="3.47972">
        <ele>161</ele>
        <time>2014-10-08T13:14:25.000Z</time>
      </trkpt>
      <trkpt lat="43.45181" lon="3.4798">
        <ele>162</ele>
        <time>2014-10-08T13:14:27.000Z</time>
      </trkpt>
      <trkpt lat="43.45189" lon="3.47989">
        <ele>162</ele>
        <time>2014-10-08T13:14:29.000Z</time>
      </trkpt>
      <trkpt lat="43.45196" lon="3.47998">
        <ele>162</ele>
        <time>2014-10-08T13:14:31.000Z</time>
      </trkpt>
      <trkpt lat="43.45205" lon="3.48001">
        <ele>161</ele>
        <time>2014-10-08T13:14:33.000Z</time>
      </trkpt>
      <trkpt lat="43.45214" lon="3.48003">
        <ele>164</ele>
        <time>2014-10-08T13:14:35.000Z</time>
      </trkpt>
      <trkpt lat="43.45222" lon="3.47999">
        <ele>164</ele>
        <time>2014-10-08T13:14:37.000Z</time>
      </trkpt>
      <trkpt lat="43.45226" lon="3.47991">
        <ele>163</ele>
        <time>2014-10-08T13:14:39.000Z</time>
      </trkpt>
      <trkpt lat="43.45227" lon="3.47983">
        <ele>165</ele>
        <time>2014-10-08T13:14:41.000Z</time>
      </trkpt>
      <trkpt lat="43.45226" lon="3.47973">
        <ele>163</ele>
        <time>2014-10-08T13:14:43.000Z</time>
      </trkpt>
      <trkpt lat="43.45225" lon="3.47965">
        <ele>165</ele>
        <time>2014-10-08T13:14:45.000Z</time>
      </trkpt>
      <trkpt lat="43.45227" lon="3.47956">
        <ele>167</ele>
        <time>2014-10-08T13:14:47.000Z</time>
      </trkpt>
      <trkpt lat="43.45232" lon="3.4795">
        <ele>165</ele>
        <time>2014-10-08T13:14:49.000Z</time>
      </trkpt>
      <trkpt lat="43.45238" lon="3.47946">
        <ele>163</ele>
        <time>2014-10-08T13:14:51.000Z</time>
      </trkpt>
      <trkpt lat="43.45245" lon="3.47942">
        <ele>164</ele>
        <time>2014-10-08T13:14:53.000Z</time>
      </trkpt>
      <trkpt lat="43.4525" lon="3.47934">
        <ele>164</ele>
        <time>2014-10-08T13:14:55.000Z</time>
      </trkpt>
      <trkpt lat="43.45254" lon="3.47924">
        <ele>162</ele>
        <time>2014-10-08T13:14:57.000Z</time>
      </trkpt>
      <trkpt lat="43.45255" lon="3.47913">
        <ele>160</ele>
        <time>2014-10-08T13:14:59.000Z</time>
      </trkpt>
      <trkpt lat="43.45258" lon="3.479">
        <ele>162</ele>
        <time>2014-10-08T13:15:01.000Z</time>
      </trkpt>
      <trkpt lat="43.45263" lon="3.47889">
        <ele>161</ele>
        <time>2014-10-08T13:15:03.000Z</time>
      </trkpt>
      <trkpt lat="43.45268" lon="3.47879">
        <ele>161</ele>
        <time>2014-10-08T13:15:05.000Z</time>
      </trkpt>
      <trkpt lat="43.45274" lon="3.47871">
        <ele>162</ele>
        <time>2014-10-08T13:15:07.000Z</time>
      </trkpt>
      <trkpt lat="43.45279" lon="3.47867">
        <ele>163</ele>
        <time>2014-10-08T13:15:09.000Z</time>
      </trkpt>
      <trkpt lat="43.45279" lon="3.47867">
        <ele>163</ele>
        <time>2014-10-08T13:15:11.000Z</time>
      </trkpt>
      <trkpt lat="43.45285" lon="3.47869">
        <ele>163</ele>
        <time>2014-10-08T13:15:13.000Z</time>
      </trkpt>
      <trkpt lat="43.45285" lon="3.47869">
        <ele>163</ele>
        <time>2014-10-08T13:15:15.000Z</time>
      </trkpt>
      <trkpt lat="43.45288" lon="3.47862">
        <ele>162</ele>
        <time>2014-10-08T13:15:17.000Z</time>
      </trkpt>
      <trkpt lat="43.45288" lon="3.47862">
        <ele>162</ele>
        <time>2014-10-08T13:15:19.000Z</time>
      </trkpt>
      <trkpt lat="43.45292" lon="3.47854">
        <ele>160</ele>
        <time>2014-10-08T13:15:21.000Z</time>
      </trkpt>
      <trkpt lat="43.45293" lon="3.47845">
        <ele>160</ele>
        <time>2014-10-08T13:15:23.000Z</time>
      </trkpt>
      <trkpt lat="43.45292" lon="3.47836">
        <ele>160</ele>
        <time>2014-10-08T13:15:25.000Z</time>
      </trkpt>
      <trkpt lat="43.45294" lon="3.47827">
        <ele>160</ele>
        <time>2014-10-08T13:15:27.000Z</time>
      </trkpt>
      <trkpt lat="43.45299" lon="3.47819">
        <ele>160</ele>
        <time>2014-10-08T13:15:29.000Z</time>
      </trkpt>
      <trkpt lat="43.45303" lon="3.47811">
        <ele>162</ele>
        <time>2014-10-08T13:15:31.000Z</time>
      </trkpt>
      <trkpt lat="43.45304" lon="3.47802">
        <ele>160</ele>
        <time>2014-10-08T13:15:33.000Z</time>
      </trkpt>
      <trkpt lat="43.45304" lon="3.47802">
        <ele>160</ele>
        <time>2014-10-08T13:15:35.000Z</time>
      </trkpt>
      <trkpt lat="43.45309" lon="3.47784">
        <ele>160</ele>
        <time>2014-10-08T13:15:37.000Z</time>
      </trkpt>
      <trkpt lat="43.45313" lon="3.47772">
        <ele>160</ele>
        <time>2014-10-08T13:15:39.000Z</time>
      </trkpt>
      <trkpt lat="43.45316" lon="3.47759">
        <ele>161</ele>
        <time>2014-10-08T13:15:41.000Z</time>
      </trkpt>
      <trkpt lat="43.45315" lon="3.47746">
        <ele>160</ele>
        <time>2014-10-08T13:15:43.000Z</time>
      </trkpt>
      <trkpt lat="43.45313" lon="3.47734">
        <ele>161</ele>
        <time>2014-10-08T13:15:45.000Z</time>
      </trkpt>
      <trkpt lat="43.45313" lon="3.47721">
        <ele>162</ele>
        <time>2014-10-08T13:15:47.000Z</time>
      </trkpt>
      <trkpt lat="43.45312" lon="3.47709">
        <ele>162</ele>
        <time>2014-10-08T13:15:49.000Z</time>
      </trkpt>
      <trkpt lat="43.45312" lon="3.47709">
        <ele>162</ele>
        <time>2014-10-08T13:15:51.000Z</time>
      </trkpt>
      <trkpt lat="43.45308" lon="3.47698">
        <ele>165</ele>
        <time>2014-10-08T13:15:53.000Z</time>
      </trkpt>
      <trkpt lat="43.45308" lon="3.47698">
        <ele>165</ele>
        <time>2014-10-08T13:15:55.000Z</time>
      </trkpt>
      <trkpt lat="43.45304" lon="3.47689">
        <ele>166</ele>
        <time>2014-10-08T13:15:57.000Z</time>
      </trkpt>
      <trkpt lat="43.45304" lon="3.47689">
        <ele>166</ele>
        <time>2014-10-08T13:15:59.000Z</time>
      </trkpt>
      <trkpt lat="43.45299" lon="3.4768">
        <ele>168</ele>
        <time>2014-10-08T13:16:01.000Z</time>
      </trkpt>
      <trkpt lat="43.45299" lon="3.4768">
        <ele>168</ele>
        <time>2014-10-08T13:16:03.000Z</time>
      </trkpt>
      <trkpt lat="43.45295" lon="3.47668">
        <ele>172</ele>
        <time>2014-10-08T13:16:05.000Z</time>
      </trkpt>
      <trkpt lat="43.45297" lon="3.4766">
        <ele>169</ele>
        <time>2014-10-08T13:16:09.000Z</time>
      </trkpt>
      <trkpt lat="43.45297" lon="3.4766">
        <ele>169</ele>
        <time>2014-10-08T13:16:11.000Z</time>
      </trkpt>
      <trkpt lat="43.45297" lon="3.4766">
        <ele>169</ele>
        <time>2014-10-08T13:16:13.000Z</time>
      </trkpt>
      <trkpt lat="43.45299" lon="3.47645">
        <ele>165</ele>
        <time>2014-10-08T13:16:15.000Z</time>
      </trkpt>
      <trkpt lat="43.45299" lon="3.47636">
        <ele>165</ele>
        <time>2014-10-08T13:16:17.000Z</time>
      </trkpt>
      <trkpt lat="43.45301" lon="3.47627">
        <ele>165</ele>
        <time>2014-10-08T13:16:19.000Z</time>
      </trkpt>
      <trkpt lat="43.45308" lon="3.47618">
        <ele>163</ele>
        <time>2014-10-08T13:16:23.000Z</time>
      </trkpt>
      <trkpt lat="43.45308" lon="3.47618">
        <ele>163</ele>
        <time>2014-10-08T13:16:25.000Z</time>
      </trkpt>
      <trkpt lat="43.45312" lon="3.47611">
        <ele>162</ele>
        <time>2014-10-08T13:16:27.000Z</time>
      </trkpt>
      <trkpt lat="43.45312" lon="3.47611">
        <ele>162</ele>
        <time>2014-10-08T13:16:29.000Z</time>
      </trkpt>
      <trkpt lat="43.45311" lon="3.47602">
        <ele>157</ele>
        <time>2014-10-08T13:16:31.000Z</time>
      </trkpt>
      <trkpt lat="43.45311" lon="3.47602">
        <ele>157</ele>
        <time>2014-10-08T13:16:33.000Z</time>
      </trkpt>
      <trkpt lat="43.45309" lon="3.47593">
        <ele>157</ele>
        <time>2014-10-08T13:16:35.000Z</time>
      </trkpt>
      <trkpt lat="43.45309" lon="3.47593">
        <ele>157</ele>
        <time>2014-10-08T13:16:37.000Z</time>
      </trkpt>
      <trkpt lat="43.45304" lon="3.47585">
        <ele>159</ele>
        <time>2014-10-08T13:16:39.000Z</time>
      </trkpt>
      <trkpt lat="43.45304" lon="3.47585">
        <ele>159</ele>
        <time>2014-10-08T13:16:41.000Z</time>
      </trkpt>
      <trkpt lat="43.453" lon="3.47574">
        <ele>157</ele>
        <time>2014-10-08T13:16:43.000Z</time>
      </trkpt>
      <trkpt lat="43.453" lon="3.47574">
        <ele>157</ele>
        <time>2014-10-08T13:16:45.000Z</time>
      </trkpt>
      <trkpt lat="43.45296" lon="3.47568">
        <ele>157</ele>
        <time>2014-10-08T13:16:47.000Z</time>
      </trkpt>
      <trkpt lat="43.45296" lon="3.47568">
        <ele>157</ele>
        <time>2014-10-08T13:16:49.000Z</time>
      </trkpt>
      <trkpt lat="43.45296" lon="3.47568">
        <ele>157</ele>
        <time>2014-10-08T13:16:51.000Z</time>
      </trkpt>
      <trkpt lat="43.45289" lon="3.47568">
        <ele>158</ele>
        <time>2014-10-08T13:16:53.000Z</time>
      </trkpt>
      <trkpt lat="43.45289" lon="3.47568">
        <ele>158</ele>
        <time>2014-10-08T13:16:55.000Z</time>
      </trkpt>
      <trkpt lat="43.45289" lon="3.47568">
        <ele>158</ele>
        <time>2014-10-08T13:16:57.000Z</time>
      </trkpt>
      <trkpt lat="43.45282" lon="3.47567">
        <ele>159</ele>
        <time>2014-10-08T13:16:59.000Z</time>
      </trkpt>
      <trkpt lat="43.45273" lon="3.4757">
        <ele>158</ele>
        <time>2014-10-08T13:17:03.000Z</time>
      </trkpt>
      <trkpt lat="43.45266" lon="3.47572">
        <ele>157</ele>
        <time>2014-10-08T13:17:07.000Z</time>
      </trkpt>
      <trkpt lat="43.45259" lon="3.47573">
        <ele>160</ele>
        <time>2014-10-08T13:17:11.000Z</time>
      </trkpt>
      <trkpt lat="43.45251" lon="3.47577">
        <ele>159</ele>
        <time>2014-10-08T13:17:15.000Z</time>
      </trkpt>
      <trkpt lat="43.45251" lon="3.47577">
        <ele>159</ele>
        <time>2014-10-08T13:17:19.000Z</time>
      </trkpt>
      <trkpt lat="43.45251" lon="3.47577">
        <ele>159</ele>
        <time>2014-10-08T13:17:21.000Z</time>
      </trkpt>
      <trkpt lat="43.45251" lon="3.47577">
        <ele>159</ele>
        <time>2014-10-08T13:17:23.000Z</time>
      </trkpt>
      <trkpt lat="43.45251" lon="3.47577">
        <ele>159</ele>
        <time>2014-10-08T13:17:25.000Z</time>
      </trkpt>
      <trkpt lat="43.45247" lon="3.47566">
        <ele>165</ele>
        <time>2014-10-08T13:17:51.000Z</time>
      </trkpt>
      <trkpt lat="43.45243" lon="3.47556">
        <ele>168</ele>
        <time>2014-10-08T13:17:53.000Z</time>
      </trkpt>
      <trkpt lat="43.45241" lon="3.47547">
        <ele>169</ele>
        <time>2014-10-08T13:17:55.000Z</time>
      </trkpt>
      <trkpt lat="43.45238" lon="3.47538">
        <ele>168</ele>
        <time>2014-10-08T13:17:57.000Z</time>
      </trkpt>
      <trkpt lat="43.45235" lon="3.47529">
        <ele>166</ele>
        <time>2014-10-08T13:17:59.000Z</time>
      </trkpt>
      <trkpt lat="43.45229" lon="3.47511">
        <ele>165</ele>
        <time>2014-10-08T13:18:01.000Z</time>
      </trkpt>
      <trkpt lat="43.45226" lon="3.47504">
        <ele>163</ele>
        <time>2014-10-08T13:18:03.000Z</time>
      </trkpt>
      <trkpt lat="43.45222" lon="3.47496">
        <ele>164</ele>
        <time>2014-10-08T13:18:05.000Z</time>
      </trkpt>
      <trkpt lat="43.45215" lon="3.47484">
        <ele>166</ele>
        <time>2014-10-08T13:18:09.000Z</time>
      </trkpt>
      <trkpt lat="43.45215" lon="3.47484">
        <ele>166</ele>
        <time>2014-10-08T13:18:11.000Z</time>
      </trkpt>
      <trkpt lat="43.45206" lon="3.47476">
        <ele>164</ele>
        <time>2014-10-08T13:18:13.000Z</time>
      </trkpt>
      <trkpt lat="43.45206" lon="3.47476">
        <ele>164</ele>
        <time>2014-10-08T13:18:15.000Z</time>
      </trkpt>
      <trkpt lat="43.45197" lon="3.4747">
        <ele>169</ele>
        <time>2014-10-08T13:18:17.000Z</time>
      </trkpt>
      <trkpt lat="43.45197" lon="3.4747">
        <ele>169</ele>
        <time>2014-10-08T13:18:19.000Z</time>
      </trkpt>
      <trkpt lat="43.45191" lon="3.47462">
        <ele>170</ele>
        <time>2014-10-08T13:18:21.000Z</time>
      </trkpt>
      <trkpt lat="43.45191" lon="3.47462">
        <ele>170</ele>
        <time>2014-10-08T13:18:23.000Z</time>
      </trkpt>
      <trkpt lat="43.45184" lon="3.47454">
        <ele>169</ele>
        <time>2014-10-08T13:18:25.000Z</time>
      </trkpt>
      <trkpt lat="43.45184" lon="3.47454">
        <ele>169</ele>
        <time>2014-10-08T13:18:27.000Z</time>
      </trkpt>
      <trkpt lat="43.45175" lon="3.47446">
        <ele>170</ele>
        <time>2014-10-08T13:18:29.000Z</time>
      </trkpt>
      <trkpt lat="43.45171" lon="3.47438">
        <ele>169</ele>
        <time>2014-10-08T13:18:33.000Z</time>
      </trkpt>
      <trkpt lat="43.45171" lon="3.47438">
        <ele>169</ele>
        <time>2014-10-08T13:18:35.000Z</time>
      </trkpt>
      <trkpt lat="43.45166" lon="3.47427">
        <ele>170</ele>
        <time>2014-10-08T13:18:37.000Z</time>
      </trkpt>
      <trkpt lat="43.45164" lon="3.47419">
        <ele>173</ele>
        <time>2014-10-08T13:18:39.000Z</time>
      </trkpt>
      <trkpt lat="43.45159" lon="3.47405">
        <ele>173</ele>
        <time>2014-10-08T13:18:43.000Z</time>
      </trkpt>
      <trkpt lat="43.45155" lon="3.47398">
        <ele>174</ele>
        <time>2014-10-08T13:18:45.000Z</time>
      </trkpt>
      <trkpt lat="43.4515" lon="3.47393">
        <ele>174</ele>
        <time>2014-10-08T13:18:47.000Z</time>
      </trkpt>
      <trkpt lat="43.45145" lon="3.47387">
        <ele>174</ele>
        <time>2014-10-08T13:18:49.000Z</time>
      </trkpt>
      <trkpt lat="43.4514" lon="3.47381">
        <ele>173</ele>
        <time>2014-10-08T13:18:51.000Z</time>
      </trkpt>
      <trkpt lat="43.45135" lon="3.47374">
        <ele>174</ele>
        <time>2014-10-08T13:18:53.000Z</time>
      </trkpt>
      <trkpt lat="43.4513" lon="3.47366">
        <ele>173</ele>
        <time>2014-10-08T13:18:55.000Z</time>
      </trkpt>
      <trkpt lat="43.4513" lon="3.47366">
        <ele>173</ele>
        <time>2014-10-08T13:18:57.000Z</time>
      </trkpt>
      <trkpt lat="43.45127" lon="3.47357">
        <ele>172</ele>
        <time>2014-10-08T13:18:59.000Z</time>
      </trkpt>
      <trkpt lat="43.45127" lon="3.47357">
        <ele>172</ele>
        <time>2014-10-08T13:19:01.000Z</time>
      </trkpt>
      <trkpt lat="43.45127" lon="3.47357">
        <ele>172</ele>
        <time>2014-10-08T13:19:03.000Z</time>
      </trkpt>
      <trkpt lat="43.4512" lon="3.4736">
        <ele>171</ele>
        <time>2014-10-08T13:19:05.000Z</time>
      </trkpt>
      <trkpt lat="43.4512" lon="3.4736">
        <ele>171</ele>
        <time>2014-10-08T13:19:07.000Z</time>
      </trkpt>
      <trkpt lat="43.4512" lon="3.4736">
        <ele>171</ele>
        <time>2014-10-08T13:19:09.000Z</time>
      </trkpt>
      <trkpt lat="43.4512" lon="3.4736">
        <ele>171</ele>
        <time>2014-10-08T13:19:11.000Z</time>
      </trkpt>
      <trkpt lat="43.45118" lon="3.4735">
        <ele>170</ele>
        <time>2014-10-08T13:19:31.000Z</time>
      </trkpt>
      <trkpt lat="43.45118" lon="3.4734">
        <ele>171</ele>
        <time>2014-10-08T13:19:35.000Z</time>
      </trkpt>
      <trkpt lat="43.45118" lon="3.47319">
        <ele>169</ele>
        <time>2014-10-08T13:19:38.000Z</time>
      </trkpt>
      <trkpt lat="43.45121" lon="3.47307">
        <ele>167</ele>
        <time>2014-10-08T13:19:40.000Z</time>
      </trkpt>
      <trkpt lat="43.45135" lon="3.47285">
        <ele>161</ele>
        <time>2014-10-08T13:19:43.000Z</time>
      </trkpt>
      <trkpt lat="43.45142" lon="3.47273">
        <ele>160</ele>
        <time>2014-10-08T13:19:45.000Z</time>
      </trkpt>
      <trkpt lat="43.45152" lon="3.47261">
        <ele>158</ele>
        <time>2014-10-08T13:19:47.000Z</time>
      </trkpt>
      <trkpt lat="43.45161" lon="3.47255">
        <ele>158</ele>
        <time>2014-10-08T13:19:49.000Z</time>
      </trkpt>
      <trkpt lat="43.45169" lon="3.47246">
        <ele>158</ele>
        <time>2014-10-08T13:19:51.000Z</time>
      </trkpt>
      <trkpt lat="43.45175" lon="3.47232">
        <ele>158</ele>
        <time>2014-10-08T13:19:53.000Z</time>
      </trkpt>
      <trkpt lat="43.45181" lon="3.47223">
        <ele>159</ele>
        <time>2014-10-08T13:19:55.000Z</time>
      </trkpt>
      <trkpt lat="43.45189" lon="3.4721">
        <ele>159</ele>
        <time>2014-10-08T13:19:57.000Z</time>
      </trkpt>
      <trkpt lat="43.45198" lon="3.47193">
        <ele>156</ele>
        <time>2014-10-08T13:19:59.000Z</time>
      </trkpt>
      <trkpt lat="43.4521" lon="3.47183">
        <ele>156</ele>
        <time>2014-10-08T13:20:01.000Z</time>
      </trkpt>
      <trkpt lat="43.4522" lon="3.47171">
        <ele>155</ele>
        <time>2014-10-08T13:20:03.000Z</time>
      </trkpt>
      <trkpt lat="43.45231" lon="3.47163">
        <ele>156</ele>
        <time>2014-10-08T13:20:05.000Z</time>
      </trkpt>
      <trkpt lat="43.45243" lon="3.4715">
        <ele>152</ele>
        <time>2014-10-08T13:20:07.000Z</time>
      </trkpt>
      <trkpt lat="43.45253" lon="3.47139">
        <ele>148</ele>
        <time>2014-10-08T13:20:10.000Z</time>
      </trkpt>
      <trkpt lat="43.45253" lon="3.47139">
        <ele>148</ele>
        <time>2014-10-08T13:20:12.000Z</time>
      </trkpt>
      <trkpt lat="43.4526" lon="3.47135">
        <ele>151</ele>
        <time>2014-10-08T13:20:14.000Z</time>
      </trkpt>
      <trkpt lat="43.4526" lon="3.47135">
        <ele>151</ele>
        <time>2014-10-08T13:20:16.000Z</time>
      </trkpt>
      <trkpt lat="43.45256" lon="3.47127">
        <ele>151</ele>
        <time>2014-10-08T13:20:18.000Z</time>
      </trkpt>
      <trkpt lat="43.45256" lon="3.47127">
        <ele>151</ele>
        <time>2014-10-08T13:20:20.000Z</time>
      </trkpt>
      <trkpt lat="43.45245" lon="3.47115">
        <ele>153</ele>
        <time>2014-10-08T13:20:22.000Z</time>
      </trkpt>
      <trkpt lat="43.45238" lon="3.47107">
        <ele>154</ele>
        <time>2014-10-08T13:20:24.000Z</time>
      </trkpt>
      <trkpt lat="43.45233" lon="3.47098">
        <ele>155</ele>
        <time>2014-10-08T13:20:26.000Z</time>
      </trkpt>
      <trkpt lat="43.45227" lon="3.47088">
        <ele>155</ele>
        <time>2014-10-08T13:20:28.000Z</time>
      </trkpt>
      <trkpt lat="43.4522" lon="3.47082">
        <ele>155</ele>
        <time>2014-10-08T13:20:30.000Z</time>
      </trkpt>
      <trkpt lat="43.45212" lon="3.47081">
        <ele>154</ele>
        <time>2014-10-08T13:20:32.000Z</time>
      </trkpt>
      <trkpt lat="43.45203" lon="3.47083">
        <ele>153</ele>
        <time>2014-10-08T13:20:34.000Z</time>
      </trkpt>
      <trkpt lat="43.45198" lon="3.47084">
        <ele>153</ele>
        <time>2014-10-08T13:20:36.000Z</time>
      </trkpt>
      <trkpt lat="43.45198" lon="3.47084">
        <ele>153</ele>
        <time>2014-10-08T13:20:38.000Z</time>
      </trkpt>
      <trkpt lat="43.45191" lon="3.47076">
        <ele>153</ele>
        <time>2014-10-08T13:20:40.000Z</time>
      </trkpt>
      <trkpt lat="43.45191" lon="3.47076">
        <ele>153</ele>
        <time>2014-10-08T13:20:42.000Z</time>
      </trkpt>
      <trkpt lat="43.45189" lon="3.47067">
        <ele>156</ele>
        <time>2014-10-08T13:20:44.000Z</time>
      </trkpt>
      <trkpt lat="43.45187" lon="3.47058">
        <ele>158</ele>
        <time>2014-10-08T13:20:46.000Z</time>
      </trkpt>
      <trkpt lat="43.45185" lon="3.4705">
        <ele>158</ele>
        <time>2014-10-08T13:20:48.000Z</time>
      </trkpt>
      <trkpt lat="43.45182" lon="3.47042">
        <ele>158</ele>
        <time>2014-10-08T13:20:50.000Z</time>
      </trkpt>
      <trkpt lat="43.4518" lon="3.47033">
        <ele>159</ele>
        <time>2014-10-08T13:20:52.000Z</time>
      </trkpt>
      <trkpt lat="43.45176" lon="3.47016">
        <ele>159</ele>
        <time>2014-10-08T13:20:54.000Z</time>
      </trkpt>
      <trkpt lat="43.45173" lon="3.47007">
        <ele>157</ele>
        <time>2014-10-08T13:20:56.000Z</time>
      </trkpt>
      <trkpt lat="43.4517" lon="3.46999">
        <ele>158</ele>
        <time>2014-10-08T13:20:58.000Z</time>
      </trkpt>
      <trkpt lat="43.4517" lon="3.46999">
        <ele>158</ele>
        <time>2014-10-08T13:21:00.000Z</time>
      </trkpt>
      <trkpt lat="43.45165" lon="3.4699">
        <ele>159</ele>
        <time>2014-10-08T13:21:02.000Z</time>
      </trkpt>
      <trkpt lat="43.45165" lon="3.4699">
        <ele>159</ele>
        <time>2014-10-08T13:21:04.000Z</time>
      </trkpt>
      <trkpt lat="43.45165" lon="3.4699">
        <ele>159</ele>
        <time>2014-10-08T13:21:06.000Z</time>
      </trkpt>
      <trkpt lat="43.45165" lon="3.4699">
        <ele>159</ele>
        <time>2014-10-08T13:21:08.000Z</time>
      </trkpt>
      <trkpt lat="43.45165" lon="3.4699">
        <ele>159</ele>
        <time>2014-10-08T13:21:10.000Z</time>
      </trkpt>
      <trkpt lat="43.4515" lon="3.46983">
        <ele>162</ele>
        <time>2014-10-08T13:21:30.000Z</time>
      </trkpt>
      <trkpt lat="43.45139" lon="3.46979">
        <ele>162</ele>
        <time>2014-10-08T13:21:34.000Z</time>
      </trkpt>
      <trkpt lat="43.45133" lon="3.46977">
        <ele>161</ele>
        <time>2014-10-08T13:21:36.000Z</time>
      </trkpt>
      <trkpt lat="43.45122" lon="3.46973">
        <ele>162</ele>
        <time>2014-10-08T13:21:40.000Z</time>
      </trkpt>
      <trkpt lat="43.45113" lon="3.46968">
        <ele>163</ele>
        <time>2014-10-08T13:21:44.000Z</time>
      </trkpt>
      <trkpt lat="43.45103" lon="3.46964">
        <ele>166</ele>
        <time>2014-10-08T13:21:48.000Z</time>
      </trkpt>
      <trkpt lat="43.45093" lon="3.4696">
        <ele>166</ele>
        <time>2014-10-08T13:21:52.000Z</time>
      </trkpt>
      <trkpt lat="43.45082" lon="3.46955">
        <ele>166</ele>
        <time>2014-10-08T13:21:56.000Z</time>
      </trkpt>
      <trkpt lat="43.45071" lon="3.4695">
        <ele>164</ele>
        <time>2014-10-08T13:22:00.000Z</time>
      </trkpt>
      <trkpt lat="43.4506" lon="3.46945">
        <ele>164</ele>
        <time>2014-10-08T13:22:04.000Z</time>
      </trkpt>
      <trkpt lat="43.45055" lon="3.46943">
        <ele>163</ele>
        <time>2014-10-08T13:22:06.000Z</time>
      </trkpt>
      <trkpt lat="43.45049" lon="3.4694">
        <ele>164</ele>
        <time>2014-10-08T13:22:08.000Z</time>
      </trkpt>
      <trkpt lat="43.45039" lon="3.46933">
        <ele>166</ele>
        <time>2014-10-08T13:22:12.000Z</time>
      </trkpt>
      <trkpt lat="43.45034" lon="3.46928">
        <ele>168</ele>
        <time>2014-10-08T13:22:14.000Z</time>
      </trkpt>
      <trkpt lat="43.45029" lon="3.46924">
        <ele>169</ele>
        <time>2014-10-08T13:22:16.000Z</time>
      </trkpt>
      <trkpt lat="43.45023" lon="3.46922">
        <ele>167</ele>
        <time>2014-10-08T13:22:18.000Z</time>
      </trkpt>
      <trkpt lat="43.45017" lon="3.4692">
        <ele>166</ele>
        <time>2014-10-08T13:22:20.000Z</time>
      </trkpt>
      <trkpt lat="43.45011" lon="3.46918">
        <ele>166</ele>
        <time>2014-10-08T13:22:22.000Z</time>
      </trkpt>
      <trkpt lat="43.45003" lon="3.46917">
        <ele>166</ele>
        <time>2014-10-08T13:22:24.000Z</time>
      </trkpt>
      <trkpt lat="43.44995" lon="3.46916">
        <ele>165</ele>
        <time>2014-10-08T13:22:26.000Z</time>
      </trkpt>
      <trkpt lat="43.44986" lon="3.46907">
        <ele>167</ele>
        <time>2014-10-08T13:22:28.000Z</time>
      </trkpt>
      <trkpt lat="43.44979" lon="3.469">
        <ele>170</ele>
        <time>2014-10-08T13:22:30.000Z</time>
      </trkpt>
      <trkpt lat="43.4497" lon="3.46889">
        <ele>165</ele>
        <time>2014-10-08T13:22:32.000Z</time>
      </trkpt>
      <trkpt lat="43.44962" lon="3.46877">
        <ele>165</ele>
        <time>2014-10-08T13:22:34.000Z</time>
      </trkpt>
      <trkpt lat="43.44954" lon="3.46861">
        <ele>164</ele>
        <time>2014-10-08T13:22:36.000Z</time>
      </trkpt>
      <trkpt lat="43.44947" lon="3.46845">
        <ele>163</ele>
        <time>2014-10-08T13:22:38.000Z</time>
      </trkpt>
      <trkpt lat="43.44941" lon="3.46828">
        <ele>163</ele>
        <time>2014-10-08T13:22:40.000Z</time>
      </trkpt>
      <trkpt lat="43.44934" lon="3.46816">
        <ele>166</ele>
        <time>2014-10-08T13:22:42.000Z</time>
      </trkpt>
      <trkpt lat="43.44923" lon="3.46807">
        <ele>164</ele>
        <time>2014-10-08T13:22:44.000Z</time>
      </trkpt>
      <trkpt lat="43.44915" lon="3.46799">
        <ele>165</ele>
        <time>2014-10-08T13:22:46.000Z</time>
      </trkpt>
      <trkpt lat="43.44906" lon="3.46794">
        <ele>164</ele>
        <time>2014-10-08T13:22:48.000Z</time>
      </trkpt>
      <trkpt lat="43.44899" lon="3.46789">
        <ele>164</ele>
        <time>2014-10-08T13:22:50.000Z</time>
      </trkpt>
      <trkpt lat="43.44891" lon="3.46783">
        <ele>164</ele>
        <time>2014-10-08T13:22:52.000Z</time>
      </trkpt>
      <trkpt lat="43.44887" lon="3.46775">
        <ele>163</ele>
        <time>2014-10-08T13:22:54.000Z</time>
      </trkpt>
      <trkpt lat="43.44882" lon="3.46768">
        <ele>163</ele>
        <time>2014-10-08T13:22:56.000Z</time>
      </trkpt>
      <trkpt lat="43.44876" lon="3.46762">
        <ele>161</ele>
        <time>2014-10-08T13:22:58.000Z</time>
      </trkpt>
      <trkpt lat="43.44876" lon="3.46762">
        <ele>161</ele>
        <time>2014-10-08T13:23:00.000Z</time>
      </trkpt>
      <trkpt lat="43.44875" lon="3.46751">
        <ele>160</ele>
        <time>2014-10-08T13:23:02.000Z</time>
      </trkpt>
      <trkpt lat="43.44875" lon="3.46751">
        <ele>160</ele>
        <time>2014-10-08T13:23:04.000Z</time>
      </trkpt>
      <trkpt lat="43.44875" lon="3.46736">
        <ele>161</ele>
        <time>2014-10-08T13:23:06.000Z</time>
      </trkpt>
      <trkpt lat="43.44875" lon="3.46736">
        <ele>161</ele>
        <time>2014-10-08T13:23:08.000Z</time>
      </trkpt>
      <trkpt lat="43.44875" lon="3.46736">
        <ele>161</ele>
        <time>2014-10-08T13:23:10.000Z</time>
      </trkpt>
      <trkpt lat="43.44875" lon="3.46736">
        <ele>161</ele>
        <time>2014-10-08T13:23:12.000Z</time>
      </trkpt>
      <trkpt lat="43.44875" lon="3.46736">
        <ele>161</ele>
        <time>2014-10-08T13:23:14.000Z</time>
      </trkpt>
      <trkpt lat="43.44888" lon="3.46743">
        <ele>156</ele>
        <time>2014-10-08T13:23:40.000Z</time>
      </trkpt>
      <trkpt lat="43.44897" lon="3.46744">
        <ele>155</ele>
        <time>2014-10-08T13:23:42.000Z</time>
      </trkpt>
      <trkpt lat="43.44906" lon="3.46741">
        <ele>155</ele>
        <time>2014-10-08T13:23:44.000Z</time>
      </trkpt>
      <trkpt lat="43.44913" lon="3.46737">
        <ele>156</ele>
        <time>2014-10-08T13:23:46.000Z</time>
      </trkpt>
      <trkpt lat="43.4492" lon="3.46731">
        <ele>150</ele>
        <time>2014-10-08T13:23:48.000Z</time>
      </trkpt>
      <trkpt lat="43.44928" lon="3.46718">
        <ele>151</ele>
        <time>2014-10-08T13:23:50.000Z</time>
      </trkpt>
      <trkpt lat="43.44927" lon="3.46709">
        <ele>153</ele>
        <time>2014-10-08T13:23:52.000Z</time>
      </trkpt>
      <trkpt lat="43.44924" lon="3.46699">
        <ele>153</ele>
        <time>2014-10-08T13:23:54.000Z</time>
      </trkpt>
      <trkpt lat="43.4492" lon="3.46691">
        <ele>153</ele>
        <time>2014-10-08T13:23:56.000Z</time>
      </trkpt>
      <trkpt lat="43.44915" lon="3.46686">
        <ele>154</ele>
        <time>2014-10-08T13:23:58.000Z</time>
      </trkpt>
      <trkpt lat="43.44915" lon="3.46686">
        <ele>154</ele>
        <time>2014-10-08T13:24:00.000Z</time>
      </trkpt>
      <trkpt lat="43.44904" lon="3.46687">
        <ele>156</ele>
        <time>2014-10-08T13:24:02.000Z</time>
      </trkpt>
      <trkpt lat="43.44899" lon="3.46692">
        <ele>156</ele>
        <time>2014-10-08T13:24:04.000Z</time>
      </trkpt>
      <trkpt lat="43.44899" lon="3.46692">
        <ele>156</ele>
        <time>2014-10-08T13:24:06.000Z</time>
      </trkpt>
      <trkpt lat="43.44888" lon="3.46696">
        <ele>156</ele>
        <time>2014-10-08T13:24:08.000Z</time>
      </trkpt>
      <trkpt lat="43.44879" lon="3.46696">
        <ele>160</ele>
        <time>2014-10-08T13:24:12.000Z</time>
      </trkpt>
      <trkpt lat="43.44879" lon="3.46696">
        <ele>160</ele>
        <time>2014-10-08T13:24:14.000Z</time>
      </trkpt>
      <trkpt lat="43.44876" lon="3.46684">
        <ele>161</ele>
        <time>2014-10-08T13:24:16.000Z</time>
      </trkpt>
      <trkpt lat="43.44876" lon="3.46684">
        <ele>161</ele>
        <time>2014-10-08T13:24:18.000Z</time>
      </trkpt>
      <trkpt lat="43.44878" lon="3.46671">
        <ele>164</ele>
        <time>2014-10-08T13:24:20.000Z</time>
      </trkpt>
      <trkpt lat="43.44878" lon="3.46671">
        <ele>164</ele>
        <time>2014-10-08T13:24:22.000Z</time>
      </trkpt>
      <trkpt lat="43.44878" lon="3.46657">
        <ele>165</ele>
        <time>2014-10-08T13:24:24.000Z</time>
      </trkpt>
      <trkpt lat="43.44878" lon="3.46649">
        <ele>165</ele>
        <time>2014-10-08T13:24:26.000Z</time>
      </trkpt>
      <trkpt lat="43.44875" lon="3.46641">
        <ele>165</ele>
        <time>2014-10-08T13:24:28.000Z</time>
      </trkpt>
      <trkpt lat="43.44872" lon="3.46633">
        <ele>165</ele>
        <time>2014-10-08T13:24:30.000Z</time>
      </trkpt>
      <trkpt lat="43.44868" lon="3.46626">
        <ele>165</ele>
        <time>2014-10-08T13:24:32.000Z</time>
      </trkpt>
      <trkpt lat="43.44865" lon="3.46619">
        <ele>165</ele>
        <time>2014-10-08T13:24:34.000Z</time>
      </trkpt>
      <trkpt lat="43.44862" lon="3.4661">
        <ele>164</ele>
        <time>2014-10-08T13:24:36.000Z</time>
      </trkpt>
      <trkpt lat="43.44861" lon="3.46601">
        <ele>164</ele>
        <time>2014-10-08T13:24:38.000Z</time>
      </trkpt>
      <trkpt lat="43.4486" lon="3.4659">
        <ele>164</ele>
        <time>2014-10-08T13:24:40.000Z</time>
      </trkpt>
      <trkpt lat="43.44861" lon="3.46583">
        <ele>164</ele>
        <time>2014-10-08T13:24:42.000Z</time>
      </trkpt>
      <trkpt lat="43.44861" lon="3.46583">
        <ele>164</ele>
        <time>2014-10-08T13:24:44.000Z</time>
      </trkpt>
      <trkpt lat="43.44861" lon="3.46572">
        <ele>162</ele>
        <time>2014-10-08T13:24:46.000Z</time>
      </trkpt>
      <trkpt lat="43.44861" lon="3.46572">
        <ele>162</ele>
        <time>2014-10-08T13:24:48.000Z</time>
      </trkpt>
      <trkpt lat="43.44863" lon="3.4656">
        <ele>160</ele>
        <time>2014-10-08T13:24:50.000Z</time>
      </trkpt>
      <trkpt lat="43.44863" lon="3.4656">
        <ele>160</ele>
        <time>2014-10-08T13:24:52.000Z</time>
      </trkpt>
      <trkpt lat="43.44862" lon="3.46547">
        <ele>159</ele>
        <time>2014-10-08T13:24:54.000Z</time>
      </trkpt>
      <trkpt lat="43.44862" lon="3.46547">
        <ele>159</ele>
        <time>2014-10-08T13:24:56.000Z</time>
      </trkpt>
      <trkpt lat="43.4486" lon="3.46539">
        <ele>155</ele>
        <time>2014-10-08T13:24:58.000Z</time>
      </trkpt>
      <trkpt lat="43.4486" lon="3.46539">
        <ele>155</ele>
        <time>2014-10-08T13:25:00.000Z</time>
      </trkpt>
      <trkpt lat="43.44853" lon="3.46538">
        <ele>157</ele>
        <time>2014-10-08T13:25:02.000Z</time>
      </trkpt>
      <trkpt lat="43.44853" lon="3.46538">
        <ele>157</ele>
        <time>2014-10-08T13:25:04.000Z</time>
      </trkpt>
      <trkpt lat="43.44846" lon="3.46547">
        <ele>158</ele>
        <time>2014-10-08T13:25:06.000Z</time>
      </trkpt>
      <trkpt lat="43.44846" lon="3.46547">
        <ele>158</ele>
        <time>2014-10-08T13:25:08.000Z</time>
      </trkpt>
      <trkpt lat="43.44839" lon="3.46554">
        <ele>156</ele>
        <time>2014-10-08T13:25:10.000Z</time>
      </trkpt>
      <trkpt lat="43.44839" lon="3.46554">
        <ele>156</ele>
        <time>2014-10-08T13:25:12.000Z</time>
      </trkpt>
      <trkpt lat="43.44835" lon="3.46564">
        <ele>157</ele>
        <time>2014-10-08T13:25:14.000Z</time>
      </trkpt>
      <trkpt lat="43.44835" lon="3.46564">
        <ele>157</ele>
        <time>2014-10-08T13:25:16.000Z</time>
      </trkpt>
      <trkpt lat="43.4483" lon="3.46569">
        <ele>158</ele>
        <time>2014-10-08T13:25:18.000Z</time>
      </trkpt>
      <trkpt lat="43.4483" lon="3.46569">
        <ele>158</ele>
        <time>2014-10-08T13:25:20.000Z</time>
      </trkpt>
      <trkpt lat="43.44827" lon="3.46576">
        <ele>159</ele>
        <time>2014-10-08T13:25:22.000Z</time>
      </trkpt>
      <trkpt lat="43.44827" lon="3.46576">
        <ele>159</ele>
        <time>2014-10-08T13:25:24.000Z</time>
      </trkpt>
      <trkpt lat="43.44821" lon="3.46582">
        <ele>158</ele>
        <time>2014-10-08T13:25:26.000Z</time>
      </trkpt>
      <trkpt lat="43.44814" lon="3.46585">
        <ele>159</ele>
        <time>2014-10-08T13:25:30.000Z</time>
      </trkpt>
      <trkpt lat="43.44809" lon="3.4659">
        <ele>161</ele>
        <time>2014-10-08T13:25:34.000Z</time>
      </trkpt>
      <trkpt lat="43.44809" lon="3.4659">
        <ele>161</ele>
        <time>2014-10-08T13:25:36.000Z</time>
      </trkpt>
      <trkpt lat="43.44804" lon="3.46595">
        <ele>162</ele>
        <time>2014-10-08T13:25:38.000Z</time>
      </trkpt>
      <trkpt lat="43.44804" lon="3.46595">
        <ele>162</ele>
        <time>2014-10-08T13:25:40.000Z</time>
      </trkpt>
      <trkpt lat="43.44799" lon="3.466">
        <ele>160</ele>
        <time>2014-10-08T13:25:42.000Z</time>
      </trkpt>
      <trkpt lat="43.44799" lon="3.466">
        <ele>160</ele>
        <time>2014-10-08T13:25:44.000Z</time>
      </trkpt>
      <trkpt lat="43.44799" lon="3.466">
        <ele>160</ele>
        <time>2014-10-08T13:25:46.000Z</time>
      </trkpt>
      <trkpt lat="43.44799" lon="3.466">
        <ele>160</ele>
        <time>2014-10-08T13:25:48.000Z</time>
      </trkpt>
      <trkpt lat="43.44799" lon="3.466">
        <ele>160</ele>
        <time>2014-10-08T13:25:50.000Z</time>
      </trkpt>
      <trkpt lat="43.44774" lon="3.46606">
        <ele>151</ele>
        <time>2014-10-08T13:27:02.000Z</time>
      </trkpt>
      <trkpt lat="43.4476" lon="3.4661">
        <ele>150</ele>
        <time>2014-10-08T13:27:04.000Z</time>
      </trkpt>
      <trkpt lat="43.44751" lon="3.46613">
        <ele>148</ele>
        <time>2014-10-08T13:27:06.000Z</time>
      </trkpt>
      <trkpt lat="43.44745" lon="3.46615">
        <ele>146</ele>
        <time>2014-10-08T13:27:08.000Z</time>
      </trkpt>
      <trkpt lat="43.4474" lon="3.46617">
        <ele>147</ele>
        <time>2014-10-08T13:27:10.000Z</time>
      </trkpt>
      <trkpt lat="43.4474" lon="3.46617">
        <ele>147</ele>
        <time>2014-10-08T13:27:12.000Z</time>
      </trkpt>
      <trkpt lat="43.44734" lon="3.4662">
        <ele>146</ele>
        <time>2014-10-08T13:27:14.000Z</time>
      </trkpt>
      <trkpt lat="43.44725" lon="3.46622">
        <ele>147</ele>
        <time>2014-10-08T13:27:18.000Z</time>
      </trkpt>
      <trkpt lat="43.44719" lon="3.4663">
        <ele>145</ele>
        <time>2014-10-08T13:27:22.000Z</time>
      </trkpt>
      <trkpt lat="43.44719" lon="3.4663">
        <ele>145</ele>
        <time>2014-10-08T13:27:24.000Z</time>
      </trkpt>
      <trkpt lat="43.44711" lon="3.46632">
        <ele>147</ele>
        <time>2014-10-08T13:27:26.000Z</time>
      </trkpt>
      <trkpt lat="43.44705" lon="3.46629">
        <ele>146</ele>
        <time>2014-10-08T13:27:30.000Z</time>
      </trkpt>
      <trkpt lat="43.44705" lon="3.46629">
        <ele>146</ele>
        <time>2014-10-08T13:27:32.000Z</time>
      </trkpt>
      <trkpt lat="43.44705" lon="3.46629">
        <ele>146</ele>
        <time>2014-10-08T13:27:34.000Z</time>
      </trkpt>
      <trkpt lat="43.44705" lon="3.46629">
        <ele>146</ele>
        <time>2014-10-08T13:27:36.000Z</time>
      </trkpt>
      <trkpt lat="43.44698" lon="3.46628">
        <ele>144</ele>
        <time>2014-10-08T13:27:38.000Z</time>
      </trkpt>
      <trkpt lat="43.44698" lon="3.46628">
        <ele>144</ele>
        <time>2014-10-08T13:27:40.000Z</time>
      </trkpt>
      <trkpt lat="43.44692" lon="3.46627">
        <ele>142</ele>
        <time>2014-10-08T13:27:42.000Z</time>
      </trkpt>
      <trkpt lat="43.44686" lon="3.46622">
        <ele>143</ele>
        <time>2014-10-08T13:27:46.000Z</time>
      </trkpt>
      <trkpt lat="43.44678" lon="3.46623">
        <ele>144</ele>
        <time>2014-10-08T13:27:50.000Z</time>
      </trkpt>
      <trkpt lat="43.44671" lon="3.46621">
        <ele>142</ele>
        <time>2014-10-08T13:27:54.000Z</time>
      </trkpt>
      <trkpt lat="43.44666" lon="3.46607">
        <ele>142</ele>
        <time>2014-10-08T13:27:58.000Z</time>
      </trkpt>
      <trkpt lat="43.44663" lon="3.46598">
        <ele>144</ele>
        <time>2014-10-08T13:28:00.000Z</time>
      </trkpt>
      <trkpt lat="43.4466" lon="3.46591">
        <ele>143</ele>
        <time>2014-10-08T13:28:02.000Z</time>
      </trkpt>
      <trkpt lat="43.44656" lon="3.46584">
        <ele>142</ele>
        <time>2014-10-08T13:28:04.000Z</time>
      </trkpt>
      <trkpt lat="43.44653" lon="3.46576">
        <ele>142</ele>
        <time>2014-10-08T13:28:06.000Z</time>
      </trkpt>
      <trkpt lat="43.44652" lon="3.46568">
        <ele>142</ele>
        <time>2014-10-08T13:28:08.000Z</time>
      </trkpt>
      <trkpt lat="43.44652" lon="3.46568">
        <ele>142</ele>
        <time>2014-10-08T13:28:10.000Z</time>
      </trkpt>
      <trkpt lat="43.44648" lon="3.46556">
        <ele>141</ele>
        <time>2014-10-08T13:28:12.000Z</time>
      </trkpt>
      <trkpt lat="43.44648" lon="3.46556">
        <ele>141</ele>
        <time>2014-10-08T13:28:14.000Z</time>
      </trkpt>
      <trkpt lat="43.44643" lon="3.4655">
        <ele>140</ele>
        <time>2014-10-08T13:28:16.000Z</time>
      </trkpt>
      <trkpt lat="43.44643" lon="3.4655">
        <ele>140</ele>
        <time>2014-10-08T13:28:18.000Z</time>
      </trkpt>
      <trkpt lat="43.44637" lon="3.46551">
        <ele>143</ele>
        <time>2014-10-08T13:28:20.000Z</time>
      </trkpt>
      <trkpt lat="43.44629" lon="3.46556">
        <ele>146</ele>
        <time>2014-10-08T13:28:24.000Z</time>
      </trkpt>
      <trkpt lat="43.44621" lon="3.46559">
        <ele>145</ele>
        <time>2014-10-08T13:28:28.000Z</time>
      </trkpt>
      <trkpt lat="43.44621" lon="3.46559">
        <ele>145</ele>
        <time>2014-10-08T13:28:30.000Z</time>
      </trkpt>
      <trkpt lat="43.44614" lon="3.46562">
        <ele>147</ele>
        <time>2014-10-08T13:28:32.000Z</time>
      </trkpt>
      <trkpt lat="43.44614" lon="3.46562">
        <ele>147</ele>
        <time>2014-10-08T13:28:34.000Z</time>
      </trkpt>
      <trkpt lat="43.44614" lon="3.46562">
        <ele>147</ele>
        <time>2014-10-08T13:28:36.000Z</time>
      </trkpt>
      <trkpt lat="43.44614" lon="3.46562">
        <ele>147</ele>
        <time>2014-10-08T13:28:38.000Z</time>
      </trkpt>
      <trkpt lat="43.44614" lon="3.46562">
        <ele>147</ele>
        <time>2014-10-08T13:28:40.000Z</time>
      </trkpt>
      <trkpt lat="43.44614" lon="3.46562">
        <ele>147</ele>
        <time>2014-10-08T13:28:42.000Z</time>
      </trkpt>
      <trkpt lat="43.44593" lon="3.46566">
        <ele>145</ele>
        <time>2014-10-08T13:29:50.000Z</time>
      </trkpt>
      <trkpt lat="43.4458" lon="3.4657">
        <ele>147</ele>
        <time>2014-10-08T13:29:52.000Z</time>
      </trkpt>
      <trkpt lat="43.44571" lon="3.46571">
        <ele>147</ele>
        <time>2014-10-08T13:29:54.000Z</time>
      </trkpt>
      <trkpt lat="43.44566" lon="3.46572">
        <ele>148</ele>
        <time>2014-10-08T13:29:56.000Z</time>
      </trkpt>
      <trkpt lat="43.44561" lon="3.46572">
        <ele>147</ele>
        <time>2014-10-08T13:29:58.000Z</time>
      </trkpt>
      <trkpt lat="43.44555" lon="3.46569">
        <ele>154</ele>
        <time>2014-10-08T13:30:00.000Z</time>
      </trkpt>
      <trkpt lat="43.44555" lon="3.46569">
        <ele>154</ele>
        <time>2014-10-08T13:30:02.000Z</time>
      </trkpt>
      <trkpt lat="43.44548" lon="3.46563">
        <ele>151</ele>
        <time>2014-10-08T13:30:04.000Z</time>
      </trkpt>
      <trkpt lat="43.44542" lon="3.46557">
        <ele>150</ele>
        <time>2014-10-08T13:30:06.000Z</time>
      </trkpt>
      <trkpt lat="43.44534" lon="3.46553">
        <ele>149</ele>
        <time>2014-10-08T13:30:08.000Z</time>
      </trkpt>
      <trkpt lat="43.44527" lon="3.4655">
        <ele>147</ele>
        <time>2014-10-08T13:30:10.000Z</time>
      </trkpt>
      <trkpt lat="43.44521" lon="3.46546">
        <ele>146</ele>
        <time>2014-10-08T13:30:12.000Z</time>
      </trkpt>
      <trkpt lat="43.44517" lon="3.4654">
        <ele>147</ele>
        <time>2014-10-08T13:30:14.000Z</time>
      </trkpt>
      <trkpt lat="43.44517" lon="3.4654">
        <ele>147</ele>
        <time>2014-10-08T13:30:16.000Z</time>
      </trkpt>
      <trkpt lat="43.44517" lon="3.46529">
        <ele>145</ele>
        <time>2014-10-08T13:30:18.000Z</time>
      </trkpt>
      <trkpt lat="43.44517" lon="3.46529">
        <ele>145</ele>
        <time>2014-10-08T13:30:20.000Z</time>
      </trkpt>
      <trkpt lat="43.44526" lon="3.4652">
        <ele>142</ele>
        <time>2014-10-08T13:30:22.000Z</time>
      </trkpt>
      <trkpt lat="43.4453" lon="3.46515">
        <ele>141</ele>
        <time>2014-10-08T13:30:24.000Z</time>
      </trkpt>
      <trkpt lat="43.44535" lon="3.4651">
        <ele>141</ele>
        <time>2014-10-08T13:30:26.000Z</time>
      </trkpt>
      <trkpt lat="43.4454" lon="3.46505">
        <ele>142</ele>
        <time>2014-10-08T13:30:28.000Z</time>
      </trkpt>
      <trkpt lat="43.44549" lon="3.46498">
        <ele>144</ele>
        <time>2014-10-08T13:30:32.000Z</time>
      </trkpt>
      <trkpt lat="43.44549" lon="3.46498">
        <ele>144</ele>
        <time>2014-10-08T13:30:34.000Z</time>
      </trkpt>
      <trkpt lat="43.44559" lon="3.4649">
        <ele>141</ele>
        <time>2014-10-08T13:30:36.000Z</time>
      </trkpt>
      <trkpt lat="43.44565" lon="3.46485">
        <ele>138</ele>
        <time>2014-10-08T13:30:38.000Z</time>
      </trkpt>
      <trkpt lat="43.44571" lon="3.46477">
        <ele>138</ele>
        <time>2014-10-08T13:30:40.000Z</time>
      </trkpt>
      <trkpt lat="43.44577" lon="3.46469">
        <ele>137</ele>
        <time>2014-10-08T13:30:42.000Z</time>
      </trkpt>
      <trkpt lat="43.44583" lon="3.46461">
        <ele>135</ele>
        <time>2014-10-08T13:30:44.000Z</time>
      </trkpt>
      <trkpt lat="43.44589" lon="3.46454">
        <ele>134</ele>
        <time>2014-10-08T13:30:46.000Z</time>
      </trkpt>
      <trkpt lat="43.44595" lon="3.46448">
        <ele>136</ele>
        <time>2014-10-08T13:30:48.000Z</time>
      </trkpt>
      <trkpt lat="43.44595" lon="3.46448">
        <ele>136</ele>
        <time>2014-10-08T13:30:50.000Z</time>
      </trkpt>
      <trkpt lat="43.44596" lon="3.46436">
        <ele>139</ele>
        <time>2014-10-08T13:30:52.000Z</time>
      </trkpt>
      <trkpt lat="43.44596" lon="3.46436">
        <ele>139</ele>
        <time>2014-10-08T13:30:54.000Z</time>
      </trkpt>
      <trkpt lat="43.44588" lon="3.46438">
        <ele>137</ele>
        <time>2014-10-08T13:30:56.000Z</time>
      </trkpt>
      <trkpt lat="43.44584" lon="3.46444">
        <ele>138</ele>
        <time>2014-10-08T13:30:58.000Z</time>
      </trkpt>
      <trkpt lat="43.44579" lon="3.4645">
        <ele>138</ele>
        <time>2014-10-08T13:31:00.000Z</time>
      </trkpt>
      <trkpt lat="43.44574" lon="3.46455">
        <ele>139</ele>
        <time>2014-10-08T13:31:02.000Z</time>
      </trkpt>
      <trkpt lat="43.44569" lon="3.46459">
        <ele>139</ele>
        <time>2014-10-08T13:31:04.000Z</time>
      </trkpt>
      <trkpt lat="43.44564" lon="3.46464">
        <ele>140</ele>
        <time>2014-10-08T13:31:06.000Z</time>
      </trkpt>
      <trkpt lat="43.44559" lon="3.46468">
        <ele>139</ele>
        <time>2014-10-08T13:31:08.000Z</time>
      </trkpt>
      <trkpt lat="43.44554" lon="3.4647">
        <ele>139</ele>
        <time>2014-10-08T13:31:10.000Z</time>
      </trkpt>
      <trkpt lat="43.44544" lon="3.46478">
        <ele>141</ele>
        <time>2014-10-08T13:31:14.000Z</time>
      </trkpt>
      <trkpt lat="43.44539" lon="3.46483">
        <ele>141</ele>
        <time>2014-10-08T13:31:16.000Z</time>
      </trkpt>
      <trkpt lat="43.44535" lon="3.46489">
        <ele>142</ele>
        <time>2014-10-08T13:31:18.000Z</time>
      </trkpt>
      <trkpt lat="43.44529" lon="3.46496">
        <ele>142</ele>
        <time>2014-10-08T13:31:20.000Z</time>
      </trkpt>
      <trkpt lat="43.44524" lon="3.46503">
        <ele>145</ele>
        <time>2014-10-08T13:31:22.000Z</time>
      </trkpt>
      <trkpt lat="43.44519" lon="3.46508">
        <ele>145</ele>
        <time>2014-10-08T13:31:24.000Z</time>
      </trkpt>
      <trkpt lat="43.44513" lon="3.46513">
        <ele>145</ele>
        <time>2014-10-08T13:31:26.000Z</time>
      </trkpt>
      <trkpt lat="43.44509" lon="3.4652">
        <ele>144</ele>
        <time>2014-10-08T13:31:28.000Z</time>
      </trkpt>
      <trkpt lat="43.44505" lon="3.46527">
        <ele>144</ele>
        <time>2014-10-08T13:31:30.000Z</time>
      </trkpt>
      <trkpt lat="43.44499" lon="3.46533">
        <ele>144</ele>
        <time>2014-10-08T13:31:32.000Z</time>
      </trkpt>
      <trkpt lat="43.44493" lon="3.46533">
        <ele>144</ele>
        <time>2014-10-08T13:31:34.000Z</time>
      </trkpt>
      <trkpt lat="43.44488" lon="3.46526">
        <ele>145</ele>
        <time>2014-10-08T13:31:36.000Z</time>
      </trkpt>
      <trkpt lat="43.44488" lon="3.46526">
        <ele>145</ele>
        <time>2014-10-08T13:31:38.000Z</time>
      </trkpt>
      <trkpt lat="43.44487" lon="3.46515">
        <ele>145</ele>
        <time>2014-10-08T13:31:40.000Z</time>
      </trkpt>
      <trkpt lat="43.44485" lon="3.46507">
        <ele>143</ele>
        <time>2014-10-08T13:31:42.000Z</time>
      </trkpt>
      <trkpt lat="43.44481" lon="3.46498">
        <ele>146</ele>
        <time>2014-10-08T13:31:44.000Z</time>
      </trkpt>
      <trkpt lat="43.44476" lon="3.4649">
        <ele>146</ele>
        <time>2014-10-08T13:31:46.000Z</time>
      </trkpt>
      <trkpt lat="43.44471" lon="3.46482">
        <ele>146</ele>
        <time>2014-10-08T13:31:48.000Z</time>
      </trkpt>
      <trkpt lat="43.44464" lon="3.46478">
        <ele>143</ele>
        <time>2014-10-08T13:31:50.000Z</time>
      </trkpt>
      <trkpt lat="43.44457" lon="3.46477">
        <ele>141</ele>
        <time>2014-10-08T13:31:52.000Z</time>
      </trkpt>
      <trkpt lat="43.44441" lon="3.46463">
        <ele>136</ele>
        <time>2014-10-08T13:31:55.000Z</time>
      </trkpt>
      <trkpt lat="43.44436" lon="3.46451">
        <ele>137</ele>
        <time>2014-10-08T13:31:57.000Z</time>
      </trkpt>
      <trkpt lat="43.44432" lon="3.46438">
        <ele>137</ele>
        <time>2014-10-08T13:31:59.000Z</time>
      </trkpt>
      <trkpt lat="43.4443" lon="3.46423">
        <ele>138</ele>
        <time>2014-10-08T13:32:01.000Z</time>
      </trkpt>
      <trkpt lat="43.44429" lon="3.46409">
        <ele>138</ele>
        <time>2014-10-08T13:32:03.000Z</time>
      </trkpt>
      <trkpt lat="43.44427" lon="3.46395">
        <ele>136</ele>
        <time>2014-10-08T13:32:05.000Z</time>
      </trkpt>
      <trkpt lat="43.44429" lon="3.46376">
        <ele>133</ele>
        <time>2014-10-08T13:32:07.000Z</time>
      </trkpt>
      <trkpt lat="43.44425" lon="3.46362">
        <ele>136</ele>
        <time>2014-10-08T13:32:09.000Z</time>
      </trkpt>
      <trkpt lat="43.44426" lon="3.4635">
        <ele>138</ele>
        <time>2014-10-08T13:32:11.000Z</time>
      </trkpt>
      <trkpt lat="43.44423" lon="3.46333">
        <ele>139</ele>
        <time>2014-10-08T13:32:13.000Z</time>
      </trkpt>
      <trkpt lat="43.44419" lon="3.46321">
        <ele>139</ele>
        <time>2014-10-08T13:32:15.000Z</time>
      </trkpt>
      <trkpt lat="43.44414" lon="3.46306">
        <ele>141</ele>
        <time>2014-10-08T13:32:17.000Z</time>
      </trkpt>
      <trkpt lat="43.44405" lon="3.46293">
        <ele>138</ele>
        <time>2014-10-08T13:32:19.000Z</time>
      </trkpt>
      <trkpt lat="43.44398" lon="3.46279">
        <ele>141</ele>
        <time>2014-10-08T13:32:21.000Z</time>
      </trkpt>
      <trkpt lat="43.44392" lon="3.46265">
        <ele>142</ele>
        <time>2014-10-08T13:32:23.000Z</time>
      </trkpt>
      <trkpt lat="43.44386" lon="3.46255">
        <ele>141</ele>
        <time>2014-10-08T13:32:25.000Z</time>
      </trkpt>
      <trkpt lat="43.44383" lon="3.46242">
        <ele>139</ele>
        <time>2014-10-08T13:32:27.000Z</time>
      </trkpt>
      <trkpt lat="43.4438" lon="3.46225">
        <ele>137</ele>
        <time>2014-10-08T13:32:29.000Z</time>
      </trkpt>
      <trkpt lat="43.44379" lon="3.46211">
        <ele>139</ele>
        <time>2014-10-08T13:32:31.000Z</time>
      </trkpt>
      <trkpt lat="43.44379" lon="3.46202">
        <ele>137</ele>
        <time>2014-10-08T13:32:33.000Z</time>
      </trkpt>
      <trkpt lat="43.44379" lon="3.46202">
        <ele>137</ele>
        <time>2014-10-08T13:32:35.000Z</time>
      </trkpt>
      <trkpt lat="43.44377" lon="3.46181">
        <ele>134</ele>
        <time>2014-10-08T13:32:37.000Z</time>
      </trkpt>
      <trkpt lat="43.44376" lon="3.46172">
        <ele>133</ele>
        <time>2014-10-08T13:32:39.000Z</time>
      </trkpt>
      <trkpt lat="43.44373" lon="3.46163">
        <ele>133</ele>
        <time>2014-10-08T13:32:41.000Z</time>
      </trkpt>
      <trkpt lat="43.44371" lon="3.46154">
        <ele>131</ele>
        <time>2014-10-08T13:32:43.000Z</time>
      </trkpt>
      <trkpt lat="43.44371" lon="3.46154">
        <ele>131</ele>
        <time>2014-10-08T13:32:45.000Z</time>
      </trkpt>
      <trkpt lat="43.44368" lon="3.46143">
        <ele>129</ele>
        <time>2014-10-08T13:32:47.000Z</time>
      </trkpt>
      <trkpt lat="43.44368" lon="3.46143">
        <ele>129</ele>
        <time>2014-10-08T13:32:49.000Z</time>
      </trkpt>
      <trkpt lat="43.44365" lon="3.4613">
        <ele>130</ele>
        <time>2014-10-08T13:32:51.000Z</time>
      </trkpt>
      <trkpt lat="43.44365" lon="3.4613">
        <ele>130</ele>
        <time>2014-10-08T13:32:53.000Z</time>
      </trkpt>
      <trkpt lat="43.44364" lon="3.46121">
        <ele>134</ele>
        <time>2014-10-08T13:32:55.000Z</time>
      </trkpt>
      <trkpt lat="43.44364" lon="3.46121">
        <ele>134</ele>
        <time>2014-10-08T13:32:57.000Z</time>
      </trkpt>
      <trkpt lat="43.44364" lon="3.46121">
        <ele>134</ele>
        <time>2014-10-08T13:32:59.000Z</time>
      </trkpt>
      <trkpt lat="43.44369" lon="3.46112">
        <ele>137</ele>
        <time>2014-10-08T13:33:01.000Z</time>
      </trkpt>
      <trkpt lat="43.44372" lon="3.461">
        <ele>134</ele>
        <time>2014-10-08T13:33:05.000Z</time>
      </trkpt>
      <trkpt lat="43.4438" lon="3.46093">
        <ele>133</ele>
        <time>2014-10-08T13:33:09.000Z</time>
      </trkpt>
      <trkpt lat="43.4439" lon="3.46087">
        <ele>134</ele>
        <time>2014-10-08T13:33:13.000Z</time>
      </trkpt>
      <trkpt lat="43.444" lon="3.4608">
        <ele>135</ele>
        <time>2014-10-08T13:33:15.000Z</time>
      </trkpt>
      <trkpt lat="43.44408" lon="3.46075">
        <ele>137</ele>
        <time>2014-10-08T13:33:17.000Z</time>
      </trkpt>
      <trkpt lat="43.44412" lon="3.46068">
        <ele>137</ele>
        <time>2014-10-08T13:33:19.000Z</time>
      </trkpt>
      <trkpt lat="43.44412" lon="3.46068">
        <ele>137</ele>
        <time>2014-10-08T13:33:21.000Z</time>
      </trkpt>
      <trkpt lat="43.44413" lon="3.46055">
        <ele>137</ele>
        <time>2014-10-08T13:33:23.000Z</time>
      </trkpt>
      <trkpt lat="43.44414" lon="3.46047">
        <ele>138</ele>
        <time>2014-10-08T13:33:25.000Z</time>
      </trkpt>
      <trkpt lat="43.44413" lon="3.46039">
        <ele>138</ele>
        <time>2014-10-08T13:33:27.000Z</time>
      </trkpt>
      <trkpt lat="43.44416" lon="3.46026">
        <ele>138</ele>
        <time>2014-10-08T13:33:31.000Z</time>
      </trkpt>
      <trkpt lat="43.44416" lon="3.46026">
        <ele>138</ele>
        <time>2014-10-08T13:33:33.000Z</time>
      </trkpt>
      <trkpt lat="43.44419" lon="3.46015">
        <ele>140</ele>
        <time>2014-10-08T13:33:35.000Z</time>
      </trkpt>
      <trkpt lat="43.44419" lon="3.46015">
        <ele>140</ele>
        <time>2014-10-08T13:33:37.000Z</time>
      </trkpt>
      <trkpt lat="43.44419" lon="3.46003">
        <ele>138</ele>
        <time>2014-10-08T13:33:39.000Z</time>
      </trkpt>
      <trkpt lat="43.44419" lon="3.46003">
        <ele>138</ele>
        <time>2014-10-08T13:33:41.000Z</time>
      </trkpt>
      <trkpt lat="43.44416" lon="3.45991">
        <ele>137</ele>
        <time>2014-10-08T13:33:43.000Z</time>
      </trkpt>
      <trkpt lat="43.44416" lon="3.45991">
        <ele>137</ele>
        <time>2014-10-08T13:33:45.000Z</time>
      </trkpt>
      <trkpt lat="43.44417" lon="3.45981">
        <ele>139</ele>
        <time>2014-10-08T13:33:47.000Z</time>
      </trkpt>
      <trkpt lat="43.44417" lon="3.45981">
        <ele>139</ele>
        <time>2014-10-08T13:33:49.000Z</time>
      </trkpt>
      <trkpt lat="43.44417" lon="3.45971">
        <ele>137</ele>
        <time>2014-10-08T13:33:51.000Z</time>
      </trkpt>
      <trkpt lat="43.44416" lon="3.45961">
        <ele>139</ele>
        <time>2014-10-08T13:33:55.000Z</time>
      </trkpt>
      <trkpt lat="43.44415" lon="3.45951">
        <ele>140</ele>
        <time>2014-10-08T13:33:59.000Z</time>
      </trkpt>
      <trkpt lat="43.44415" lon="3.45951">
        <ele>140</ele>
        <time>2014-10-08T13:34:01.000Z</time>
      </trkpt>
      <trkpt lat="43.44415" lon="3.45951">
        <ele>140</ele>
        <time>2014-10-08T13:34:03.000Z</time>
      </trkpt>
      <trkpt lat="43.44415" lon="3.45951">
        <ele>140</ele>
        <time>2014-10-08T13:34:05.000Z</time>
      </trkpt>
      <trkpt lat="43.44407" lon="3.45938">
        <ele>143</ele>
        <time>2014-10-08T13:34:27.000Z</time>
      </trkpt>
      <trkpt lat="43.44402" lon="3.45929">
        <ele>144</ele>
        <time>2014-10-08T13:34:29.000Z</time>
      </trkpt>
      <trkpt lat="43.44399" lon="3.45921">
        <ele>142</ele>
        <time>2014-10-08T13:34:31.000Z</time>
      </trkpt>
      <trkpt lat="43.44395" lon="3.45915">
        <ele>143</ele>
        <time>2014-10-08T13:34:33.000Z</time>
      </trkpt>
      <trkpt lat="43.44392" lon="3.45909">
        <ele>142</ele>
        <time>2014-10-08T13:34:35.000Z</time>
      </trkpt>
      <trkpt lat="43.44387" lon="3.45899">
        <ele>145</ele>
        <time>2014-10-08T13:34:37.000Z</time>
      </trkpt>
      <trkpt lat="43.44378" lon="3.45898">
        <ele>146</ele>
        <time>2014-10-08T13:34:41.000Z</time>
      </trkpt>
      <trkpt lat="43.44372" lon="3.45898">
        <ele>145</ele>
        <time>2014-10-08T13:34:43.000Z</time>
      </trkpt>
      <trkpt lat="43.44366" lon="3.45896">
        <ele>145</ele>
        <time>2014-10-08T13:34:45.000Z</time>
      </trkpt>
      <trkpt lat="43.44359" lon="3.45895">
        <ele>146</ele>
        <time>2014-10-08T13:34:47.000Z</time>
      </trkpt>
      <trkpt lat="43.44352" lon="3.45894">
        <ele>145</ele>
        <time>2014-10-08T13:34:49.000Z</time>
      </trkpt>
      <trkpt lat="43.44346" lon="3.45889">
        <ele>145</ele>
        <time>2014-10-08T13:34:51.000Z</time>
      </trkpt>
      <trkpt lat="43.44341" lon="3.45881">
        <ele>140</ele>
        <time>2014-10-08T13:34:53.000Z</time>
      </trkpt>
      <trkpt lat="43.44334" lon="3.45872">
        <ele>138</ele>
        <time>2014-10-08T13:34:55.000Z</time>
      </trkpt>
      <trkpt lat="43.44329" lon="3.45861">
        <ele>138</ele>
        <time>2014-10-08T13:34:57.000Z</time>
      </trkpt>
      <trkpt lat="43.44314" lon="3.45843">
        <ele>134</ele>
        <time>2014-10-08T13:35:00.000Z</time>
      </trkpt>
      <trkpt lat="43.44302" lon="3.45832">
        <ele>135</ele>
        <time>2014-10-08T13:35:04.000Z</time>
      </trkpt>
      <trkpt lat="43.44295" lon="3.45826">
        <ele>138</ele>
        <time>2014-10-08T13:35:06.000Z</time>
      </trkpt>
      <trkpt lat="43.44295" lon="3.45826">
        <ele>138</ele>
        <time>2014-10-08T13:35:08.000Z</time>
      </trkpt>
      <trkpt lat="43.44288" lon="3.45813">
        <ele>137</ele>
        <time>2014-10-08T13:35:10.000Z</time>
      </trkpt>
      <trkpt lat="43.44286" lon="3.45801">
        <ele>136</ele>
        <time>2014-10-08T13:35:12.000Z</time>
      </trkpt>
      <trkpt lat="43.44283" lon="3.45792">
        <ele>139</ele>
        <time>2014-10-08T13:35:14.000Z</time>
      </trkpt>
      <trkpt lat="43.44283" lon="3.45792">
        <ele>139</ele>
        <time>2014-10-08T13:35:16.000Z</time>
      </trkpt>
      <trkpt lat="43.44276" lon="3.45782">
        <ele>139</ele>
        <time>2014-10-08T13:35:18.000Z</time>
      </trkpt>
      <trkpt lat="43.44273" lon="3.45773">
        <ele>136</ele>
        <time>2014-10-08T13:35:20.000Z</time>
      </trkpt>
      <trkpt lat="43.44268" lon="3.45761">
        <ele>129</ele>
        <time>2014-10-08T13:35:22.000Z</time>
      </trkpt>
      <trkpt lat="43.44253" lon="3.45744">
        <ele>129</ele>
        <time>2014-10-08T13:35:25.000Z</time>
      </trkpt>
      <trkpt lat="43.44245" lon="3.45738">
        <ele>129</ele>
        <time>2014-10-08T13:35:29.000Z</time>
      </trkpt>
      <trkpt lat="43.44243" lon="3.45729">
        <ele>128</ele>
        <time>2014-10-08T13:35:31.000Z</time>
      </trkpt>
      <trkpt lat="43.44237" lon="3.45722">
        <ele>129</ele>
        <time>2014-10-08T13:35:33.000Z</time>
      </trkpt>
      <trkpt lat="43.44231" lon="3.45709">
        <ele>127</ele>
        <time>2014-10-08T13:35:37.000Z</time>
      </trkpt>
      <trkpt lat="43.44227" lon="3.45703">
        <ele>127</ele>
        <time>2014-10-08T13:35:39.000Z</time>
      </trkpt>
      <trkpt lat="43.44219" lon="3.45692">
        <ele>130</ele>
        <time>2014-10-08T13:35:43.000Z</time>
      </trkpt>
      <trkpt lat="43.44214" lon="3.45685">
        <ele>131</ele>
        <time>2014-10-08T13:35:45.000Z</time>
      </trkpt>
      <trkpt lat="43.44205" lon="3.45681">
        <ele>127</ele>
        <time>2014-10-08T13:35:47.000Z</time>
      </trkpt>
      <trkpt lat="43.44196" lon="3.45675">
        <ele>127</ele>
        <time>2014-10-08T13:35:49.000Z</time>
      </trkpt>
      <trkpt lat="43.44179" lon="3.45658">
        <ele>127</ele>
        <time>2014-10-08T13:35:52.000Z</time>
      </trkpt>
      <trkpt lat="43.44167" lon="3.45647">
        <ele>125</ele>
        <time>2014-10-08T13:35:55.000Z</time>
      </trkpt>
      <trkpt lat="43.44159" lon="3.45649">
        <ele>125</ele>
        <time>2014-10-08T13:35:57.000Z</time>
      </trkpt>
      <trkpt lat="43.44153" lon="3.45653">
        <ele>125</ele>
        <time>2014-10-08T13:35:59.000Z</time>
      </trkpt>
      <trkpt lat="43.44153" lon="3.45653">
        <ele>125</ele>
        <time>2014-10-08T13:36:01.000Z</time>
      </trkpt>
      <trkpt lat="43.44141" lon="3.45656">
        <ele>121</ele>
        <time>2014-10-08T13:36:03.000Z</time>
      </trkpt>
      <trkpt lat="43.44132" lon="3.45655">
        <ele>121</ele>
        <time>2014-10-08T13:36:05.000Z</time>
      </trkpt>
      <trkpt lat="43.44123" lon="3.45651">
        <ele>119</ele>
        <time>2014-10-08T13:36:07.000Z</time>
      </trkpt>
      <trkpt lat="43.44114" lon="3.45647">
        <ele>119</ele>
        <time>2014-10-08T13:36:09.000Z</time>
      </trkpt>
      <trkpt lat="43.44094" lon="3.4565">
        <ele>113</ele>
        <time>2014-10-08T13:36:12.000Z</time>
      </trkpt>
      <trkpt lat="43.44088" lon="3.45644">
        <ele>109</ele>
        <time>2014-10-08T13:36:17.000Z</time>
      </trkpt>
      <trkpt lat="43.44088" lon="3.45644">
        <ele>109</ele>
        <time>2014-10-08T13:36:19.000Z</time>
      </trkpt>
      <trkpt lat="43.44088" lon="3.45644">
        <ele>109</ele>
        <time>2014-10-08T13:36:21.000Z</time>
      </trkpt>
      <trkpt lat="43.44088" lon="3.45644">
        <ele>109</ele>
        <time>2014-10-08T13:36:23.000Z</time>
      </trkpt>
      <trkpt lat="43.44091" lon="3.45638">
        <ele>114</ele>
        <time>2014-10-08T13:37:27.000Z</time>
      </trkpt>
      <trkpt lat="43.44095" lon="3.45633">
        <ele>114</ele>
        <time>2014-10-08T13:37:29.000Z</time>
      </trkpt>
      <trkpt lat="43.44098" lon="3.45628">
        <ele>115</ele>
        <time>2014-10-08T13:37:31.000Z</time>
      </trkpt>
      <trkpt lat="43.441" lon="3.45624">
        <ele>117</ele>
        <time>2014-10-08T13:37:33.000Z</time>
      </trkpt>
      <trkpt lat="43.44103" lon="3.45618">
        <ele>114</ele>
        <time>2014-10-08T13:37:35.000Z</time>
      </trkpt>
      <trkpt lat="43.44109" lon="3.45605">
        <ele>113</ele>
        <time>2014-10-08T13:37:37.000Z</time>
      </trkpt>
      <trkpt lat="43.44114" lon="3.45597">
        <ele>110</ele>
        <time>2014-10-08T13:37:39.000Z</time>
      </trkpt>
      <trkpt lat="43.4412" lon="3.45585">
        <ele>108</ele>
        <time>2014-10-08T13:37:41.000Z</time>
      </trkpt>
      <trkpt lat="43.44127" lon="3.45573">
        <ele>110</ele>
        <time>2014-10-08T13:37:43.000Z</time>
      </trkpt>
      <trkpt lat="43.44139" lon="3.45544">
        <ele>112</ele>
        <time>2014-10-08T13:37:46.000Z</time>
      </trkpt>
      <trkpt lat="43.44142" lon="3.45522">
        <ele>110</ele>
        <time>2014-10-08T13:37:48.000Z</time>
      </trkpt>
      <trkpt lat="43.44151" lon="3.45505">
        <ele>103</ele>
        <time>2014-10-08T13:37:52.000Z</time>
      </trkpt>
      <trkpt lat="43.44154" lon="3.45495">
        <ele>102</ele>
        <time>2014-10-08T13:37:54.000Z</time>
      </trkpt>
      <trkpt lat="43.44154" lon="3.45495">
        <ele>102</ele>
        <time>2014-10-08T13:37:56.000Z</time>
      </trkpt>
      <trkpt lat="43.44157" lon="3.45485">
        <ele>100</ele>
        <time>2014-10-08T13:37:58.000Z</time>
      </trkpt>
      <trkpt lat="43.44163" lon="3.45487">
        <ele>101</ele>
        <time>2014-10-08T13:38:00.000Z</time>
      </trkpt>
      <trkpt lat="43.44163" lon="3.45487">
        <ele>101</ele>
        <time>2014-10-08T13:38:02.000Z</time>
      </trkpt>
      <trkpt lat="43.44172" lon="3.4548">
        <ele>104</ele>
        <time>2014-10-08T13:38:04.000Z</time>
      </trkpt>
      <trkpt lat="43.44176" lon="3.45472">
        <ele>106</ele>
        <time>2014-10-08T13:38:06.000Z</time>
      </trkpt>
      <trkpt lat="43.4418" lon="3.45458">
        <ele>106</ele>
        <time>2014-10-08T13:38:08.000Z</time>
      </trkpt>
      <trkpt lat="43.44182" lon="3.45445">
        <ele>107</ele>
        <time>2014-10-08T13:38:10.000Z</time>
      </trkpt>
      <trkpt lat="43.44182" lon="3.4543">
        <ele>107</ele>
        <time>2014-10-08T13:38:12.000Z</time>
      </trkpt>
      <trkpt lat="43.44182" lon="3.45411">
        <ele>108</ele>
        <time>2014-10-08T13:38:14.000Z</time>
      </trkpt>
      <trkpt lat="43.44184" lon="3.45396">
        <ele>109</ele>
        <time>2014-10-08T13:38:16.000Z</time>
      </trkpt>
      <trkpt lat="43.44188" lon="3.45387">
        <ele>111</ele>
        <time>2014-10-08T13:38:18.000Z</time>
      </trkpt>
      <trkpt lat="43.44194" lon="3.45376">
        <ele>111</ele>
        <time>2014-10-08T13:38:20.000Z</time>
      </trkpt>
      <trkpt lat="43.442" lon="3.45368">
        <ele>110</ele>
        <time>2014-10-08T13:38:22.000Z</time>
      </trkpt>
      <trkpt lat="43.44207" lon="3.45354">
        <ele>110</ele>
        <time>2014-10-08T13:38:24.000Z</time>
      </trkpt>
      <trkpt lat="43.44215" lon="3.45339">
        <ele>109</ele>
        <time>2014-10-08T13:38:26.000Z</time>
      </trkpt>
      <trkpt lat="43.44224" lon="3.45327">
        <ele>108</ele>
        <time>2014-10-08T13:38:28.000Z</time>
      </trkpt>
      <trkpt lat="43.4423" lon="3.45314">
        <ele>108</ele>
        <time>2014-10-08T13:38:30.000Z</time>
      </trkpt>
      <trkpt lat="43.44239" lon="3.453">
        <ele>109</ele>
        <time>2014-10-08T13:38:32.000Z</time>
      </trkpt>
      <trkpt lat="43.44248" lon="3.45285">
        <ele>107</ele>
        <time>2014-10-08T13:38:34.000Z</time>
      </trkpt>
      <trkpt lat="43.44254" lon="3.4527">
        <ele>107</ele>
        <time>2014-10-08T13:38:36.000Z</time>
      </trkpt>
      <trkpt lat="43.44261" lon="3.45258">
        <ele>107</ele>
        <time>2014-10-08T13:38:38.000Z</time>
      </trkpt>
      <trkpt lat="43.44266" lon="3.45251">
        <ele>108</ele>
        <time>2014-10-08T13:38:40.000Z</time>
      </trkpt>
      <trkpt lat="43.44272" lon="3.45241">
        <ele>109</ele>
        <time>2014-10-08T13:38:42.000Z</time>
      </trkpt>
      <trkpt lat="43.44276" lon="3.45227">
        <ele>108</ele>
        <time>2014-10-08T13:38:44.000Z</time>
      </trkpt>
      <trkpt lat="43.44281" lon="3.45219">
        <ele>112</ele>
        <time>2014-10-08T13:38:47.000Z</time>
      </trkpt>
      <trkpt lat="43.44281" lon="3.45219">
        <ele>112</ele>
        <time>2014-10-08T13:38:49.000Z</time>
      </trkpt>
      <trkpt lat="43.44286" lon="3.45209">
        <ele>111</ele>
        <time>2014-10-08T13:38:51.000Z</time>
      </trkpt>
      <trkpt lat="43.44286" lon="3.45209">
        <ele>111</ele>
        <time>2014-10-08T13:38:53.000Z</time>
      </trkpt>
      <trkpt lat="43.4429" lon="3.45198">
        <ele>111</ele>
        <time>2014-10-08T13:38:55.000Z</time>
      </trkpt>
      <trkpt lat="43.4429" lon="3.45198">
        <ele>111</ele>
        <time>2014-10-08T13:38:57.000Z</time>
      </trkpt>
      <trkpt lat="43.44295" lon="3.45185">
        <ele>108</ele>
        <time>2014-10-08T13:38:59.000Z</time>
      </trkpt>
      <trkpt lat="43.44295" lon="3.45185">
        <ele>108</ele>
        <time>2014-10-08T13:39:01.000Z</time>
      </trkpt>
      <trkpt lat="43.44295" lon="3.45185">
        <ele>108</ele>
        <time>2014-10-08T13:39:03.000Z</time>
      </trkpt>
      <trkpt lat="43.44303" lon="3.45188">
        <ele>110</ele>
        <time>2014-10-08T13:39:05.000Z</time>
      </trkpt>
      <trkpt lat="43.44303" lon="3.45188">
        <ele>110</ele>
        <time>2014-10-08T13:39:07.000Z</time>
      </trkpt>
      <trkpt lat="43.44309" lon="3.45196">
        <ele>113</ele>
        <time>2014-10-08T13:39:09.000Z</time>
      </trkpt>
      <trkpt lat="43.44319" lon="3.452">
        <ele>115</ele>
        <time>2014-10-08T13:39:13.000Z</time>
      </trkpt>
      <trkpt lat="43.4433" lon="3.452">
        <ele>114</ele>
        <time>2014-10-08T13:39:17.000Z</time>
      </trkpt>
      <trkpt lat="43.44336" lon="3.45199">
        <ele>116</ele>
        <time>2014-10-08T13:39:19.000Z</time>
      </trkpt>
      <trkpt lat="43.44342" lon="3.45199">
        <ele>117</ele>
        <time>2014-10-08T13:39:21.000Z</time>
      </trkpt>
      <trkpt lat="43.4435" lon="3.45198">
        <ele>118</ele>
        <time>2014-10-08T13:39:23.000Z</time>
      </trkpt>
      <trkpt lat="43.44357" lon="3.45195">
        <ele>119</ele>
        <time>2014-10-08T13:39:25.000Z</time>
      </trkpt>
      <trkpt lat="43.44363" lon="3.45193">
        <ele>119</ele>
        <time>2014-10-08T13:39:27.000Z</time>
      </trkpt>
      <trkpt lat="43.44369" lon="3.45189">
        <ele>120</ele>
        <time>2014-10-08T13:39:29.000Z</time>
      </trkpt>
      <trkpt lat="43.44375" lon="3.45185">
        <ele>121</ele>
        <time>2014-10-08T13:39:31.000Z</time>
      </trkpt>
      <trkpt lat="43.44382" lon="3.45181">
        <ele>123</ele>
        <time>2014-10-08T13:39:33.000Z</time>
      </trkpt>
      <trkpt lat="43.44387" lon="3.45177">
        <ele>123</ele>
        <time>2014-10-08T13:39:35.000Z</time>
      </trkpt>
      <trkpt lat="43.44387" lon="3.45177">
        <ele>123</ele>
        <time>2014-10-08T13:39:37.000Z</time>
      </trkpt>
      <trkpt lat="43.44394" lon="3.45169">
        <ele>124</ele>
        <time>2014-10-08T13:39:39.000Z</time>
      </trkpt>
      <trkpt lat="43.44398" lon="3.45164">
        <ele>124</ele>
        <time>2014-10-08T13:39:41.000Z</time>
      </trkpt>
      <trkpt lat="43.44404" lon="3.45158">
        <ele>125</ele>
        <time>2014-10-08T13:39:43.000Z</time>
      </trkpt>
      <trkpt lat="43.44408" lon="3.45151">
        <ele>125</ele>
        <time>2014-10-08T13:39:45.000Z</time>
      </trkpt>
      <trkpt lat="43.44413" lon="3.45145">
        <ele>126</ele>
        <time>2014-10-08T13:39:47.000Z</time>
      </trkpt>
      <trkpt lat="43.44417" lon="3.45137">
        <ele>122</ele>
        <time>2014-10-08T13:39:49.000Z</time>
      </trkpt>
      <trkpt lat="43.4442" lon="3.4513">
        <ele>123</ele>
        <time>2014-10-08T13:39:51.000Z</time>
      </trkpt>
      <trkpt lat="43.4442" lon="3.4513">
        <ele>123</ele>
        <time>2014-10-08T13:39:53.000Z</time>
      </trkpt>
      <trkpt lat="43.44426" lon="3.45121">
        <ele>120</ele>
        <time>2014-10-08T13:39:55.000Z</time>
      </trkpt>
      <trkpt lat="43.44426" lon="3.45121">
        <ele>120</ele>
        <time>2014-10-08T13:39:57.000Z</time>
      </trkpt>
      <trkpt lat="43.44436" lon="3.45118">
        <ele>121</ele>
        <time>2014-10-08T13:39:59.000Z</time>
      </trkpt>
      <trkpt lat="43.44436" lon="3.45118">
        <ele>121</ele>
        <time>2014-10-08T13:40:01.000Z</time>
      </trkpt>
      <trkpt lat="43.44447" lon="3.45119">
        <ele>121</ele>
        <time>2014-10-08T13:40:03.000Z</time>
      </trkpt>
      <trkpt lat="43.44456" lon="3.45116">
        <ele>121</ele>
        <time>2014-10-08T13:40:05.000Z</time>
      </trkpt>
      <trkpt lat="43.44464" lon="3.45111">
        <ele>123</ele>
        <time>2014-10-08T13:40:07.000Z</time>
      </trkpt>
      <trkpt lat="43.44475" lon="3.45106">
        <ele>122</ele>
        <time>2014-10-08T13:40:09.000Z</time>
      </trkpt>
      <trkpt lat="43.44485" lon="3.45101">
        <ele>123</ele>
        <time>2014-10-08T13:40:11.000Z</time>
      </trkpt>
      <trkpt lat="43.44494" lon="3.45097">
        <ele>126</ele>
        <time>2014-10-08T13:40:13.000Z</time>
      </trkpt>
      <trkpt lat="43.44503" lon="3.45089">
        <ele>126</ele>
        <time>2014-10-08T13:40:15.000Z</time>
      </trkpt>
      <trkpt lat="43.44512" lon="3.45081">
        <ele>126</ele>
        <time>2014-10-08T13:40:17.000Z</time>
      </trkpt>
      <trkpt lat="43.44518" lon="3.45081">
        <ele>126</ele>
        <time>2014-10-08T13:40:19.000Z</time>
      </trkpt>
      <trkpt lat="43.44523" lon="3.45076">
        <ele>126</ele>
        <time>2014-10-08T13:40:21.000Z</time>
      </trkpt>
      <trkpt lat="43.44527" lon="3.45068">
        <ele>127</ele>
        <time>2014-10-08T13:40:23.000Z</time>
      </trkpt>
      <trkpt lat="43.44527" lon="3.4506">
        <ele>127</ele>
        <time>2014-10-08T13:40:25.000Z</time>
      </trkpt>
      <trkpt lat="43.44527" lon="3.4506">
        <ele>127</ele>
        <time>2014-10-08T13:40:27.000Z</time>
      </trkpt>
      <trkpt lat="43.44526" lon="3.45045">
        <ele>128</ele>
        <time>2014-10-08T13:40:29.000Z</time>
      </trkpt>
      <trkpt lat="43.4453" lon="3.45038">
        <ele>126</ele>
        <time>2014-10-08T13:40:31.000Z</time>
      </trkpt>
      <trkpt lat="43.44541" lon="3.45031">
        <ele>127</ele>
        <time>2014-10-08T13:40:33.000Z</time>
      </trkpt>
      <trkpt lat="43.44547" lon="3.45028">
        <ele>125</ele>
        <time>2014-10-08T13:40:35.000Z</time>
      </trkpt>
      <trkpt lat="43.44556" lon="3.45027">
        <ele>124</ele>
        <time>2014-10-08T13:40:39.000Z</time>
      </trkpt>
      <trkpt lat="43.44556" lon="3.45027">
        <ele>124</ele>
        <time>2014-10-08T13:40:41.000Z</time>
      </trkpt>
      <trkpt lat="43.44566" lon="3.4503">
        <ele>123</ele>
        <time>2014-10-08T13:40:43.000Z</time>
      </trkpt>
      <trkpt lat="43.44566" lon="3.4503">
        <ele>123</ele>
        <time>2014-10-08T13:40:45.000Z</time>
      </trkpt>
      <trkpt lat="43.44574" lon="3.45031">
        <ele>119</ele>
        <time>2014-10-08T13:40:47.000Z</time>
      </trkpt>
      <trkpt lat="43.44574" lon="3.45031">
        <ele>119</ele>
        <time>2014-10-08T13:40:49.000Z</time>
      </trkpt>
      <trkpt lat="43.44583" lon="3.45036">
        <ele>118</ele>
        <time>2014-10-08T13:40:51.000Z</time>
      </trkpt>
      <trkpt lat="43.44583" lon="3.45036">
        <ele>118</ele>
        <time>2014-10-08T13:40:53.000Z</time>
      </trkpt>
      <trkpt lat="43.44583" lon="3.45036">
        <ele>118</ele>
        <time>2014-10-08T13:40:55.000Z</time>
      </trkpt>
      <trkpt lat="43.44583" lon="3.45036">
        <ele>118</ele>
        <time>2014-10-08T13:40:57.000Z</time>
      </trkpt>
      <trkpt lat="43.44583" lon="3.45036">
        <ele>118</ele>
        <time>2014-10-08T13:40:59.000Z</time>
      </trkpt>
      <trkpt lat="43.44594" lon="3.45033">
        <ele>114</ele>
        <time>2014-10-08T13:41:55.000Z</time>
      </trkpt>
      <trkpt lat="43.44603" lon="3.45033">
        <ele>115</ele>
        <time>2014-10-08T13:41:57.000Z</time>
      </trkpt>
      <trkpt lat="43.44611" lon="3.45034">
        <ele>112</ele>
        <time>2014-10-08T13:41:59.000Z</time>
      </trkpt>
      <trkpt lat="43.44618" lon="3.45035">
        <ele>112</ele>
        <time>2014-10-08T13:42:01.000Z</time>
      </trkpt>
      <trkpt lat="43.44625" lon="3.45034">
        <ele>111</ele>
        <time>2014-10-08T13:42:03.000Z</time>
      </trkpt>
      <trkpt lat="43.44637" lon="3.4503">
        <ele>111</ele>
        <time>2014-10-08T13:42:05.000Z</time>
      </trkpt>
      <trkpt lat="43.44642" lon="3.45026">
        <ele>112</ele>
        <time>2014-10-08T13:42:07.000Z</time>
      </trkpt>
      <trkpt lat="43.44646" lon="3.45019">
        <ele>111</ele>
        <time>2014-10-08T13:42:09.000Z</time>
      </trkpt>
      <trkpt lat="43.44649" lon="3.45009">
        <ele>112</ele>
        <time>2014-10-08T13:42:11.000Z</time>
      </trkpt>
      <trkpt lat="43.44653" lon="3.45">
        <ele>113</ele>
        <time>2014-10-08T13:42:13.000Z</time>
      </trkpt>
      <trkpt lat="43.44658" lon="3.44991">
        <ele>113</ele>
        <time>2014-10-08T13:42:15.000Z</time>
      </trkpt>
      <trkpt lat="43.44661" lon="3.44983">
        <ele>113</ele>
        <time>2014-10-08T13:42:17.000Z</time>
      </trkpt>
      <trkpt lat="43.44665" lon="3.44975">
        <ele>112</ele>
        <time>2014-10-08T13:42:19.000Z</time>
      </trkpt>
      <trkpt lat="43.44669" lon="3.44967">
        <ele>112</ele>
        <time>2014-10-08T13:42:21.000Z</time>
      </trkpt>
      <trkpt lat="43.44672" lon="3.44959">
        <ele>111</ele>
        <time>2014-10-08T13:42:23.000Z</time>
      </trkpt>
      <trkpt lat="43.44676" lon="3.4495">
        <ele>110</ele>
        <time>2014-10-08T13:42:25.000Z</time>
      </trkpt>
      <trkpt lat="43.4468" lon="3.44941">
        <ele>110</ele>
        <time>2014-10-08T13:42:27.000Z</time>
      </trkpt>
      <trkpt lat="43.44683" lon="3.44931">
        <ele>107</ele>
        <time>2014-10-08T13:42:29.000Z</time>
      </trkpt>
      <trkpt lat="43.44683" lon="3.44919">
        <ele>107</ele>
        <time>2014-10-08T13:42:31.000Z</time>
      </trkpt>
      <trkpt lat="43.44679" lon="3.44903">
        <ele>107</ele>
        <time>2014-10-08T13:42:33.000Z</time>
      </trkpt>
      <trkpt lat="43.44679" lon="3.4489">
        <ele>106</ele>
        <time>2014-10-08T13:42:35.000Z</time>
      </trkpt>
      <trkpt lat="43.44682" lon="3.44878">
        <ele>105</ele>
        <time>2014-10-08T13:42:37.000Z</time>
      </trkpt>
      <trkpt lat="43.44686" lon="3.44866">
        <ele>105</ele>
        <time>2014-10-08T13:42:39.000Z</time>
      </trkpt>
      <trkpt lat="43.4469" lon="3.44856">
        <ele>108</ele>
        <time>2014-10-08T13:42:41.000Z</time>
      </trkpt>
      <trkpt lat="43.44696" lon="3.44841">
        <ele>108</ele>
        <time>2014-10-08T13:42:43.000Z</time>
      </trkpt>
      <trkpt lat="43.44701" lon="3.44826">
        <ele>108</ele>
        <time>2014-10-08T13:42:45.000Z</time>
      </trkpt>
      <trkpt lat="43.44705" lon="3.44813">
        <ele>110</ele>
        <time>2014-10-08T13:42:47.000Z</time>
      </trkpt>
      <trkpt lat="43.44708" lon="3.44793">
        <ele>111</ele>
        <time>2014-10-08T13:42:49.000Z</time>
      </trkpt>
      <trkpt lat="43.44712" lon="3.44775">
        <ele>112</ele>
        <time>2014-10-08T13:42:51.000Z</time>
      </trkpt>
      <trkpt lat="43.44716" lon="3.44759">
        <ele>108</ele>
        <time>2014-10-08T13:42:53.000Z</time>
      </trkpt>
      <trkpt lat="43.44722" lon="3.44752">
        <ele>109</ele>
        <time>2014-10-08T13:42:55.000Z</time>
      </trkpt>
      <trkpt lat="43.44724" lon="3.44745">
        <ele>112</ele>
        <time>2014-10-08T13:42:57.000Z</time>
      </trkpt>
      <trkpt lat="43.4473" lon="3.44736">
        <ele>112</ele>
        <time>2014-10-08T13:42:59.000Z</time>
      </trkpt>
      <trkpt lat="43.44733" lon="3.44729">
        <ele>113</ele>
        <time>2014-10-08T13:43:01.000Z</time>
      </trkpt>
      <trkpt lat="43.44737" lon="3.44723">
        <ele>111</ele>
        <time>2014-10-08T13:43:03.000Z</time>
      </trkpt>
      <trkpt lat="43.44737" lon="3.44723">
        <ele>111</ele>
        <time>2014-10-08T13:43:05.000Z</time>
      </trkpt>
      <trkpt lat="43.44742" lon="3.44709">
        <ele>118</ele>
        <time>2014-10-08T13:43:07.000Z</time>
      </trkpt>
      <trkpt lat="43.44742" lon="3.44701">
        <ele>119</ele>
        <time>2014-10-08T13:43:09.000Z</time>
      </trkpt>
      <trkpt lat="43.44742" lon="3.44692">
        <ele>120</ele>
        <time>2014-10-08T13:43:11.000Z</time>
      </trkpt>
      <trkpt lat="43.44743" lon="3.44684">
        <ele>121</ele>
        <time>2014-10-08T13:43:13.000Z</time>
      </trkpt>
      <trkpt lat="43.44743" lon="3.44684">
        <ele>121</ele>
        <time>2014-10-08T13:43:15.000Z</time>
      </trkpt>
      <trkpt lat="43.44749" lon="3.44673">
        <ele>123</ele>
        <time>2014-10-08T13:43:17.000Z</time>
      </trkpt>
      <trkpt lat="43.44749" lon="3.44673">
        <ele>123</ele>
        <time>2014-10-08T13:43:19.000Z</time>
      </trkpt>
      <trkpt lat="43.44752" lon="3.44662">
        <ele>125</ele>
        <time>2014-10-08T13:43:21.000Z</time>
      </trkpt>
      <trkpt lat="43.44752" lon="3.44662">
        <ele>125</ele>
        <time>2014-10-08T13:43:23.000Z</time>
      </trkpt>
      <trkpt lat="43.44754" lon="3.44653">
        <ele>126</ele>
        <time>2014-10-08T13:43:25.000Z</time>
      </trkpt>
      <trkpt lat="43.44754" lon="3.44653">
        <ele>126</ele>
        <time>2014-10-08T13:43:27.000Z</time>
      </trkpt>
      <trkpt lat="43.44754" lon="3.44653">
        <ele>126</ele>
        <time>2014-10-08T13:43:29.000Z</time>
      </trkpt>
      <trkpt lat="43.44756" lon="3.44643">
        <ele>130</ele>
        <time>2014-10-08T13:43:31.000Z</time>
      </trkpt>
      <trkpt lat="43.44756" lon="3.44643">
        <ele>130</ele>
        <time>2014-10-08T13:43:33.000Z</time>
      </trkpt>
      <trkpt lat="43.44758" lon="3.44635">
        <ele>131</ele>
        <time>2014-10-08T13:43:35.000Z</time>
      </trkpt>
      <trkpt lat="43.44758" lon="3.44635">
        <ele>131</ele>
        <time>2014-10-08T13:43:37.000Z</time>
      </trkpt>
      <trkpt lat="43.44762" lon="3.44628">
        <ele>132</ele>
        <time>2014-10-08T13:43:39.000Z</time>
      </trkpt>
      <trkpt lat="43.44772" lon="3.44632">
        <ele>129</ele>
        <time>2014-10-08T13:43:45.000Z</time>
      </trkpt>
      <trkpt lat="43.44772" lon="3.44632">
        <ele>129</ele>
        <time>2014-10-08T13:43:49.000Z</time>
      </trkpt>
      <trkpt lat="43.44772" lon="3.44632">
        <ele>129</ele>
        <time>2014-10-08T13:43:51.000Z</time>
      </trkpt>
      <trkpt lat="43.44772" lon="3.44632">
        <ele>129</ele>
        <time>2014-10-08T13:43:53.000Z</time>
      </trkpt>
      <trkpt lat="43.44772" lon="3.44632">
        <ele>129</ele>
        <time>2014-10-08T13:43:55.000Z</time>
      </trkpt>
      <trkpt lat="43.4477" lon="3.44614">
        <ele>132</ele>
        <time>2014-10-08T13:44:05.000Z</time>
      </trkpt>
      <trkpt lat="43.44774" lon="3.44603">
        <ele>131</ele>
        <time>2014-10-08T13:44:09.000Z</time>
      </trkpt>
      <trkpt lat="43.44773" lon="3.44592">
        <ele>126</ele>
        <time>2014-10-08T13:44:13.000Z</time>
      </trkpt>
      <trkpt lat="43.4477" lon="3.44585">
        <ele>126</ele>
        <time>2014-10-08T13:44:15.000Z</time>
      </trkpt>
      <trkpt lat="43.44765" lon="3.44579">
        <ele>126</ele>
        <time>2014-10-08T13:44:17.000Z</time>
      </trkpt>
      <trkpt lat="43.44756" lon="3.44573">
        <ele>126</ele>
        <time>2014-10-08T13:44:21.000Z</time>
      </trkpt>
      <trkpt lat="43.44754" lon="3.44561">
        <ele>126</ele>
        <time>2014-10-08T13:44:25.000Z</time>
      </trkpt>
      <trkpt lat="43.44758" lon="3.44555">
        <ele>126</ele>
        <time>2014-10-08T13:44:27.000Z</time>
      </trkpt>
      <trkpt lat="43.44766" lon="3.44547">
        <ele>126</ele>
        <time>2014-10-08T13:44:31.000Z</time>
      </trkpt>
      <trkpt lat="43.44769" lon="3.44534">
        <ele>126</ele>
        <time>2014-10-08T13:44:35.000Z</time>
      </trkpt>
      <trkpt lat="43.44769" lon="3.44525">
        <ele>127</ele>
        <time>2014-10-08T13:44:37.000Z</time>
      </trkpt>
      <trkpt lat="43.44769" lon="3.44517">
        <ele>126</ele>
        <time>2014-10-08T13:44:39.000Z</time>
      </trkpt>
      <trkpt lat="43.4477" lon="3.44503">
        <ele>125</ele>
        <time>2014-10-08T13:44:43.000Z</time>
      </trkpt>
      <trkpt lat="43.44772" lon="3.44492">
        <ele>124</ele>
        <time>2014-10-08T13:44:47.000Z</time>
      </trkpt>
      <trkpt lat="43.44772" lon="3.44492">
        <ele>124</ele>
        <time>2014-10-08T13:44:49.000Z</time>
      </trkpt>
      <trkpt lat="43.44771" lon="3.44479">
        <ele>123</ele>
        <time>2014-10-08T13:44:51.000Z</time>
      </trkpt>
      <trkpt lat="43.44772" lon="3.44468">
        <ele>121</ele>
        <time>2014-10-08T13:44:55.000Z</time>
      </trkpt>
      <trkpt lat="43.44774" lon="3.44459">
        <ele>119</ele>
        <time>2014-10-08T13:44:57.000Z</time>
      </trkpt>
      <trkpt lat="43.44776" lon="3.4445">
        <ele>119</ele>
        <time>2014-10-08T13:44:59.000Z</time>
      </trkpt>
      <trkpt lat="43.44777" lon="3.44442">
        <ele>118</ele>
        <time>2014-10-08T13:45:01.000Z</time>
      </trkpt>
      <trkpt lat="43.44776" lon="3.44434">
        <ele>118</ele>
        <time>2014-10-08T13:45:03.000Z</time>
      </trkpt>
      <trkpt lat="43.44776" lon="3.44434">
        <ele>118</ele>
        <time>2014-10-08T13:45:05.000Z</time>
      </trkpt>
      <trkpt lat="43.44776" lon="3.4443">
        <ele>115</ele>
        <time>2014-10-08T13:45:07.000Z</time>
      </trkpt>
      <trkpt lat="43.4478" lon="3.4442">
        <ele>111</ele>
        <time>2014-10-08T13:45:10.000Z</time>
      </trkpt>
      <trkpt lat="43.44784" lon="3.44412">
        <ele>110</ele>
        <time>2014-10-08T13:45:12.000Z</time>
      </trkpt>
      <trkpt lat="43.44788" lon="3.44406">
        <ele>109</ele>
        <time>2014-10-08T13:45:14.000Z</time>
      </trkpt>
      <trkpt lat="43.44793" lon="3.44403">
        <ele>105</ele>
        <time>2014-10-08T13:45:16.000Z</time>
      </trkpt>
      <trkpt lat="43.44803" lon="3.44398">
        <ele>104</ele>
        <time>2014-10-08T13:45:18.000Z</time>
      </trkpt>
      <trkpt lat="43.44803" lon="3.44398">
        <ele>104</ele>
        <time>2014-10-08T13:45:20.000Z</time>
      </trkpt>
      <trkpt lat="43.44807" lon="3.44388">
        <ele>106</ele>
        <time>2014-10-08T13:45:22.000Z</time>
      </trkpt>
      <trkpt lat="43.44807" lon="3.44388">
        <ele>106</ele>
        <time>2014-10-08T13:45:24.000Z</time>
      </trkpt>
      <trkpt lat="43.44814" lon="3.44378">
        <ele>104</ele>
        <time>2014-10-08T13:45:26.000Z</time>
      </trkpt>
      <trkpt lat="43.44819" lon="3.44373">
        <ele>106</ele>
        <time>2014-10-08T13:45:28.000Z</time>
      </trkpt>
      <trkpt lat="43.44819" lon="3.44373">
        <ele>106</ele>
        <time>2014-10-08T13:45:32.000Z</time>
      </trkpt>
      <trkpt lat="43.44819" lon="3.44373">
        <ele>106</ele>
        <time>2014-10-08T13:45:34.000Z</time>
      </trkpt>
      <trkpt lat="43.44819" lon="3.44373">
        <ele>106</ele>
        <time>2014-10-08T13:45:36.000Z</time>
      </trkpt>
      <trkpt lat="43.44819" lon="3.44373">
        <ele>106</ele>
        <time>2014-10-08T13:45:38.000Z</time>
      </trkpt>
      <trkpt lat="43.44835" lon="3.44319">
        <ele>70</ele>
        <time>2014-10-08T13:47:46.000Z</time>
      </trkpt>
      <trkpt lat="43.44835" lon="3.44319">
        <ele>70</ele>
        <time>2014-10-08T13:47:48.000Z</time>
      </trkpt>
      <trkpt lat="43.44846" lon="3.44292">
        <ele>72</ele>
        <time>2014-10-08T13:47:52.000Z</time>
      </trkpt>
      <trkpt lat="43.44854" lon="3.44276">
        <ele>72</ele>
        <time>2014-10-08T13:47:54.000Z</time>
      </trkpt>
      <trkpt lat="43.4486" lon="3.44265">
        <ele>71</ele>
        <time>2014-10-08T13:47:56.000Z</time>
      </trkpt>
      <trkpt lat="43.44865" lon="3.44257">
        <ele>72</ele>
        <time>2014-10-08T13:47:58.000Z</time>
      </trkpt>
      <trkpt lat="43.4487" lon="3.4425">
        <ele>74</ele>
        <time>2014-10-08T13:48:00.000Z</time>
      </trkpt>
      <trkpt lat="43.44875" lon="3.44238">
        <ele>73</ele>
        <time>2014-10-08T13:48:02.000Z</time>
      </trkpt>
      <trkpt lat="43.44875" lon="3.44238">
        <ele>73</ele>
        <time>2014-10-08T13:48:04.000Z</time>
      </trkpt>
      <trkpt lat="43.44872" lon="3.44231">
        <ele>74</ele>
        <time>2014-10-08T13:48:06.000Z</time>
      </trkpt>
      <trkpt lat="43.44872" lon="3.44231">
        <ele>74</ele>
        <time>2014-10-08T13:48:08.000Z</time>
      </trkpt>
      <trkpt lat="43.44868" lon="3.44222">
        <ele>77</ele>
        <time>2014-10-08T13:48:10.000Z</time>
      </trkpt>
      <trkpt lat="43.4486" lon="3.44212">
        <ele>79</ele>
        <time>2014-10-08T13:48:14.000Z</time>
      </trkpt>
      <trkpt lat="43.44852" lon="3.44202">
        <ele>79</ele>
        <time>2014-10-08T13:48:18.000Z</time>
      </trkpt>
      <trkpt lat="43.44847" lon="3.44196">
        <ele>78</ele>
        <time>2014-10-08T13:48:20.000Z</time>
      </trkpt>
      <trkpt lat="43.44842" lon="3.4419">
        <ele>80</ele>
        <time>2014-10-08T13:48:22.000Z</time>
      </trkpt>
      <trkpt lat="43.44837" lon="3.44185">
        <ele>81</ele>
        <time>2014-10-08T13:48:24.000Z</time>
      </trkpt>
      <trkpt lat="43.44827" lon="3.44176">
        <ele>82</ele>
        <time>2014-10-08T13:48:28.000Z</time>
      </trkpt>
      <trkpt lat="43.4482" lon="3.44172">
        <ele>81</ele>
        <time>2014-10-08T13:48:30.000Z</time>
      </trkpt>
      <trkpt lat="43.44812" lon="3.44168">
        <ele>80</ele>
        <time>2014-10-08T13:48:32.000Z</time>
      </trkpt>
      <trkpt lat="43.44804" lon="3.44163">
        <ele>81</ele>
        <time>2014-10-08T13:48:34.000Z</time>
      </trkpt>
      <trkpt lat="43.44797" lon="3.44159">
        <ele>81</ele>
        <time>2014-10-08T13:48:36.000Z</time>
      </trkpt>
      <trkpt lat="43.4479" lon="3.44155">
        <ele>81</ele>
        <time>2014-10-08T13:48:38.000Z</time>
      </trkpt>
      <trkpt lat="43.44781" lon="3.44151">
        <ele>79</ele>
        <time>2014-10-08T13:48:40.000Z</time>
      </trkpt>
      <trkpt lat="43.44773" lon="3.44146">
        <ele>79</ele>
        <time>2014-10-08T13:48:42.000Z</time>
      </trkpt>
      <trkpt lat="43.44764" lon="3.44141">
        <ele>78</ele>
        <time>2014-10-08T13:48:44.000Z</time>
      </trkpt>
      <trkpt lat="43.44757" lon="3.44133">
        <ele>78</ele>
        <time>2014-10-08T13:48:46.000Z</time>
      </trkpt>
      <trkpt lat="43.44748" lon="3.44128">
        <ele>78</ele>
        <time>2014-10-08T13:48:48.000Z</time>
      </trkpt>
      <trkpt lat="43.4474" lon="3.44122">
        <ele>77</ele>
        <time>2014-10-08T13:48:50.000Z</time>
      </trkpt>
      <trkpt lat="43.44734" lon="3.44116">
        <ele>78</ele>
        <time>2014-10-08T13:48:52.000Z</time>
      </trkpt>
      <trkpt lat="43.44726" lon="3.44111">
        <ele>77</ele>
        <time>2014-10-08T13:48:54.000Z</time>
      </trkpt>
      <trkpt lat="43.44718" lon="3.44107">
        <ele>77</ele>
        <time>2014-10-08T13:48:56.000Z</time>
      </trkpt>
      <trkpt lat="43.44711" lon="3.44104">
        <ele>78</ele>
        <time>2014-10-08T13:48:58.000Z</time>
      </trkpt>
      <trkpt lat="43.44703" lon="3.44101">
        <ele>77</ele>
        <time>2014-10-08T13:49:00.000Z</time>
      </trkpt>
      <trkpt lat="43.44695" lon="3.44098">
        <ele>77</ele>
        <time>2014-10-08T13:49:02.000Z</time>
      </trkpt>
      <trkpt lat="43.44688" lon="3.44095">
        <ele>76</ele>
        <time>2014-10-08T13:49:04.000Z</time>
      </trkpt>
      <trkpt lat="43.44679" lon="3.44092">
        <ele>75</ele>
        <time>2014-10-08T13:49:06.000Z</time>
      </trkpt>
      <trkpt lat="43.44671" lon="3.44089">
        <ele>76</ele>
        <time>2014-10-08T13:49:08.000Z</time>
      </trkpt>
      <trkpt lat="43.44664" lon="3.44087">
        <ele>76</ele>
        <time>2014-10-08T13:49:10.000Z</time>
      </trkpt>
      <trkpt lat="43.44656" lon="3.44085">
        <ele>75</ele>
        <time>2014-10-08T13:49:12.000Z</time>
      </trkpt>
      <trkpt lat="43.44648" lon="3.44082">
        <ele>75</ele>
        <time>2014-10-08T13:49:14.000Z</time>
      </trkpt>
      <trkpt lat="43.44641" lon="3.44078">
        <ele>74</ele>
        <time>2014-10-08T13:49:16.000Z</time>
      </trkpt>
      <trkpt lat="43.44641" lon="3.44078">
        <ele>74</ele>
        <time>2014-10-08T13:49:18.000Z</time>
      </trkpt>
      <trkpt lat="43.44641" lon="3.44064">
        <ele>77</ele>
        <time>2014-10-08T13:49:20.000Z</time>
      </trkpt>
      <trkpt lat="43.44646" lon="3.44058">
        <ele>76</ele>
        <time>2014-10-08T13:49:22.000Z</time>
      </trkpt>
      <trkpt lat="43.44653" lon="3.44048">
        <ele>74</ele>
        <time>2014-10-08T13:49:24.000Z</time>
      </trkpt>
      <trkpt lat="43.44662" lon="3.44035">
        <ele>70</ele>
        <time>2014-10-08T13:49:26.000Z</time>
      </trkpt>
      <trkpt lat="43.44669" lon="3.44022">
        <ele>70</ele>
        <time>2014-10-08T13:49:28.000Z</time>
      </trkpt>
      <trkpt lat="43.44675" lon="3.44012">
        <ele>68</ele>
        <time>2014-10-08T13:49:30.000Z</time>
      </trkpt>
      <trkpt lat="43.44682" lon="3.44">
        <ele>67</ele>
        <time>2014-10-08T13:49:32.000Z</time>
      </trkpt>
      <trkpt lat="43.44689" lon="3.43986">
        <ele>69</ele>
        <time>2014-10-08T13:49:34.000Z</time>
      </trkpt>
      <trkpt lat="43.44694" lon="3.43973">
        <ele>69</ele>
        <time>2014-10-08T13:49:36.000Z</time>
      </trkpt>
      <trkpt lat="43.44701" lon="3.43959">
        <ele>70</ele>
        <time>2014-10-08T13:49:38.000Z</time>
      </trkpt>
      <trkpt lat="43.44708" lon="3.43945">
        <ele>70</ele>
        <time>2014-10-08T13:49:40.000Z</time>
      </trkpt>
      <trkpt lat="43.44715" lon="3.43934">
        <ele>71</ele>
        <time>2014-10-08T13:49:42.000Z</time>
      </trkpt>
      <trkpt lat="43.4472" lon="3.43922">
        <ele>71</ele>
        <time>2014-10-08T13:49:44.000Z</time>
      </trkpt>
      <trkpt lat="43.44728" lon="3.43908">
        <ele>75</ele>
        <time>2014-10-08T13:49:46.000Z</time>
      </trkpt>
      <trkpt lat="43.44736" lon="3.43895">
        <ele>75</ele>
        <time>2014-10-08T13:49:48.000Z</time>
      </trkpt>
      <trkpt lat="43.44743" lon="3.43881">
        <ele>75</ele>
        <time>2014-10-08T13:49:50.000Z</time>
      </trkpt>
      <trkpt lat="43.4475" lon="3.43868">
        <ele>73</ele>
        <time>2014-10-08T13:49:52.000Z</time>
      </trkpt>
      <trkpt lat="43.44759" lon="3.43853">
        <ele>71</ele>
        <time>2014-10-08T13:49:54.000Z</time>
      </trkpt>
      <trkpt lat="43.44768" lon="3.43841">
        <ele>72</ele>
        <time>2014-10-08T13:49:56.000Z</time>
      </trkpt>
      <trkpt lat="43.44778" lon="3.43829">
        <ele>74</ele>
        <time>2014-10-08T13:49:58.000Z</time>
      </trkpt>
      <trkpt lat="43.4479" lon="3.43811">
        <ele>73</ele>
        <time>2014-10-08T13:50:00.000Z</time>
      </trkpt>
      <trkpt lat="43.44802" lon="3.43797">
        <ele>73</ele>
        <time>2014-10-08T13:50:02.000Z</time>
      </trkpt>
      <trkpt lat="43.44811" lon="3.43785">
        <ele>74</ele>
        <time>2014-10-08T13:50:04.000Z</time>
      </trkpt>
      <trkpt lat="43.44819" lon="3.43773">
        <ele>77</ele>
        <time>2014-10-08T13:50:06.000Z</time>
      </trkpt>
      <trkpt lat="43.44828" lon="3.43762">
        <ele>75</ele>
        <time>2014-10-08T13:50:08.000Z</time>
      </trkpt>
      <trkpt lat="43.44836" lon="3.43753">
        <ele>76</ele>
        <time>2014-10-08T13:50:10.000Z</time>
      </trkpt>
      <trkpt lat="43.44841" lon="3.43745">
        <ele>75</ele>
        <time>2014-10-08T13:50:12.000Z</time>
      </trkpt>
      <trkpt lat="43.44849" lon="3.43737">
        <ele>74</ele>
        <time>2014-10-08T13:50:14.000Z</time>
      </trkpt>
      <trkpt lat="43.44857" lon="3.43729">
        <ele>74</ele>
        <time>2014-10-08T13:50:16.000Z</time>
      </trkpt>
      <trkpt lat="43.44864" lon="3.43718">
        <ele>72</ele>
        <time>2014-10-08T13:50:18.000Z</time>
      </trkpt>
      <trkpt lat="43.4487" lon="3.43709">
        <ele>72</ele>
        <time>2014-10-08T13:50:20.000Z</time>
      </trkpt>
      <trkpt lat="43.44877" lon="3.43701">
        <ele>73</ele>
        <time>2014-10-08T13:50:22.000Z</time>
      </trkpt>
      <trkpt lat="43.44883" lon="3.43695">
        <ele>74</ele>
        <time>2014-10-08T13:50:24.000Z</time>
      </trkpt>
      <trkpt lat="43.4489" lon="3.43687">
        <ele>75</ele>
        <time>2014-10-08T13:50:26.000Z</time>
      </trkpt>
      <trkpt lat="43.44897" lon="3.43679">
        <ele>75</ele>
        <time>2014-10-08T13:50:28.000Z</time>
      </trkpt>
      <trkpt lat="43.44904" lon="3.43671">
        <ele>74</ele>
        <time>2014-10-08T13:50:30.000Z</time>
      </trkpt>
      <trkpt lat="43.44912" lon="3.43663">
        <ele>72</ele>
        <time>2014-10-08T13:50:32.000Z</time>
      </trkpt>
      <trkpt lat="43.44921" lon="3.43655">
        <ele>71</ele>
        <time>2014-10-08T13:50:34.000Z</time>
      </trkpt>
      <trkpt lat="43.4493" lon="3.43645">
        <ele>71</ele>
        <time>2014-10-08T13:50:36.000Z</time>
      </trkpt>
      <trkpt lat="43.44938" lon="3.43635">
        <ele>71</ele>
        <time>2014-10-08T13:50:38.000Z</time>
      </trkpt>
      <trkpt lat="43.44946" lon="3.43627">
        <ele>71</ele>
        <time>2014-10-08T13:50:40.000Z</time>
      </trkpt>
      <trkpt lat="43.44955" lon="3.43615">
        <ele>72</ele>
        <time>2014-10-08T13:50:42.000Z</time>
      </trkpt>
      <trkpt lat="43.44965" lon="3.43603">
        <ele>73</ele>
        <time>2014-10-08T13:50:44.000Z</time>
      </trkpt>
      <trkpt lat="43.44975" lon="3.43591">
        <ele>74</ele>
        <time>2014-10-08T13:50:46.000Z</time>
      </trkpt>
      <trkpt lat="43.44985" lon="3.4358">
        <ele>76</ele>
        <time>2014-10-08T13:50:48.000Z</time>
      </trkpt>
      <trkpt lat="43.44997" lon="3.43565">
        <ele>76</ele>
        <time>2014-10-08T13:50:50.000Z</time>
      </trkpt>
      <trkpt lat="43.45008" lon="3.4355">
        <ele>75</ele>
        <time>2014-10-08T13:50:52.000Z</time>
      </trkpt>
      <trkpt lat="43.45021" lon="3.43535">
        <ele>75</ele>
        <time>2014-10-08T13:50:54.000Z</time>
      </trkpt>
      <trkpt lat="43.45034" lon="3.43519">
        <ele>74</ele>
        <time>2014-10-08T13:50:56.000Z</time>
      </trkpt>
      <trkpt lat="43.45048" lon="3.43504">
        <ele>74</ele>
        <time>2014-10-08T13:50:58.000Z</time>
      </trkpt>
      <trkpt lat="43.45061" lon="3.43489">
        <ele>73</ele>
        <time>2014-10-08T13:51:00.000Z</time>
      </trkpt>
      <trkpt lat="43.45073" lon="3.43476">
        <ele>74</ele>
        <time>2014-10-08T13:51:02.000Z</time>
      </trkpt>
      <trkpt lat="43.45086" lon="3.43456">
        <ele>70</ele>
        <time>2014-10-08T13:51:04.000Z</time>
      </trkpt>
      <trkpt lat="43.45103" lon="3.43434">
        <ele>72</ele>
        <time>2014-10-08T13:51:07.000Z</time>
      </trkpt>
      <trkpt lat="43.45113" lon="3.43423">
        <ele>72</ele>
        <time>2014-10-08T13:51:09.000Z</time>
      </trkpt>
      <trkpt lat="43.45123" lon="3.43409">
        <ele>75</ele>
        <time>2014-10-08T13:51:11.000Z</time>
      </trkpt>
      <trkpt lat="43.45133" lon="3.43397">
        <ele>72</ele>
        <time>2014-10-08T13:51:13.000Z</time>
      </trkpt>
      <trkpt lat="43.45144" lon="3.4338">
        <ele>68</ele>
        <time>2014-10-08T13:51:15.000Z</time>
      </trkpt>
      <trkpt lat="43.45156" lon="3.43369">
        <ele>69</ele>
        <time>2014-10-08T13:51:17.000Z</time>
      </trkpt>
      <trkpt lat="43.45165" lon="3.43358">
        <ele>70</ele>
        <time>2014-10-08T13:51:19.000Z</time>
      </trkpt>
      <trkpt lat="43.45175" lon="3.43344">
        <ele>71</ele>
        <time>2014-10-08T13:51:21.000Z</time>
      </trkpt>
      <trkpt lat="43.45184" lon="3.4333">
        <ele>68</ele>
        <time>2014-10-08T13:51:23.000Z</time>
      </trkpt>
      <trkpt lat="43.45195" lon="3.43318">
        <ele>70</ele>
        <time>2014-10-08T13:51:25.000Z</time>
      </trkpt>
      <trkpt lat="43.45206" lon="3.43308">
        <ele>69</ele>
        <time>2014-10-08T13:51:27.000Z</time>
      </trkpt>
      <trkpt lat="43.45218" lon="3.43298">
        <ele>69</ele>
        <time>2014-10-08T13:51:29.000Z</time>
      </trkpt>
      <trkpt lat="43.45227" lon="3.4329">
        <ele>70</ele>
        <time>2014-10-08T13:51:31.000Z</time>
      </trkpt>
      <trkpt lat="43.45236" lon="3.4328">
        <ele>70</ele>
        <time>2014-10-08T13:51:33.000Z</time>
      </trkpt>
      <trkpt lat="43.45248" lon="3.43251">
        <ele>65</ele>
        <time>2014-10-08T13:51:36.000Z</time>
      </trkpt>
      <trkpt lat="43.45255" lon="3.43231">
        <ele>67</ele>
        <time>2014-10-08T13:51:39.000Z</time>
      </trkpt>
      <trkpt lat="43.45262" lon="3.43218">
        <ele>70</ele>
        <time>2014-10-08T13:51:41.000Z</time>
      </trkpt>
      <trkpt lat="43.4527" lon="3.43208">
        <ele>72</ele>
        <time>2014-10-08T13:51:43.000Z</time>
      </trkpt>
      <trkpt lat="43.45279" lon="3.43204">
        <ele>74</ele>
        <time>2014-10-08T13:51:45.000Z</time>
      </trkpt>
      <trkpt lat="43.45288" lon="3.43195">
        <ele>72</ele>
        <time>2014-10-08T13:51:47.000Z</time>
      </trkpt>
      <trkpt lat="43.45292" lon="3.43179">
        <ele>72</ele>
        <time>2014-10-08T13:51:49.000Z</time>
      </trkpt>
      <trkpt lat="43.45289" lon="3.43164">
        <ele>73</ele>
        <time>2014-10-08T13:51:51.000Z</time>
      </trkpt>
      <trkpt lat="43.45276" lon="3.43152">
        <ele>73</ele>
        <time>2014-10-08T13:51:53.000Z</time>
      </trkpt>
      <trkpt lat="43.45268" lon="3.43135">
        <ele>72</ele>
        <time>2014-10-08T13:51:55.000Z</time>
      </trkpt>
      <trkpt lat="43.45264" lon="3.43116">
        <ele>73</ele>
        <time>2014-10-08T13:51:57.000Z</time>
      </trkpt>
      <trkpt lat="43.45265" lon="3.43096">
        <ele>70</ele>
        <time>2014-10-08T13:51:59.000Z</time>
      </trkpt>
      <trkpt lat="43.45272" lon="3.43076">
        <ele>72</ele>
        <time>2014-10-08T13:52:01.000Z</time>
      </trkpt>
      <trkpt lat="43.45274" lon="3.43053">
        <ele>72</ele>
        <time>2014-10-08T13:52:03.000Z</time>
      </trkpt>
      <trkpt lat="43.45277" lon="3.43033">
        <ele>72</ele>
        <time>2014-10-08T13:52:05.000Z</time>
      </trkpt>
      <trkpt lat="43.4528" lon="3.43012">
        <ele>71</ele>
        <time>2014-10-08T13:52:07.000Z</time>
      </trkpt>
      <trkpt lat="43.45282" lon="3.42993">
        <ele>71</ele>
        <time>2014-10-08T13:52:09.000Z</time>
      </trkpt>
      <trkpt lat="43.45287" lon="3.42975">
        <ele>71</ele>
        <time>2014-10-08T13:52:11.000Z</time>
      </trkpt>
      <trkpt lat="43.45289" lon="3.4295">
        <ele>71</ele>
        <time>2014-10-08T13:52:13.000Z</time>
      </trkpt>
      <trkpt lat="43.45289" lon="3.42924">
        <ele>69</ele>
        <time>2014-10-08T13:52:15.000Z</time>
      </trkpt>
      <trkpt lat="43.45292" lon="3.42904">
        <ele>70</ele>
        <time>2014-10-08T13:52:17.000Z</time>
      </trkpt>
      <trkpt lat="43.45293" lon="3.42885">
        <ele>71</ele>
        <time>2014-10-08T13:52:19.000Z</time>
      </trkpt>
      <trkpt lat="43.45297" lon="3.42866">
        <ele>71</ele>
        <time>2014-10-08T13:52:21.000Z</time>
      </trkpt>
      <trkpt lat="43.45301" lon="3.42848">
        <ele>69</ele>
        <time>2014-10-08T13:52:23.000Z</time>
      </trkpt>
      <trkpt lat="43.45303" lon="3.42828">
        <ele>70</ele>
        <time>2014-10-08T13:52:25.000Z</time>
      </trkpt>
      <trkpt lat="43.45309" lon="3.42809">
        <ele>68</ele>
        <time>2014-10-08T13:52:27.000Z</time>
      </trkpt>
      <trkpt lat="43.45314" lon="3.42792">
        <ele>68</ele>
        <time>2014-10-08T13:52:29.000Z</time>
      </trkpt>
      <trkpt lat="43.45322" lon="3.42775">
        <ele>70</ele>
        <time>2014-10-08T13:52:31.000Z</time>
      </trkpt>
      <trkpt lat="43.45329" lon="3.42759">
        <ele>69</ele>
        <time>2014-10-08T13:52:33.000Z</time>
      </trkpt>
      <trkpt lat="43.45336" lon="3.42743">
        <ele>70</ele>
        <time>2014-10-08T13:52:35.000Z</time>
      </trkpt>
      <trkpt lat="43.4535" lon="3.42734">
        <ele>72</ele>
        <time>2014-10-08T13:52:37.000Z</time>
      </trkpt>
      <trkpt lat="43.45359" lon="3.42722">
        <ele>72</ele>
        <time>2014-10-08T13:52:39.000Z</time>
      </trkpt>
      <trkpt lat="43.4537" lon="3.42709">
        <ele>73</ele>
        <time>2014-10-08T13:52:41.000Z</time>
      </trkpt>
      <trkpt lat="43.4538" lon="3.42699">
        <ele>74</ele>
        <time>2014-10-08T13:52:43.000Z</time>
      </trkpt>
      <trkpt lat="43.45391" lon="3.42692">
        <ele>73</ele>
        <time>2014-10-08T13:52:45.000Z</time>
      </trkpt>
      <trkpt lat="43.45405" lon="3.42689">
        <ele>74</ele>
        <time>2014-10-08T13:52:47.000Z</time>
      </trkpt>
      <trkpt lat="43.45419" lon="3.42684">
        <ele>76</ele>
        <time>2014-10-08T13:52:49.000Z</time>
      </trkpt>
      <trkpt lat="43.45432" lon="3.42678">
        <ele>77</ele>
        <time>2014-10-08T13:52:51.000Z</time>
      </trkpt>
      <trkpt lat="43.45444" lon="3.4267">
        <ele>74</ele>
        <time>2014-10-08T13:52:53.000Z</time>
      </trkpt>
      <trkpt lat="43.45459" lon="3.42662">
        <ele>73</ele>
        <time>2014-10-08T13:52:55.000Z</time>
      </trkpt>
      <trkpt lat="43.45473" lon="3.42655">
        <ele>75</ele>
        <time>2014-10-08T13:52:57.000Z</time>
      </trkpt>
      <trkpt lat="43.45486" lon="3.4265">
        <ele>76</ele>
        <time>2014-10-08T13:52:59.000Z</time>
      </trkpt>
      <trkpt lat="43.45497" lon="3.42643">
        <ele>76</ele>
        <time>2014-10-08T13:53:01.000Z</time>
      </trkpt>
      <trkpt lat="43.45509" lon="3.42638">
        <ele>77</ele>
        <time>2014-10-08T13:53:03.000Z</time>
      </trkpt>
      <trkpt lat="43.45518" lon="3.42633">
        <ele>76</ele>
        <time>2014-10-08T13:53:05.000Z</time>
      </trkpt>
      <trkpt lat="43.45526" lon="3.42628">
        <ele>78</ele>
        <time>2014-10-08T13:53:07.000Z</time>
      </trkpt>
      <trkpt lat="43.45535" lon="3.42621">
        <ele>76</ele>
        <time>2014-10-08T13:53:09.000Z</time>
      </trkpt>
      <trkpt lat="43.45541" lon="3.42621">
        <ele>76</ele>
        <time>2014-10-08T13:53:11.000Z</time>
      </trkpt>
      <trkpt lat="43.45541" lon="3.42621">
        <ele>76</ele>
        <time>2014-10-08T13:53:13.000Z</time>
      </trkpt>
      <trkpt lat="43.45549" lon="3.42614">
        <ele>78</ele>
        <time>2014-10-08T13:53:15.000Z</time>
      </trkpt>
      <trkpt lat="43.45558" lon="3.42614">
        <ele>76</ele>
        <time>2014-10-08T13:53:17.000Z</time>
      </trkpt>
      <trkpt lat="43.4557" lon="3.42613">
        <ele>76</ele>
        <time>2014-10-08T13:53:19.000Z</time>
      </trkpt>
      <trkpt lat="43.45576" lon="3.42607">
        <ele>75</ele>
        <time>2014-10-08T13:53:21.000Z</time>
      </trkpt>
      <trkpt lat="43.45586" lon="3.42597">
        <ele>77</ele>
        <time>2014-10-08T13:53:23.000Z</time>
      </trkpt>
      <trkpt lat="43.45595" lon="3.42588">
        <ele>78</ele>
        <time>2014-10-08T13:53:25.000Z</time>
      </trkpt>
      <trkpt lat="43.45606" lon="3.42578">
        <ele>78</ele>
        <time>2014-10-08T13:53:27.000Z</time>
      </trkpt>
      <trkpt lat="43.45618" lon="3.42566">
        <ele>78</ele>
        <time>2014-10-08T13:53:29.000Z</time>
      </trkpt>
      <trkpt lat="43.4563" lon="3.42556">
        <ele>76</ele>
        <time>2014-10-08T13:53:31.000Z</time>
      </trkpt>
      <trkpt lat="43.45637" lon="3.42549">
        <ele>77</ele>
        <time>2014-10-08T13:53:33.000Z</time>
      </trkpt>
      <trkpt lat="43.45643" lon="3.42543">
        <ele>75</ele>
        <time>2014-10-08T13:53:35.000Z</time>
      </trkpt>
      <trkpt lat="43.45648" lon="3.42536">
        <ele>75</ele>
        <time>2014-10-08T13:53:37.000Z</time>
      </trkpt>
      <trkpt lat="43.45648" lon="3.42536">
        <ele>75</ele>
        <time>2014-10-08T13:53:39.000Z</time>
      </trkpt>
      <trkpt lat="43.45658" lon="3.42524">
        <ele>77</ele>
        <time>2014-10-08T13:53:41.000Z</time>
      </trkpt>
      <trkpt lat="43.45658" lon="3.42524">
        <ele>77</ele>
        <time>2014-10-08T13:53:43.000Z</time>
      </trkpt>
      <trkpt lat="43.45658" lon="3.4251">
        <ele>77</ele>
        <time>2014-10-08T13:53:45.000Z</time>
      </trkpt>
      <trkpt lat="43.45658" lon="3.4251">
        <ele>77</ele>
        <time>2014-10-08T13:53:47.000Z</time>
      </trkpt>
      <trkpt lat="43.45658" lon="3.4251">
        <ele>77</ele>
        <time>2014-10-08T13:53:49.000Z</time>
      </trkpt>
      <trkpt lat="43.45658" lon="3.4251">
        <ele>77</ele>
        <time>2014-10-08T13:53:51.000Z</time>
      </trkpt>
      <trkpt lat="43.4566" lon="3.42499">
        <ele>70</ele>
        <time>2014-10-08T13:53:53.000Z</time>
      </trkpt>
      <trkpt lat="43.4566" lon="3.42499">
        <ele>70</ele>
        <time>2014-10-08T13:53:55.000Z</time>
      </trkpt>
      <trkpt lat="43.45654" lon="3.42495">
        <ele>74</ele>
        <time>2014-10-08T13:53:57.000Z</time>
      </trkpt>
      <trkpt lat="43.45648" lon="3.42491">
        <ele>73</ele>
        <time>2014-10-08T13:53:59.000Z</time>
      </trkpt>
      <trkpt lat="43.4564" lon="3.42487">
        <ele>74</ele>
        <time>2014-10-08T13:54:01.000Z</time>
      </trkpt>
      <trkpt lat="43.4563" lon="3.42485">
        <ele>73</ele>
        <time>2014-10-08T13:54:03.000Z</time>
      </trkpt>
      <trkpt lat="43.45619" lon="3.42482">
        <ele>72</ele>
        <time>2014-10-08T13:54:05.000Z</time>
      </trkpt>
      <trkpt lat="43.45604" lon="3.42479">
        <ele>76</ele>
        <time>2014-10-08T13:54:07.000Z</time>
      </trkpt>
      <trkpt lat="43.45589" lon="3.42471">
        <ele>76</ele>
        <time>2014-10-08T13:54:10.000Z</time>
      </trkpt>
      <trkpt lat="43.45567" lon="3.42463">
        <ele>75</ele>
        <time>2014-10-08T13:54:13.000Z</time>
      </trkpt>
      <trkpt lat="43.45553" lon="3.42456">
        <ele>74</ele>
        <time>2014-10-08T13:54:15.000Z</time>
      </trkpt>
      <trkpt lat="43.4554" lon="3.42451">
        <ele>74</ele>
        <time>2014-10-08T13:54:17.000Z</time>
      </trkpt>
      <trkpt lat="43.45525" lon="3.42441">
        <ele>74</ele>
        <time>2014-10-08T13:54:19.000Z</time>
      </trkpt>
      <trkpt lat="43.45513" lon="3.42428">
        <ele>71</ele>
        <time>2014-10-08T13:54:21.000Z</time>
      </trkpt>
      <trkpt lat="43.45503" lon="3.42415">
        <ele>70</ele>
        <time>2014-10-08T13:54:23.000Z</time>
      </trkpt>
      <trkpt lat="43.45495" lon="3.42399">
        <ele>72</ele>
        <time>2014-10-08T13:54:25.000Z</time>
      </trkpt>
      <trkpt lat="43.45481" lon="3.42383">
        <ele>69</ele>
        <time>2014-10-08T13:54:27.000Z</time>
      </trkpt>
      <trkpt lat="43.45474" lon="3.42368">
        <ele>69</ele>
        <time>2014-10-08T13:54:29.000Z</time>
      </trkpt>
      <trkpt lat="43.45465" lon="3.42355">
        <ele>71</ele>
        <time>2014-10-08T13:54:31.000Z</time>
      </trkpt>
      <trkpt lat="43.45456" lon="3.4234">
        <ele>72</ele>
        <time>2014-10-08T13:54:33.000Z</time>
      </trkpt>
      <trkpt lat="43.45448" lon="3.42327">
        <ele>73</ele>
        <time>2014-10-08T13:54:35.000Z</time>
      </trkpt>
      <trkpt lat="43.45439" lon="3.42316">
        <ele>70</ele>
        <time>2014-10-08T13:54:37.000Z</time>
      </trkpt>
      <trkpt lat="43.45436" lon="3.42309">
        <ele>73</ele>
        <time>2014-10-08T13:54:39.000Z</time>
      </trkpt>
      <trkpt lat="43.45436" lon="3.42301">
        <ele>78</ele>
        <time>2014-10-08T13:54:41.000Z</time>
      </trkpt>
      <trkpt lat="43.45436" lon="3.42301">
        <ele>78</ele>
        <time>2014-10-08T13:54:43.000Z</time>
      </trkpt>
      <trkpt lat="43.45445" lon="3.42293">
        <ele>77</ele>
        <time>2014-10-08T13:54:45.000Z</time>
      </trkpt>
      <trkpt lat="43.45445" lon="3.42293">
        <ele>77</ele>
        <time>2014-10-08T13:54:47.000Z</time>
      </trkpt>
      <trkpt lat="43.45453" lon="3.42286">
        <ele>81</ele>
        <time>2014-10-08T13:54:49.000Z</time>
      </trkpt>
      <trkpt lat="43.45458" lon="3.42281">
        <ele>82</ele>
        <time>2014-10-08T13:54:51.000Z</time>
      </trkpt>
      <trkpt lat="43.45461" lon="3.42271">
        <ele>81</ele>
        <time>2014-10-08T13:54:53.000Z</time>
      </trkpt>
      <trkpt lat="43.45459" lon="3.42259">
        <ele>81</ele>
        <time>2014-10-08T13:54:55.000Z</time>
      </trkpt>
      <trkpt lat="43.45455" lon="3.42246">
        <ele>81</ele>
        <time>2014-10-08T13:54:57.000Z</time>
      </trkpt>
      <trkpt lat="43.45452" lon="3.42235">
        <ele>84</ele>
        <time>2014-10-08T13:54:59.000Z</time>
      </trkpt>
      <trkpt lat="43.45456" lon="3.42227">
        <ele>86</ele>
        <time>2014-10-08T13:55:01.000Z</time>
      </trkpt>
      <trkpt lat="43.45462" lon="3.42221">
        <ele>92</ele>
        <time>2014-10-08T13:55:03.000Z</time>
      </trkpt>
      <trkpt lat="43.45465" lon="3.42212">
        <ele>87</ele>
        <time>2014-10-08T13:55:05.000Z</time>
      </trkpt>
      <trkpt lat="43.45456" lon="3.42187">
        <ele>87</ele>
        <time>2014-10-08T13:55:08.000Z</time>
      </trkpt>
      <trkpt lat="43.45448" lon="3.42174">
        <ele>85</ele>
        <time>2014-10-08T13:55:10.000Z</time>
      </trkpt>
      <trkpt lat="43.45443" lon="3.42164">
        <ele>85</ele>
        <time>2014-10-08T13:55:12.000Z</time>
      </trkpt>
      <trkpt lat="43.45438" lon="3.42153">
        <ele>87</ele>
        <time>2014-10-08T13:55:14.000Z</time>
      </trkpt>
      <trkpt lat="43.45429" lon="3.42142">
        <ele>85</ele>
        <time>2014-10-08T13:55:16.000Z</time>
      </trkpt>
      <trkpt lat="43.45422" lon="3.42129">
        <ele>83</ele>
        <time>2014-10-08T13:55:18.000Z</time>
      </trkpt>
      <trkpt lat="43.45415" lon="3.42117">
        <ele>86</ele>
        <time>2014-10-08T13:55:20.000Z</time>
      </trkpt>
      <trkpt lat="43.45408" lon="3.42108">
        <ele>86</ele>
        <time>2014-10-08T13:55:22.000Z</time>
      </trkpt>
      <trkpt lat="43.45401" lon="3.42096">
        <ele>89</ele>
        <time>2014-10-08T13:55:24.000Z</time>
      </trkpt>
      <trkpt lat="43.45391" lon="3.42087">
        <ele>87</ele>
        <time>2014-10-08T13:55:26.000Z</time>
      </trkpt>
      <trkpt lat="43.45384" lon="3.42078">
        <ele>89</ele>
        <time>2014-10-08T13:55:28.000Z</time>
      </trkpt>
      <trkpt lat="43.45374" lon="3.42072">
        <ele>88</ele>
        <time>2014-10-08T13:55:30.000Z</time>
      </trkpt>
      <trkpt lat="43.45365" lon="3.42065">
        <ele>88</ele>
        <time>2014-10-08T13:55:32.000Z</time>
      </trkpt>
      <trkpt lat="43.45358" lon="3.42064">
        <ele>89</ele>
        <time>2014-10-08T13:55:34.000Z</time>
      </trkpt>
      <trkpt lat="43.45351" lon="3.42058">
        <ele>89</ele>
        <time>2014-10-08T13:55:36.000Z</time>
      </trkpt>
      <trkpt lat="43.45349" lon="3.42047">
        <ele>89</ele>
        <time>2014-10-08T13:55:38.000Z</time>
      </trkpt>
      <trkpt lat="43.45341" lon="3.42037">
        <ele>85</ele>
        <time>2014-10-08T13:55:40.000Z</time>
      </trkpt>
      <trkpt lat="43.45335" lon="3.42034">
        <ele>85</ele>
        <time>2014-10-08T13:55:42.000Z</time>
      </trkpt>
      <trkpt lat="43.45335" lon="3.42034">
        <ele>85</ele>
        <time>2014-10-08T13:55:44.000Z</time>
      </trkpt>
      <trkpt lat="43.45326" lon="3.42041">
        <ele>82</ele>
        <time>2014-10-08T13:55:46.000Z</time>
      </trkpt>
      <trkpt lat="43.45326" lon="3.42041">
        <ele>82</ele>
        <time>2014-10-08T13:55:48.000Z</time>
      </trkpt>
      <trkpt lat="43.45322" lon="3.42053">
        <ele>79</ele>
        <time>2014-10-08T13:55:50.000Z</time>
      </trkpt>
      <trkpt lat="43.45322" lon="3.42053">
        <ele>79</ele>
        <time>2014-10-08T13:55:52.000Z</time>
      </trkpt>
      <trkpt lat="43.45321" lon="3.42064">
        <ele>78</ele>
        <time>2014-10-08T13:55:55.000Z</time>
      </trkpt>
      <trkpt lat="43.45321" lon="3.42064">
        <ele>78</ele>
        <time>2014-10-08T13:55:56.000Z</time>
      </trkpt>
      <trkpt lat="43.45319" lon="3.42073">
        <ele>75</ele>
        <time>2014-10-08T13:55:58.000Z</time>
      </trkpt>
      <trkpt lat="43.45319" lon="3.42073">
        <ele>75</ele>
        <time>2014-10-08T13:56:00.000Z</time>
      </trkpt>
      <trkpt lat="43.45319" lon="3.42073">
        <ele>75</ele>
        <time>2014-10-08T13:56:02.000Z</time>
      </trkpt>
      <trkpt lat="43.45319" lon="3.42073">
        <ele>75</ele>
        <time>2014-10-08T13:56:04.000Z</time>
      </trkpt>
      <trkpt lat="43.45319" lon="3.42073">
        <ele>75</ele>
        <time>2014-10-08T13:56:06.000Z</time>
      </trkpt>
      <trkpt lat="43.45319" lon="3.42073">
        <ele>75</ele>
        <time>2014-10-08T13:56:07.000Z</time>
      </trkpt>
    </trkseg>
  </trk>
</gpx>